<?xml version="1.0" encoding="UTF-8"?>
<gpx version="1.1" creator="https://www.youtrack.es" xsi:schemaLocation="http://www.topografix.com/GPX/1/1 http://www.topografix.com/GPX/1/1/gpx.xsd http://www.garmin.com/xmlschemas/GpxExtensions/v3 http://www.garmin.com/xmlschemas/GpxExtensionsv3.xsd http://www.garmin.com/xmlschemas/TrackPointExtension/v1 http://www.garmin.com/xmlschemas/TrackPointExtensionv1.xsd" xmlns:gpxtpx="http://www.garmin.com/xmlschemas/TrackPointExtension/v1" xmlns:gpxx="http://www.garmin.com/xmlschemas/GpxExtensions/v3" xmlns:xsi="http://www.w3.org/2001/XMLSchema-instance">
  <metadata>
    <link href="https://www.youtrack.es">
      <text>YouTrack.es</text>
    </link>
    <time>2026-05-10T19:33:27Z</time>
  </metadata>
  <trk>
    <src>https://www.youtrack.es</src>
    <link href="https://www.youtrack.es/ruta/39359-ruta-team-bmw-madrid-2023--molinos-">
      <text>YouTrack.es</text>
    </link>
    <trkseg>
      <trkpt lat="40.368473" lon="-4.305356">
        <ele>525.211</ele>
        <time>2022-12-18T21:42:20Z</time>
      </trkpt>
      <trkpt lat="40.368117" lon="-4.305772">
        <ele>526.221</ele>
        <time>2022-12-18T21:43:00Z</time>
      </trkpt>
      <trkpt lat="40.367940" lon="-4.305938">
        <ele>532.903</ele>
        <time>2022-12-18T21:43:40Z</time>
      </trkpt>
      <trkpt lat="40.367772" lon="-4.305895">
        <ele>533.109</ele>
        <time>2022-12-18T21:44:20Z</time>
      </trkpt>
      <trkpt lat="40.367443" lon="-4.305919">
        <ele>531.942</ele>
        <time>2022-12-18T21:45:00Z</time>
      </trkpt>
      <trkpt lat="40.366994" lon="-4.306442">
        <ele>530.653</ele>
        <time>2022-12-18T21:45:40Z</time>
      </trkpt>
      <trkpt lat="40.366740" lon="-4.307590">
        <ele>530.472</ele>
        <time>2022-12-18T21:46:20Z</time>
      </trkpt>
      <trkpt lat="40.366722" lon="-4.308084">
        <ele>530.436</ele>
        <time>2022-12-18T21:47:00Z</time>
      </trkpt>
      <trkpt lat="40.366758" lon="-4.309079">
        <ele>531.884</ele>
        <time>2022-12-18T21:47:40Z</time>
      </trkpt>
      <trkpt lat="40.366673" lon="-4.309739">
        <ele>530.362</ele>
        <time>2022-12-18T21:48:20Z</time>
      </trkpt>
      <trkpt lat="40.366597" lon="-4.310519">
        <ele>538.050</ele>
        <time>2022-12-18T21:49:00Z</time>
      </trkpt>
      <trkpt lat="40.366583" lon="-4.311080">
        <ele>540.182</ele>
        <time>2022-12-18T21:49:40Z</time>
      </trkpt>
      <trkpt lat="40.366356" lon="-4.311573">
        <ele>540.389</ele>
        <time>2022-12-18T21:50:20Z</time>
      </trkpt>
      <trkpt lat="40.365896" lon="-4.312405">
        <ele>541.392</ele>
        <time>2022-12-18T21:51:00Z</time>
      </trkpt>
      <trkpt lat="40.365731" lon="-4.312930">
        <ele>540.373</ele>
        <time>2022-12-18T21:51:40Z</time>
      </trkpt>
      <trkpt lat="40.365661" lon="-4.313322">
        <ele>540.020</ele>
        <time>2022-12-18T21:52:20Z</time>
      </trkpt>
      <trkpt lat="40.365473" lon="-4.313488">
        <ele>540.109</ele>
        <time>2022-12-18T21:53:00Z</time>
      </trkpt>
      <trkpt lat="40.365258" lon="-4.313520">
        <ele>540.580</ele>
        <time>2022-12-18T21:53:40Z</time>
      </trkpt>
      <trkpt lat="40.365148" lon="-4.313429">
        <ele>541.821</ele>
        <time>2022-12-18T21:54:20Z</time>
      </trkpt>
      <trkpt lat="40.364997" lon="-4.313161">
        <ele>543.650</ele>
        <time>2022-12-18T21:55:00Z</time>
      </trkpt>
      <trkpt lat="40.364919" lon="-4.312938">
        <ele>544.724</ele>
        <time>2022-12-18T21:55:40Z</time>
      </trkpt>
      <trkpt lat="40.364633" lon="-4.312678">
        <ele>546.792</ele>
        <time>2022-12-18T21:56:20Z</time>
      </trkpt>
      <trkpt lat="40.363953" lon="-4.312316">
        <ele>548.920</ele>
        <time>2022-12-18T21:57:00Z</time>
      </trkpt>
      <trkpt lat="40.363260" lon="-4.312128">
        <ele>555.448</ele>
        <time>2022-12-18T21:57:40Z</time>
      </trkpt>
      <trkpt lat="40.362685" lon="-4.312080">
        <ele>559.010</ele>
        <time>2022-12-18T21:58:20Z</time>
      </trkpt>
      <trkpt lat="40.362179" lon="-4.312118">
        <ele>561.187</ele>
        <time>2022-12-18T21:59:00Z</time>
      </trkpt>
      <trkpt lat="40.361837" lon="-4.312204">
        <ele>562.992</ele>
        <time>2022-12-18T21:59:40Z</time>
      </trkpt>
      <trkpt lat="40.360834" lon="-4.312684">
        <ele>569.073</ele>
        <time>2022-12-18T22:00:20Z</time>
      </trkpt>
      <trkpt lat="40.359855" lon="-4.313614">
        <ele>571.120</ele>
        <time>2022-12-18T22:01:00Z</time>
      </trkpt>
      <trkpt lat="40.358539" lon="-4.314955">
        <ele>576.709</ele>
        <time>2022-12-18T22:01:40Z</time>
      </trkpt>
      <trkpt lat="40.357190" lon="-4.316404">
        <ele>569.050</ele>
        <time>2022-12-18T22:02:20Z</time>
      </trkpt>
      <trkpt lat="40.356642" lon="-4.317048">
        <ele>573.551</ele>
        <time>2022-12-18T22:03:00Z</time>
      </trkpt>
      <trkpt lat="40.355644" lon="-4.318727">
        <ele>578.380</ele>
        <time>2022-12-18T22:03:40Z</time>
      </trkpt>
      <trkpt lat="40.355311" lon="-4.319673">
        <ele>577.834</ele>
        <time>2022-12-18T22:04:20Z</time>
      </trkpt>
      <trkpt lat="40.354898" lon="-4.321640">
        <ele>578.742</ele>
        <time>2022-12-18T22:05:00Z</time>
      </trkpt>
      <trkpt lat="40.354823" lon="-4.322914">
        <ele>579.340</ele>
        <time>2022-12-18T22:05:40Z</time>
      </trkpt>
      <trkpt lat="40.354962" lon="-4.324909">
        <ele>576.278</ele>
        <time>2022-12-18T22:06:20Z</time>
      </trkpt>
      <trkpt lat="40.355072" lon="-4.326028">
        <ele>576.330</ele>
        <time>2022-12-18T22:07:00Z</time>
      </trkpt>
      <trkpt lat="40.355035" lon="-4.327098">
        <ele>577.827</ele>
        <time>2022-12-18T22:07:40Z</time>
      </trkpt>
      <trkpt lat="40.354757" lon="-4.328562">
        <ele>575.856</ele>
        <time>2022-12-18T22:08:20Z</time>
      </trkpt>
      <trkpt lat="40.354318" lon="-4.329624">
        <ele>579.659</ele>
        <time>2022-12-18T22:09:00Z</time>
      </trkpt>
      <trkpt lat="40.353746" lon="-4.330461">
        <ele>579.814</ele>
        <time>2022-12-18T22:09:40Z</time>
      </trkpt>
      <trkpt lat="40.353235" lon="-4.331008">
        <ele>580.309</ele>
        <time>2022-12-18T22:10:20Z</time>
      </trkpt>
      <trkpt lat="40.352450" lon="-4.331663">
        <ele>588.266</ele>
        <time>2022-12-18T22:11:00Z</time>
      </trkpt>
      <trkpt lat="40.351881" lon="-4.332135">
        <ele>589.847</ele>
        <time>2022-12-18T22:11:40Z</time>
      </trkpt>
      <trkpt lat="40.351276" lon="-4.332733">
        <ele>593.666</ele>
        <time>2022-12-18T22:12:20Z</time>
      </trkpt>
      <trkpt lat="40.350786" lon="-4.333404">
        <ele>595.590</ele>
        <time>2022-12-18T22:13:00Z</time>
      </trkpt>
      <trkpt lat="40.350173" lon="-4.334528">
        <ele>606.878</ele>
        <time>2022-12-18T22:13:40Z</time>
      </trkpt>
      <trkpt lat="40.349760" lon="-4.335600">
        <ele>609.726</ele>
        <time>2022-12-18T22:14:20Z</time>
      </trkpt>
      <trkpt lat="40.349563" lon="-4.336389">
        <ele>610.034</ele>
        <time>2022-12-18T22:15:00Z</time>
      </trkpt>
      <trkpt lat="40.349388" lon="-4.337803">
        <ele>621.486</ele>
        <time>2022-12-18T22:15:40Z</time>
      </trkpt>
      <trkpt lat="40.349341" lon="-4.338851">
        <ele>627.313</ele>
        <time>2022-12-18T22:16:20Z</time>
      </trkpt>
      <trkpt lat="40.349567" lon="-4.340404">
        <ele>627.456</ele>
        <time>2022-12-18T22:17:00Z</time>
      </trkpt>
      <trkpt lat="40.349833" lon="-4.341389">
        <ele>626.259</ele>
        <time>2022-12-18T22:17:40Z</time>
      </trkpt>
      <trkpt lat="40.350520" lon="-4.342915">
        <ele>622.614</ele>
        <time>2022-12-18T22:18:20Z</time>
      </trkpt>
      <trkpt lat="40.351342" lon="-4.344079">
        <ele>618.009</ele>
        <time>2022-12-18T22:19:00Z</time>
      </trkpt>
      <trkpt lat="40.351920" lon="-4.344589">
        <ele>615.226</ele>
        <time>2022-12-18T22:19:40Z</time>
      </trkpt>
      <trkpt lat="40.352378" lon="-4.344621">
        <ele>609.537</ele>
        <time>2022-12-18T22:20:20Z</time>
      </trkpt>
      <trkpt lat="40.352542" lon="-4.345090">
        <ele>607.036</ele>
        <time>2022-12-18T22:21:00Z</time>
      </trkpt>
      <trkpt lat="40.353459" lon="-4.346874">
        <ele>595.770</ele>
        <time>2022-12-18T22:21:40Z</time>
      </trkpt>
      <trkpt lat="40.353950" lon="-4.347872">
        <ele>598.858</ele>
        <time>2022-12-18T22:22:20Z</time>
      </trkpt>
      <trkpt lat="40.355097" lon="-4.350326">
        <ele>593.636</ele>
        <time>2022-12-18T22:23:00Z</time>
      </trkpt>
      <trkpt lat="40.356135" lon="-4.352818">
        <ele>584.934</ele>
        <time>2022-12-18T22:23:40Z</time>
      </trkpt>
      <trkpt lat="40.356699" lon="-4.355596">
        <ele>587.916</ele>
        <time>2022-12-18T22:24:20Z</time>
      </trkpt>
      <trkpt lat="40.357026" lon="-4.358493">
        <ele>590.483</ele>
        <time>2022-12-18T22:25:00Z</time>
      </trkpt>
      <trkpt lat="40.357206" lon="-4.361358">
        <ele>591.267</ele>
        <time>2022-12-18T22:25:40Z</time>
      </trkpt>
      <trkpt lat="40.357132" lon="-4.362205">
        <ele>590.781</ele>
        <time>2022-12-18T22:26:20Z</time>
      </trkpt>
      <trkpt lat="40.357067" lon="-4.364372">
        <ele>593.119</ele>
        <time>2022-12-18T22:27:00Z</time>
      </trkpt>
      <trkpt lat="40.356993" lon="-4.367108">
        <ele>599.209</ele>
        <time>2022-12-18T22:27:40Z</time>
      </trkpt>
      <trkpt lat="40.356977" lon="-4.369866">
        <ele>614.267</ele>
        <time>2022-12-18T22:28:20Z</time>
      </trkpt>
      <trkpt lat="40.357181" lon="-4.372548">
        <ele>612.978</ele>
        <time>2022-12-18T22:29:00Z</time>
      </trkpt>
      <trkpt lat="40.357443" lon="-4.375187">
        <ele>612.247</ele>
        <time>2022-12-18T22:29:40Z</time>
      </trkpt>
      <trkpt lat="40.357672" lon="-4.377687">
        <ele>615.061</ele>
        <time>2022-12-18T22:30:20Z</time>
      </trkpt>
      <trkpt lat="40.357885" lon="-4.380423">
        <ele>616.879</ele>
        <time>2022-12-18T22:31:00Z</time>
      </trkpt>
      <trkpt lat="40.358048" lon="-4.383298">
        <ele>618.947</ele>
        <time>2022-12-18T22:31:40Z</time>
      </trkpt>
      <trkpt lat="40.357549" lon="-4.384435">
        <ele>620.095</ele>
        <time>2022-12-18T22:32:20Z</time>
      </trkpt>
      <trkpt lat="40.357296" lon="-4.385111">
        <ele>621.067</ele>
        <time>2022-12-18T22:33:00Z</time>
      </trkpt>
      <trkpt lat="40.357288" lon="-4.386345">
        <ele>624.974</ele>
        <time>2022-12-18T22:33:40Z</time>
      </trkpt>
      <trkpt lat="40.357598" lon="-4.387933">
        <ele>627.995</ele>
        <time>2022-12-18T22:34:20Z</time>
      </trkpt>
      <trkpt lat="40.357958" lon="-4.389875">
        <ele>629.649</ele>
        <time>2022-12-18T22:35:00Z</time>
      </trkpt>
      <trkpt lat="40.358163" lon="-4.390765">
        <ele>630.023</ele>
        <time>2022-12-18T22:35:40Z</time>
      </trkpt>
      <trkpt lat="40.357786" lon="-4.391323">
        <ele>630.509</ele>
        <time>2022-12-18T22:36:20Z</time>
      </trkpt>
      <trkpt lat="40.357574" lon="-4.392546">
        <ele>633.980</ele>
        <time>2022-12-18T22:37:00Z</time>
      </trkpt>
      <trkpt lat="40.357312" lon="-4.394660">
        <ele>641.791</ele>
        <time>2022-12-18T22:37:40Z</time>
      </trkpt>
      <trkpt lat="40.356863" lon="-4.395872">
        <ele>649.410</ele>
        <time>2022-12-18T22:38:20Z</time>
      </trkpt>
      <trkpt lat="40.356536" lon="-4.396999">
        <ele>651.634</ele>
        <time>2022-12-18T22:39:00Z</time>
      </trkpt>
      <trkpt lat="40.356405" lon="-4.398437">
        <ele>652.922</ele>
        <time>2022-12-18T22:39:40Z</time>
      </trkpt>
      <trkpt lat="40.356356" lon="-4.400260">
        <ele>651.120</ele>
        <time>2022-12-18T22:40:20Z</time>
      </trkpt>
      <trkpt lat="40.356356" lon="-4.401999">
        <ele>654.018</ele>
        <time>2022-12-18T22:41:00Z</time>
      </trkpt>
      <trkpt lat="40.356715" lon="-4.403683">
        <ele>662.230</ele>
        <time>2022-12-18T22:41:40Z</time>
      </trkpt>
      <trkpt lat="40.357100" lon="-4.405496">
        <ele>669.137</ele>
        <time>2022-12-18T22:42:20Z</time>
      </trkpt>
      <trkpt lat="40.357320" lon="-4.407266">
        <ele>676.878</ele>
        <time>2022-12-18T22:43:00Z</time>
      </trkpt>
      <trkpt lat="40.358001" lon="-4.408814">
        <ele>680.733</ele>
        <time>2022-12-18T22:43:40Z</time>
      </trkpt>
      <trkpt lat="40.358269" lon="-4.409552">
        <ele>681.226</ele>
        <time>2022-12-18T22:44:20Z</time>
      </trkpt>
      <trkpt lat="40.358500" lon="-4.409997">
        <ele>681.409</ele>
        <time>2022-12-18T22:45:00Z</time>
      </trkpt>
      <trkpt lat="40.358720" lon="-4.410378">
        <ele>681.428</ele>
        <time>2022-12-18T22:45:40Z</time>
      </trkpt>
      <trkpt lat="40.358598" lon="-4.410681">
        <ele>682.029</ele>
        <time>2022-12-18T22:46:20Z</time>
      </trkpt>
      <trkpt lat="40.358471" lon="-4.411051">
        <ele>682.988</ele>
        <time>2022-12-18T22:47:00Z</time>
      </trkpt>
      <trkpt lat="40.358471" lon="-4.412346">
        <ele>685.252</ele>
        <time>2022-12-18T22:47:40Z</time>
      </trkpt>
      <trkpt lat="40.358383" lon="-4.413564">
        <ele>687.010</ele>
        <time>2022-12-18T22:48:20Z</time>
      </trkpt>
      <trkpt lat="40.357827" lon="-4.415570">
        <ele>683.038</ele>
        <time>2022-12-18T22:49:00Z</time>
      </trkpt>
      <trkpt lat="40.357386" lon="-4.417394">
        <ele>678.626</ele>
        <time>2022-12-18T22:49:40Z</time>
      </trkpt>
      <trkpt lat="40.356666" lon="-4.419669">
        <ele>682.018</ele>
        <time>2022-12-18T22:50:20Z</time>
      </trkpt>
      <trkpt lat="40.356429" lon="-4.422469">
        <ele>681.835</ele>
        <time>2022-12-18T22:51:00Z</time>
      </trkpt>
      <trkpt lat="40.356405" lon="-4.425119">
        <ele>682.989</ele>
        <time>2022-12-18T22:51:40Z</time>
      </trkpt>
      <trkpt lat="40.356143" lon="-4.426364">
        <ele>685.706</ele>
        <time>2022-12-18T22:52:20Z</time>
      </trkpt>
      <trkpt lat="40.355685" lon="-4.428724">
        <ele>681.926</ele>
        <time>2022-12-18T22:53:00Z</time>
      </trkpt>
      <trkpt lat="40.354900" lon="-4.431353">
        <ele>674.309</ele>
        <time>2022-12-18T22:53:40Z</time>
      </trkpt>
      <trkpt lat="40.353927" lon="-4.433874">
        <ele>667.049</ele>
        <time>2022-12-18T22:54:20Z</time>
      </trkpt>
      <trkpt lat="40.352873" lon="-4.436449">
        <ele>660.830</ele>
        <time>2022-12-18T22:55:00Z</time>
      </trkpt>
      <trkpt lat="40.352260" lon="-4.438401">
        <ele>649.779</ele>
        <time>2022-12-18T22:55:40Z</time>
      </trkpt>
      <trkpt lat="40.350624" lon="-4.440258">
        <ele>649.083</ele>
        <time>2022-12-18T22:56:20Z</time>
      </trkpt>
      <trkpt lat="40.349193" lon="-4.441878">
        <ele>654.071</ele>
        <time>2022-12-18T22:57:00Z</time>
      </trkpt>
      <trkpt lat="40.348703" lon="-4.442317">
        <ele>654.699</ele>
        <time>2022-12-18T22:57:40Z</time>
      </trkpt>
      <trkpt lat="40.348171" lon="-4.442425">
        <ele>655.437</ele>
        <time>2022-12-18T22:58:20Z</time>
      </trkpt>
      <trkpt lat="40.346242" lon="-4.443090">
        <ele>660.029</ele>
        <time>2022-12-18T22:59:00Z</time>
      </trkpt>
      <trkpt lat="40.345947" lon="-4.443626">
        <ele>660.046</ele>
        <time>2022-12-18T22:59:40Z</time>
      </trkpt>
      <trkpt lat="40.345530" lon="-4.445525">
        <ele>660.033</ele>
        <time>2022-12-18T23:00:20Z</time>
      </trkpt>
      <trkpt lat="40.344999" lon="-4.447886">
        <ele>660.023</ele>
        <time>2022-12-18T23:01:00Z</time>
      </trkpt>
      <trkpt lat="40.344238" lon="-4.450600">
        <ele>660.015</ele>
        <time>2022-12-18T23:01:40Z</time>
      </trkpt>
      <trkpt lat="40.343445" lon="-4.453272">
        <ele>660.609</ele>
        <time>2022-12-18T23:02:20Z</time>
      </trkpt>
      <trkpt lat="40.342398" lon="-4.455718">
        <ele>666.414</ele>
        <time>2022-12-18T23:03:00Z</time>
      </trkpt>
      <trkpt lat="40.341540" lon="-4.457767">
        <ele>667.075</ele>
        <time>2022-12-18T23:03:40Z</time>
      </trkpt>
      <trkpt lat="40.340640" lon="-4.459462">
        <ele>669.794</ele>
        <time>2022-12-18T23:04:20Z</time>
      </trkpt>
      <trkpt lat="40.338964" lon="-4.461222">
        <ele>670.038</ele>
        <time>2022-12-18T23:05:00Z</time>
      </trkpt>
      <trkpt lat="40.337672" lon="-4.461855">
        <ele>670.086</ele>
        <time>2022-12-18T23:05:40Z</time>
      </trkpt>
      <trkpt lat="40.336330" lon="-4.462874">
        <ele>670.014</ele>
        <time>2022-12-18T23:06:20Z</time>
      </trkpt>
      <trkpt lat="40.335488" lon="-4.464537">
        <ele>670.092</ele>
        <time>2022-12-18T23:07:00Z</time>
      </trkpt>
      <trkpt lat="40.334531" lon="-4.466715">
        <ele>670.024</ele>
        <time>2022-12-18T23:07:40Z</time>
      </trkpt>
      <trkpt lat="40.333059" lon="-4.468668">
        <ele>677.521</ele>
        <time>2022-12-18T23:08:20Z</time>
      </trkpt>
      <trkpt lat="40.331481" lon="-4.470599">
        <ele>675.852</ele>
        <time>2022-12-18T23:09:00Z</time>
      </trkpt>
      <trkpt lat="40.329968" lon="-4.472648">
        <ele>679.353</ele>
        <time>2022-12-18T23:09:40Z</time>
      </trkpt>
      <trkpt lat="40.328348" lon="-4.474547">
        <ele>680.008</ele>
        <time>2022-12-18T23:10:20Z</time>
      </trkpt>
      <trkpt lat="40.326941" lon="-4.476660">
        <ele>684.109</ele>
        <time>2022-12-18T23:11:00Z</time>
      </trkpt>
      <trkpt lat="40.326320" lon="-4.477948">
        <ele>683.556</ele>
        <time>2022-12-18T23:11:40Z</time>
      </trkpt>
      <trkpt lat="40.325224" lon="-4.478924">
        <ele>686.357</ele>
        <time>2022-12-18T23:12:20Z</time>
      </trkpt>
      <trkpt lat="40.323874" lon="-4.481156">
        <ele>691.166</ele>
        <time>2022-12-18T23:13:00Z</time>
      </trkpt>
      <trkpt lat="40.322892" lon="-4.483699">
        <ele>695.430</ele>
        <time>2022-12-18T23:13:40Z</time>
      </trkpt>
      <trkpt lat="40.322017" lon="-4.485737">
        <ele>693.918</ele>
        <time>2022-12-18T23:14:20Z</time>
      </trkpt>
      <trkpt lat="40.320847" lon="-4.488012">
        <ele>690.416</ele>
        <time>2022-12-18T23:15:00Z</time>
      </trkpt>
      <trkpt lat="40.319817" lon="-4.490576">
        <ele>693.594</ele>
        <time>2022-12-18T23:15:40Z</time>
      </trkpt>
      <trkpt lat="40.318565" lon="-4.492786">
        <ele>695.946</ele>
        <time>2022-12-18T23:16:20Z</time>
      </trkpt>
      <trkpt lat="40.317215" lon="-4.495018">
        <ele>704.063</ele>
        <time>2022-12-18T23:17:00Z</time>
      </trkpt>
      <trkpt lat="40.315939" lon="-4.497378">
        <ele>701.368</ele>
        <time>2022-12-18T23:17:40Z</time>
      </trkpt>
      <trkpt lat="40.314377" lon="-4.499320">
        <ele>714.642</ele>
        <time>2022-12-18T23:18:20Z</time>
      </trkpt>
      <trkpt lat="40.313395" lon="-4.500865">
        <ele>728.426</ele>
        <time>2022-12-18T23:19:00Z</time>
      </trkpt>
      <trkpt lat="40.312847" lon="-4.503665">
        <ele>740.909</ele>
        <time>2022-12-18T23:19:40Z</time>
      </trkpt>
      <trkpt lat="40.312397" lon="-4.506487">
        <ele>741.177</ele>
        <time>2022-12-18T23:20:20Z</time>
      </trkpt>
      <trkpt lat="40.311808" lon="-4.509158">
        <ele>746.018</ele>
        <time>2022-12-18T23:21:00Z</time>
      </trkpt>
      <trkpt lat="40.311129" lon="-4.511733">
        <ele>759.227</ele>
        <time>2022-12-18T23:21:40Z</time>
      </trkpt>
      <trkpt lat="40.310802" lon="-4.513578">
        <ele>768.341</ele>
        <time>2022-12-18T23:22:20Z</time>
      </trkpt>
      <trkpt lat="40.310695" lon="-4.515370">
        <ele>770.099</ele>
        <time>2022-12-18T23:23:00Z</time>
      </trkpt>
      <trkpt lat="40.310303" lon="-4.516894">
        <ele>779.817</ele>
        <time>2022-12-18T23:23:40Z</time>
      </trkpt>
      <trkpt lat="40.310180" lon="-4.517452">
        <ele>781.825</ele>
        <time>2022-12-18T23:24:20Z</time>
      </trkpt>
      <trkpt lat="40.310078" lon="-4.517921">
        <ele>783.127</ele>
        <time>2022-12-18T23:25:00Z</time>
      </trkpt>
      <trkpt lat="40.310102" lon="-4.518200">
        <ele>784.284</ele>
        <time>2022-12-18T23:25:40Z</time>
      </trkpt>
      <trkpt lat="40.310006" lon="-4.518468">
        <ele>782.294</ele>
        <time>2022-12-18T23:26:20Z</time>
      </trkpt>
      <trkpt lat="40.309875" lon="-4.519300">
        <ele>777.257</ele>
        <time>2022-12-18T23:27:00Z</time>
      </trkpt>
      <trkpt lat="40.309873" lon="-4.520061">
        <ele>776.422</ele>
        <time>2022-12-18T23:27:40Z</time>
      </trkpt>
      <trkpt lat="40.309996" lon="-4.520759">
        <ele>774.509</ele>
        <time>2022-12-18T23:28:20Z</time>
      </trkpt>
      <trkpt lat="40.310253" lon="-4.521137">
        <ele>776.330</ele>
        <time>2022-12-18T23:29:00Z</time>
      </trkpt>
      <trkpt lat="40.310793" lon="-4.521410">
        <ele>779.371</ele>
        <time>2022-12-18T23:29:40Z</time>
      </trkpt>
      <trkpt lat="40.311505" lon="-4.521539">
        <ele>783.960</ele>
        <time>2022-12-18T23:30:20Z</time>
      </trkpt>
      <trkpt lat="40.312462" lon="-4.521089">
        <ele>790.064</ele>
        <time>2022-12-18T23:31:00Z</time>
      </trkpt>
      <trkpt lat="40.312929" lon="-4.521346">
        <ele>793.962</ele>
        <time>2022-12-18T23:31:40Z</time>
      </trkpt>
      <trkpt lat="40.312978" lon="-4.522644">
        <ele>798.460</ele>
        <time>2022-12-18T23:32:20Z</time>
      </trkpt>
      <trkpt lat="40.313330" lon="-4.523696">
        <ele>808.268</ele>
        <time>2022-12-18T23:33:00Z</time>
      </trkpt>
      <trkpt lat="40.313346" lon="-4.524350">
        <ele>811.550</ele>
        <time>2022-12-18T23:33:40Z</time>
      </trkpt>
      <trkpt lat="40.313305" lon="-4.524876">
        <ele>815.347</ele>
        <time>2022-12-18T23:34:20Z</time>
      </trkpt>
      <trkpt lat="40.313839" lon="-4.525922">
        <ele>823.451</ele>
        <time>2022-12-18T23:35:00Z</time>
      </trkpt>
      <trkpt lat="40.314428" lon="-4.527526">
        <ele>836.701</ele>
        <time>2022-12-18T23:35:40Z</time>
      </trkpt>
      <trkpt lat="40.315236" lon="-4.529693">
        <ele>842.711</ele>
        <time>2022-12-18T23:36:20Z</time>
      </trkpt>
      <trkpt lat="40.315367" lon="-4.531163">
        <ele>856.909</ele>
        <time>2022-12-18T23:37:00Z</time>
      </trkpt>
      <trkpt lat="40.316307" lon="-4.533373">
        <ele>881.196</ele>
        <time>2022-12-18T23:37:40Z</time>
      </trkpt>
      <trkpt lat="40.317084" lon="-4.533963">
        <ele>874.817</ele>
        <time>2022-12-18T23:38:20Z</time>
      </trkpt>
      <trkpt lat="40.317420" lon="-4.535916">
        <ele>889.056</ele>
        <time>2022-12-18T23:39:00Z</time>
      </trkpt>
      <trkpt lat="40.318172" lon="-4.537472">
        <ele>898.570</ele>
        <time>2022-12-18T23:39:40Z</time>
      </trkpt>
      <trkpt lat="40.318598" lon="-4.539907">
        <ele>907.568</ele>
        <time>2022-12-18T23:40:20Z</time>
      </trkpt>
      <trkpt lat="40.318410" lon="-4.540358">
        <ele>908.256</ele>
        <time>2022-12-18T23:41:00Z</time>
      </trkpt>
      <trkpt lat="40.317583" lon="-4.541559">
        <ele>911.574</ele>
        <time>2022-12-18T23:41:40Z</time>
      </trkpt>
      <trkpt lat="40.316921" lon="-4.542536">
        <ele>912.786</ele>
        <time>2022-12-18T23:42:20Z</time>
      </trkpt>
      <trkpt lat="40.316635" lon="-4.543598">
        <ele>907.083</ele>
        <time>2022-12-18T23:43:00Z</time>
      </trkpt>
      <trkpt lat="40.316397" lon="-4.544692">
        <ele>907.135</ele>
        <time>2022-12-18T23:43:40Z</time>
      </trkpt>
      <trkpt lat="40.316185" lon="-4.546398">
        <ele>908.986</ele>
        <time>2022-12-18T23:44:20Z</time>
      </trkpt>
      <trkpt lat="40.316307" lon="-4.547986">
        <ele>914.614</ele>
        <time>2022-12-18T23:45:00Z</time>
      </trkpt>
      <trkpt lat="40.316798" lon="-4.549316">
        <ele>924.509</ele>
        <time>2022-12-18T23:45:40Z</time>
      </trkpt>
      <trkpt lat="40.317093" lon="-4.550657">
        <ele>928.494</ele>
        <time>2022-12-18T23:46:20Z</time>
      </trkpt>
      <trkpt lat="40.317011" lon="-4.551730">
        <ele>934.985</ele>
        <time>2022-12-18T23:47:00Z</time>
      </trkpt>
      <trkpt lat="40.316176" lon="-4.552588">
        <ele>939.844</ele>
        <time>2022-12-18T23:47:40Z</time>
      </trkpt>
      <trkpt lat="40.316136" lon="-4.554005">
        <ele>951.118</ele>
        <time>2022-12-18T23:48:20Z</time>
      </trkpt>
      <trkpt lat="40.316127" lon="-4.555163">
        <ele>957.986</ele>
        <time>2022-12-18T23:49:00Z</time>
      </trkpt>
      <trkpt lat="40.315620" lon="-4.555871">
        <ele>959.794</ele>
        <time>2022-12-18T23:49:40Z</time>
      </trkpt>
      <trkpt lat="40.315203" lon="-4.556075">
        <ele>960.872</ele>
        <time>2022-12-18T23:50:20Z</time>
      </trkpt>
      <trkpt lat="40.314876" lon="-4.556386">
        <ele>956.544</ele>
        <time>2022-12-18T23:51:00Z</time>
      </trkpt>
      <trkpt lat="40.314630" lon="-4.557309">
        <ele>954.361</ele>
        <time>2022-12-18T23:51:40Z</time>
      </trkpt>
      <trkpt lat="40.314622" lon="-4.558221">
        <ele>953.271</ele>
        <time>2022-12-18T23:52:20Z</time>
      </trkpt>
      <trkpt lat="40.315448" lon="-4.559240">
        <ele>959.641</ele>
        <time>2022-12-18T23:53:00Z</time>
      </trkpt>
      <trkpt lat="40.316213" lon="-4.560174">
        <ele>959.015</ele>
        <time>2022-12-18T23:53:40Z</time>
      </trkpt>
      <trkpt lat="40.316606" lon="-4.560313">
        <ele>966.409</ele>
        <time>2022-12-18T23:54:20Z</time>
      </trkpt>
      <trkpt lat="40.317042" lon="-4.560319">
        <ele>973.798</ele>
        <time>2022-12-18T23:55:00Z</time>
      </trkpt>
      <trkpt lat="40.317375" lon="-4.560638">
        <ele>974.949</ele>
        <time>2022-12-18T23:55:40Z</time>
      </trkpt>
      <trkpt lat="40.317721" lon="-4.561113">
        <ele>975.178</ele>
        <time>2022-12-18T23:56:20Z</time>
      </trkpt>
      <trkpt lat="40.318524" lon="-4.562094">
        <ele>973.142</ele>
        <time>2022-12-18T23:57:00Z</time>
      </trkpt>
      <trkpt lat="40.319089" lon="-4.562877">
        <ele>982.990</ele>
        <time>2022-12-18T23:57:40Z</time>
      </trkpt>
      <trkpt lat="40.319064" lon="-4.563768">
        <ele>985.358</ele>
        <time>2022-12-18T23:58:20Z</time>
      </trkpt>
      <trkpt lat="40.319138" lon="-4.565098">
        <ele>993.056</ele>
        <time>2022-12-18T23:59:00Z</time>
      </trkpt>
      <trkpt lat="40.319375" lon="-4.566300">
        <ele>995.178</ele>
        <time>2022-12-18T23:59:40Z</time>
      </trkpt>
      <trkpt lat="40.319817" lon="-4.567072">
        <ele>991.125</ele>
        <time>2022-12-19T00:00:20Z</time>
      </trkpt>
      <trkpt lat="40.320283" lon="-4.567502">
        <ele>983.941</ele>
        <time>2022-12-19T00:01:00Z</time>
      </trkpt>
      <trkpt lat="40.320978" lon="-4.567223">
        <ele>982.481</ele>
        <time>2022-12-19T00:01:40Z</time>
      </trkpt>
      <trkpt lat="40.322271" lon="-4.566439">
        <ele>978.509</ele>
        <time>2022-12-19T00:02:20Z</time>
      </trkpt>
      <trkpt lat="40.323064" lon="-4.565474">
        <ele>977.309</ele>
        <time>2022-12-19T00:03:00Z</time>
      </trkpt>
      <trkpt lat="40.323485" lon="-4.564449">
        <ele>981.825</ele>
        <time>2022-12-19T00:03:40Z</time>
      </trkpt>
      <trkpt lat="40.323674" lon="-4.564371">
        <ele>982.666</ele>
        <time>2022-12-19T00:04:20Z</time>
      </trkpt>
      <trkpt lat="40.323764" lon="-4.564511">
        <ele>985.575</ele>
        <time>2022-12-19T00:05:00Z</time>
      </trkpt>
      <trkpt lat="40.323790" lon="-4.564768">
        <ele>986.549</ele>
        <time>2022-12-19T00:05:40Z</time>
      </trkpt>
      <trkpt lat="40.323808" lon="-4.565077">
        <ele>988.227</ele>
        <time>2022-12-19T00:06:20Z</time>
      </trkpt>
      <trkpt lat="40.323806" lon="-4.565487">
        <ele>990.235</ele>
        <time>2022-12-19T00:07:00Z</time>
      </trkpt>
      <trkpt lat="40.323815" lon="-4.565852">
        <ele>993.123</ele>
        <time>2022-12-19T00:07:40Z</time>
      </trkpt>
      <trkpt lat="40.323749" lon="-4.566177">
        <ele>991.765</ele>
        <time>2022-12-19T00:08:20Z</time>
      </trkpt>
      <trkpt lat="40.323710" lon="-4.567233">
        <ele>991.342</ele>
        <time>2022-12-19T00:09:00Z</time>
      </trkpt>
      <trkpt lat="40.323943" lon="-4.567711">
        <ele>991.273</ele>
        <time>2022-12-19T00:09:40Z</time>
      </trkpt>
      <trkpt lat="40.324676" lon="-4.568124">
        <ele>1000.285</ele>
        <time>2022-12-19T00:10:20Z</time>
      </trkpt>
      <trkpt lat="40.325203" lon="-4.568489">
        <ele>1011.813</ele>
        <time>2022-12-19T00:11:00Z</time>
      </trkpt>
      <trkpt lat="40.325195" lon="-4.568824">
        <ele>1009.309</ele>
        <time>2022-12-19T00:11:40Z</time>
      </trkpt>
      <trkpt lat="40.325199" lon="-4.569637">
        <ele>1005.188</ele>
        <time>2022-12-19T00:12:20Z</time>
      </trkpt>
      <trkpt lat="40.325502" lon="-4.569913">
        <ele>1001.279</ele>
        <time>2022-12-19T00:13:00Z</time>
      </trkpt>
      <trkpt lat="40.325780" lon="-4.569733">
        <ele>1009.448</ele>
        <time>2022-12-19T00:13:40Z</time>
      </trkpt>
      <trkpt lat="40.326219" lon="-4.569891">
        <ele>1010.412</ele>
        <time>2022-12-19T00:14:20Z</time>
      </trkpt>
      <trkpt lat="40.326508" lon="-4.570227">
        <ele>1011.040</ele>
        <time>2022-12-19T00:15:00Z</time>
      </trkpt>
      <trkpt lat="40.326567" lon="-4.570608">
        <ele>1021.118</ele>
        <time>2022-12-19T00:15:40Z</time>
      </trkpt>
      <trkpt lat="40.326074" lon="-4.570675">
        <ele>1019.686</ele>
        <time>2022-12-19T00:16:20Z</time>
      </trkpt>
      <trkpt lat="40.325651" lon="-4.570897">
        <ele>1022.098</ele>
        <time>2022-12-19T00:17:00Z</time>
      </trkpt>
      <trkpt lat="40.325035" lon="-4.571351">
        <ele>1027.375</ele>
        <time>2022-12-19T00:17:40Z</time>
      </trkpt>
      <trkpt lat="40.324702" lon="-4.571530">
        <ele>1028.937</ele>
        <time>2022-12-19T00:18:20Z</time>
      </trkpt>
      <trkpt lat="40.323917" lon="-4.571804">
        <ele>1023.449</ele>
        <time>2022-12-19T00:19:00Z</time>
      </trkpt>
      <trkpt lat="40.323680" lon="-4.571938">
        <ele>1019.513</ele>
        <time>2022-12-19T00:19:40Z</time>
      </trkpt>
      <trkpt lat="40.323647" lon="-4.572415">
        <ele>1015.609</ele>
        <time>2022-12-19T00:20:20Z</time>
      </trkpt>
      <trkpt lat="40.323825" lon="-4.572845">
        <ele>1017.394</ele>
        <time>2022-12-19T00:21:00Z</time>
      </trkpt>
      <trkpt lat="40.324046" lon="-4.573590">
        <ele>1013.265</ele>
        <time>2022-12-19T00:21:40Z</time>
      </trkpt>
      <trkpt lat="40.324232" lon="-4.574164">
        <ele>1011.974</ele>
        <time>2022-12-19T00:22:20Z</time>
      </trkpt>
      <trkpt lat="40.324354" lon="-4.574703">
        <ele>1014.148</ele>
        <time>2022-12-19T00:23:00Z</time>
      </trkpt>
      <trkpt lat="40.324334" lon="-4.574867">
        <ele>1014.716</ele>
        <time>2022-12-19T00:23:40Z</time>
      </trkpt>
      <trkpt lat="40.324152" lon="-4.575473">
        <ele>1017.224</ele>
        <time>2022-12-19T00:24:20Z</time>
      </trkpt>
      <trkpt lat="40.323853" lon="-4.576066">
        <ele>1012.852</ele>
        <time>2022-12-19T00:25:00Z</time>
      </trkpt>
      <trkpt lat="40.323674" lon="-4.576677">
        <ele>1010.854</ele>
        <time>2022-12-19T00:25:40Z</time>
      </trkpt>
      <trkpt lat="40.323547" lon="-4.577198">
        <ele>1009.751</ele>
        <time>2022-12-19T00:26:20Z</time>
      </trkpt>
      <trkpt lat="40.323310" lon="-4.577927">
        <ele>1010.515</ele>
        <time>2022-12-19T00:27:00Z</time>
      </trkpt>
      <trkpt lat="40.323144" lon="-4.577957">
        <ele>1010.565</ele>
        <time>2022-12-19T00:27:40Z</time>
      </trkpt>
      <trkpt lat="40.323109" lon="-4.577970">
        <ele>1010.611</ele>
        <time>2022-12-19T00:28:20Z</time>
      </trkpt>
      <trkpt lat="40.323015" lon="-4.577879">
        <ele>1010.709</ele>
        <time>2022-12-19T00:29:00Z</time>
      </trkpt>
      <trkpt lat="40.322708" lon="-4.577444">
        <ele>1015.842</ele>
        <time>2022-12-19T00:29:40Z</time>
      </trkpt>
      <trkpt lat="40.322479" lon="-4.577117">
        <ele>1018.523</ele>
        <time>2022-12-19T00:30:20Z</time>
      </trkpt>
      <trkpt lat="40.322201" lon="-4.576790">
        <ele>1026.062</ele>
        <time>2022-12-19T00:31:00Z</time>
      </trkpt>
      <trkpt lat="40.321811" lon="-4.576406">
        <ele>1035.766</ele>
        <time>2022-12-19T00:31:40Z</time>
      </trkpt>
      <trkpt lat="40.321545" lon="-4.575956">
        <ele>1037.384</ele>
        <time>2022-12-19T00:32:20Z</time>
      </trkpt>
      <trkpt lat="40.321023" lon="-4.575594">
        <ele>1038.292</ele>
        <time>2022-12-19T00:33:00Z</time>
      </trkpt>
      <trkpt lat="40.320911" lon="-4.575688">
        <ele>1040.950</ele>
        <time>2022-12-19T00:33:40Z</time>
      </trkpt>
      <trkpt lat="40.320913" lon="-4.575787">
        <ele>1043.342</ele>
        <time>2022-12-19T00:34:20Z</time>
      </trkpt>
      <trkpt lat="40.320995" lon="-4.575926">
        <ele>1046.079</ele>
        <time>2022-12-19T00:35:00Z</time>
      </trkpt>
      <trkpt lat="40.321183" lon="-4.576203">
        <ele>1049.785</ele>
        <time>2022-12-19T00:35:40Z</time>
      </trkpt>
      <trkpt lat="40.321113" lon="-4.576433">
        <ele>1053.589</ele>
        <time>2022-12-19T00:36:20Z</time>
      </trkpt>
      <trkpt lat="40.321029" lon="-4.576688">
        <ele>1056.217</ele>
        <time>2022-12-19T00:37:00Z</time>
      </trkpt>
      <trkpt lat="40.320997" lon="-4.576956">
        <ele>1059.109</ele>
        <time>2022-12-19T00:37:40Z</time>
      </trkpt>
      <trkpt lat="40.321412" lon="-4.577447">
        <ele>1064.989</ele>
        <time>2022-12-19T00:38:20Z</time>
      </trkpt>
      <trkpt lat="40.321694" lon="-4.578161">
        <ele>1071.460</ele>
        <time>2022-12-19T00:39:00Z</time>
      </trkpt>
      <trkpt lat="40.321944" lon="-4.578922">
        <ele>1075.529</ele>
        <time>2022-12-19T00:39:40Z</time>
      </trkpt>
      <trkpt lat="40.322117" lon="-4.579550">
        <ele>1077.843</ele>
        <time>2022-12-19T00:40:20Z</time>
      </trkpt>
      <trkpt lat="40.322033" lon="-4.579765">
        <ele>1083.111</ele>
        <time>2022-12-19T00:41:00Z</time>
      </trkpt>
      <trkpt lat="40.321878" lon="-4.579775">
        <ele>1086.249</ele>
        <time>2022-12-19T00:41:40Z</time>
      </trkpt>
      <trkpt lat="40.321494" lon="-4.579872">
        <ele>1088.357</ele>
        <time>2022-12-19T00:42:20Z</time>
      </trkpt>
      <trkpt lat="40.321330" lon="-4.580022">
        <ele>1088.789</ele>
        <time>2022-12-19T00:43:00Z</time>
      </trkpt>
      <trkpt lat="40.321596" lon="-4.580430">
        <ele>1092.886</ele>
        <time>2022-12-19T00:43:40Z</time>
      </trkpt>
      <trkpt lat="40.321733" lon="-4.581149">
        <ele>1097.353</ele>
        <time>2022-12-19T00:44:20Z</time>
      </trkpt>
      <trkpt lat="40.321890" lon="-4.581943">
        <ele>1106.604</ele>
        <time>2022-12-19T00:45:00Z</time>
      </trkpt>
      <trkpt lat="40.321845" lon="-4.583337">
        <ele>1117.914</ele>
        <time>2022-12-19T00:45:40Z</time>
      </trkpt>
      <trkpt lat="40.321892" lon="-4.583681">
        <ele>1120.109</ele>
        <time>2022-12-19T00:46:20Z</time>
      </trkpt>
      <trkpt lat="40.321798" lon="-4.584298">
        <ele>1120.666</ele>
        <time>2022-12-19T00:47:00Z</time>
      </trkpt>
      <trkpt lat="40.321772" lon="-4.585306">
        <ele>1124.137</ele>
        <time>2022-12-19T00:47:40Z</time>
      </trkpt>
      <trkpt lat="40.321522" lon="-4.586999">
        <ele>1129.756</ele>
        <time>2022-12-19T00:48:20Z</time>
      </trkpt>
      <trkpt lat="40.321972" lon="-4.586422">
        <ele>1131.580</ele>
        <time>2022-12-19T00:49:00Z</time>
      </trkpt>
      <trkpt lat="40.322340" lon="-4.586596">
        <ele>1136.028</ele>
        <time>2022-12-19T00:49:40Z</time>
      </trkpt>
      <trkpt lat="40.322649" lon="-4.586800">
        <ele>1139.636</ele>
        <time>2022-12-19T00:50:20Z</time>
      </trkpt>
      <trkpt lat="40.323397" lon="-4.586948">
        <ele>1148.734</ele>
        <time>2022-12-19T00:51:00Z</time>
      </trkpt>
      <trkpt lat="40.324279" lon="-4.587425">
        <ele>1160.446</ele>
        <time>2022-12-19T00:51:40Z</time>
      </trkpt>
      <trkpt lat="40.324700" lon="-4.587640">
        <ele>1163.843</ele>
        <time>2022-12-19T00:52:20Z</time>
      </trkpt>
      <trkpt lat="40.325150" lon="-4.587371">
        <ele>1171.186</ele>
        <time>2022-12-19T00:53:00Z</time>
      </trkpt>
      <trkpt lat="40.326753" lon="-4.588348">
        <ele>1190.060</ele>
        <time>2022-12-19T00:53:40Z</time>
      </trkpt>
      <trkpt lat="40.326720" lon="-4.588208">
        <ele>1191.726</ele>
        <time>2022-12-19T00:54:20Z</time>
      </trkpt>
      <trkpt lat="40.326630" lon="-4.588037">
        <ele>1192.609</ele>
        <time>2022-12-19T00:55:00Z</time>
      </trkpt>
      <trkpt lat="40.326385" lon="-4.587811">
        <ele>1191.489</ele>
        <time>2022-12-19T00:55:40Z</time>
      </trkpt>
      <trkpt lat="40.326279" lon="-4.587511">
        <ele>1192.570</ele>
        <time>2022-12-19T00:56:20Z</time>
      </trkpt>
      <trkpt lat="40.326091" lon="-4.586728">
        <ele>1194.319</ele>
        <time>2022-12-19T00:57:00Z</time>
      </trkpt>
      <trkpt lat="40.326516" lon="-4.585966">
        <ele>1203.473</ele>
        <time>2022-12-19T00:57:40Z</time>
      </trkpt>
      <trkpt lat="40.327211" lon="-4.585140">
        <ele>1212.261</ele>
        <time>2022-12-19T00:58:20Z</time>
      </trkpt>
      <trkpt lat="40.328258" lon="-4.583702">
        <ele>1222.049</ele>
        <time>2022-12-19T00:59:00Z</time>
      </trkpt>
      <trkpt lat="40.328225" lon="-4.583294">
        <ele>1224.047</ele>
        <time>2022-12-19T00:59:40Z</time>
      </trkpt>
      <trkpt lat="40.328062" lon="-4.582930">
        <ele>1225.449</ele>
        <time>2022-12-19T01:00:20Z</time>
      </trkpt>
      <trkpt lat="40.327955" lon="-4.582747">
        <ele>1226.746</ele>
        <time>2022-12-19T01:01:00Z</time>
      </trkpt>
      <trkpt lat="40.327874" lon="-4.582747">
        <ele>1226.146</ele>
        <time>2022-12-19T01:01:40Z</time>
      </trkpt>
      <trkpt lat="40.328111" lon="-4.582522">
        <ele>1231.188</ele>
        <time>2022-12-19T01:02:20Z</time>
      </trkpt>
      <trkpt lat="40.328512" lon="-4.582297">
        <ele>1237.316</ele>
        <time>2022-12-19T01:03:00Z</time>
      </trkpt>
      <trkpt lat="40.328880" lon="-4.582200">
        <ele>1242.109</ele>
        <time>2022-12-19T01:03:40Z</time>
      </trkpt>
      <trkpt lat="40.329428" lon="-4.580891">
        <ele>1251.065</ele>
        <time>2022-12-19T01:04:20Z</time>
      </trkpt>
      <trkpt lat="40.329649" lon="-4.580762">
        <ele>1251.316</ele>
        <time>2022-12-19T01:05:00Z</time>
      </trkpt>
      <trkpt lat="40.329730" lon="-4.581245">
        <ele>1254.765</ele>
        <time>2022-12-19T01:05:40Z</time>
      </trkpt>
      <trkpt lat="40.329788" lon="-4.581921">
        <ele>1258.469</ele>
        <time>2022-12-19T01:06:20Z</time>
      </trkpt>
      <trkpt lat="40.330303" lon="-4.583015">
        <ele>1268.857</ele>
        <time>2022-12-19T01:07:00Z</time>
      </trkpt>
      <trkpt lat="40.330605" lon="-4.583949">
        <ele>1279.345</ele>
        <time>2022-12-19T01:07:40Z</time>
      </trkpt>
      <trkpt lat="40.330458" lon="-4.584625">
        <ele>1281.293</ele>
        <time>2022-12-19T01:08:20Z</time>
      </trkpt>
      <trkpt lat="40.330630" lon="-4.584786">
        <ele>1284.735</ele>
        <time>2022-12-19T01:09:00Z</time>
      </trkpt>
      <trkpt lat="40.331088" lon="-4.584432">
        <ele>1291.542</ele>
        <time>2022-12-19T01:09:40Z</time>
      </trkpt>
      <trkpt lat="40.331489" lon="-4.583337">
        <ele>1301.293</ele>
        <time>2022-12-19T01:10:20Z</time>
      </trkpt>
      <trkpt lat="40.332029" lon="-4.582297">
        <ele>1311.365</ele>
        <time>2022-12-19T01:11:00Z</time>
      </trkpt>
      <trkpt lat="40.332601" lon="-4.581921">
        <ele>1316.121</ele>
        <time>2022-12-19T01:11:40Z</time>
      </trkpt>
      <trkpt lat="40.333623" lon="-4.581792">
        <ele>1331.509</ele>
        <time>2022-12-19T01:12:20Z</time>
      </trkpt>
      <trkpt lat="40.334024" lon="-4.581074">
        <ele>1332.790</ele>
        <time>2022-12-19T01:13:00Z</time>
      </trkpt>
      <trkpt lat="40.334114" lon="-4.580151">
        <ele>1330.461</ele>
        <time>2022-12-19T01:13:40Z</time>
      </trkpt>
      <trkpt lat="40.334588" lon="-4.579196">
        <ele>1330.660</ele>
        <time>2022-12-19T01:14:20Z</time>
      </trkpt>
      <trkpt lat="40.335194" lon="-4.578692">
        <ele>1330.554</ele>
        <time>2022-12-19T01:15:00Z</time>
      </trkpt>
      <trkpt lat="40.335799" lon="-4.578466">
        <ele>1333.482</ele>
        <time>2022-12-19T01:15:40Z</time>
      </trkpt>
      <trkpt lat="40.336232" lon="-4.578370">
        <ele>1334.330</ele>
        <time>2022-12-19T01:16:20Z</time>
      </trkpt>
      <trkpt lat="40.336658" lon="-4.578595">
        <ele>1338.878</ele>
        <time>2022-12-19T01:17:00Z</time>
      </trkpt>
      <trkpt lat="40.337042" lon="-4.577866">
        <ele>1344.510</ele>
        <time>2022-12-19T01:17:40Z</time>
      </trkpt>
      <trkpt lat="40.337827" lon="-4.577404">
        <ele>1356.947</ele>
        <time>2022-12-19T01:18:20Z</time>
      </trkpt>
      <trkpt lat="40.338408" lon="-4.577233">
        <ele>1358.714</ele>
        <time>2022-12-19T01:19:00Z</time>
      </trkpt>
      <trkpt lat="40.338718" lon="-4.577533">
        <ele>1361.654</ele>
        <time>2022-12-19T01:19:40Z</time>
      </trkpt>
      <trkpt lat="40.338808" lon="-4.577769">
        <ele>1366.509</ele>
        <time>2022-12-19T01:20:20Z</time>
      </trkpt>
      <trkpt lat="40.339209" lon="-4.577512">
        <ele>1369.809</ele>
        <time>2022-12-19T01:21:00Z</time>
      </trkpt>
      <trkpt lat="40.339683" lon="-4.577157">
        <ele>1375.952</ele>
        <time>2022-12-19T01:21:40Z</time>
      </trkpt>
      <trkpt lat="40.340329" lon="-4.576943">
        <ele>1384.743</ele>
        <time>2022-12-19T01:22:20Z</time>
      </trkpt>
      <trkpt lat="40.340861" lon="-4.576310">
        <ele>1392.472</ele>
        <time>2022-12-19T01:23:00Z</time>
      </trkpt>
      <trkpt lat="40.341270" lon="-4.575773">
        <ele>1402.246</ele>
        <time>2022-12-19T01:23:40Z</time>
      </trkpt>
      <trkpt lat="40.341458" lon="-4.575334">
        <ele>1406.144</ele>
        <time>2022-12-19T01:24:20Z</time>
      </trkpt>
      <trkpt lat="40.341352" lon="-4.574840">
        <ele>1408.662</ele>
        <time>2022-12-19T01:25:00Z</time>
      </trkpt>
      <trkpt lat="40.341012" lon="-4.574132">
        <ele>1420.140</ele>
        <time>2022-12-19T01:25:40Z</time>
      </trkpt>
      <trkpt lat="40.340665" lon="-4.573740">
        <ele>1423.232</ele>
        <time>2022-12-19T01:26:20Z</time>
      </trkpt>
      <trkpt lat="40.340399" lon="-4.573346">
        <ele>1426.879</ele>
        <time>2022-12-19T01:27:00Z</time>
      </trkpt>
      <trkpt lat="40.340336" lon="-4.573271">
        <ele>1427.538</ele>
        <time>2022-12-19T01:27:40Z</time>
      </trkpt>
      <trkpt lat="40.340329" lon="-4.573140">
        <ele>1430.570</ele>
        <time>2022-12-19T01:28:20Z</time>
      </trkpt>
      <trkpt lat="40.340360" lon="-4.573067">
        <ele>1432.617</ele>
        <time>2022-12-19T01:29:00Z</time>
      </trkpt>
      <trkpt lat="40.340464" lon="-4.573059">
        <ele>1433.909</ele>
        <time>2022-12-19T01:29:40Z</time>
      </trkpt>
      <trkpt lat="40.340640" lon="-4.573126">
        <ele>1435.654</ele>
        <time>2022-12-19T01:30:20Z</time>
      </trkpt>
      <trkpt lat="40.340888" lon="-4.573282">
        <ele>1438.375</ele>
        <time>2022-12-19T01:31:00Z</time>
      </trkpt>
      <trkpt lat="40.342243" lon="-4.574454">
        <ele>1449.534</ele>
        <time>2022-12-19T01:31:40Z</time>
      </trkpt>
      <trkpt lat="40.342897" lon="-4.575377">
        <ele>1460.988</ele>
        <time>2022-12-19T01:32:20Z</time>
      </trkpt>
      <trkpt lat="40.343903" lon="-4.575065">
        <ele>1465.196</ele>
        <time>2022-12-19T01:33:00Z</time>
      </trkpt>
      <trkpt lat="40.344573" lon="-4.573553">
        <ele>1448.724</ele>
        <time>2022-12-19T01:33:40Z</time>
      </trkpt>
      <trkpt lat="40.345219" lon="-4.572351">
        <ele>1441.172</ele>
        <time>2022-12-19T01:34:20Z</time>
      </trkpt>
      <trkpt lat="40.345718" lon="-4.571568">
        <ele>1435.324</ele>
        <time>2022-12-19T01:35:00Z</time>
      </trkpt>
      <trkpt lat="40.345555" lon="-4.570817">
        <ele>1434.891</ele>
        <time>2022-12-19T01:35:40Z</time>
      </trkpt>
      <trkpt lat="40.345800" lon="-4.570012">
        <ele>1428.115</ele>
        <time>2022-12-19T01:36:20Z</time>
      </trkpt>
      <trkpt lat="40.346638" lon="-4.570012">
        <ele>1411.665</ele>
        <time>2022-12-19T01:37:00Z</time>
      </trkpt>
      <trkpt lat="40.348825" lon="-4.569948">
        <ele>1391.011</ele>
        <time>2022-12-19T01:37:40Z</time>
      </trkpt>
      <trkpt lat="40.350224" lon="-4.569819">
        <ele>1375.209</ele>
        <time>2022-12-19T01:38:20Z</time>
      </trkpt>
      <trkpt lat="40.350935" lon="-4.569165">
        <ele>1370.782</ele>
        <time>2022-12-19T01:39:00Z</time>
      </trkpt>
      <trkpt lat="40.351058" lon="-4.568864">
        <ele>1370.213</ele>
        <time>2022-12-19T01:39:40Z</time>
      </trkpt>
      <trkpt lat="40.352096" lon="-4.567802">
        <ele>1357.532</ele>
        <time>2022-12-19T01:40:20Z</time>
      </trkpt>
      <trkpt lat="40.353453" lon="-4.568177">
        <ele>1338.716</ele>
        <time>2022-12-19T01:41:00Z</time>
      </trkpt>
      <trkpt lat="40.354810" lon="-4.567373">
        <ele>1321.834</ele>
        <time>2022-12-19T01:41:40Z</time>
      </trkpt>
      <trkpt lat="40.357002" lon="-4.567287">
        <ele>1295.612</ele>
        <time>2022-12-19T01:42:20Z</time>
      </trkpt>
      <trkpt lat="40.358563" lon="-4.566332">
        <ele>1283.790</ele>
        <time>2022-12-19T01:43:00Z</time>
      </trkpt>
      <trkpt lat="40.358310" lon="-4.567255">
        <ele>1270.942</ele>
        <time>2022-12-19T01:43:40Z</time>
      </trkpt>
      <trkpt lat="40.357737" lon="-4.568295">
        <ele>1261.049</ele>
        <time>2022-12-19T01:44:20Z</time>
      </trkpt>
      <trkpt lat="40.356233" lon="-4.569465">
        <ele>1250.065</ele>
        <time>2022-12-19T01:45:00Z</time>
      </trkpt>
      <trkpt lat="40.357958" lon="-4.569433">
        <ele>1228.468</ele>
        <time>2022-12-19T01:45:40Z</time>
      </trkpt>
      <trkpt lat="40.359029" lon="-4.569046">
        <ele>1217.814</ele>
        <time>2022-12-19T01:46:20Z</time>
      </trkpt>
      <trkpt lat="40.360509" lon="-4.569036">
        <ele>1198.709</ele>
        <time>2022-12-19T01:47:00Z</time>
      </trkpt>
      <trkpt lat="40.360909" lon="-4.569722">
        <ele>1190.737</ele>
        <time>2022-12-19T01:47:40Z</time>
      </trkpt>
      <trkpt lat="40.362087" lon="-4.569744">
        <ele>1173.888</ele>
        <time>2022-12-19T01:48:20Z</time>
      </trkpt>
      <trkpt lat="40.362013" lon="-4.570978">
        <ele>1165.447</ele>
        <time>2022-12-19T01:49:00Z</time>
      </trkpt>
      <trkpt lat="40.362487" lon="-4.571192">
        <ele>1161.511</ele>
        <time>2022-12-19T01:49:40Z</time>
      </trkpt>
      <trkpt lat="40.362920" lon="-4.570506">
        <ele>1162.559</ele>
        <time>2022-12-19T01:50:20Z</time>
      </trkpt>
      <trkpt lat="40.363762" lon="-4.570549">
        <ele>1149.397</ele>
        <time>2022-12-19T01:51:00Z</time>
      </trkpt>
      <trkpt lat="40.364662" lon="-4.570334">
        <ele>1141.525</ele>
        <time>2022-12-19T01:51:40Z</time>
      </trkpt>
      <trkpt lat="40.364539" lon="-4.570098">
        <ele>1140.287</ele>
        <time>2022-12-19T01:52:20Z</time>
      </trkpt>
      <trkpt lat="40.364098" lon="-4.569883">
        <ele>1138.544</ele>
        <time>2022-12-19T01:53:00Z</time>
      </trkpt>
      <trkpt lat="40.363852" lon="-4.569572">
        <ele>1135.599</ele>
        <time>2022-12-19T01:53:40Z</time>
      </trkpt>
      <trkpt lat="40.364425" lon="-4.569551">
        <ele>1129.307</ele>
        <time>2022-12-19T01:54:20Z</time>
      </trkpt>
      <trkpt lat="40.364891" lon="-4.569025">
        <ele>1116.627</ele>
        <time>2022-12-19T01:55:00Z</time>
      </trkpt>
      <trkpt lat="40.365806" lon="-4.568392">
        <ele>1103.009</ele>
        <time>2022-12-19T01:55:40Z</time>
      </trkpt>
      <trkpt lat="40.366485" lon="-4.568210">
        <ele>1094.540</ele>
        <time>2022-12-19T01:56:20Z</time>
      </trkpt>
      <trkpt lat="40.367220" lon="-4.568714">
        <ele>1087.971</ele>
        <time>2022-12-19T01:57:00Z</time>
      </trkpt>
      <trkpt lat="40.367498" lon="-4.569122">
        <ele>1074.880</ele>
        <time>2022-12-19T01:57:40Z</time>
      </trkpt>
      <trkpt lat="40.367539" lon="-4.570377">
        <ele>1064.854</ele>
        <time>2022-12-19T01:58:20Z</time>
      </trkpt>
      <trkpt lat="40.366681" lon="-4.571418">
        <ele>1053.682</ele>
        <time>2022-12-19T01:59:00Z</time>
      </trkpt>
      <trkpt lat="40.365773" lon="-4.572576">
        <ele>1035.450</ele>
        <time>2022-12-19T01:59:40Z</time>
      </trkpt>
      <trkpt lat="40.366133" lon="-4.572630">
        <ele>1027.018</ele>
        <time>2022-12-19T02:00:20Z</time>
      </trkpt>
      <trkpt lat="40.366648" lon="-4.572512">
        <ele>1020.980</ele>
        <time>2022-12-19T02:01:00Z</time>
      </trkpt>
      <trkpt lat="40.367817" lon="-4.571804">
        <ele>1011.137</ele>
        <time>2022-12-19T02:01:40Z</time>
      </trkpt>
      <trkpt lat="40.368528" lon="-4.571096">
        <ele>1002.268</ele>
        <time>2022-12-19T02:02:20Z</time>
      </trkpt>
      <trkpt lat="40.369166" lon="-4.569529">
        <ele>990.442</ele>
        <time>2022-12-19T02:03:00Z</time>
      </trkpt>
      <trkpt lat="40.370735" lon="-4.568853">
        <ele>963.926</ele>
        <time>2022-12-19T02:03:40Z</time>
      </trkpt>
      <trkpt lat="40.372092" lon="-4.568424">
        <ele>945.209</ele>
        <time>2022-12-19T02:04:20Z</time>
      </trkpt>
      <trkpt lat="40.372648" lon="-4.568639">
        <ele>936.347</ele>
        <time>2022-12-19T02:05:00Z</time>
      </trkpt>
      <trkpt lat="40.372967" lon="-4.568961">
        <ele>929.398</ele>
        <time>2022-12-19T02:05:40Z</time>
      </trkpt>
      <trkpt lat="40.373572" lon="-4.568907">
        <ele>924.447</ele>
        <time>2022-12-19T02:06:20Z</time>
      </trkpt>
      <trkpt lat="40.373743" lon="-4.568285">
        <ele>922.471</ele>
        <time>2022-12-19T02:07:00Z</time>
      </trkpt>
      <trkpt lat="40.374536" lon="-4.567748">
        <ele>909.819</ele>
        <time>2022-12-19T02:07:40Z</time>
      </trkpt>
      <trkpt lat="40.374853" lon="-4.566946">
        <ele>906.187</ele>
        <time>2022-12-19T02:08:20Z</time>
      </trkpt>
      <trkpt lat="40.375284" lon="-4.566976">
        <ele>901.215</ele>
        <time>2022-12-19T02:09:00Z</time>
      </trkpt>
      <trkpt lat="40.375825" lon="-4.567099">
        <ele>899.637</ele>
        <time>2022-12-19T02:09:40Z</time>
      </trkpt>
      <trkpt lat="40.376207" lon="-4.566531">
        <ele>897.394</ele>
        <time>2022-12-19T02:10:20Z</time>
      </trkpt>
      <trkpt lat="40.376972" lon="-4.566075">
        <ele>887.214</ele>
        <time>2022-12-19T02:11:00Z</time>
      </trkpt>
      <trkpt lat="40.377152" lon="-4.566557">
        <ele>885.954</ele>
        <time>2022-12-19T02:11:40Z</time>
      </trkpt>
      <trkpt lat="40.378100" lon="-4.567319">
        <ele>896.409</ele>
        <time>2022-12-19T02:12:20Z</time>
      </trkpt>
      <trkpt lat="40.379170" lon="-4.567523">
        <ele>888.409</ele>
        <time>2022-12-19T02:13:00Z</time>
      </trkpt>
      <trkpt lat="40.380625" lon="-4.568188">
        <ele>887.182</ele>
        <time>2022-12-19T02:13:40Z</time>
      </trkpt>
      <trkpt lat="40.382497" lon="-4.568220">
        <ele>868.773</ele>
        <time>2022-12-19T02:14:20Z</time>
      </trkpt>
      <trkpt lat="40.382897" lon="-4.567780">
        <ele>854.182</ele>
        <time>2022-12-19T02:15:00Z</time>
      </trkpt>
      <trkpt lat="40.383976" lon="-4.567845">
        <ele>849.236</ele>
        <time>2022-12-19T02:15:40Z</time>
      </trkpt>
      <trkpt lat="40.386174" lon="-4.568328">
        <ele>841.274</ele>
        <time>2022-12-19T02:16:20Z</time>
      </trkpt>
      <trkpt lat="40.388364" lon="-4.567899">
        <ele>825.242</ele>
        <time>2022-12-19T02:17:00Z</time>
      </trkpt>
      <trkpt lat="40.389876" lon="-4.568328">
        <ele>816.720</ele>
        <time>2022-12-19T02:17:40Z</time>
      </trkpt>
      <trkpt lat="40.390186" lon="-4.567695">
        <ele>815.482</ele>
        <time>2022-12-19T02:18:20Z</time>
      </trkpt>
      <trkpt lat="40.390889" lon="-4.568092">
        <ele>814.079</ele>
        <time>2022-12-19T02:19:00Z</time>
      </trkpt>
      <trkpt lat="40.392001" lon="-4.567512">
        <ele>818.281</ele>
        <time>2022-12-19T02:19:40Z</time>
      </trkpt>
      <trkpt lat="40.392891" lon="-4.567469">
        <ele>811.661</ele>
        <time>2022-12-19T02:20:20Z</time>
      </trkpt>
      <trkpt lat="40.394934" lon="-4.568499">
        <ele>794.317</ele>
        <time>2022-12-19T02:21:00Z</time>
      </trkpt>
      <trkpt lat="40.395678" lon="-4.568338">
        <ele>788.809</ele>
        <time>2022-12-19T02:21:40Z</time>
      </trkpt>
      <trkpt lat="40.396127" lon="-4.567931">
        <ele>786.199</ele>
        <time>2022-12-19T02:22:20Z</time>
      </trkpt>
      <trkpt lat="40.397075" lon="-4.567652">
        <ele>779.530</ele>
        <time>2022-12-19T02:23:00Z</time>
      </trkpt>
      <trkpt lat="40.397402" lon="-4.568017">
        <ele>773.859</ele>
        <time>2022-12-19T02:23:40Z</time>
      </trkpt>
      <trkpt lat="40.398170" lon="-4.568381">
        <ele>773.243</ele>
        <time>2022-12-19T02:24:20Z</time>
      </trkpt>
      <trkpt lat="40.398979" lon="-4.568714">
        <ele>764.631</ele>
        <time>2022-12-19T02:25:00Z</time>
      </trkpt>
      <trkpt lat="40.400106" lon="-4.568617">
        <ele>758.679</ele>
        <time>2022-12-19T02:25:40Z</time>
      </trkpt>
      <trkpt lat="40.401528" lon="-4.568660">
        <ele>757.437</ele>
        <time>2022-12-19T02:26:20Z</time>
      </trkpt>
      <trkpt lat="40.402623" lon="-4.568757">
        <ele>754.779</ele>
        <time>2022-12-19T02:27:00Z</time>
      </trkpt>
      <trkpt lat="40.403203" lon="-4.568757">
        <ele>753.036</ele>
        <time>2022-12-19T02:27:40Z</time>
      </trkpt>
      <trkpt lat="40.404085" lon="-4.568295">
        <ele>756.032</ele>
        <time>2022-12-19T02:28:20Z</time>
      </trkpt>
      <trkpt lat="40.405180" lon="-4.567909">
        <ele>758.592</ele>
        <time>2022-12-19T02:29:00Z</time>
      </trkpt>
      <trkpt lat="40.406618" lon="-4.567845">
        <ele>754.411</ele>
        <time>2022-12-19T02:29:40Z</time>
      </trkpt>
      <trkpt lat="40.407443" lon="-4.567652">
        <ele>753.909</ele>
        <time>2022-12-19T02:30:20Z</time>
      </trkpt>
      <trkpt lat="40.408709" lon="-4.567813">
        <ele>743.824</ele>
        <time>2022-12-19T02:31:00Z</time>
      </trkpt>
      <trkpt lat="40.409943" lon="-4.567062">
        <ele>744.885</ele>
        <time>2022-12-19T02:31:40Z</time>
      </trkpt>
      <trkpt lat="40.410849" lon="-4.567147">
        <ele>739.134</ele>
        <time>2022-12-19T02:32:20Z</time>
      </trkpt>
      <trkpt lat="40.412336" lon="-4.566236">
        <ele>746.498</ele>
        <time>2022-12-19T02:33:00Z</time>
      </trkpt>
      <trkpt lat="40.413831" lon="-4.565152">
        <ele>747.816</ele>
        <time>2022-12-19T02:33:40Z</time>
      </trkpt>
      <trkpt lat="40.415105" lon="-4.564819">
        <ele>748.124</ele>
        <time>2022-12-19T02:34:20Z</time>
      </trkpt>
      <trkpt lat="40.417303" lon="-4.564240">
        <ele>737.182</ele>
        <time>2022-12-19T02:35:00Z</time>
      </trkpt>
      <trkpt lat="40.418716" lon="-4.563714">
        <ele>732.394</ele>
        <time>2022-12-19T02:35:40Z</time>
      </trkpt>
      <trkpt lat="40.418961" lon="-4.563178">
        <ele>734.391</ele>
        <time>2022-12-19T02:36:20Z</time>
      </trkpt>
      <trkpt lat="40.418895" lon="-4.562620">
        <ele>739.718</ele>
        <time>2022-12-19T02:37:00Z</time>
      </trkpt>
      <trkpt lat="40.419704" lon="-4.561654">
        <ele>739.898</ele>
        <time>2022-12-19T02:37:40Z</time>
      </trkpt>
      <trkpt lat="40.420455" lon="-4.560710">
        <ele>732.117</ele>
        <time>2022-12-19T02:38:20Z</time>
      </trkpt>
      <trkpt lat="40.421019" lon="-4.559788">
        <ele>731.409</ele>
        <time>2022-12-19T02:39:00Z</time>
      </trkpt>
      <trkpt lat="40.422326" lon="-4.557899">
        <ele>743.222</ele>
        <time>2022-12-19T02:39:40Z</time>
      </trkpt>
      <trkpt lat="40.423755" lon="-4.555721">
        <ele>735.613</ele>
        <time>2022-12-19T02:40:20Z</time>
      </trkpt>
      <trkpt lat="40.424262" lon="-4.552964">
        <ele>733.512</ele>
        <time>2022-12-19T02:41:00Z</time>
      </trkpt>
      <trkpt lat="40.422759" lon="-4.551505">
        <ele>738.746</ele>
        <time>2022-12-19T02:41:40Z</time>
      </trkpt>
      <trkpt lat="40.422163" lon="-4.551913">
        <ele>741.684</ele>
        <time>2022-12-19T02:42:20Z</time>
      </trkpt>
      <trkpt lat="40.421893" lon="-4.552224">
        <ele>743.632</ele>
        <time>2022-12-19T02:43:00Z</time>
      </trkpt>
      <trkpt lat="40.421525" lon="-4.552288">
        <ele>739.550</ele>
        <time>2022-12-19T02:43:40Z</time>
      </trkpt>
      <trkpt lat="40.421166" lon="-4.552149">
        <ele>737.592</ele>
        <time>2022-12-19T02:44:20Z</time>
      </trkpt>
      <trkpt lat="40.421607" lon="-4.551280">
        <ele>731.089</ele>
        <time>2022-12-19T02:45:00Z</time>
      </trkpt>
      <trkpt lat="40.422016" lon="-4.549971">
        <ele>734.277</ele>
        <time>2022-12-19T02:45:40Z</time>
      </trkpt>
      <trkpt lat="40.421983" lon="-4.549187">
        <ele>736.961</ele>
        <time>2022-12-19T02:46:20Z</time>
      </trkpt>
      <trkpt lat="40.421485" lon="-4.549187">
        <ele>742.327</ele>
        <time>2022-12-19T02:47:00Z</time>
      </trkpt>
      <trkpt lat="40.421133" lon="-4.548544">
        <ele>743.409</ele>
        <time>2022-12-19T02:47:40Z</time>
      </trkpt>
      <trkpt lat="40.421076" lon="-4.547825">
        <ele>746.798</ele>
        <time>2022-12-19T02:48:20Z</time>
      </trkpt>
      <trkpt lat="40.421060" lon="-4.546602">
        <ele>747.649</ele>
        <time>2022-12-19T02:49:00Z</time>
      </trkpt>
      <trkpt lat="40.421378" lon="-4.545883">
        <ele>744.088</ele>
        <time>2022-12-19T02:49:40Z</time>
      </trkpt>
      <trkpt lat="40.421419" lon="-4.545325">
        <ele>745.172</ele>
        <time>2022-12-19T02:50:20Z</time>
      </trkpt>
      <trkpt lat="40.421313" lon="-4.544907">
        <ele>745.540</ele>
        <time>2022-12-19T02:51:00Z</time>
      </trkpt>
      <trkpt lat="40.421003" lon="-4.544606">
        <ele>751.458</ele>
        <time>2022-12-19T02:51:40Z</time>
      </trkpt>
      <trkpt lat="40.421468" lon="-4.543630">
        <ele>741.896</ele>
        <time>2022-12-19T02:52:20Z</time>
      </trkpt>
      <trkpt lat="40.421199" lon="-4.543276">
        <ele>742.028</ele>
        <time>2022-12-19T02:53:00Z</time>
      </trkpt>
      <trkpt lat="40.420921" lon="-4.543297">
        <ele>747.345</ele>
        <time>2022-12-19T02:53:40Z</time>
      </trkpt>
      <trkpt lat="40.420897" lon="-4.542868">
        <ele>739.855</ele>
        <time>2022-12-19T02:54:20Z</time>
      </trkpt>
      <trkpt lat="40.421673" lon="-4.542342">
        <ele>731.907</ele>
        <time>2022-12-19T02:55:00Z</time>
      </trkpt>
      <trkpt lat="40.422702" lon="-4.541527">
        <ele>735.017</ele>
        <time>2022-12-19T02:55:40Z</time>
      </trkpt>
      <trkpt lat="40.423077" lon="-4.539971">
        <ele>740.909</ele>
        <time>2022-12-19T02:56:20Z</time>
      </trkpt>
      <trkpt lat="40.423045" lon="-4.538598">
        <ele>736.656</ele>
        <time>2022-12-19T02:57:00Z</time>
      </trkpt>
      <trkpt lat="40.423151" lon="-4.535830">
        <ele>738.577</ele>
        <time>2022-12-19T02:57:40Z</time>
      </trkpt>
      <trkpt lat="40.423045" lon="-4.534414">
        <ele>731.816</ele>
        <time>2022-12-19T02:58:20Z</time>
      </trkpt>
      <trkpt lat="40.424335" lon="-4.534017">
        <ele>724.730</ele>
        <time>2022-12-19T02:59:00Z</time>
      </trkpt>
      <trkpt lat="40.425887" lon="-4.533695">
        <ele>730.918</ele>
        <time>2022-12-19T02:59:40Z</time>
      </trkpt>
      <trkpt lat="40.426426" lon="-4.534886">
        <ele>731.266</ele>
        <time>2022-12-19T03:00:20Z</time>
      </trkpt>
      <trkpt lat="40.427145" lon="-4.536002">
        <ele>737.964</ele>
        <time>2022-12-19T03:01:00Z</time>
      </trkpt>
      <trkpt lat="40.427324" lon="-4.537632">
        <ele>732.666</ele>
        <time>2022-12-19T03:01:40Z</time>
      </trkpt>
      <trkpt lat="40.428533" lon="-4.537675">
        <ele>736.513</ele>
        <time>2022-12-19T03:02:20Z</time>
      </trkpt>
      <trkpt lat="40.429750" lon="-4.537278">
        <ele>735.787</ele>
        <time>2022-12-19T03:03:00Z</time>
      </trkpt>
      <trkpt lat="40.430117" lon="-4.536710">
        <ele>730.842</ele>
        <time>2022-12-19T03:03:40Z</time>
      </trkpt>
      <trkpt lat="40.430746" lon="-4.537053">
        <ele>736.426</ele>
        <time>2022-12-19T03:04:20Z</time>
      </trkpt>
      <trkpt lat="40.430754" lon="-4.538566">
        <ele>749.309</ele>
        <time>2022-12-19T03:05:00Z</time>
      </trkpt>
      <trkpt lat="40.430077" lon="-4.539135">
        <ele>754.819</ele>
        <time>2022-12-19T03:05:40Z</time>
      </trkpt>
      <trkpt lat="40.429342" lon="-4.539542">
        <ele>739.130</ele>
        <time>2022-12-19T03:06:20Z</time>
      </trkpt>
      <trkpt lat="40.428909" lon="-4.540261">
        <ele>741.399</ele>
        <time>2022-12-19T03:07:00Z</time>
      </trkpt>
      <trkpt lat="40.428656" lon="-4.541355">
        <ele>755.253</ele>
        <time>2022-12-19T03:07:40Z</time>
      </trkpt>
      <trkpt lat="40.428778" lon="-4.541924">
        <ele>750.741</ele>
        <time>2022-12-19T03:08:20Z</time>
      </trkpt>
      <trkpt lat="40.429464" lon="-4.543898">
        <ele>745.539</ele>
        <time>2022-12-19T03:09:00Z</time>
      </trkpt>
      <trkpt lat="40.429489" lon="-4.545454">
        <ele>748.527</ele>
        <time>2022-12-19T03:09:40Z</time>
      </trkpt>
      <trkpt lat="40.428582" lon="-4.547932">
        <ele>742.179</ele>
        <time>2022-12-19T03:10:20Z</time>
      </trkpt>
      <trkpt lat="40.428639" lon="-4.550829">
        <ele>741.816</ele>
        <time>2022-12-19T03:11:00Z</time>
      </trkpt>
      <trkpt lat="40.428892" lon="-4.553683">
        <ele>734.318</ele>
        <time>2022-12-19T03:11:40Z</time>
      </trkpt>
      <trkpt lat="40.430371" lon="-4.554487">
        <ele>728.898</ele>
        <time>2022-12-19T03:12:20Z</time>
      </trkpt>
      <trkpt lat="40.431375" lon="-4.554026">
        <ele>736.417</ele>
        <time>2022-12-19T03:13:00Z</time>
      </trkpt>
      <trkpt lat="40.433017" lon="-4.553468">
        <ele>737.709</ele>
        <time>2022-12-19T03:13:40Z</time>
      </trkpt>
      <trkpt lat="40.434331" lon="-4.552674">
        <ele>753.562</ele>
        <time>2022-12-19T03:14:20Z</time>
      </trkpt>
      <trkpt lat="40.435091" lon="-4.552363">
        <ele>757.843</ele>
        <time>2022-12-19T03:15:00Z</time>
      </trkpt>
      <trkpt lat="40.435638" lon="-4.552170">
        <ele>761.742</ele>
        <time>2022-12-19T03:15:40Z</time>
      </trkpt>
      <trkpt lat="40.436103" lon="-4.552835">
        <ele>768.936</ele>
        <time>2022-12-19T03:16:20Z</time>
      </trkpt>
      <trkpt lat="40.435973" lon="-4.553543">
        <ele>769.874</ele>
        <time>2022-12-19T03:17:00Z</time>
      </trkpt>
      <trkpt lat="40.436136" lon="-4.554756">
        <ele>774.222</ele>
        <time>2022-12-19T03:17:40Z</time>
      </trkpt>
      <trkpt lat="40.436618" lon="-4.555979">
        <ele>774.090</ele>
        <time>2022-12-19T03:18:20Z</time>
      </trkpt>
      <trkpt lat="40.437214" lon="-4.556751">
        <ele>771.972</ele>
        <time>2022-12-19T03:19:00Z</time>
      </trkpt>
      <trkpt lat="40.437067" lon="-4.558994">
        <ele>763.659</ele>
        <time>2022-12-19T03:19:40Z</time>
      </trkpt>
      <trkpt lat="40.437075" lon="-4.561096">
        <ele>754.035</ele>
        <time>2022-12-19T03:20:20Z</time>
      </trkpt>
      <trkpt lat="40.437614" lon="-4.561300">
        <ele>750.086</ele>
        <time>2022-12-19T03:21:00Z</time>
      </trkpt>
      <trkpt lat="40.438406" lon="-4.560646">
        <ele>750.514</ele>
        <time>2022-12-19T03:21:40Z</time>
      </trkpt>
      <trkpt lat="40.438953" lon="-4.559294">
        <ele>756.409</ele>
        <time>2022-12-19T03:22:20Z</time>
      </trkpt>
      <trkpt lat="40.439664" lon="-4.559412">
        <ele>756.774</ele>
        <time>2022-12-19T03:23:00Z</time>
      </trkpt>
      <trkpt lat="40.440333" lon="-4.560592">
        <ele>749.315</ele>
        <time>2022-12-19T03:23:40Z</time>
      </trkpt>
      <trkpt lat="40.441338" lon="-4.561236">
        <ele>739.384</ele>
        <time>2022-12-19T03:24:20Z</time>
      </trkpt>
      <trkpt lat="40.442358" lon="-4.561837">
        <ele>737.978</ele>
        <time>2022-12-19T03:25:00Z</time>
      </trkpt>
      <trkpt lat="40.443085" lon="-4.563071">
        <ele>728.086</ele>
        <time>2022-12-19T03:25:40Z</time>
      </trkpt>
      <trkpt lat="40.443518" lon="-4.564111">
        <ele>728.014</ele>
        <time>2022-12-19T03:26:20Z</time>
      </trkpt>
      <trkpt lat="40.443910" lon="-4.564905">
        <ele>729.212</ele>
        <time>2022-12-19T03:27:00Z</time>
      </trkpt>
      <trkpt lat="40.444187" lon="-4.565452">
        <ele>729.234</ele>
        <time>2022-12-19T03:27:40Z</time>
      </trkpt>
      <trkpt lat="40.444287" lon="-4.565772">
        <ele>729.971</ele>
        <time>2022-12-19T03:28:20Z</time>
      </trkpt>
      <trkpt lat="40.444265" lon="-4.565887">
        <ele>730.657</ele>
        <time>2022-12-19T03:29:00Z</time>
      </trkpt>
      <trkpt lat="40.444106" lon="-4.565914">
        <ele>732.500</ele>
        <time>2022-12-19T03:29:40Z</time>
      </trkpt>
      <trkpt lat="40.444000" lon="-4.565906">
        <ele>733.920</ele>
        <time>2022-12-19T03:30:20Z</time>
      </trkpt>
      <trkpt lat="40.443814" lon="-4.565871">
        <ele>735.509</ele>
        <time>2022-12-19T03:31:00Z</time>
      </trkpt>
      <trkpt lat="40.443487" lon="-4.565844">
        <ele>736.116</ele>
        <time>2022-12-19T03:31:40Z</time>
      </trkpt>
      <trkpt lat="40.443228" lon="-4.565938">
        <ele>736.857</ele>
        <time>2022-12-19T03:32:20Z</time>
      </trkpt>
      <trkpt lat="40.443146" lon="-4.566123">
        <ele>738.126</ele>
        <time>2022-12-19T03:33:00Z</time>
      </trkpt>
      <trkpt lat="40.442854" lon="-4.566281">
        <ele>738.930</ele>
        <time>2022-12-19T03:33:40Z</time>
      </trkpt>
      <trkpt lat="40.442293" lon="-4.566480">
        <ele>734.888</ele>
        <time>2022-12-19T03:34:20Z</time>
      </trkpt>
      <trkpt lat="40.442109" lon="-4.567000">
        <ele>735.736</ele>
        <time>2022-12-19T03:35:00Z</time>
      </trkpt>
      <trkpt lat="40.441940" lon="-4.567373">
        <ele>736.694</ele>
        <time>2022-12-19T03:35:40Z</time>
      </trkpt>
      <trkpt lat="40.441834" lon="-4.567349">
        <ele>735.456</ele>
        <time>2022-12-19T03:36:20Z</time>
      </trkpt>
      <trkpt lat="40.441601" lon="-4.567223">
        <ele>732.283</ele>
        <time>2022-12-19T03:37:00Z</time>
      </trkpt>
      <trkpt lat="40.441452" lon="-4.567182">
        <ele>732.139</ele>
        <time>2022-12-19T03:37:40Z</time>
      </trkpt>
      <trkpt lat="40.441262" lon="-4.567268">
        <ele>732.901</ele>
        <time>2022-12-19T03:38:20Z</time>
      </trkpt>
      <trkpt lat="40.440760" lon="-4.567668">
        <ele>731.621</ele>
        <time>2022-12-19T03:39:00Z</time>
      </trkpt>
      <trkpt lat="40.440558" lon="-4.567955">
        <ele>733.209</ele>
        <time>2022-12-19T03:39:40Z</time>
      </trkpt>
      <trkpt lat="40.440297" lon="-4.567743">
        <ele>729.874</ele>
        <time>2022-12-19T03:40:20Z</time>
      </trkpt>
      <trkpt lat="40.440152" lon="-4.567831">
        <ele>730.575</ele>
        <time>2022-12-19T03:41:00Z</time>
      </trkpt>
      <trkpt lat="40.440033" lon="-4.567896">
        <ele>730.994</ele>
        <time>2022-12-19T03:41:40Z</time>
      </trkpt>
      <trkpt lat="40.439882" lon="-4.567831">
        <ele>730.428</ele>
        <time>2022-12-19T03:42:20Z</time>
      </trkpt>
      <trkpt lat="40.439809" lon="-4.567735">
        <ele>729.726</ele>
        <time>2022-12-19T03:43:00Z</time>
      </trkpt>
      <trkpt lat="40.439649" lon="-4.567764">
        <ele>729.974</ele>
        <time>2022-12-19T03:43:40Z</time>
      </trkpt>
      <trkpt lat="40.439415" lon="-4.567730">
        <ele>729.792</ele>
        <time>2022-12-19T03:44:20Z</time>
      </trkpt>
      <trkpt lat="40.439225" lon="-4.567740">
        <ele>729.714</ele>
        <time>2022-12-19T03:45:00Z</time>
      </trkpt>
      <trkpt lat="40.439025" lon="-4.567856">
        <ele>729.591</ele>
        <time>2022-12-19T03:45:40Z</time>
      </trkpt>
      <trkpt lat="40.438878" lon="-4.568121">
        <ele>730.463</ele>
        <time>2022-12-19T03:46:20Z</time>
      </trkpt>
      <trkpt lat="40.438682" lon="-4.568255">
        <ele>730.744</ele>
        <time>2022-12-19T03:47:00Z</time>
      </trkpt>
      <trkpt lat="40.438516" lon="-4.568199">
        <ele>730.218</ele>
        <time>2022-12-19T03:47:40Z</time>
      </trkpt>
      <trkpt lat="40.438323" lon="-4.568116">
        <ele>730.209</ele>
        <time>2022-12-19T03:48:20Z</time>
      </trkpt>
      <trkpt lat="40.438222" lon="-4.568059">
        <ele>730.057</ele>
        <time>2022-12-19T03:49:00Z</time>
      </trkpt>
      <trkpt lat="40.437818" lon="-4.568159">
        <ele>729.078</ele>
        <time>2022-12-19T03:49:40Z</time>
      </trkpt>
      <trkpt lat="40.437590" lon="-4.568400">
        <ele>728.947</ele>
        <time>2022-12-19T03:50:20Z</time>
      </trkpt>
      <trkpt lat="40.437545" lon="-4.568561">
        <ele>729.151</ele>
        <time>2022-12-19T03:51:00Z</time>
      </trkpt>
      <trkpt lat="40.437365" lon="-4.568518">
        <ele>730.059</ele>
        <time>2022-12-19T03:51:40Z</time>
      </trkpt>
      <trkpt lat="40.437283" lon="-4.568365">
        <ele>729.847</ele>
        <time>2022-12-19T03:52:20Z</time>
      </trkpt>
      <trkpt lat="40.436996" lon="-4.568049">
        <ele>734.465</ele>
        <time>2022-12-19T03:53:00Z</time>
      </trkpt>
      <trkpt lat="40.436808" lon="-4.567459">
        <ele>735.077</ele>
        <time>2022-12-19T03:53:40Z</time>
      </trkpt>
      <trkpt lat="40.436642" lon="-4.567075">
        <ele>735.634</ele>
        <time>2022-12-19T03:54:20Z</time>
      </trkpt>
      <trkpt lat="40.436289" lon="-4.566804">
        <ele>733.855</ele>
        <time>2022-12-19T03:55:00Z</time>
      </trkpt>
      <trkpt lat="40.436024" lon="-4.566820">
        <ele>734.907</ele>
        <time>2022-12-19T03:55:40Z</time>
      </trkpt>
      <trkpt lat="40.435593" lon="-4.566911">
        <ele>740.917</ele>
        <time>2022-12-19T03:56:20Z</time>
      </trkpt>
      <trkpt lat="40.435134" lon="-4.566992">
        <ele>742.809</ele>
        <time>2022-12-19T03:57:00Z</time>
      </trkpt>
      <trkpt lat="40.434687" lon="-4.567308">
        <ele>745.756</ele>
        <time>2022-12-19T03:57:40Z</time>
      </trkpt>
      <trkpt lat="40.434450" lon="-4.567472">
        <ele>745.187</ele>
        <time>2022-12-19T03:58:20Z</time>
      </trkpt>
      <trkpt lat="40.433876" lon="-4.568051">
        <ele>746.936</ele>
        <time>2022-12-19T03:59:00Z</time>
      </trkpt>
      <trkpt lat="40.433509" lon="-4.567740">
        <ele>745.180</ele>
        <time>2022-12-19T03:59:40Z</time>
      </trkpt>
      <trkpt lat="40.433168" lon="-4.567426">
        <ele>748.918</ele>
        <time>2022-12-19T04:00:20Z</time>
      </trkpt>
      <trkpt lat="40.432876" lon="-4.567051">
        <ele>743.686</ele>
        <time>2022-12-19T04:01:00Z</time>
      </trkpt>
      <trkpt lat="40.432457" lon="-4.567201">
        <ele>745.484</ele>
        <time>2022-12-19T04:01:40Z</time>
      </trkpt>
      <trkpt lat="40.432118" lon="-4.566911">
        <ele>739.246</ele>
        <time>2022-12-19T04:02:20Z</time>
      </trkpt>
      <trkpt lat="40.430567" lon="-4.567223">
        <ele>745.123</ele>
        <time>2022-12-19T04:03:00Z</time>
      </trkpt>
      <trkpt lat="40.429905" lon="-4.567287">
        <ele>750.873</ele>
        <time>2022-12-19T04:03:40Z</time>
      </trkpt>
      <trkpt lat="40.429521" lon="-4.567019">
        <ele>747.685</ele>
        <time>2022-12-19T04:04:20Z</time>
      </trkpt>
      <trkpt lat="40.429186" lon="-4.567244">
        <ele>755.613</ele>
        <time>2022-12-19T04:05:00Z</time>
      </trkpt>
      <trkpt lat="40.428656" lon="-4.566729">
        <ele>748.209</ele>
        <time>2022-12-19T04:05:40Z</time>
      </trkpt>
      <trkpt lat="40.427945" lon="-4.567257">
        <ele>753.478</ele>
        <time>2022-12-19T04:06:20Z</time>
      </trkpt>
      <trkpt lat="40.427622" lon="-4.568073">
        <ele>750.059</ele>
        <time>2022-12-19T04:07:00Z</time>
      </trkpt>
      <trkpt lat="40.427426" lon="-4.568532">
        <ele>752.358</ele>
        <time>2022-12-19T04:07:40Z</time>
      </trkpt>
      <trkpt lat="40.427139" lon="-4.569427">
        <ele>756.392</ele>
        <time>2022-12-19T04:08:20Z</time>
      </trkpt>
      <trkpt lat="40.426906" lon="-4.571187">
        <ele>745.750</ele>
        <time>2022-12-19T04:09:00Z</time>
      </trkpt>
      <trkpt lat="40.427022" lon="-4.571857">
        <ele>738.418</ele>
        <time>2022-12-19T04:09:40Z</time>
      </trkpt>
      <trkpt lat="40.427179" lon="-4.572037">
        <ele>740.336</ele>
        <time>2022-12-19T04:10:20Z</time>
      </trkpt>
      <trkpt lat="40.427214" lon="-4.572512">
        <ele>739.778</ele>
        <time>2022-12-19T04:11:00Z</time>
      </trkpt>
      <trkpt lat="40.427149" lon="-4.572850">
        <ele>739.755</ele>
        <time>2022-12-19T04:11:40Z</time>
      </trkpt>
      <trkpt lat="40.427063" lon="-4.573083">
        <ele>741.886</ele>
        <time>2022-12-19T04:12:20Z</time>
      </trkpt>
      <trkpt lat="40.426963" lon="-4.573123">
        <ele>737.160</ele>
        <time>2022-12-19T04:13:00Z</time>
      </trkpt>
      <trkpt lat="40.426796" lon="-4.573405">
        <ele>735.426</ele>
        <time>2022-12-19T04:13:40Z</time>
      </trkpt>
      <trkpt lat="40.426734" lon="-4.573783">
        <ele>737.909</ele>
        <time>2022-12-19T04:14:20Z</time>
      </trkpt>
      <trkpt lat="40.426320" lon="-4.574620">
        <ele>738.379</ele>
        <time>2022-12-19T04:15:00Z</time>
      </trkpt>
      <trkpt lat="40.426150" lon="-4.575425">
        <ele>742.110</ele>
        <time>2022-12-19T04:15:40Z</time>
      </trkpt>
      <trkpt lat="40.425775" lon="-4.576227">
        <ele>745.029</ele>
        <time>2022-12-19T04:16:20Z</time>
      </trkpt>
      <trkpt lat="40.425789" lon="-4.577101">
        <ele>743.413</ele>
        <time>2022-12-19T04:17:00Z</time>
      </trkpt>
      <trkpt lat="40.425842" lon="-4.577836">
        <ele>738.521</ele>
        <time>2022-12-19T04:17:40Z</time>
      </trkpt>
      <trkpt lat="40.426644" lon="-4.579209">
        <ele>735.359</ele>
        <time>2022-12-19T04:18:20Z</time>
      </trkpt>
      <trkpt lat="40.426338" lon="-4.579958">
        <ele>734.627</ele>
        <time>2022-12-19T04:19:00Z</time>
      </trkpt>
      <trkpt lat="40.426124" lon="-4.581202">
        <ele>736.879</ele>
        <time>2022-12-19T04:19:40Z</time>
      </trkpt>
      <trkpt lat="40.425875" lon="-4.582012">
        <ele>731.936</ele>
        <time>2022-12-19T04:20:20Z</time>
      </trkpt>
      <trkpt lat="40.426432" lon="-4.583292">
        <ele>737.578</ele>
        <time>2022-12-19T04:21:00Z</time>
      </trkpt>
      <trkpt lat="40.426898" lon="-4.583689">
        <ele>738.133</ele>
        <time>2022-12-19T04:21:40Z</time>
      </trkpt>
      <trkpt lat="40.427253" lon="-4.583796">
        <ele>734.126</ele>
        <time>2022-12-19T04:22:20Z</time>
      </trkpt>
      <trkpt lat="40.427522" lon="-4.583847">
        <ele>731.609</ele>
        <time>2022-12-19T04:23:00Z</time>
      </trkpt>
      <trkpt lat="40.427759" lon="-4.583879">
        <ele>729.668</ele>
        <time>2022-12-19T04:23:40Z</time>
      </trkpt>
      <trkpt lat="40.428104" lon="-4.583766">
        <ele>734.849</ele>
        <time>2022-12-19T04:24:20Z</time>
      </trkpt>
      <trkpt lat="40.428486" lon="-4.583807">
        <ele>733.528</ele>
        <time>2022-12-19T04:25:00Z</time>
      </trkpt>
      <trkpt lat="40.428743" lon="-4.583866">
        <ele>731.792</ele>
        <time>2022-12-19T04:25:40Z</time>
      </trkpt>
      <trkpt lat="40.429374" lon="-4.583973">
        <ele>731.590</ele>
        <time>2022-12-19T04:26:20Z</time>
      </trkpt>
      <trkpt lat="40.429746" lon="-4.584008">
        <ele>732.948</ele>
        <time>2022-12-19T04:27:00Z</time>
      </trkpt>
      <trkpt lat="40.429676" lon="-4.584799">
        <ele>731.376</ele>
        <time>2022-12-19T04:27:40Z</time>
      </trkpt>
      <trkpt lat="40.429368" lon="-4.585091">
        <ele>729.528</ele>
        <time>2022-12-19T04:28:20Z</time>
      </trkpt>
      <trkpt lat="40.429372" lon="-4.585421">
        <ele>729.145</ele>
        <time>2022-12-19T04:29:00Z</time>
      </trkpt>
      <trkpt lat="40.429511" lon="-4.585641">
        <ele>732.159</ele>
        <time>2022-12-19T04:29:40Z</time>
      </trkpt>
      <trkpt lat="40.429321" lon="-4.586076">
        <ele>731.903</ele>
        <time>2022-12-19T04:30:20Z</time>
      </trkpt>
      <trkpt lat="40.429137" lon="-4.586339">
        <ele>732.123</ele>
        <time>2022-12-19T04:31:00Z</time>
      </trkpt>
      <trkpt lat="40.429066" lon="-4.586588">
        <ele>734.209</ele>
        <time>2022-12-19T04:31:40Z</time>
      </trkpt>
      <trkpt lat="40.429046" lon="-4.586811">
        <ele>737.146</ele>
        <time>2022-12-19T04:32:20Z</time>
      </trkpt>
      <trkpt lat="40.428917" lon="-4.586875">
        <ele>737.887</ele>
        <time>2022-12-19T04:33:00Z</time>
      </trkpt>
      <trkpt lat="40.428768" lon="-4.586712">
        <ele>736.866</ele>
        <time>2022-12-19T04:33:40Z</time>
      </trkpt>
      <trkpt lat="40.428551" lon="-4.586553">
        <ele>735.260</ele>
        <time>2022-12-19T04:34:20Z</time>
      </trkpt>
      <trkpt lat="40.428415" lon="-4.586443">
        <ele>732.938</ele>
        <time>2022-12-19T04:35:00Z</time>
      </trkpt>
      <trkpt lat="40.428041" lon="-4.586521">
        <ele>731.816</ele>
        <time>2022-12-19T04:35:40Z</time>
      </trkpt>
      <trkpt lat="40.427694" lon="-4.586730">
        <ele>732.034</ele>
        <time>2022-12-19T04:36:20Z</time>
      </trkpt>
      <trkpt lat="40.427492" lon="-4.587130">
        <ele>733.576</ele>
        <time>2022-12-19T04:37:00Z</time>
      </trkpt>
      <trkpt lat="40.427361" lon="-4.587524">
        <ele>732.863</ele>
        <time>2022-12-19T04:37:40Z</time>
      </trkpt>
      <trkpt lat="40.427367" lon="-4.587817">
        <ele>730.315</ele>
        <time>2022-12-19T04:38:20Z</time>
      </trkpt>
      <trkpt lat="40.427755" lon="-4.588428">
        <ele>731.965</ele>
        <time>2022-12-19T04:39:00Z</time>
      </trkpt>
      <trkpt lat="40.428137" lon="-4.588852">
        <ele>732.611</ele>
        <time>2022-12-19T04:39:40Z</time>
      </trkpt>
      <trkpt lat="40.428400" lon="-4.589944">
        <ele>740.909</ele>
        <time>2022-12-19T04:40:20Z</time>
      </trkpt>
      <trkpt lat="40.428284" lon="-4.590362">
        <ele>741.752</ele>
        <time>2022-12-19T04:41:00Z</time>
      </trkpt>
      <trkpt lat="40.428306" lon="-4.590974">
        <ele>745.723</ele>
        <time>2022-12-19T04:41:40Z</time>
      </trkpt>
      <trkpt lat="40.428178" lon="-4.591352">
        <ele>735.722</ele>
        <time>2022-12-19T04:42:20Z</time>
      </trkpt>
      <trkpt lat="40.428272" lon="-4.592057">
        <ele>734.276</ele>
        <time>2022-12-19T04:43:00Z</time>
      </trkpt>
      <trkpt lat="40.428409" lon="-4.593012">
        <ele>736.674</ele>
        <time>2022-12-19T04:43:40Z</time>
      </trkpt>
      <trkpt lat="40.428360" lon="-4.593479">
        <ele>732.842</ele>
        <time>2022-12-19T04:44:20Z</time>
      </trkpt>
      <trkpt lat="40.428815" lon="-4.594637">
        <ele>734.170</ele>
        <time>2022-12-19T04:45:00Z</time>
      </trkpt>
      <trkpt lat="40.429123" lon="-4.594766">
        <ele>734.682</ele>
        <time>2022-12-19T04:45:40Z</time>
      </trkpt>
      <trkpt lat="40.429448" lon="-4.594686">
        <ele>735.629</ele>
        <time>2022-12-19T04:46:20Z</time>
      </trkpt>
      <trkpt lat="40.429725" lon="-4.594608">
        <ele>733.727</ele>
        <time>2022-12-19T04:47:00Z</time>
      </trkpt>
      <trkpt lat="40.430003" lon="-4.594715">
        <ele>732.168</ele>
        <time>2022-12-19T04:47:40Z</time>
      </trkpt>
      <trkpt lat="40.430344" lon="-4.594809">
        <ele>730.714</ele>
        <time>2022-12-19T04:48:20Z</time>
      </trkpt>
      <trkpt lat="40.430495" lon="-4.594975">
        <ele>731.309</ele>
        <time>2022-12-19T04:49:00Z</time>
      </trkpt>
      <trkpt lat="40.430444" lon="-4.595329">
        <ele>734.663</ele>
        <time>2022-12-19T04:49:40Z</time>
      </trkpt>
      <trkpt lat="40.430301" lon="-4.595643">
        <ele>736.984</ele>
        <time>2022-12-19T04:50:20Z</time>
      </trkpt>
      <trkpt lat="40.430185" lon="-4.596276">
        <ele>736.983</ele>
        <time>2022-12-19T04:51:00Z</time>
      </trkpt>
      <trkpt lat="40.430146" lon="-4.596781">
        <ele>734.737</ele>
        <time>2022-12-19T04:51:40Z</time>
      </trkpt>
      <trkpt lat="40.430126" lon="-4.597129">
        <ele>735.395</ele>
        <time>2022-12-19T04:52:20Z</time>
      </trkpt>
      <trkpt lat="40.430240" lon="-4.598202">
        <ele>730.153</ele>
        <time>2022-12-19T04:53:00Z</time>
      </trkpt>
      <trkpt lat="40.430669" lon="-4.598956">
        <ele>744.491</ele>
        <time>2022-12-19T04:53:40Z</time>
      </trkpt>
      <trkpt lat="40.430818" lon="-4.599280">
        <ele>751.523</ele>
        <time>2022-12-19T04:54:20Z</time>
      </trkpt>
      <trkpt lat="40.430985" lon="-4.599562">
        <ele>753.370</ele>
        <time>2022-12-19T04:55:00Z</time>
      </trkpt>
      <trkpt lat="40.431600" lon="-4.599573">
        <ele>763.271</ele>
        <time>2022-12-19T04:55:40Z</time>
      </trkpt>
      <trkpt lat="40.432020" lon="-4.599699">
        <ele>763.441</ele>
        <time>2022-12-19T04:56:20Z</time>
      </trkpt>
      <trkpt lat="40.432494" lon="-4.600418">
        <ele>761.515</ele>
        <time>2022-12-19T04:57:00Z</time>
      </trkpt>
      <trkpt lat="40.433311" lon="-4.600643">
        <ele>746.809</ele>
        <time>2022-12-19T04:57:40Z</time>
      </trkpt>
      <trkpt lat="40.433801" lon="-4.601072">
        <ele>749.048</ele>
        <time>2022-12-19T04:58:20Z</time>
      </trkpt>
      <trkpt lat="40.434421" lon="-4.601802">
        <ele>737.419</ele>
        <time>2022-12-19T04:59:00Z</time>
      </trkpt>
      <trkpt lat="40.435377" lon="-4.601469">
        <ele>746.798</ele>
        <time>2022-12-19T04:59:40Z</time>
      </trkpt>
      <trkpt lat="40.435973" lon="-4.601233">
        <ele>745.242</ele>
        <time>2022-12-19T05:00:20Z</time>
      </trkpt>
      <trkpt lat="40.436495" lon="-4.601330">
        <ele>743.420</ele>
        <time>2022-12-19T05:01:00Z</time>
      </trkpt>
      <trkpt lat="40.437475" lon="-4.600675">
        <ele>739.758</ele>
        <time>2022-12-19T05:01:40Z</time>
      </trkpt>
      <trkpt lat="40.437859" lon="-4.601276">
        <ele>740.226</ele>
        <time>2022-12-19T05:02:20Z</time>
      </trkpt>
      <trkpt lat="40.438325" lon="-4.601458">
        <ele>740.098</ele>
        <time>2022-12-19T05:03:00Z</time>
      </trkpt>
      <trkpt lat="40.438382" lon="-4.601791">
        <ele>743.495</ele>
        <time>2022-12-19T05:03:40Z</time>
      </trkpt>
      <trkpt lat="40.438186" lon="-4.602263">
        <ele>749.085</ele>
        <time>2022-12-19T05:04:20Z</time>
      </trkpt>
      <trkpt lat="40.437875" lon="-4.602638">
        <ele>753.789</ele>
        <time>2022-12-19T05:05:00Z</time>
      </trkpt>
      <trkpt lat="40.437239" lon="-4.603336">
        <ele>744.517</ele>
        <time>2022-12-19T05:05:40Z</time>
      </trkpt>
      <trkpt lat="40.436397" lon="-4.603969">
        <ele>749.909</ele>
        <time>2022-12-19T05:06:20Z</time>
      </trkpt>
      <trkpt lat="40.435744" lon="-4.604527">
        <ele>748.929</ele>
        <time>2022-12-19T05:07:00Z</time>
      </trkpt>
      <trkpt lat="40.435515" lon="-4.605364">
        <ele>752.480</ele>
        <time>2022-12-19T05:07:40Z</time>
      </trkpt>
      <trkpt lat="40.435083" lon="-4.606458">
        <ele>748.929</ele>
        <time>2022-12-19T05:08:20Z</time>
      </trkpt>
      <trkpt lat="40.434838" lon="-4.607574">
        <ele>748.983</ele>
        <time>2022-12-19T05:09:00Z</time>
      </trkpt>
      <trkpt lat="40.433997" lon="-4.608260">
        <ele>746.091</ele>
        <time>2022-12-19T05:09:40Z</time>
      </trkpt>
      <trkpt lat="40.433498" lon="-4.608722">
        <ele>744.879</ele>
        <time>2022-12-19T05:10:20Z</time>
      </trkpt>
      <trkpt lat="40.432641" lon="-4.610406">
        <ele>740.167</ele>
        <time>2022-12-19T05:11:00Z</time>
      </trkpt>
      <trkpt lat="40.432870" lon="-4.613217">
        <ele>743.489</ele>
        <time>2022-12-19T05:11:40Z</time>
      </trkpt>
      <trkpt lat="40.433523" lon="-4.613893">
        <ele>738.856</ele>
        <time>2022-12-19T05:12:20Z</time>
      </trkpt>
      <trkpt lat="40.434609" lon="-4.615341">
        <ele>749.754</ele>
        <time>2022-12-19T05:13:00Z</time>
      </trkpt>
      <trkpt lat="40.435075" lon="-4.616028">
        <ele>745.856</ele>
        <time>2022-12-19T05:13:40Z</time>
      </trkpt>
      <trkpt lat="40.434821" lon="-4.616843">
        <ele>748.111</ele>
        <time>2022-12-19T05:14:20Z</time>
      </trkpt>
      <trkpt lat="40.433637" lon="-4.618131">
        <ele>746.709</ele>
        <time>2022-12-19T05:15:00Z</time>
      </trkpt>
      <trkpt lat="40.432861" lon="-4.618903">
        <ele>747.676</ele>
        <time>2022-12-19T05:15:40Z</time>
      </trkpt>
      <trkpt lat="40.432339" lon="-4.619054">
        <ele>745.217</ele>
        <time>2022-12-19T05:16:20Z</time>
      </trkpt>
      <trkpt lat="40.432339" lon="-4.619944">
        <ele>741.186</ele>
        <time>2022-12-19T05:17:00Z</time>
      </trkpt>
      <trkpt lat="40.432192" lon="-4.620599">
        <ele>737.380</ele>
        <time>2022-12-19T05:17:40Z</time>
      </trkpt>
      <trkpt lat="40.431767" lon="-4.620405">
        <ele>745.658</ele>
        <time>2022-12-19T05:18:20Z</time>
      </trkpt>
      <trkpt lat="40.430795" lon="-4.619612">
        <ele>742.776</ele>
        <time>2022-12-19T05:19:00Z</time>
      </trkpt>
      <trkpt lat="40.430616" lon="-4.618860">
        <ele>743.994</ele>
        <time>2022-12-19T05:19:40Z</time>
      </trkpt>
      <trkpt lat="40.430313" lon="-4.618506">
        <ele>745.986</ele>
        <time>2022-12-19T05:20:20Z</time>
      </trkpt>
      <trkpt lat="40.429815" lon="-4.618227">
        <ele>746.193</ele>
        <time>2022-12-19T05:21:00Z</time>
      </trkpt>
      <trkpt lat="40.429464" lon="-4.618002">
        <ele>748.218</ele>
        <time>2022-12-19T05:21:40Z</time>
      </trkpt>
      <trkpt lat="40.429286" lon="-4.618048">
        <ele>748.998</ele>
        <time>2022-12-19T05:22:20Z</time>
      </trkpt>
      <trkpt lat="40.429209" lon="-4.618163">
        <ele>749.817</ele>
        <time>2022-12-19T05:23:00Z</time>
      </trkpt>
      <trkpt lat="40.429054" lon="-4.618383">
        <ele>750.809</ele>
        <time>2022-12-19T05:23:40Z</time>
      </trkpt>
      <trkpt lat="40.428784" lon="-4.618844">
        <ele>753.742</ele>
        <time>2022-12-19T05:24:20Z</time>
      </trkpt>
      <trkpt lat="40.428645" lon="-4.619260">
        <ele>756.313</ele>
        <time>2022-12-19T05:25:00Z</time>
      </trkpt>
      <trkpt lat="40.428556" lon="-4.619740">
        <ele>759.392</ele>
        <time>2022-12-19T05:25:40Z</time>
      </trkpt>
      <trkpt lat="40.428745" lon="-4.620419">
        <ele>763.556</ele>
        <time>2022-12-19T05:26:20Z</time>
      </trkpt>
      <trkpt lat="40.429244" lon="-4.620687">
        <ele>768.114</ele>
        <time>2022-12-19T05:27:00Z</time>
      </trkpt>
      <trkpt lat="40.429954" lon="-4.620985">
        <ele>773.992</ele>
        <time>2022-12-19T05:27:40Z</time>
      </trkpt>
      <trkpt lat="40.430330" lon="-4.621865">
        <ele>775.550</ele>
        <time>2022-12-19T05:28:20Z</time>
      </trkpt>
      <trkpt lat="40.430534" lon="-4.622873">
        <ele>778.482</ele>
        <time>2022-12-19T05:29:00Z</time>
      </trkpt>
      <trkpt lat="40.430487" lon="-4.623088">
        <ele>781.249</ele>
        <time>2022-12-19T05:29:40Z</time>
      </trkpt>
      <trkpt lat="40.430489" lon="-4.623756">
        <ele>785.084</ele>
        <time>2022-12-19T05:30:20Z</time>
      </trkpt>
      <trkpt lat="40.430191" lon="-4.623992">
        <ele>791.407</ele>
        <time>2022-12-19T05:31:00Z</time>
      </trkpt>
      <trkpt lat="40.430060" lon="-4.624107">
        <ele>795.117</ele>
        <time>2022-12-19T05:31:40Z</time>
      </trkpt>
      <trkpt lat="40.429611" lon="-4.625309">
        <ele>805.109</ele>
        <time>2022-12-19T05:32:20Z</time>
      </trkpt>
      <trkpt lat="40.429962" lon="-4.626650">
        <ele>816.889</ele>
        <time>2022-12-19T05:33:00Z</time>
      </trkpt>
      <trkpt lat="40.430518" lon="-4.627765">
        <ele>823.280</ele>
        <time>2022-12-19T05:33:40Z</time>
      </trkpt>
      <trkpt lat="40.431269" lon="-4.629407">
        <ele>829.959</ele>
        <time>2022-12-19T05:34:20Z</time>
      </trkpt>
      <trkpt lat="40.431930" lon="-4.631767">
        <ele>849.053</ele>
        <time>2022-12-19T05:35:00Z</time>
      </trkpt>
      <trkpt lat="40.431979" lon="-4.632550">
        <ele>845.521</ele>
        <time>2022-12-19T05:35:40Z</time>
      </trkpt>
      <trkpt lat="40.431351" lon="-4.633023">
        <ele>849.429</ele>
        <time>2022-12-19T05:36:20Z</time>
      </trkpt>
      <trkpt lat="40.430877" lon="-4.633194">
        <ele>853.537</ele>
        <time>2022-12-19T05:37:00Z</time>
      </trkpt>
      <trkpt lat="40.430730" lon="-4.634289">
        <ele>860.049</ele>
        <time>2022-12-19T05:37:40Z</time>
      </trkpt>
      <trkpt lat="40.430730" lon="-4.634986">
        <ele>858.186</ele>
        <time>2022-12-19T05:38:20Z</time>
      </trkpt>
      <trkpt lat="40.431220" lon="-4.635340">
        <ele>856.736</ele>
        <time>2022-12-19T05:39:00Z</time>
      </trkpt>
      <trkpt lat="40.431171" lon="-4.635844">
        <ele>856.017</ele>
        <time>2022-12-19T05:39:40Z</time>
      </trkpt>
      <trkpt lat="40.431146" lon="-4.636917">
        <ele>854.918</ele>
        <time>2022-12-19T05:40:20Z</time>
      </trkpt>
      <trkpt lat="40.430959" lon="-4.638194">
        <ele>851.109</ele>
        <time>2022-12-19T05:41:00Z</time>
      </trkpt>
      <trkpt lat="40.430861" lon="-4.639621">
        <ele>847.444</ele>
        <time>2022-12-19T05:41:40Z</time>
      </trkpt>
      <trkpt lat="40.430346" lon="-4.640769">
        <ele>843.555</ele>
        <time>2022-12-19T05:42:20Z</time>
      </trkpt>
      <trkpt lat="40.430101" lon="-4.642282">
        <ele>841.924</ele>
        <time>2022-12-19T05:43:00Z</time>
      </trkpt>
      <trkpt lat="40.430036" lon="-4.643161">
        <ele>839.588</ele>
        <time>2022-12-19T05:43:40Z</time>
      </trkpt>
      <trkpt lat="40.429791" lon="-4.644642">
        <ele>837.366</ele>
        <time>2022-12-19T05:44:20Z</time>
      </trkpt>
      <trkpt lat="40.429480" lon="-4.645479">
        <ele>835.354</ele>
        <time>2022-12-19T05:45:00Z</time>
      </trkpt>
      <trkpt lat="40.428835" lon="-4.646401">
        <ele>829.482</ele>
        <time>2022-12-19T05:45:40Z</time>
      </trkpt>
      <trkpt lat="40.428615" lon="-4.647206">
        <ele>828.154</ele>
        <time>2022-12-19T05:46:20Z</time>
      </trkpt>
      <trkpt lat="40.427398" lon="-4.648869">
        <ele>821.711</ele>
        <time>2022-12-19T05:47:00Z</time>
      </trkpt>
      <trkpt lat="40.426867" lon="-4.649030">
        <ele>820.487</ele>
        <time>2022-12-19T05:47:40Z</time>
      </trkpt>
      <trkpt lat="40.425895" lon="-4.649041">
        <ele>817.042</ele>
        <time>2022-12-19T05:48:20Z</time>
      </trkpt>
      <trkpt lat="40.425356" lon="-4.649212">
        <ele>815.326</ele>
        <time>2022-12-19T05:49:00Z</time>
      </trkpt>
      <trkpt lat="40.424833" lon="-4.649577">
        <ele>811.809</ele>
        <time>2022-12-19T05:49:40Z</time>
      </trkpt>
      <trkpt lat="40.424066" lon="-4.650253">
        <ele>810.139</ele>
        <time>2022-12-19T05:50:20Z</time>
      </trkpt>
      <trkpt lat="40.423935" lon="-4.650382">
        <ele>811.310</ele>
        <time>2022-12-19T05:51:00Z</time>
      </trkpt>
      <trkpt lat="40.423886" lon="-4.650446">
        <ele>811.459</ele>
        <time>2022-12-19T05:51:40Z</time>
      </trkpt>
      <trkpt lat="40.423802" lon="-4.650419">
        <ele>811.893</ele>
        <time>2022-12-19T05:52:20Z</time>
      </trkpt>
      <trkpt lat="40.423473" lon="-4.650741">
        <ele>812.381</ele>
        <time>2022-12-19T05:53:00Z</time>
      </trkpt>
      <trkpt lat="40.423373" lon="-4.650806">
        <ele>812.239</ele>
        <time>2022-12-19T05:53:40Z</time>
      </trkpt>
      <trkpt lat="40.423186" lon="-4.650913">
        <ele>810.047</ele>
        <time>2022-12-19T05:54:20Z</time>
      </trkpt>
      <trkpt lat="40.422957" lon="-4.651052">
        <ele>806.549</ele>
        <time>2022-12-19T05:55:00Z</time>
      </trkpt>
      <trkpt lat="40.422751" lon="-4.651127">
        <ele>803.546</ele>
        <time>2022-12-19T05:55:40Z</time>
      </trkpt>
      <trkpt lat="40.422497" lon="-4.651251">
        <ele>798.559</ele>
        <time>2022-12-19T05:56:20Z</time>
      </trkpt>
      <trkpt lat="40.422346" lon="-4.651353">
        <ele>796.903</ele>
        <time>2022-12-19T05:57:00Z</time>
      </trkpt>
      <trkpt lat="40.422218" lon="-4.651511">
        <ele>793.323</ele>
        <time>2022-12-19T05:57:40Z</time>
      </trkpt>
      <trkpt lat="40.422003" lon="-4.651819">
        <ele>788.209</ele>
        <time>2022-12-19T05:58:20Z</time>
      </trkpt>
      <trkpt lat="40.421840" lon="-4.652061">
        <ele>785.856</ele>
        <time>2022-12-19T05:59:00Z</time>
      </trkpt>
      <trkpt lat="40.421719" lon="-4.652037">
        <ele>785.037</ele>
        <time>2022-12-19T05:59:40Z</time>
      </trkpt>
      <trkpt lat="40.421664" lon="-4.652160">
        <ele>784.236</ele>
        <time>2022-12-19T06:00:20Z</time>
      </trkpt>
      <trkpt lat="40.421656" lon="-4.652412">
        <ele>782.530</ele>
        <time>2022-12-19T06:01:00Z</time>
      </trkpt>
      <trkpt lat="40.421460" lon="-4.652469">
        <ele>780.648</ele>
        <time>2022-12-19T06:01:40Z</time>
      </trkpt>
      <trkpt lat="40.421270" lon="-4.652511">
        <ele>778.736</ele>
        <time>2022-12-19T06:02:20Z</time>
      </trkpt>
      <trkpt lat="40.421121" lon="-4.652600">
        <ele>777.184</ele>
        <time>2022-12-19T06:03:00Z</time>
      </trkpt>
      <trkpt lat="40.420946" lon="-4.652774">
        <ele>775.246</ele>
        <time>2022-12-19T06:03:40Z</time>
      </trkpt>
      <trkpt lat="40.420627" lon="-4.652643">
        <ele>771.343</ele>
        <time>2022-12-19T06:04:20Z</time>
      </trkpt>
      <trkpt lat="40.420311" lon="-4.652541">
        <ele>766.652</ele>
        <time>2022-12-19T06:05:00Z</time>
      </trkpt>
      <trkpt lat="40.420143" lon="-4.652528">
        <ele>763.253</ele>
        <time>2022-12-19T06:05:40Z</time>
      </trkpt>
      <trkpt lat="40.420143" lon="-4.652654">
        <ele>763.608</ele>
        <time>2022-12-19T06:06:20Z</time>
      </trkpt>
      <trkpt lat="40.420159" lon="-4.652764">
        <ele>764.409</ele>
        <time>2022-12-19T06:07:00Z</time>
      </trkpt>
      <trkpt lat="40.419788" lon="-4.652337">
        <ele>754.716</ele>
        <time>2022-12-19T06:07:40Z</time>
      </trkpt>
      <trkpt lat="40.419778" lon="-4.651854">
        <ele>748.637</ele>
        <time>2022-12-19T06:08:20Z</time>
      </trkpt>
      <trkpt lat="40.419533" lon="-4.652007">
        <ele>745.696</ele>
        <time>2022-12-19T06:09:00Z</time>
      </trkpt>
      <trkpt lat="40.419204" lon="-4.652171">
        <ele>741.650</ele>
        <time>2022-12-19T06:09:40Z</time>
      </trkpt>
      <trkpt lat="40.418963" lon="-4.652342">
        <ele>739.768</ele>
        <time>2022-12-19T06:10:20Z</time>
      </trkpt>
      <trkpt lat="40.418644" lon="-4.652326">
        <ele>733.796</ele>
        <time>2022-12-19T06:11:00Z</time>
      </trkpt>
      <trkpt lat="40.418601" lon="-4.652023">
        <ele>733.614</ele>
        <time>2022-12-19T06:11:40Z</time>
      </trkpt>
      <trkpt lat="40.418532" lon="-4.652096">
        <ele>732.696</ele>
        <time>2022-12-19T06:12:20Z</time>
      </trkpt>
      <trkpt lat="40.418424" lon="-4.652192">
        <ele>731.153</ele>
        <time>2022-12-19T06:13:00Z</time>
      </trkpt>
      <trkpt lat="40.418413" lon="-4.652498">
        <ele>729.454</ele>
        <time>2022-12-19T06:13:40Z</time>
      </trkpt>
      <trkpt lat="40.418375" lon="-4.652911">
        <ele>728.556</ele>
        <time>2022-12-19T06:14:20Z</time>
      </trkpt>
      <trkpt lat="40.418266" lon="-4.653040">
        <ele>728.011</ele>
        <time>2022-12-19T06:15:00Z</time>
      </trkpt>
      <trkpt lat="40.418130" lon="-4.653246">
        <ele>728.009</ele>
        <time>2022-12-19T06:15:40Z</time>
      </trkpt>
      <trkpt lat="40.418007" lon="-4.653279">
        <ele>728.016</ele>
        <time>2022-12-19T06:16:20Z</time>
      </trkpt>
      <trkpt lat="40.417848" lon="-4.653281">
        <ele>728.087</ele>
        <time>2022-12-19T06:17:00Z</time>
      </trkpt>
      <trkpt lat="40.417635" lon="-4.653359">
        <ele>731.376</ele>
        <time>2022-12-19T06:17:40Z</time>
      </trkpt>
      <trkpt lat="40.417441" lon="-4.653504">
        <ele>734.140</ele>
        <time>2022-12-19T06:18:20Z</time>
      </trkpt>
      <trkpt lat="40.417221" lon="-4.653622">
        <ele>733.128</ele>
        <time>2022-12-19T06:19:00Z</time>
      </trkpt>
      <trkpt lat="40.417033" lon="-4.653673">
        <ele>730.076</ele>
        <time>2022-12-19T06:19:40Z</time>
      </trkpt>
      <trkpt lat="40.416817" lon="-4.653753">
        <ele>728.644</ele>
        <time>2022-12-19T06:20:20Z</time>
      </trkpt>
      <trkpt lat="40.416782" lon="-4.653997">
        <ele>729.396</ele>
        <time>2022-12-19T06:21:00Z</time>
      </trkpt>
      <trkpt lat="40.416659" lon="-4.654164">
        <ele>728.093</ele>
        <time>2022-12-19T06:21:40Z</time>
      </trkpt>
      <trkpt lat="40.416563" lon="-4.654351">
        <ele>728.869</ele>
        <time>2022-12-19T06:22:20Z</time>
      </trkpt>
      <trkpt lat="40.416414" lon="-4.654612">
        <ele>729.004</ele>
        <time>2022-12-19T06:23:00Z</time>
      </trkpt>
      <trkpt lat="40.416302" lon="-4.654679">
        <ele>728.624</ele>
        <time>2022-12-19T06:23:40Z</time>
      </trkpt>
      <trkpt lat="40.416202" lon="-4.654826">
        <ele>728.909</ele>
        <time>2022-12-19T06:24:20Z</time>
      </trkpt>
      <trkpt lat="40.415965" lon="-4.655073">
        <ele>728.877</ele>
        <time>2022-12-19T06:25:00Z</time>
      </trkpt>
      <trkpt lat="40.415834" lon="-4.655151">
        <ele>728.088</ele>
        <time>2022-12-19T06:25:40Z</time>
      </trkpt>
      <trkpt lat="40.415593" lon="-4.655620">
        <ele>728.997</ele>
        <time>2022-12-19T06:26:20Z</time>
      </trkpt>
      <trkpt lat="40.415467" lon="-4.655727">
        <ele>729.961</ele>
        <time>2022-12-19T06:27:00Z</time>
      </trkpt>
      <trkpt lat="40.415387" lon="-4.656098">
        <ele>731.389</ele>
        <time>2022-12-19T06:27:40Z</time>
      </trkpt>
      <trkpt lat="40.415371" lon="-4.656460">
        <ele>731.147</ele>
        <time>2022-12-19T06:28:20Z</time>
      </trkpt>
      <trkpt lat="40.415422" lon="-4.656833">
        <ele>730.235</ele>
        <time>2022-12-19T06:29:00Z</time>
      </trkpt>
      <trkpt lat="40.415408" lon="-4.657208">
        <ele>729.067</ele>
        <time>2022-12-19T06:29:40Z</time>
      </trkpt>
      <trkpt lat="40.415463" lon="-4.657699">
        <ele>729.374</ele>
        <time>2022-12-19T06:30:20Z</time>
      </trkpt>
      <trkpt lat="40.415814" lon="-4.658214">
        <ele>728.866</ele>
        <time>2022-12-19T06:31:00Z</time>
      </trkpt>
      <trkpt lat="40.416036" lon="-4.658504">
        <ele>728.629</ele>
        <time>2022-12-19T06:31:40Z</time>
      </trkpt>
      <trkpt lat="40.416198" lon="-4.658648">
        <ele>729.521</ele>
        <time>2022-12-19T06:32:20Z</time>
      </trkpt>
      <trkpt lat="40.416316" lon="-4.658809">
        <ele>730.609</ele>
        <time>2022-12-19T06:33:00Z</time>
      </trkpt>
      <trkpt lat="40.416492" lon="-4.658895">
        <ele>732.427</ele>
        <time>2022-12-19T06:33:40Z</time>
      </trkpt>
      <trkpt lat="40.416543" lon="-4.659383">
        <ele>730.658</ele>
        <time>2022-12-19T06:34:20Z</time>
      </trkpt>
      <trkpt lat="40.416647" lon="-4.659539">
        <ele>731.187</ele>
        <time>2022-12-19T06:35:00Z</time>
      </trkpt>
      <trkpt lat="40.416696" lon="-4.659885">
        <ele>729.771</ele>
        <time>2022-12-19T06:35:40Z</time>
      </trkpt>
      <trkpt lat="40.416739" lon="-4.660499">
        <ele>728.449</ele>
        <time>2022-12-19T06:36:20Z</time>
      </trkpt>
      <trkpt lat="40.416766" lon="-4.660845">
        <ele>729.197</ele>
        <time>2022-12-19T06:37:00Z</time>
      </trkpt>
      <trkpt lat="40.416804" lon="-4.661400">
        <ele>729.535</ele>
        <time>2022-12-19T06:37:40Z</time>
      </trkpt>
      <trkpt lat="40.416841" lon="-4.661878">
        <ele>729.447</ele>
        <time>2022-12-19T06:38:20Z</time>
      </trkpt>
      <trkpt lat="40.416872" lon="-4.662395">
        <ele>729.274</ele>
        <time>2022-12-19T06:39:00Z</time>
      </trkpt>
      <trkpt lat="40.416802" lon="-4.662639">
        <ele>729.287</ele>
        <time>2022-12-19T06:39:40Z</time>
      </trkpt>
      <trkpt lat="40.416721" lon="-4.662894">
        <ele>729.542</ele>
        <time>2022-12-19T06:40:20Z</time>
      </trkpt>
      <trkpt lat="40.416476" lon="-4.662739">
        <ele>729.526</ele>
        <time>2022-12-19T06:41:00Z</time>
      </trkpt>
      <trkpt lat="40.416288" lon="-4.662819">
        <ele>730.009</ele>
        <time>2022-12-19T06:41:40Z</time>
      </trkpt>
      <trkpt lat="40.415655" lon="-4.663136">
        <ele>730.399</ele>
        <time>2022-12-19T06:42:20Z</time>
      </trkpt>
      <trkpt lat="40.415377" lon="-4.663195">
        <ele>729.990</ele>
        <time>2022-12-19T06:43:00Z</time>
      </trkpt>
      <trkpt lat="40.415189" lon="-4.663538">
        <ele>730.459</ele>
        <time>2022-12-19T06:43:40Z</time>
      </trkpt>
      <trkpt lat="40.414883" lon="-4.664257">
        <ele>731.763</ele>
        <time>2022-12-19T06:44:20Z</time>
      </trkpt>
      <trkpt lat="40.414636" lon="-4.664815">
        <ele>732.321</ele>
        <time>2022-12-19T06:45:00Z</time>
      </trkpt>
      <trkpt lat="40.414476" lon="-4.665231">
        <ele>733.849</ele>
        <time>2022-12-19T06:45:40Z</time>
      </trkpt>
      <trkpt lat="40.414070" lon="-4.665515">
        <ele>733.867</ele>
        <time>2022-12-19T06:46:20Z</time>
      </trkpt>
      <trkpt lat="40.413549" lon="-4.665743">
        <ele>734.349</ele>
        <time>2022-12-19T06:47:00Z</time>
      </trkpt>
      <trkpt lat="40.412434" lon="-4.666014">
        <ele>737.646</ele>
        <time>2022-12-19T06:47:40Z</time>
      </trkpt>
      <trkpt lat="40.412030" lon="-4.666215">
        <ele>740.639</ele>
        <time>2022-12-19T06:48:20Z</time>
      </trkpt>
      <trkpt lat="40.411627" lon="-4.666687">
        <ele>745.101</ele>
        <time>2022-12-19T06:49:00Z</time>
      </trkpt>
      <trkpt lat="40.411141" lon="-4.666893">
        <ele>741.321</ele>
        <time>2022-12-19T06:49:40Z</time>
      </trkpt>
      <trkpt lat="40.410894" lon="-4.667382">
        <ele>740.709</ele>
        <time>2022-12-19T06:50:20Z</time>
      </trkpt>
      <trkpt lat="40.410616" lon="-4.667958">
        <ele>745.654</ele>
        <time>2022-12-19T06:51:00Z</time>
      </trkpt>
      <trkpt lat="40.410480" lon="-4.668559">
        <ele>746.215</ele>
        <time>2022-12-19T06:51:40Z</time>
      </trkpt>
      <trkpt lat="40.410282" lon="-4.669645">
        <ele>746.894</ele>
        <time>2022-12-19T06:52:20Z</time>
      </trkpt>
      <trkpt lat="40.410102" lon="-4.671394">
        <ele>744.158</ele>
        <time>2022-12-19T06:53:00Z</time>
      </trkpt>
      <trkpt lat="40.410235" lon="-4.672408">
        <ele>743.986</ele>
        <time>2022-12-19T06:53:40Z</time>
      </trkpt>
      <trkpt lat="40.410465" lon="-4.674329">
        <ele>742.314</ele>
        <time>2022-12-19T06:54:20Z</time>
      </trkpt>
      <trkpt lat="40.410600" lon="-4.675098">
        <ele>741.422</ele>
        <time>2022-12-19T06:55:00Z</time>
      </trkpt>
      <trkpt lat="40.409693" lon="-4.675318">
        <ele>730.924</ele>
        <time>2022-12-19T06:55:40Z</time>
      </trkpt>
      <trkpt lat="40.409885" lon="-4.676222">
        <ele>731.741</ele>
        <time>2022-12-19T06:56:20Z</time>
      </trkpt>
      <trkpt lat="40.410139" lon="-4.676710">
        <ele>734.558</ele>
        <time>2022-12-19T06:57:00Z</time>
      </trkpt>
      <trkpt lat="40.410937" lon="-4.677475">
        <ele>741.852</ele>
        <time>2022-12-19T06:57:40Z</time>
      </trkpt>
      <trkpt lat="40.411123" lon="-4.678473">
        <ele>740.617</ele>
        <time>2022-12-19T06:58:20Z</time>
      </trkpt>
      <trkpt lat="40.411811" lon="-4.680211">
        <ele>744.109</ele>
        <time>2022-12-19T06:59:00Z</time>
      </trkpt>
      <trkpt lat="40.412271" lon="-4.680439">
        <ele>745.376</ele>
        <time>2022-12-19T06:59:40Z</time>
      </trkpt>
      <trkpt lat="40.412344" lon="-4.680677">
        <ele>742.187</ele>
        <time>2022-12-19T07:00:20Z</time>
      </trkpt>
      <trkpt lat="40.412097" lon="-4.681608">
        <ele>739.436</ele>
        <time>2022-12-19T07:01:00Z</time>
      </trkpt>
      <trkpt lat="40.411934" lon="-4.682697">
        <ele>741.630</ele>
        <time>2022-12-19T07:01:40Z</time>
      </trkpt>
      <trkpt lat="40.411407" lon="-4.685108">
        <ele>741.188</ele>
        <time>2022-12-19T07:02:20Z</time>
      </trkpt>
      <trkpt lat="40.410953" lon="-4.687772">
        <ele>742.636</ele>
        <time>2022-12-19T07:03:00Z</time>
      </trkpt>
      <trkpt lat="40.411168" lon="-4.688182">
        <ele>747.954</ele>
        <time>2022-12-19T07:03:40Z</time>
      </trkpt>
      <trkpt lat="40.411370" lon="-4.688515">
        <ele>750.566</ele>
        <time>2022-12-19T07:04:20Z</time>
      </trkpt>
      <trkpt lat="40.411568" lon="-4.689132">
        <ele>751.133</ele>
        <time>2022-12-19T07:05:00Z</time>
      </trkpt>
      <trkpt lat="40.411556" lon="-4.689926">
        <ele>745.868</ele>
        <time>2022-12-19T07:05:40Z</time>
      </trkpt>
      <trkpt lat="40.411096" lon="-4.692004">
        <ele>750.542</ele>
        <time>2022-12-19T07:06:20Z</time>
      </trkpt>
      <trkpt lat="40.410937" lon="-4.693294">
        <ele>751.826</ele>
        <time>2022-12-19T07:07:00Z</time>
      </trkpt>
      <trkpt lat="40.410508" lon="-4.694324">
        <ele>751.509</ele>
        <time>2022-12-19T07:07:40Z</time>
      </trkpt>
      <trkpt lat="40.410659" lon="-4.694743">
        <ele>755.557</ele>
        <time>2022-12-19T07:08:20Z</time>
      </trkpt>
      <trkpt lat="40.410731" lon="-4.695033">
        <ele>757.058</ele>
        <time>2022-12-19T07:09:00Z</time>
      </trkpt>
      <trkpt lat="40.410770" lon="-4.695472">
        <ele>759.017</ele>
        <time>2022-12-19T07:09:40Z</time>
      </trkpt>
      <trkpt lat="40.410537" lon="-4.696199">
        <ele>759.561</ele>
        <time>2022-12-19T07:10:20Z</time>
      </trkpt>
      <trkpt lat="40.410188" lon="-4.696355">
        <ele>758.289</ele>
        <time>2022-12-19T07:11:00Z</time>
      </trkpt>
      <trkpt lat="40.409902" lon="-4.696937">
        <ele>758.627</ele>
        <time>2022-12-19T07:11:40Z</time>
      </trkpt>
      <trkpt lat="40.409802" lon="-4.697656">
        <ele>761.225</ele>
        <time>2022-12-19T07:12:20Z</time>
      </trkpt>
      <trkpt lat="40.409706" lon="-4.698147">
        <ele>762.187</ele>
        <time>2022-12-19T07:13:00Z</time>
      </trkpt>
      <trkpt lat="40.409534" lon="-4.699222">
        <ele>760.394</ele>
        <time>2022-12-19T07:13:40Z</time>
      </trkpt>
      <trkpt lat="40.409604" lon="-4.699496">
        <ele>761.063</ele>
        <time>2022-12-19T07:14:20Z</time>
      </trkpt>
      <trkpt lat="40.409808" lon="-4.700193">
        <ele>760.744</ele>
        <time>2022-12-19T07:15:00Z</time>
      </trkpt>
      <trkpt lat="40.409640" lon="-4.701183">
        <ele>759.418</ele>
        <time>2022-12-19T07:15:40Z</time>
      </trkpt>
      <trkpt lat="40.409783" lon="-4.701856">
        <ele>759.309</ele>
        <time>2022-12-19T07:16:20Z</time>
      </trkpt>
      <trkpt lat="40.410596" lon="-4.704026">
        <ele>757.627</ele>
        <time>2022-12-19T07:17:00Z</time>
      </trkpt>
      <trkpt lat="40.408848" lon="-4.705056">
        <ele>750.928</ele>
        <time>2022-12-19T07:17:40Z</time>
      </trkpt>
      <trkpt lat="40.408693" lon="-4.705185">
        <ele>750.327</ele>
        <time>2022-12-19T07:18:20Z</time>
      </trkpt>
      <trkpt lat="40.408595" lon="-4.705356">
        <ele>750.021</ele>
        <time>2022-12-19T07:19:00Z</time>
      </trkpt>
      <trkpt lat="40.408390" lon="-4.706537">
        <ele>751.199</ele>
        <time>2022-12-19T07:19:40Z</time>
      </trkpt>
      <trkpt lat="40.407786" lon="-4.706451">
        <ele>750.277</ele>
        <time>2022-12-19T07:20:20Z</time>
      </trkpt>
      <trkpt lat="40.407408" lon="-4.707320">
        <ele>751.925</ele>
        <time>2022-12-19T07:21:00Z</time>
      </trkpt>
      <trkpt lat="40.407044" lon="-4.707929">
        <ele>753.787</ele>
        <time>2022-12-19T07:21:40Z</time>
      </trkpt>
      <trkpt lat="40.407151" lon="-4.708497">
        <ele>751.574</ele>
        <time>2022-12-19T07:22:20Z</time>
      </trkpt>
      <trkpt lat="40.407167" lon="-4.709280">
        <ele>752.551</ele>
        <time>2022-12-19T07:23:00Z</time>
      </trkpt>
      <trkpt lat="40.406803" lon="-4.710487">
        <ele>755.901</ele>
        <time>2022-12-19T07:23:40Z</time>
      </trkpt>
      <trkpt lat="40.406475" lon="-4.711279">
        <ele>756.011</ele>
        <time>2022-12-19T07:24:20Z</time>
      </trkpt>
      <trkpt lat="40.406107" lon="-4.712030">
        <ele>755.709</ele>
        <time>2022-12-19T07:25:00Z</time>
      </trkpt>
      <trkpt lat="40.405600" lon="-4.712617">
        <ele>757.796</ele>
        <time>2022-12-19T07:25:40Z</time>
      </trkpt>
      <trkpt lat="40.404759" lon="-4.713757">
        <ele>761.987</ele>
        <time>2022-12-19T07:26:20Z</time>
      </trkpt>
      <trkpt lat="40.403852" lon="-4.715160">
        <ele>761.756</ele>
        <time>2022-12-19T07:27:00Z</time>
      </trkpt>
      <trkpt lat="40.403632" lon="-4.716203">
        <ele>763.420</ele>
        <time>2022-12-19T07:27:40Z</time>
      </trkpt>
      <trkpt lat="40.403254" lon="-4.717813">
        <ele>764.378</ele>
        <time>2022-12-19T07:28:20Z</time>
      </trkpt>
      <trkpt lat="40.402976" lon="-4.719846">
        <ele>766.616</ele>
        <time>2022-12-19T07:29:00Z</time>
      </trkpt>
      <trkpt lat="40.402970" lon="-4.720615">
        <ele>767.864</ele>
        <time>2022-12-19T07:29:40Z</time>
      </trkpt>
      <trkpt lat="40.403047" lon="-4.721484">
        <ele>769.446</ele>
        <time>2022-12-19T07:30:20Z</time>
      </trkpt>
      <trkpt lat="40.402925" lon="-4.722587">
        <ele>770.073</ele>
        <time>2022-12-19T07:31:00Z</time>
      </trkpt>
      <trkpt lat="40.402827" lon="-4.724615">
        <ele>770.344</ele>
        <time>2022-12-19T07:31:40Z</time>
      </trkpt>
      <trkpt lat="40.402827" lon="-4.726417">
        <ele>772.805</ele>
        <time>2022-12-19T07:32:20Z</time>
      </trkpt>
      <trkpt lat="40.403015" lon="-4.727737">
        <ele>773.115</ele>
        <time>2022-12-19T07:33:00Z</time>
      </trkpt>
      <trkpt lat="40.402898" lon="-4.728971">
        <ele>773.309</ele>
        <time>2022-12-19T07:33:40Z</time>
      </trkpt>
      <trkpt lat="40.402463" lon="-4.730078">
        <ele>772.965</ele>
        <time>2022-12-19T07:34:20Z</time>
      </trkpt>
      <trkpt lat="40.402518" lon="-4.730336">
        <ele>771.746</ele>
        <time>2022-12-19T07:35:00Z</time>
      </trkpt>
      <trkpt lat="40.402384" lon="-4.730993">
        <ele>770.295</ele>
        <time>2022-12-19T07:35:40Z</time>
      </trkpt>
      <trkpt lat="40.402414" lon="-4.731736">
        <ele>770.179</ele>
        <time>2022-12-19T07:36:20Z</time>
      </trkpt>
      <trkpt lat="40.402721" lon="-4.732870">
        <ele>774.147</ele>
        <time>2022-12-19T07:37:00Z</time>
      </trkpt>
      <trkpt lat="40.402776" lon="-4.733874">
        <ele>778.995</ele>
        <time>2022-12-19T07:37:40Z</time>
      </trkpt>
      <trkpt lat="40.402463" lon="-4.735555">
        <ele>783.013</ele>
        <time>2022-12-19T07:38:20Z</time>
      </trkpt>
      <trkpt lat="40.401644" lon="-4.737597">
        <ele>789.975</ele>
        <time>2022-12-19T07:39:00Z</time>
      </trkpt>
      <trkpt lat="40.401066" lon="-4.738358">
        <ele>790.982</ele>
        <time>2022-12-19T07:39:40Z</time>
      </trkpt>
      <trkpt lat="40.401011" lon="-4.739243">
        <ele>791.786</ele>
        <time>2022-12-19T07:40:20Z</time>
      </trkpt>
      <trkpt lat="40.401105" lon="-4.740166">
        <ele>793.060</ele>
        <time>2022-12-19T07:41:00Z</time>
      </trkpt>
      <trkpt lat="40.401336" lon="-4.741706">
        <ele>795.026</ele>
        <time>2022-12-19T07:41:40Z</time>
      </trkpt>
      <trkpt lat="40.401622" lon="-4.743036">
        <ele>794.309</ele>
        <time>2022-12-19T07:42:20Z</time>
      </trkpt>
      <trkpt lat="40.401777" lon="-4.744125">
        <ele>794.669</ele>
        <time>2022-12-19T07:43:00Z</time>
      </trkpt>
      <trkpt lat="40.401191" lon="-4.745013">
        <ele>795.730</ele>
        <time>2022-12-19T07:43:40Z</time>
      </trkpt>
      <trkpt lat="40.401097" lon="-4.745142">
        <ele>796.139</ele>
        <time>2022-12-19T07:44:20Z</time>
      </trkpt>
      <trkpt lat="40.401044" lon="-4.745340">
        <ele>796.053</ele>
        <time>2022-12-19T07:45:00Z</time>
      </trkpt>
      <trkpt lat="40.400862" lon="-4.745748">
        <ele>795.971</ele>
        <time>2022-12-19T07:45:40Z</time>
      </trkpt>
      <trkpt lat="40.400641" lon="-4.746501">
        <ele>796.159</ele>
        <time>2022-12-19T07:46:20Z</time>
      </trkpt>
      <trkpt lat="40.400461" lon="-4.747454">
        <ele>795.397</ele>
        <time>2022-12-19T07:47:00Z</time>
      </trkpt>
      <trkpt lat="40.400229" lon="-4.747853">
        <ele>795.159</ele>
        <time>2022-12-19T07:47:40Z</time>
      </trkpt>
      <trkpt lat="40.400031" lon="-4.748068">
        <ele>795.066</ele>
        <time>2022-12-19T07:48:20Z</time>
      </trkpt>
      <trkpt lat="40.399712" lon="-4.748803">
        <ele>793.481</ele>
        <time>2022-12-19T07:49:00Z</time>
      </trkpt>
      <trkpt lat="40.399567" lon="-4.749033">
        <ele>793.061</ele>
        <time>2022-12-19T07:49:40Z</time>
      </trkpt>
      <trkpt lat="40.399630" lon="-4.749157">
        <ele>792.417</ele>
        <time>2022-12-19T07:50:20Z</time>
      </trkpt>
      <trkpt lat="40.399659" lon="-4.749414">
        <ele>791.309</ele>
        <time>2022-12-19T07:51:00Z</time>
      </trkpt>
      <trkpt lat="40.399628" lon="-4.749615">
        <ele>790.719</ele>
        <time>2022-12-19T07:51:40Z</time>
      </trkpt>
      <trkpt lat="40.399271" lon="-4.749978">
        <ele>789.230</ele>
        <time>2022-12-19T07:52:20Z</time>
      </trkpt>
      <trkpt lat="40.399140" lon="-4.750157">
        <ele>790.399</ele>
        <time>2022-12-19T07:53:00Z</time>
      </trkpt>
      <trkpt lat="40.398946" lon="-4.750412">
        <ele>792.393</ele>
        <time>2022-12-19T07:53:40Z</time>
      </trkpt>
      <trkpt lat="40.399073" lon="-4.750672">
        <ele>792.881</ele>
        <time>2022-12-19T07:54:20Z</time>
      </trkpt>
      <trkpt lat="40.399356" lon="-4.751128">
        <ele>793.439</ele>
        <time>2022-12-19T07:55:00Z</time>
      </trkpt>
      <trkpt lat="40.399600" lon="-4.751549">
        <ele>794.637</ele>
        <time>2022-12-19T07:55:40Z</time>
      </trkpt>
      <trkpt lat="40.399863" lon="-4.752644">
        <ele>798.059</ele>
        <time>2022-12-19T07:56:20Z</time>
      </trkpt>
      <trkpt lat="40.399777" lon="-4.752799">
        <ele>799.456</ele>
        <time>2022-12-19T07:57:00Z</time>
      </trkpt>
      <trkpt lat="40.399559" lon="-4.752797">
        <ele>799.548</ele>
        <time>2022-12-19T07:57:40Z</time>
      </trkpt>
      <trkpt lat="40.399389" lon="-4.752620">
        <ele>799.261</ele>
        <time>2022-12-19T07:58:20Z</time>
      </trkpt>
      <trkpt lat="40.399271" lon="-4.752443">
        <ele>799.517</ele>
        <time>2022-12-19T07:59:00Z</time>
      </trkpt>
      <trkpt lat="40.399152" lon="-4.752373">
        <ele>800.109</ele>
        <time>2022-12-19T07:59:40Z</time>
      </trkpt>
      <trkpt lat="40.398715" lon="-4.752582">
        <ele>801.975</ele>
        <time>2022-12-19T08:00:20Z</time>
      </trkpt>
      <trkpt lat="40.398241" lon="-4.753022">
        <ele>811.676</ele>
        <time>2022-12-19T08:01:00Z</time>
      </trkpt>
      <trkpt lat="40.397951" lon="-4.752984">
        <ele>812.865</ele>
        <time>2022-12-19T08:01:40Z</time>
      </trkpt>
      <trkpt lat="40.397722" lon="-4.753204">
        <ele>816.619</ele>
        <time>2022-12-19T08:02:20Z</time>
      </trkpt>
      <trkpt lat="40.397349" lon="-4.753652">
        <ele>821.187</ele>
        <time>2022-12-19T08:03:00Z</time>
      </trkpt>
      <trkpt lat="40.397124" lon="-4.753604">
        <ele>822.795</ele>
        <time>2022-12-19T08:03:40Z</time>
      </trkpt>
      <trkpt lat="40.396558" lon="-4.753475">
        <ele>824.113</ele>
        <time>2022-12-19T08:04:20Z</time>
      </trkpt>
      <trkpt lat="40.396229" lon="-4.753542">
        <ele>819.485</ele>
        <time>2022-12-19T08:05:00Z</time>
      </trkpt>
      <trkpt lat="40.396084" lon="-4.753947">
        <ele>819.162</ele>
        <time>2022-12-19T08:05:40Z</time>
      </trkpt>
      <trkpt lat="40.395692" lon="-4.753953">
        <ele>818.724</ele>
        <time>2022-12-19T08:06:20Z</time>
      </trkpt>
      <trkpt lat="40.395463" lon="-4.754063">
        <ele>820.204</ele>
        <time>2022-12-19T08:07:00Z</time>
      </trkpt>
      <trkpt lat="40.394764" lon="-4.754253">
        <ele>826.214</ele>
        <time>2022-12-19T08:07:40Z</time>
      </trkpt>
      <trkpt lat="40.394501" lon="-4.754537">
        <ele>827.109</ele>
        <time>2022-12-19T08:08:20Z</time>
      </trkpt>
      <trkpt lat="40.394307" lon="-4.754556">
        <ele>826.823</ele>
        <time>2022-12-19T08:09:00Z</time>
      </trkpt>
      <trkpt lat="40.393921" lon="-4.754540">
        <ele>827.694</ele>
        <time>2022-12-19T08:09:40Z</time>
      </trkpt>
      <trkpt lat="40.393475" lon="-4.754620">
        <ele>829.163</ele>
        <time>2022-12-19T08:10:20Z</time>
      </trkpt>
      <trkpt lat="40.393175" lon="-4.754543">
        <ele>829.957</ele>
        <time>2022-12-19T08:11:00Z</time>
      </trkpt>
      <trkpt lat="40.392532" lon="-4.754575">
        <ele>835.485</ele>
        <time>2022-12-19T08:11:40Z</time>
      </trkpt>
      <trkpt lat="40.392107" lon="-4.754816">
        <ele>839.093</ele>
        <time>2022-12-19T08:12:20Z</time>
      </trkpt>
      <trkpt lat="40.391445" lon="-4.754966">
        <ele>842.361</ele>
        <time>2022-12-19T08:13:00Z</time>
      </trkpt>
      <trkpt lat="40.389974" lon="-4.755031">
        <ele>845.463</ele>
        <time>2022-12-19T08:13:40Z</time>
      </trkpt>
      <trkpt lat="40.389541" lon="-4.755653">
        <ele>850.970</ele>
        <time>2022-12-19T08:14:20Z</time>
      </trkpt>
      <trkpt lat="40.389259" lon="-4.756160">
        <ele>853.167</ele>
        <time>2022-12-19T08:15:00Z</time>
      </trkpt>
      <trkpt lat="40.388217" lon="-4.756511">
        <ele>852.781</ele>
        <time>2022-12-19T08:15:40Z</time>
      </trkpt>
      <trkpt lat="40.387547" lon="-4.756501">
        <ele>861.719</ele>
        <time>2022-12-19T08:16:20Z</time>
      </trkpt>
      <trkpt lat="40.387486" lon="-4.756562">
        <ele>862.009</ele>
        <time>2022-12-19T08:17:00Z</time>
      </trkpt>
      <trkpt lat="40.387163" lon="-4.756895">
        <ele>864.997</ele>
        <time>2022-12-19T08:17:40Z</time>
      </trkpt>
      <trkpt lat="40.386948" lon="-4.757056">
        <ele>867.018</ele>
        <time>2022-12-19T08:18:20Z</time>
      </trkpt>
      <trkpt lat="40.386411" lon="-4.757702">
        <ele>877.097</ele>
        <time>2022-12-19T08:19:00Z</time>
      </trkpt>
      <trkpt lat="40.384916" lon="-4.758936">
        <ele>885.241</ele>
        <time>2022-12-19T08:19:40Z</time>
      </trkpt>
      <trkpt lat="40.383126" lon="-4.759204">
        <ele>895.259</ele>
        <time>2022-12-19T08:20:20Z</time>
      </trkpt>
      <trkpt lat="40.382930" lon="-4.757895">
        <ele>907.667</ele>
        <time>2022-12-19T08:21:00Z</time>
      </trkpt>
      <trkpt lat="40.381933" lon="-4.757016">
        <ele>924.235</ele>
        <time>2022-12-19T08:21:40Z</time>
      </trkpt>
      <trkpt lat="40.381696" lon="-4.756050">
        <ele>932.327</ele>
        <time>2022-12-19T08:22:20Z</time>
      </trkpt>
      <trkpt lat="40.380813" lon="-4.754773">
        <ele>950.164</ele>
        <time>2022-12-19T08:23:00Z</time>
      </trkpt>
      <trkpt lat="40.380061" lon="-4.754462">
        <ele>960.728</ele>
        <time>2022-12-19T08:23:40Z</time>
      </trkpt>
      <trkpt lat="40.379129" lon="-4.754881">
        <ele>974.689</ele>
        <time>2022-12-19T08:24:20Z</time>
      </trkpt>
      <trkpt lat="40.377254" lon="-4.754500">
        <ele>1000.717</ele>
        <time>2022-12-19T08:25:00Z</time>
      </trkpt>
      <trkpt lat="40.376726" lon="-4.754419">
        <ele>1008.609</ele>
        <time>2022-12-19T08:25:40Z</time>
      </trkpt>
      <trkpt lat="40.374838" lon="-4.755063">
        <ele>1037.373</ele>
        <time>2022-12-19T08:26:20Z</time>
      </trkpt>
      <trkpt lat="40.373964" lon="-4.755052">
        <ele>1051.814</ele>
        <time>2022-12-19T08:27:00Z</time>
      </trkpt>
      <trkpt lat="40.373008" lon="-4.755117">
        <ele>1065.723</ele>
        <time>2022-12-19T08:27:40Z</time>
      </trkpt>
      <trkpt lat="40.371994" lon="-4.755310">
        <ele>1082.747</ele>
        <time>2022-12-19T08:28:20Z</time>
      </trkpt>
      <trkpt lat="40.372574" lon="-4.756737">
        <ele>1084.525</ele>
        <time>2022-12-19T08:29:00Z</time>
      </trkpt>
      <trkpt lat="40.372648" lon="-4.757080">
        <ele>1084.143</ele>
        <time>2022-12-19T08:29:40Z</time>
      </trkpt>
      <trkpt lat="40.372501" lon="-4.757209">
        <ele>1086.951</ele>
        <time>2022-12-19T08:30:20Z</time>
      </trkpt>
      <trkpt lat="40.372578" lon="-4.757453">
        <ele>1087.353</ele>
        <time>2022-12-19T08:31:00Z</time>
      </trkpt>
      <trkpt lat="40.372431" lon="-4.757944">
        <ele>1091.560</ele>
        <time>2022-12-19T08:31:40Z</time>
      </trkpt>
      <trkpt lat="40.372243" lon="-4.758054">
        <ele>1091.918</ele>
        <time>2022-12-19T08:32:20Z</time>
      </trkpt>
      <trkpt lat="40.372102" lon="-4.757957">
        <ele>1096.398</ele>
        <time>2022-12-19T08:33:00Z</time>
      </trkpt>
      <trkpt lat="40.371710" lon="-4.757448">
        <ele>1109.417</ele>
        <time>2022-12-19T08:33:40Z</time>
      </trkpt>
      <trkpt lat="40.371575" lon="-4.757126">
        <ele>1113.609</ele>
        <time>2022-12-19T08:34:20Z</time>
      </trkpt>
      <trkpt lat="40.371168" lon="-4.758032">
        <ele>1122.672</ele>
        <time>2022-12-19T08:35:00Z</time>
      </trkpt>
      <trkpt lat="40.370782" lon="-4.757016">
        <ele>1141.443</ele>
        <time>2022-12-19T08:35:40Z</time>
      </trkpt>
      <trkpt lat="40.369701" lon="-4.756206">
        <ele>1159.442</ele>
        <time>2022-12-19T08:36:20Z</time>
      </trkpt>
      <trkpt lat="40.368569" lon="-4.755814">
        <ele>1167.396</ele>
        <time>2022-12-19T08:37:00Z</time>
      </trkpt>
      <trkpt lat="40.367269" lon="-4.754387">
        <ele>1160.944</ele>
        <time>2022-12-19T08:37:40Z</time>
      </trkpt>
      <trkpt lat="40.367466" lon="-4.753293">
        <ele>1167.952</ele>
        <time>2022-12-19T08:38:20Z</time>
      </trkpt>
      <trkpt lat="40.367049" lon="-4.752327">
        <ele>1188.830</ele>
        <time>2022-12-19T08:39:00Z</time>
      </trkpt>
      <trkpt lat="40.366885" lon="-4.751780">
        <ele>1196.852</ele>
        <time>2022-12-19T08:39:40Z</time>
      </trkpt>
      <trkpt lat="40.366362" lon="-4.752456">
        <ele>1210.859</ele>
        <time>2022-12-19T08:40:20Z</time>
      </trkpt>
      <trkpt lat="40.365667" lon="-4.752681">
        <ele>1221.898</ele>
        <time>2022-12-19T08:41:00Z</time>
      </trkpt>
      <trkpt lat="40.365095" lon="-4.752048">
        <ele>1239.715</ele>
        <time>2022-12-19T08:41:40Z</time>
      </trkpt>
      <trkpt lat="40.364911" lon="-4.752123">
        <ele>1243.126</ele>
        <time>2022-12-19T08:42:20Z</time>
      </trkpt>
      <trkpt lat="40.364613" lon="-4.752432">
        <ele>1245.109</ele>
        <time>2022-12-19T08:43:00Z</time>
      </trkpt>
      <trkpt lat="40.364351" lon="-4.752046">
        <ele>1256.850</ele>
        <time>2022-12-19T08:43:40Z</time>
      </trkpt>
      <trkpt lat="40.363934" lon="-4.751496">
        <ele>1271.371</ele>
        <time>2022-12-19T08:44:20Z</time>
      </trkpt>
      <trkpt lat="40.363282" lon="-4.751303">
        <ele>1290.060</ele>
        <time>2022-12-19T08:45:00Z</time>
      </trkpt>
      <trkpt lat="40.362761" lon="-4.751413">
        <ele>1301.354</ele>
        <time>2022-12-19T08:45:40Z</time>
      </trkpt>
      <trkpt lat="40.362262" lon="-4.751657">
        <ele>1309.462</ele>
        <time>2022-12-19T08:46:20Z</time>
      </trkpt>
      <trkpt lat="40.362089" lon="-4.750616">
        <ele>1325.260</ele>
        <time>2022-12-19T08:47:00Z</time>
      </trkpt>
      <trkpt lat="40.361637" lon="-4.750949">
        <ele>1334.688</ele>
        <time>2022-12-19T08:47:40Z</time>
      </trkpt>
      <trkpt lat="40.361277" lon="-4.751128">
        <ele>1343.730</ele>
        <time>2022-12-19T08:48:20Z</time>
      </trkpt>
      <trkpt lat="40.361179" lon="-4.749286">
        <ele>1367.887</ele>
        <time>2022-12-19T08:49:00Z</time>
      </trkpt>
      <trkpt lat="40.360813" lon="-4.749098">
        <ele>1376.526</ele>
        <time>2022-12-19T08:49:40Z</time>
      </trkpt>
      <trkpt lat="40.360664" lon="-4.749320">
        <ele>1382.747</ele>
        <time>2022-12-19T08:50:20Z</time>
      </trkpt>
      <trkpt lat="40.360505" lon="-4.749720">
        <ele>1390.211</ele>
        <time>2022-12-19T08:51:00Z</time>
      </trkpt>
      <trkpt lat="40.359021" lon="-4.751372">
        <ele>1421.509</ele>
        <time>2022-12-19T08:51:40Z</time>
      </trkpt>
      <trkpt lat="40.359031" lon="-4.751592">
        <ele>1424.133</ele>
        <time>2022-12-19T08:52:20Z</time>
      </trkpt>
      <trkpt lat="40.359464" lon="-4.752982">
        <ele>1431.014</ele>
        <time>2022-12-19T08:53:00Z</time>
      </trkpt>
      <trkpt lat="40.359307" lon="-4.753231">
        <ele>1432.153</ele>
        <time>2022-12-19T08:53:40Z</time>
      </trkpt>
      <trkpt lat="40.359074" lon="-4.753049">
        <ele>1437.437</ele>
        <time>2022-12-19T08:54:20Z</time>
      </trkpt>
      <trkpt lat="40.358817" lon="-4.752665">
        <ele>1448.995</ele>
        <time>2022-12-19T08:55:00Z</time>
      </trkpt>
      <trkpt lat="40.358393" lon="-4.752231">
        <ele>1460.483</ele>
        <time>2022-12-19T08:55:40Z</time>
      </trkpt>
      <trkpt lat="40.358042" lon="-4.752410">
        <ele>1465.671</ele>
        <time>2022-12-19T08:56:20Z</time>
      </trkpt>
      <trkpt lat="40.356946" lon="-4.752936">
        <ele>1477.233</ele>
        <time>2022-12-19T08:57:00Z</time>
      </trkpt>
      <trkpt lat="40.356816" lon="-4.753314">
        <ele>1481.430</ele>
        <time>2022-12-19T08:57:40Z</time>
      </trkpt>
      <trkpt lat="40.357040" lon="-4.753859">
        <ele>1479.418</ele>
        <time>2022-12-19T08:58:20Z</time>
      </trkpt>
      <trkpt lat="40.357282" lon="-4.755146">
        <ele>1478.298</ele>
        <time>2022-12-19T08:59:00Z</time>
      </trkpt>
      <trkpt lat="40.356985" lon="-4.755758">
        <ele>1475.917</ele>
        <time>2022-12-19T08:59:40Z</time>
      </trkpt>
      <trkpt lat="40.356487" lon="-4.756318">
        <ele>1478.109</ele>
        <time>2022-12-19T09:00:20Z</time>
      </trkpt>
      <trkpt lat="40.355366" lon="-4.757102">
        <ele>1495.442</ele>
        <time>2022-12-19T09:01:00Z</time>
      </trkpt>
      <trkpt lat="40.355326" lon="-4.757552">
        <ele>1506.083</ele>
        <time>2022-12-19T09:01:40Z</time>
      </trkpt>
      <trkpt lat="40.356061" lon="-4.758604">
        <ele>1504.422</ele>
        <time>2022-12-19T09:02:20Z</time>
      </trkpt>
      <trkpt lat="40.356090" lon="-4.759097">
        <ele>1505.726</ele>
        <time>2022-12-19T09:03:00Z</time>
      </trkpt>
      <trkpt lat="40.355622" lon="-4.759862">
        <ele>1519.114</ele>
        <time>2022-12-19T09:03:40Z</time>
      </trkpt>
      <trkpt lat="40.355393" lon="-4.760248">
        <ele>1526.592</ele>
        <time>2022-12-19T09:04:20Z</time>
      </trkpt>
      <trkpt lat="40.355381" lon="-4.760645">
        <ele>1532.740</ele>
        <time>2022-12-19T09:05:00Z</time>
      </trkpt>
      <trkpt lat="40.356086" lon="-4.761243">
        <ele>1543.862</ele>
        <time>2022-12-19T09:05:40Z</time>
      </trkpt>
      <trkpt lat="40.356993" lon="-4.761715">
        <ele>1544.469</ele>
        <time>2022-12-19T09:06:20Z</time>
      </trkpt>
      <trkpt lat="40.357288" lon="-4.763067">
        <ele>1551.946</ele>
        <time>2022-12-19T09:07:00Z</time>
      </trkpt>
      <trkpt lat="40.357598" lon="-4.763796">
        <ele>1557.088</ele>
        <time>2022-12-19T09:07:40Z</time>
      </trkpt>
      <trkpt lat="40.357893" lon="-4.764590">
        <ele>1560.516</ele>
        <time>2022-12-19T09:08:20Z</time>
      </trkpt>
      <trkpt lat="40.357631" lon="-4.765148">
        <ele>1566.309</ele>
        <time>2022-12-19T09:09:00Z</time>
      </trkpt>
      <trkpt lat="40.357010" lon="-4.764268">
        <ele>1583.565</ele>
        <time>2022-12-19T09:09:40Z</time>
      </trkpt>
      <trkpt lat="40.356020" lon="-4.765148">
        <ele>1602.616</ele>
        <time>2022-12-19T09:10:20Z</time>
      </trkpt>
      <trkpt lat="40.354508" lon="-4.766049">
        <ele>1628.315</ele>
        <time>2022-12-19T09:11:00Z</time>
      </trkpt>
      <trkpt lat="40.353977" lon="-4.766554">
        <ele>1645.659</ele>
        <time>2022-12-19T09:11:40Z</time>
      </trkpt>
      <trkpt lat="40.353797" lon="-4.767884">
        <ele>1659.487</ele>
        <time>2022-12-19T09:12:20Z</time>
      </trkpt>
      <trkpt lat="40.353633" lon="-4.770502">
        <ele>1694.885</ele>
        <time>2022-12-19T09:13:00Z</time>
      </trkpt>
      <trkpt lat="40.352685" lon="-4.770598">
        <ele>1689.813</ele>
        <time>2022-12-19T09:13:40Z</time>
      </trkpt>
      <trkpt lat="40.352656" lon="-4.770770">
        <ele>1686.035</ele>
        <time>2022-12-19T09:14:20Z</time>
      </trkpt>
      <trkpt lat="40.352922" lon="-4.771674">
        <ele>1679.692</ele>
        <time>2022-12-19T09:15:00Z</time>
      </trkpt>
      <trkpt lat="40.353177" lon="-4.772272">
        <ele>1677.019</ele>
        <time>2022-12-19T09:15:40Z</time>
      </trkpt>
      <trkpt lat="40.353296" lon="-4.772559">
        <ele>1673.609</ele>
        <time>2022-12-19T09:16:20Z</time>
      </trkpt>
      <trkpt lat="40.353333" lon="-4.772731">
        <ele>1670.819</ele>
        <time>2022-12-19T09:17:00Z</time>
      </trkpt>
      <trkpt lat="40.353151" lon="-4.772653">
        <ele>1670.609</ele>
        <time>2022-12-19T09:17:40Z</time>
      </trkpt>
      <trkpt lat="40.352999" lon="-4.772645">
        <ele>1668.592</ele>
        <time>2022-12-19T09:18:20Z</time>
      </trkpt>
      <trkpt lat="40.352979" lon="-4.772760">
        <ele>1666.383</ele>
        <time>2022-12-19T09:19:00Z</time>
      </trkpt>
      <trkpt lat="40.352948" lon="-4.773163">
        <ele>1659.352</ele>
        <time>2022-12-19T09:19:40Z</time>
      </trkpt>
      <trkpt lat="40.353032" lon="-4.773678">
        <ele>1650.986</ele>
        <time>2022-12-19T09:20:20Z</time>
      </trkpt>
      <trkpt lat="40.352916" lon="-4.773774">
        <ele>1645.824</ele>
        <time>2022-12-19T09:21:00Z</time>
      </trkpt>
      <trkpt lat="40.352548" lon="-4.773648">
        <ele>1637.832</ele>
        <time>2022-12-19T09:21:40Z</time>
      </trkpt>
      <trkpt lat="40.352558" lon="-4.774643">
        <ele>1622.430</ele>
        <time>2022-12-19T09:22:20Z</time>
      </trkpt>
      <trkpt lat="40.352423" lon="-4.774984">
        <ele>1613.532</ele>
        <time>2022-12-19T09:23:00Z</time>
      </trkpt>
      <trkpt lat="40.352178" lon="-4.775008">
        <ele>1609.729</ele>
        <time>2022-12-19T09:23:40Z</time>
      </trkpt>
      <trkpt lat="40.351689" lon="-4.774978">
        <ele>1599.795</ele>
        <time>2022-12-19T09:24:20Z</time>
      </trkpt>
      <trkpt lat="40.351642" lon="-4.775137">
        <ele>1595.049</ele>
        <time>2022-12-19T09:25:00Z</time>
      </trkpt>
      <trkpt lat="40.351759" lon="-4.775400">
        <ele>1591.523</ele>
        <time>2022-12-19T09:25:40Z</time>
      </trkpt>
      <trkpt lat="40.351892" lon="-4.775716">
        <ele>1586.509</ele>
        <time>2022-12-19T09:26:20Z</time>
      </trkpt>
      <trkpt lat="40.351432" lon="-4.775601">
        <ele>1581.660</ele>
        <time>2022-12-19T09:27:00Z</time>
      </trkpt>
      <trkpt lat="40.350935" lon="-4.775467">
        <ele>1574.411</ele>
        <time>2022-12-19T09:27:40Z</time>
      </trkpt>
      <trkpt lat="40.350790" lon="-4.775236">
        <ele>1570.870</ele>
        <time>2022-12-19T09:28:20Z</time>
      </trkpt>
      <trkpt lat="40.350626" lon="-4.774697">
        <ele>1569.194</ele>
        <time>2022-12-19T09:29:00Z</time>
      </trkpt>
      <trkpt lat="40.350448" lon="-4.774984">
        <ele>1562.072</ele>
        <time>2022-12-19T09:29:40Z</time>
      </trkpt>
      <trkpt lat="40.350191" lon="-4.775778">
        <ele>1546.820</ele>
        <time>2022-12-19T09:30:20Z</time>
      </trkpt>
      <trkpt lat="40.350085" lon="-4.776306">
        <ele>1535.658</ele>
        <time>2022-12-19T09:31:00Z</time>
      </trkpt>
      <trkpt lat="40.350244" lon="-4.776995">
        <ele>1526.210</ele>
        <time>2022-12-19T09:31:40Z</time>
      </trkpt>
      <trkpt lat="40.350606" lon="-4.777612">
        <ele>1517.357</ele>
        <time>2022-12-19T09:32:20Z</time>
      </trkpt>
      <trkpt lat="40.350498" lon="-4.777594">
        <ele>1515.973</ele>
        <time>2022-12-19T09:33:00Z</time>
      </trkpt>
      <trkpt lat="40.350062" lon="-4.777406">
        <ele>1511.985</ele>
        <time>2022-12-19T09:33:40Z</time>
      </trkpt>
      <trkpt lat="40.349907" lon="-4.777202">
        <ele>1514.313</ele>
        <time>2022-12-19T09:34:20Z</time>
      </trkpt>
      <trkpt lat="40.349792" lon="-4.777317">
        <ele>1512.509</ele>
        <time>2022-12-19T09:35:00Z</time>
      </trkpt>
      <trkpt lat="40.349700" lon="-4.777653">
        <ele>1509.868</ele>
        <time>2022-12-19T09:35:40Z</time>
      </trkpt>
      <trkpt lat="40.349420" lon="-4.778017">
        <ele>1513.489</ele>
        <time>2022-12-19T09:36:20Z</time>
      </trkpt>
      <trkpt lat="40.349426" lon="-4.778680">
        <ele>1515.158</ele>
        <time>2022-12-19T09:37:00Z</time>
      </trkpt>
      <trkpt lat="40.349289" lon="-4.778790">
        <ele>1516.412</ele>
        <time>2022-12-19T09:37:40Z</time>
      </trkpt>
      <trkpt lat="40.349114" lon="-4.778768">
        <ele>1518.980</ele>
        <time>2022-12-19T09:38:20Z</time>
      </trkpt>
      <trkpt lat="40.348613" lon="-4.778900">
        <ele>1525.928</ele>
        <time>2022-12-19T09:39:00Z</time>
      </trkpt>
      <trkpt lat="40.348472" lon="-4.778991">
        <ele>1527.896</ele>
        <time>2022-12-19T09:39:40Z</time>
      </trkpt>
      <trkpt lat="40.348474" lon="-4.779283">
        <ele>1529.378</ele>
        <time>2022-12-19T09:40:20Z</time>
      </trkpt>
      <trkpt lat="40.348962" lon="-4.780367">
        <ele>1517.915</ele>
        <time>2022-12-19T09:41:00Z</time>
      </trkpt>
      <trkpt lat="40.348770" lon="-4.780721">
        <ele>1523.952</ele>
        <time>2022-12-19T09:41:40Z</time>
      </trkpt>
      <trkpt lat="40.348570" lon="-4.781056">
        <ele>1528.553</ele>
        <time>2022-12-19T09:42:20Z</time>
      </trkpt>
      <trkpt lat="40.348130" lon="-4.781322">
        <ele>1538.808</ele>
        <time>2022-12-19T09:43:00Z</time>
      </trkpt>
      <trkpt lat="40.347388" lon="-4.781587">
        <ele>1555.209</ele>
        <time>2022-12-19T09:43:40Z</time>
      </trkpt>
      <trkpt lat="40.346706" lon="-4.782086">
        <ele>1569.746</ele>
        <time>2022-12-19T09:44:20Z</time>
      </trkpt>
      <trkpt lat="40.346072" lon="-4.782078">
        <ele>1587.977</ele>
        <time>2022-12-19T09:45:00Z</time>
      </trkpt>
      <trkpt lat="40.346471" lon="-4.783111">
        <ele>1590.046</ele>
        <time>2022-12-19T09:45:40Z</time>
      </trkpt>
      <trkpt lat="40.346513" lon="-4.783621">
        <ele>1592.760</ele>
        <time>2022-12-19T09:46:20Z</time>
      </trkpt>
      <trkpt lat="40.346221" lon="-4.784047">
        <ele>1594.768</ele>
        <time>2022-12-19T09:47:00Z</time>
      </trkpt>
      <trkpt lat="40.345500" lon="-4.784911">
        <ele>1604.836</ele>
        <time>2022-12-19T09:47:40Z</time>
      </trkpt>
      <trkpt lat="40.344874" lon="-4.785777">
        <ele>1607.624</ele>
        <time>2022-12-19T09:48:20Z</time>
      </trkpt>
      <trkpt lat="40.344582" lon="-4.786136">
        <ele>1608.486</ele>
        <time>2022-12-19T09:49:00Z</time>
      </trkpt>
      <trkpt lat="40.343809" lon="-4.786271">
        <ele>1612.893</ele>
        <time>2022-12-19T09:49:40Z</time>
      </trkpt>
      <trkpt lat="40.343439" lon="-4.786305">
        <ele>1610.022</ele>
        <time>2022-12-19T09:50:20Z</time>
      </trkpt>
      <trkpt lat="40.342983" lon="-4.786276">
        <ele>1612.562</ele>
        <time>2022-12-19T09:51:00Z</time>
      </trkpt>
      <trkpt lat="40.342290" lon="-4.786595">
        <ele>1607.108</ele>
        <time>2022-12-19T09:51:40Z</time>
      </trkpt>
      <trkpt lat="40.342202" lon="-4.786858">
        <ele>1603.509</ele>
        <time>2022-12-19T09:52:20Z</time>
      </trkpt>
      <trkpt lat="40.341767" lon="-4.786863">
        <ele>1601.083</ele>
        <time>2022-12-19T09:53:00Z</time>
      </trkpt>
      <trkpt lat="40.341534" lon="-4.786657">
        <ele>1608.814</ele>
        <time>2022-12-19T09:53:40Z</time>
      </trkpt>
      <trkpt lat="40.341468" lon="-4.786727">
        <ele>1607.853</ele>
        <time>2022-12-19T09:54:20Z</time>
      </trkpt>
      <trkpt lat="40.341366" lon="-4.787327">
        <ele>1600.977</ele>
        <time>2022-12-19T09:55:00Z</time>
      </trkpt>
      <trkpt lat="40.341386" lon="-4.787810">
        <ele>1591.525</ele>
        <time>2022-12-19T09:55:40Z</time>
      </trkpt>
      <trkpt lat="40.341206" lon="-4.788245">
        <ele>1590.843</ele>
        <time>2022-12-19T09:56:20Z</time>
      </trkpt>
      <trkpt lat="40.341141" lon="-4.788577">
        <ele>1591.671</ele>
        <time>2022-12-19T09:57:00Z</time>
      </trkpt>
      <trkpt lat="40.341407" lon="-4.789650">
        <ele>1592.453</ele>
        <time>2022-12-19T09:57:40Z</time>
      </trkpt>
      <trkpt lat="40.341832" lon="-4.790825">
        <ele>1584.440</ele>
        <time>2022-12-19T09:58:20Z</time>
      </trkpt>
      <trkpt lat="40.341989" lon="-4.791812">
        <ele>1580.355</ele>
        <time>2022-12-19T09:59:00Z</time>
      </trkpt>
      <trkpt lat="40.342257" lon="-4.792542">
        <ele>1569.907</ele>
        <time>2022-12-19T09:59:40Z</time>
      </trkpt>
      <trkpt lat="40.342257" lon="-4.792740">
        <ele>1568.817</ele>
        <time>2022-12-19T10:00:20Z</time>
      </trkpt>
      <trkpt lat="40.342400" lon="-4.793349">
        <ele>1564.209</ele>
        <time>2022-12-19T10:01:00Z</time>
      </trkpt>
      <trkpt lat="40.342314" lon="-4.793692">
        <ele>1563.266</ele>
        <time>2022-12-19T10:01:40Z</time>
      </trkpt>
      <trkpt lat="40.342227" lon="-4.794261">
        <ele>1555.067</ele>
        <time>2022-12-19T10:02:20Z</time>
      </trkpt>
      <trkpt lat="40.342116" lon="-4.794698">
        <ele>1548.436</ele>
        <time>2022-12-19T10:03:00Z</time>
      </trkpt>
      <trkpt lat="40.341748" lon="-4.795205">
        <ele>1543.340</ele>
        <time>2022-12-19T10:03:40Z</time>
      </trkpt>
      <trkpt lat="40.341174" lon="-4.795760">
        <ele>1532.478</ele>
        <time>2022-12-19T10:04:20Z</time>
      </trkpt>
      <trkpt lat="40.340677" lon="-4.795725">
        <ele>1527.736</ele>
        <time>2022-12-19T10:05:00Z</time>
      </trkpt>
      <trkpt lat="40.340395" lon="-4.795693">
        <ele>1524.954</ele>
        <time>2022-12-19T10:05:40Z</time>
      </trkpt>
      <trkpt lat="40.338432" lon="-4.795897">
        <ele>1511.476</ele>
        <time>2022-12-19T10:06:20Z</time>
      </trkpt>
      <trkpt lat="40.337694" lon="-4.795806">
        <ele>1508.963</ele>
        <time>2022-12-19T10:07:00Z</time>
      </trkpt>
      <trkpt lat="40.337439" lon="-4.796045">
        <ele>1503.175</ele>
        <time>2022-12-19T10:07:40Z</time>
      </trkpt>
      <trkpt lat="40.336723" lon="-4.796243">
        <ele>1500.928</ele>
        <time>2022-12-19T10:08:20Z</time>
      </trkpt>
      <trkpt lat="40.336623" lon="-4.796425">
        <ele>1501.020</ele>
        <time>2022-12-19T10:09:00Z</time>
      </trkpt>
      <trkpt lat="40.336686" lon="-4.796758">
        <ele>1504.809</ele>
        <time>2022-12-19T10:09:40Z</time>
      </trkpt>
      <trkpt lat="40.336934" lon="-4.796916">
        <ele>1499.628</ele>
        <time>2022-12-19T10:10:20Z</time>
      </trkpt>
      <trkpt lat="40.337633" lon="-4.797954">
        <ele>1484.639</ele>
        <time>2022-12-19T10:11:00Z</time>
      </trkpt>
      <trkpt lat="40.337774" lon="-4.798332">
        <ele>1487.198</ele>
        <time>2022-12-19T10:11:40Z</time>
      </trkpt>
      <trkpt lat="40.338027" lon="-4.798681">
        <ele>1483.122</ele>
        <time>2022-12-19T10:12:20Z</time>
      </trkpt>
      <trkpt lat="40.338119" lon="-4.799121">
        <ele>1487.950</ele>
        <time>2022-12-19T10:13:00Z</time>
      </trkpt>
      <trkpt lat="40.338389" lon="-4.799443">
        <ele>1481.818</ele>
        <time>2022-12-19T10:13:40Z</time>
      </trkpt>
      <trkpt lat="40.339348" lon="-4.800052">
        <ele>1480.326</ele>
        <time>2022-12-19T10:14:20Z</time>
      </trkpt>
      <trkpt lat="40.339452" lon="-4.800349">
        <ele>1485.068</ele>
        <time>2022-12-19T10:15:00Z</time>
      </trkpt>
      <trkpt lat="40.339489" lon="-4.800891">
        <ele>1487.735</ele>
        <time>2022-12-19T10:15:40Z</time>
      </trkpt>
      <trkpt lat="40.338236" lon="-4.803150">
        <ele>1471.478</ele>
        <time>2022-12-19T10:16:20Z</time>
      </trkpt>
      <trkpt lat="40.338048" lon="-4.804941">
        <ele>1461.533</ele>
        <time>2022-12-19T10:17:00Z</time>
      </trkpt>
      <trkpt lat="40.336723" lon="-4.805725">
        <ele>1459.526</ele>
        <time>2022-12-19T10:17:40Z</time>
      </trkpt>
      <trkpt lat="40.336854" lon="-4.807903">
        <ele>1446.809</ele>
        <time>2022-12-19T10:18:20Z</time>
      </trkpt>
      <trkpt lat="40.336028" lon="-4.809179">
        <ele>1439.578</ele>
        <time>2022-12-19T10:19:00Z</time>
      </trkpt>
      <trkpt lat="40.335692" lon="-4.811046">
        <ele>1429.019</ele>
        <time>2022-12-19T10:19:40Z</time>
      </trkpt>
      <trkpt lat="40.339467" lon="-4.800918">
        <ele>1488.689</ele>
        <time>2023-01-03T22:01:44Z</time>
      </trkpt>
      <trkpt lat="40.339315" lon="-4.801009">
        <ele>1495.006</ele>
        <time>2023-01-03T22:02:24Z</time>
      </trkpt>
      <trkpt lat="40.339148" lon="-4.801449">
        <ele>1488.426</ele>
        <time>2023-01-03T22:03:04Z</time>
      </trkpt>
      <trkpt lat="40.337774" lon="-4.802780">
        <ele>1500.309</ele>
        <time>2023-01-03T22:03:44Z</time>
      </trkpt>
      <trkpt lat="40.337663" lon="-4.803616">
        <ele>1508.239</ele>
        <time>2023-01-03T22:04:24Z</time>
      </trkpt>
      <trkpt lat="40.337467" lon="-4.804373">
        <ele>1502.980</ele>
        <time>2023-01-03T22:05:04Z</time>
      </trkpt>
      <trkpt lat="40.336891" lon="-4.804743">
        <ele>1506.460</ele>
        <time>2023-01-03T22:05:44Z</time>
      </trkpt>
      <trkpt lat="40.336343" lon="-4.804856">
        <ele>1511.923</ele>
        <time>2023-01-03T22:06:24Z</time>
      </trkpt>
      <trkpt lat="40.335913" lon="-4.805022">
        <ele>1520.376</ele>
        <time>2023-01-03T22:07:04Z</time>
      </trkpt>
      <trkpt lat="40.335263" lon="-4.806985">
        <ele>1528.371</ele>
        <time>2023-01-03T22:07:44Z</time>
      </trkpt>
      <trkpt lat="40.334462" lon="-4.807704">
        <ele>1537.365</ele>
        <time>2023-01-03T22:08:24Z</time>
      </trkpt>
      <trkpt lat="40.334314" lon="-4.809056">
        <ele>1538.346</ele>
        <time>2023-01-03T22:09:04Z</time>
      </trkpt>
      <trkpt lat="40.333546" lon="-4.809378">
        <ele>1546.471</ele>
        <time>2023-01-03T22:09:44Z</time>
      </trkpt>
      <trkpt lat="40.332977" lon="-4.809421">
        <ele>1559.813</ele>
        <time>2023-01-03T22:10:24Z</time>
      </trkpt>
      <trkpt lat="40.332855" lon="-4.810054">
        <ele>1555.543</ele>
        <time>2023-01-03T22:11:04Z</time>
      </trkpt>
      <trkpt lat="40.331787" lon="-4.811159">
        <ele>1565.107</ele>
        <time>2023-01-03T22:11:44Z</time>
      </trkpt>
      <trkpt lat="40.331362" lon="-4.812189">
        <ele>1568.809</ele>
        <time>2023-01-03T22:12:24Z</time>
      </trkpt>
      <trkpt lat="40.331501" lon="-4.813272">
        <ele>1569.572</ele>
        <time>2023-01-03T22:13:04Z</time>
      </trkpt>
      <trkpt lat="40.331374" lon="-4.813964">
        <ele>1570.963</ele>
        <time>2023-01-03T22:13:44Z</time>
      </trkpt>
      <trkpt lat="40.331750" lon="-4.814050">
        <ele>1573.313</ele>
        <time>2023-01-03T22:14:24Z</time>
      </trkpt>
      <trkpt lat="40.331795" lon="-4.814495">
        <ele>1578.476</ele>
        <time>2023-01-03T22:15:04Z</time>
      </trkpt>
      <trkpt lat="40.331926" lon="-4.814689">
        <ele>1583.179</ele>
        <time>2023-01-03T22:15:44Z</time>
      </trkpt>
      <trkpt lat="40.332478" lon="-4.814731">
        <ele>1589.254</ele>
        <time>2023-01-03T22:16:24Z</time>
      </trkpt>
      <trkpt lat="40.333206" lon="-4.815043">
        <ele>1595.388</ele>
        <time>2023-01-03T22:17:04Z</time>
      </trkpt>
      <trkpt lat="40.333529" lon="-4.815413">
        <ele>1603.729</ele>
        <time>2023-01-03T22:17:44Z</time>
      </trkpt>
      <trkpt lat="40.334180" lon="-4.815440">
        <ele>1603.064</ele>
        <time>2023-01-03T22:18:24Z</time>
      </trkpt>
      <trkpt lat="40.334678" lon="-4.815429">
        <ele>1602.881</ele>
        <time>2023-01-03T22:19:04Z</time>
      </trkpt>
      <trkpt lat="40.335840" lon="-4.815273">
        <ele>1603.761</ele>
        <time>2023-01-03T22:19:44Z</time>
      </trkpt>
      <trkpt lat="40.336469" lon="-4.815804">
        <ele>1617.817</ele>
        <time>2023-01-03T22:20:24Z</time>
      </trkpt>
      <trkpt lat="40.336915" lon="-4.816352">
        <ele>1630.009</ele>
        <time>2023-01-03T22:21:04Z</time>
      </trkpt>
      <trkpt lat="40.337492" lon="-4.817103">
        <ele>1634.039</ele>
        <time>2023-01-03T22:21:44Z</time>
      </trkpt>
      <trkpt lat="40.337913" lon="-4.817419">
        <ele>1632.110</ele>
        <time>2023-01-03T22:22:24Z</time>
      </trkpt>
      <trkpt lat="40.338064" lon="-4.817639">
        <ele>1634.560</ele>
        <time>2023-01-03T22:23:04Z</time>
      </trkpt>
      <trkpt lat="40.338804" lon="-4.817768">
        <ele>1637.833</ele>
        <time>2023-01-03T22:23:44Z</time>
      </trkpt>
      <trkpt lat="40.339475" lon="-4.817215">
        <ele>1634.336</ele>
        <time>2023-01-03T22:24:24Z</time>
      </trkpt>
      <trkpt lat="40.339859" lon="-4.816244">
        <ele>1640.551</ele>
        <time>2023-01-03T22:25:04Z</time>
      </trkpt>
      <trkpt lat="40.340031" lon="-4.815397">
        <ele>1637.325</ele>
        <time>2023-01-03T22:25:44Z</time>
      </trkpt>
      <trkpt lat="40.340297" lon="-4.814624">
        <ele>1641.396</ele>
        <time>2023-01-03T22:26:24Z</time>
      </trkpt>
      <trkpt lat="40.340354" lon="-4.814045">
        <ele>1639.291</ele>
        <time>2023-01-03T22:27:04Z</time>
      </trkpt>
      <trkpt lat="40.340567" lon="-4.813567">
        <ele>1638.519</ele>
        <time>2023-01-03T22:27:44Z</time>
      </trkpt>
      <trkpt lat="40.342427" lon="-4.812602">
        <ele>1647.909</ele>
        <time>2023-01-03T22:28:24Z</time>
      </trkpt>
      <trkpt lat="40.342946" lon="-4.812462">
        <ele>1642.619</ele>
        <time>2023-01-03T22:29:04Z</time>
      </trkpt>
      <trkpt lat="40.343609" lon="-4.812521">
        <ele>1645.009</ele>
        <time>2023-01-03T22:29:44Z</time>
      </trkpt>
      <trkpt lat="40.344696" lon="-4.811776">
        <ele>1640.772</ele>
        <time>2023-01-03T22:30:24Z</time>
      </trkpt>
      <trkpt lat="40.345681" lon="-4.811175">
        <ele>1635.763</ele>
        <time>2023-01-03T22:31:04Z</time>
      </trkpt>
      <trkpt lat="40.346454" lon="-4.811073">
        <ele>1627.233</ele>
        <time>2023-01-03T22:31:44Z</time>
      </trkpt>
      <trkpt lat="40.345780" lon="-4.810236">
        <ele>1614.316</ele>
        <time>2023-01-03T22:32:24Z</time>
      </trkpt>
      <trkpt lat="40.346704" lon="-4.810199">
        <ele>1604.519</ele>
        <time>2023-01-03T22:33:04Z</time>
      </trkpt>
      <trkpt lat="40.347313" lon="-4.810703">
        <ele>1601.534</ele>
        <time>2023-01-03T22:33:44Z</time>
      </trkpt>
      <trkpt lat="40.348147" lon="-4.810402">
        <ele>1590.488</ele>
        <time>2023-01-03T22:34:24Z</time>
      </trkpt>
      <trkpt lat="40.349238" lon="-4.811003">
        <ele>1579.679</ele>
        <time>2023-01-03T22:35:04Z</time>
      </trkpt>
      <trkpt lat="40.349610" lon="-4.811212">
        <ele>1572.254</ele>
        <time>2023-01-03T22:35:44Z</time>
      </trkpt>
      <trkpt lat="40.349091" lon="-4.809029">
        <ele>1543.192</ele>
        <time>2023-01-03T22:36:24Z</time>
      </trkpt>
      <trkpt lat="40.349504" lon="-4.809034">
        <ele>1535.973</ele>
        <time>2023-01-03T22:37:04Z</time>
      </trkpt>
      <trkpt lat="40.350036" lon="-4.809313">
        <ele>1526.220</ele>
        <time>2023-01-03T22:37:44Z</time>
      </trkpt>
      <trkpt lat="40.350710" lon="-4.809887">
        <ele>1512.609</ele>
        <time>2023-01-03T22:38:24Z</time>
      </trkpt>
      <trkpt lat="40.351066" lon="-4.810166">
        <ele>1503.210</ele>
        <time>2023-01-03T22:39:04Z</time>
      </trkpt>
      <trkpt lat="40.351303" lon="-4.810783">
        <ele>1493.431</ele>
        <time>2023-01-03T22:39:44Z</time>
      </trkpt>
      <trkpt lat="40.351483" lon="-4.810703">
        <ele>1487.131</ele>
        <time>2023-01-03T22:40:24Z</time>
      </trkpt>
      <trkpt lat="40.351515" lon="-4.810252">
        <ele>1486.434</ele>
        <time>2023-01-03T22:41:04Z</time>
      </trkpt>
      <trkpt lat="40.351581" lon="-4.809807">
        <ele>1480.077</ele>
        <time>2023-01-03T22:41:44Z</time>
      </trkpt>
      <trkpt lat="40.351471" lon="-4.809131">
        <ele>1472.862</ele>
        <time>2023-01-03T22:42:24Z</time>
      </trkpt>
      <trkpt lat="40.351242" lon="-4.808300">
        <ele>1458.956</ele>
        <time>2023-01-03T22:43:04Z</time>
      </trkpt>
      <trkpt lat="40.350939" lon="-4.807420">
        <ele>1445.357</ele>
        <time>2023-01-03T22:43:44Z</time>
      </trkpt>
      <trkpt lat="40.351082" lon="-4.807280">
        <ele>1437.222</ele>
        <time>2023-01-03T22:44:24Z</time>
      </trkpt>
      <trkpt lat="40.351699" lon="-4.807591">
        <ele>1425.826</ele>
        <time>2023-01-03T22:45:04Z</time>
      </trkpt>
      <trkpt lat="40.351495" lon="-4.806776">
        <ele>1417.247</ele>
        <time>2023-01-03T22:45:44Z</time>
      </trkpt>
      <trkpt lat="40.351029" lon="-4.806288">
        <ele>1412.211</ele>
        <time>2023-01-03T22:46:24Z</time>
      </trkpt>
      <trkpt lat="40.350722" lon="-4.805424">
        <ele>1396.209</ele>
        <time>2023-01-03T22:47:04Z</time>
      </trkpt>
      <trkpt lat="40.350248" lon="-4.805129">
        <ele>1392.083</ele>
        <time>2023-01-03T22:47:44Z</time>
      </trkpt>
      <trkpt lat="40.350722" lon="-4.804657">
        <ele>1371.984</ele>
        <time>2023-01-03T22:48:24Z</time>
      </trkpt>
      <trkpt lat="40.351532" lon="-4.804802">
        <ele>1356.494</ele>
        <time>2023-01-03T22:49:04Z</time>
      </trkpt>
      <trkpt lat="40.351397" lon="-4.804223">
        <ele>1346.857</ele>
        <time>2023-01-03T22:49:44Z</time>
      </trkpt>
      <trkpt lat="40.351434" lon="-4.803713">
        <ele>1337.190</ele>
        <time>2023-01-03T22:50:24Z</time>
      </trkpt>
      <trkpt lat="40.351749" lon="-4.803670">
        <ele>1331.175</ele>
        <time>2023-01-03T22:51:04Z</time>
      </trkpt>
      <trkpt lat="40.352198" lon="-4.804008">
        <ele>1324.459</ele>
        <time>2023-01-03T22:51:44Z</time>
      </trkpt>
      <trkpt lat="40.352386" lon="-4.804164">
        <ele>1321.650</ele>
        <time>2023-01-03T22:52:24Z</time>
      </trkpt>
      <trkpt lat="40.352828" lon="-4.804373">
        <ele>1317.475</ele>
        <time>2023-01-03T22:53:04Z</time>
      </trkpt>
      <trkpt lat="40.353764" lon="-4.805794">
        <ele>1310.125</ele>
        <time>2023-01-03T22:53:44Z</time>
      </trkpt>
      <trkpt lat="40.354169" lon="-4.806175">
        <ele>1304.126</ele>
        <time>2023-01-03T22:54:24Z</time>
      </trkpt>
      <trkpt lat="40.354242" lon="-4.806867">
        <ele>1300.308</ele>
        <time>2023-01-03T22:55:04Z</time>
      </trkpt>
      <trkpt lat="40.354279" lon="-4.807538">
        <ele>1297.309</ele>
        <time>2023-01-03T22:55:44Z</time>
      </trkpt>
      <trkpt lat="40.355403" lon="-4.809989">
        <ele>1289.563</ele>
        <time>2023-01-03T22:56:24Z</time>
      </trkpt>
      <trkpt lat="40.355689" lon="-4.810531">
        <ele>1284.424</ele>
        <time>2023-01-03T22:57:04Z</time>
      </trkpt>
      <trkpt lat="40.355583" lon="-4.811561">
        <ele>1271.844</ele>
        <time>2023-01-03T22:57:44Z</time>
      </trkpt>
      <trkpt lat="40.355395" lon="-4.812189">
        <ele>1273.547</ele>
        <time>2023-01-03T22:58:24Z</time>
      </trkpt>
      <trkpt lat="40.355559" lon="-4.812666">
        <ele>1270.990</ele>
        <time>2023-01-03T22:59:04Z</time>
      </trkpt>
      <trkpt lat="40.355375" lon="-4.814002">
        <ele>1264.085</ele>
        <time>2023-01-03T22:59:44Z</time>
      </trkpt>
      <trkpt lat="40.355043" lon="-4.814495">
        <ele>1266.539</ele>
        <time>2023-01-03T23:00:24Z</time>
      </trkpt>
      <trkpt lat="40.355182" lon="-4.815043">
        <ele>1262.710</ele>
        <time>2023-01-03T23:01:04Z</time>
      </trkpt>
      <trkpt lat="40.355019" lon="-4.815772">
        <ele>1259.165</ele>
        <time>2023-01-03T23:01:44Z</time>
      </trkpt>
      <trkpt lat="40.355227" lon="-4.816668">
        <ele>1254.842</ele>
        <time>2023-01-03T23:02:24Z</time>
      </trkpt>
      <trkpt lat="40.354561" lon="-4.817955">
        <ele>1246.422</ele>
        <time>2023-01-03T23:03:04Z</time>
      </trkpt>
      <trkpt lat="40.354046" lon="-4.819323">
        <ele>1247.614</ele>
        <time>2023-01-03T23:03:44Z</time>
      </trkpt>
      <trkpt lat="40.354855" lon="-4.819565">
        <ele>1246.709</ele>
        <time>2023-01-03T23:04:24Z</time>
      </trkpt>
      <trkpt lat="40.355563" lon="-4.818857">
        <ele>1239.045</ele>
        <time>2023-01-03T23:05:04Z</time>
      </trkpt>
      <trkpt lat="40.355955" lon="-4.818529">
        <ele>1233.756</ele>
        <time>2023-01-03T23:05:44Z</time>
      </trkpt>
      <trkpt lat="40.356331" lon="-4.818460">
        <ele>1229.856</ele>
        <time>2023-01-03T23:06:24Z</time>
      </trkpt>
      <trkpt lat="40.357333" lon="-4.819576">
        <ele>1225.929</ele>
        <time>2023-01-03T23:07:04Z</time>
      </trkpt>
      <trkpt lat="40.357537" lon="-4.819238">
        <ele>1217.342</ele>
        <time>2023-01-03T23:07:44Z</time>
      </trkpt>
      <trkpt lat="40.357296" lon="-4.818610">
        <ele>1215.787</ele>
        <time>2023-01-03T23:08:24Z</time>
      </trkpt>
      <trkpt lat="40.357247" lon="-4.817559">
        <ele>1213.851</ele>
        <time>2023-01-03T23:09:04Z</time>
      </trkpt>
      <trkpt lat="40.357529" lon="-4.817376">
        <ele>1209.052</ele>
        <time>2023-01-03T23:09:44Z</time>
      </trkpt>
      <trkpt lat="40.358236" lon="-4.818835">
        <ele>1200.627</ele>
        <time>2023-01-03T23:10:24Z</time>
      </trkpt>
      <trkpt lat="40.358534" lon="-4.819527">
        <ele>1195.755</ele>
        <time>2023-01-03T23:11:04Z</time>
      </trkpt>
      <trkpt lat="40.358772" lon="-4.820691">
        <ele>1197.107</ele>
        <time>2023-01-03T23:11:44Z</time>
      </trkpt>
      <trkpt lat="40.359078" lon="-4.820498">
        <ele>1195.817</ele>
        <time>2023-01-03T23:12:24Z</time>
      </trkpt>
      <trkpt lat="40.360006" lon="-4.817816">
        <ele>1178.009</ele>
        <time>2023-01-03T23:13:04Z</time>
      </trkpt>
      <trkpt lat="40.360210" lon="-4.817312">
        <ele>1171.966</ele>
        <time>2023-01-03T23:13:44Z</time>
      </trkpt>
      <trkpt lat="40.360709" lon="-4.817516">
        <ele>1169.797</ele>
        <time>2023-01-03T23:14:24Z</time>
      </trkpt>
      <trkpt lat="40.360958" lon="-4.818251">
        <ele>1169.777</ele>
        <time>2023-01-03T23:15:04Z</time>
      </trkpt>
      <trkpt lat="40.361600" lon="-4.818680">
        <ele>1167.470</ele>
        <time>2023-01-03T23:15:44Z</time>
      </trkpt>
      <trkpt lat="40.362123" lon="-4.818175">
        <ele>1159.843</ele>
        <time>2023-01-03T23:16:24Z</time>
      </trkpt>
      <trkpt lat="40.362835" lon="-4.818143">
        <ele>1157.268</ele>
        <time>2023-01-03T23:17:04Z</time>
      </trkpt>
      <trkpt lat="40.363378" lon="-4.818744">
        <ele>1152.242</ele>
        <time>2023-01-03T23:17:44Z</time>
      </trkpt>
      <trkpt lat="40.363897" lon="-4.819291">
        <ele>1148.333</ele>
        <time>2023-01-03T23:18:24Z</time>
      </trkpt>
      <trkpt lat="40.364539" lon="-4.818546">
        <ele>1140.478</ele>
        <time>2023-01-03T23:19:04Z</time>
      </trkpt>
      <trkpt lat="40.364817" lon="-4.818315">
        <ele>1138.966</ele>
        <time>2023-01-03T23:19:44Z</time>
      </trkpt>
      <trkpt lat="40.365177" lon="-4.818476">
        <ele>1134.929</ele>
        <time>2023-01-03T23:20:24Z</time>
      </trkpt>
      <trkpt lat="40.365536" lon="-4.818975">
        <ele>1132.021</ele>
        <time>2023-01-03T23:21:04Z</time>
      </trkpt>
      <trkpt lat="40.365810" lon="-4.819361">
        <ele>1126.609</ele>
        <time>2023-01-03T23:21:44Z</time>
      </trkpt>
      <trkpt lat="40.365896" lon="-4.820101">
        <ele>1127.487</ele>
        <time>2023-01-03T23:22:24Z</time>
      </trkpt>
      <trkpt lat="40.366092" lon="-4.820278">
        <ele>1126.278</ele>
        <time>2023-01-03T23:23:04Z</time>
      </trkpt>
      <trkpt lat="40.366432" lon="-4.819801">
        <ele>1120.688</ele>
        <time>2023-01-03T23:23:44Z</time>
      </trkpt>
      <trkpt lat="40.366955" lon="-4.819270">
        <ele>1116.951</ele>
        <time>2023-01-03T23:24:24Z</time>
      </trkpt>
      <trkpt lat="40.368214" lon="-4.818873">
        <ele>1105.354</ele>
        <time>2023-01-03T23:25:04Z</time>
      </trkpt>
      <trkpt lat="40.368471" lon="-4.818964">
        <ele>1103.449</ele>
        <time>2023-01-03T23:25:44Z</time>
      </trkpt>
      <trkpt lat="40.369444" lon="-4.819629">
        <ele>1099.793</ele>
        <time>2023-01-03T23:26:24Z</time>
      </trkpt>
      <trkpt lat="40.370351" lon="-4.820187">
        <ele>1100.024</ele>
        <time>2023-01-03T23:27:04Z</time>
      </trkpt>
      <trkpt lat="40.370666" lon="-4.820015">
        <ele>1097.859</ele>
        <time>2023-01-03T23:27:44Z</time>
      </trkpt>
      <trkpt lat="40.371234" lon="-4.819318">
        <ele>1096.222</ele>
        <time>2023-01-03T23:28:24Z</time>
      </trkpt>
      <trkpt lat="40.371634" lon="-4.818358">
        <ele>1096.762</ele>
        <time>2023-01-03T23:29:04Z</time>
      </trkpt>
      <trkpt lat="40.371990" lon="-4.817730">
        <ele>1097.208</ele>
        <time>2023-01-03T23:29:44Z</time>
      </trkpt>
      <trkpt lat="40.372546" lon="-4.817500">
        <ele>1096.809</ele>
        <time>2023-01-03T23:30:24Z</time>
      </trkpt>
      <trkpt lat="40.373265" lon="-4.817387">
        <ele>1096.153</ele>
        <time>2023-01-03T23:31:04Z</time>
      </trkpt>
      <trkpt lat="40.373449" lon="-4.817280">
        <ele>1095.464</ele>
        <time>2023-01-03T23:31:44Z</time>
      </trkpt>
      <trkpt lat="40.374013" lon="-4.817204">
        <ele>1094.184</ele>
        <time>2023-01-03T23:32:24Z</time>
      </trkpt>
      <trkpt lat="40.374634" lon="-4.817033">
        <ele>1093.797</ele>
        <time>2023-01-03T23:33:04Z</time>
      </trkpt>
      <trkpt lat="40.375263" lon="-4.817398">
        <ele>1089.770</ele>
        <time>2023-01-03T23:33:44Z</time>
      </trkpt>
      <trkpt lat="40.376416" lon="-4.816743">
        <ele>1085.825</ele>
        <time>2023-01-03T23:34:24Z</time>
      </trkpt>
      <trkpt lat="40.377331" lon="-4.816561">
        <ele>1080.049</ele>
        <time>2023-01-03T23:35:04Z</time>
      </trkpt>
      <trkpt lat="40.377615" lon="-4.816408">
        <ele>1080.360</ele>
        <time>2023-01-03T23:35:44Z</time>
      </trkpt>
      <trkpt lat="40.377981" lon="-4.816762">
        <ele>1079.715</ele>
        <time>2023-01-03T23:36:24Z</time>
      </trkpt>
      <trkpt lat="40.378398" lon="-4.817237">
        <ele>1078.456</ele>
        <time>2023-01-03T23:37:04Z</time>
      </trkpt>
      <trkpt lat="40.378563" lon="-4.817939">
        <ele>1079.259</ele>
        <time>2023-01-03T23:37:44Z</time>
      </trkpt>
      <trkpt lat="40.378576" lon="-4.819020">
        <ele>1073.714</ele>
        <time>2023-01-03T23:38:24Z</time>
      </trkpt>
      <trkpt lat="40.378898" lon="-4.819728">
        <ele>1072.109</ele>
        <time>2023-01-03T23:39:04Z</time>
      </trkpt>
      <trkpt lat="40.379093" lon="-4.820013">
        <ele>1072.186</ele>
        <time>2023-01-03T23:39:44Z</time>
      </trkpt>
      <trkpt lat="40.379344" lon="-4.820589">
        <ele>1071.297</ele>
        <time>2023-01-03T23:40:24Z</time>
      </trkpt>
      <trkpt lat="40.379283" lon="-4.820670">
        <ele>1070.467</ele>
        <time>2023-01-03T23:41:04Z</time>
      </trkpt>
      <trkpt lat="40.379191" lon="-4.820817">
        <ele>1069.230</ele>
        <time>2023-01-03T23:41:44Z</time>
      </trkpt>
      <trkpt lat="40.379152" lon="-4.821153">
        <ele>1067.513</ele>
        <time>2023-01-03T23:42:24Z</time>
      </trkpt>
      <trkpt lat="40.379125" lon="-4.821381">
        <ele>1065.648</ele>
        <time>2023-01-03T23:43:04Z</time>
      </trkpt>
      <trkpt lat="40.379029" lon="-4.821504">
        <ele>1063.732</ele>
        <time>2023-01-03T23:43:44Z</time>
      </trkpt>
      <trkpt lat="40.378935" lon="-4.821625">
        <ele>1062.453</ele>
        <time>2023-01-03T23:44:24Z</time>
      </trkpt>
      <trkpt lat="40.378674" lon="-4.822121">
        <ele>1058.448</ele>
        <time>2023-01-03T23:45:04Z</time>
      </trkpt>
      <trkpt lat="40.378533" lon="-4.822322">
        <ele>1056.516</ele>
        <time>2023-01-03T23:45:44Z</time>
      </trkpt>
      <trkpt lat="40.378516" lon="-4.822531">
        <ele>1055.576</ele>
        <time>2023-01-03T23:46:24Z</time>
      </trkpt>
      <trkpt lat="40.378664" lon="-4.823065">
        <ele>1053.813</ele>
        <time>2023-01-03T23:47:04Z</time>
      </trkpt>
      <trkpt lat="40.378782" lon="-4.823197">
        <ele>1052.609</ele>
        <time>2023-01-03T23:47:44Z</time>
      </trkpt>
      <trkpt lat="40.378817" lon="-4.823569">
        <ele>1050.082</ele>
        <time>2023-01-03T23:48:24Z</time>
      </trkpt>
      <trkpt lat="40.378737" lon="-4.823856">
        <ele>1049.423</ele>
        <time>2023-01-03T23:49:04Z</time>
      </trkpt>
      <trkpt lat="40.378686" lon="-4.824141">
        <ele>1048.833</ele>
        <time>2023-01-03T23:49:44Z</time>
      </trkpt>
      <trkpt lat="40.378576" lon="-4.824404">
        <ele>1046.926</ele>
        <time>2023-01-03T23:50:24Z</time>
      </trkpt>
      <trkpt lat="40.378474" lon="-4.824666">
        <ele>1043.089</ele>
        <time>2023-01-03T23:51:04Z</time>
      </trkpt>
      <trkpt lat="40.378369" lon="-4.824892">
        <ele>1040.044</ele>
        <time>2023-01-03T23:51:44Z</time>
      </trkpt>
      <trkpt lat="40.378243" lon="-4.825286">
        <ele>1034.288</ele>
        <time>2023-01-03T23:52:24Z</time>
      </trkpt>
      <trkpt lat="40.378126" lon="-4.825525">
        <ele>1030.679</ele>
        <time>2023-01-03T23:53:04Z</time>
      </trkpt>
      <trkpt lat="40.378251" lon="-4.825747">
        <ele>1027.574</ele>
        <time>2023-01-03T23:53:44Z</time>
      </trkpt>
      <trkpt lat="40.378053" lon="-4.825852">
        <ele>1025.644</ele>
        <time>2023-01-03T23:54:24Z</time>
      </trkpt>
      <trkpt lat="40.377828" lon="-4.826372">
        <ele>1020.005</ele>
        <time>2023-01-03T23:55:04Z</time>
      </trkpt>
      <trkpt lat="40.377775" lon="-4.826568">
        <ele>1020.715</ele>
        <time>2023-01-03T23:55:44Z</time>
      </trkpt>
      <trkpt lat="40.377799" lon="-4.826807">
        <ele>1022.909</ele>
        <time>2023-01-03T23:56:24Z</time>
      </trkpt>
      <trkpt lat="40.377959" lon="-4.826970">
        <ele>1024.075</ele>
        <time>2023-01-03T23:57:04Z</time>
      </trkpt>
      <trkpt lat="40.378153" lon="-4.826995">
        <ele>1024.796</ele>
        <time>2023-01-03T23:57:44Z</time>
      </trkpt>
      <trkpt lat="40.378412" lon="-4.826866">
        <ele>1024.416</ele>
        <time>2023-01-03T23:58:24Z</time>
      </trkpt>
      <trkpt lat="40.378711" lon="-4.826820">
        <ele>1023.949</ele>
        <time>2023-01-03T23:59:04Z</time>
      </trkpt>
      <trkpt lat="40.379005" lon="-4.826922">
        <ele>1025.712</ele>
        <time>2023-01-03T23:59:44Z</time>
      </trkpt>
      <trkpt lat="40.379299" lon="-4.827086">
        <ele>1027.357</ele>
        <time>2023-01-04T00:00:24Z</time>
      </trkpt>
      <trkpt lat="40.379722" lon="-4.827287">
        <ele>1027.751</ele>
        <time>2023-01-04T00:01:04Z</time>
      </trkpt>
      <trkpt lat="40.380067" lon="-4.827322">
        <ele>1020.922</ele>
        <time>2023-01-04T00:01:44Z</time>
      </trkpt>
      <trkpt lat="40.380261" lon="-4.827330">
        <ele>1016.857</ele>
        <time>2023-01-04T00:02:24Z</time>
      </trkpt>
      <trkpt lat="40.380482" lon="-4.827566">
        <ele>1016.646</ele>
        <time>2023-01-04T00:03:04Z</time>
      </trkpt>
      <trkpt lat="40.380907" lon="-4.827394">
        <ele>1021.288</ele>
        <time>2023-01-04T00:03:44Z</time>
      </trkpt>
      <trkpt lat="40.381397" lon="-4.827220">
        <ele>1027.016</ele>
        <time>2023-01-04T00:04:24Z</time>
      </trkpt>
      <trkpt lat="40.381671" lon="-4.826925">
        <ele>1026.809</ele>
        <time>2023-01-04T00:05:04Z</time>
      </trkpt>
      <trkpt lat="40.382264" lon="-4.826399">
        <ele>1027.175</ele>
        <time>2023-01-04T00:05:44Z</time>
      </trkpt>
      <trkpt lat="40.382519" lon="-4.826268">
        <ele>1025.796</ele>
        <time>2023-01-04T00:06:24Z</time>
      </trkpt>
      <trkpt lat="40.382948" lon="-4.826319">
        <ele>1025.876</ele>
        <time>2023-01-04T00:07:04Z</time>
      </trkpt>
      <trkpt lat="40.383340" lon="-4.826388">
        <ele>1023.969</ele>
        <time>2023-01-04T00:07:44Z</time>
      </trkpt>
      <trkpt lat="40.383586" lon="-4.826697">
        <ele>1023.552</ele>
        <time>2023-01-04T00:08:24Z</time>
      </trkpt>
      <trkpt lat="40.383878" lon="-4.827072">
        <ele>1022.187</ele>
        <time>2023-01-04T00:09:04Z</time>
      </trkpt>
      <trkpt lat="40.384129" lon="-4.827153">
        <ele>1020.861</ele>
        <time>2023-01-04T00:09:44Z</time>
      </trkpt>
      <trkpt lat="40.384630" lon="-4.827064">
        <ele>1019.142</ele>
        <time>2023-01-04T00:10:24Z</time>
      </trkpt>
      <trkpt lat="40.384818" lon="-4.826691">
        <ele>1019.547</ele>
        <time>2023-01-04T00:11:04Z</time>
      </trkpt>
      <trkpt lat="40.385018" lon="-4.826096">
        <ele>1021.382</ele>
        <time>2023-01-04T00:11:44Z</time>
      </trkpt>
      <trkpt lat="40.385044" lon="-4.825761">
        <ele>1021.343</ele>
        <time>2023-01-04T00:12:24Z</time>
      </trkpt>
      <trkpt lat="40.385212" lon="-4.825281">
        <ele>1020.317</ele>
        <time>2023-01-04T00:13:04Z</time>
      </trkpt>
      <trkpt lat="40.385500" lon="-4.825020">
        <ele>1021.509</ele>
        <time>2023-01-04T00:13:44Z</time>
      </trkpt>
      <trkpt lat="40.385786" lon="-4.824878">
        <ele>1021.139</ele>
        <time>2023-01-04T00:14:24Z</time>
      </trkpt>
      <trkpt lat="40.386323" lon="-4.824795">
        <ele>1018.210</ele>
        <time>2023-01-04T00:15:04Z</time>
      </trkpt>
      <trkpt lat="40.386491" lon="-4.824827">
        <ele>1017.520</ele>
        <time>2023-01-04T00:15:44Z</time>
      </trkpt>
      <trkpt lat="40.386732" lon="-4.824916">
        <ele>1018.723</ele>
        <time>2023-01-04T00:16:24Z</time>
      </trkpt>
      <trkpt lat="40.387467" lon="-4.824881">
        <ele>1022.116</ele>
        <time>2023-01-04T00:17:04Z</time>
      </trkpt>
      <trkpt lat="40.387853" lon="-4.824924">
        <ele>1020.951</ele>
        <time>2023-01-04T00:17:44Z</time>
      </trkpt>
      <trkpt lat="40.388548" lon="-4.823972">
        <ele>1010.145</ele>
        <time>2023-01-04T00:18:24Z</time>
      </trkpt>
      <trkpt lat="40.388611" lon="-4.823478">
        <ele>1009.016</ele>
        <time>2023-01-04T00:19:04Z</time>
      </trkpt>
      <trkpt lat="40.388681" lon="-4.823261">
        <ele>1006.891</ele>
        <time>2023-01-04T00:19:44Z</time>
      </trkpt>
      <trkpt lat="40.388899" lon="-4.823191">
        <ele>1004.427</ele>
        <time>2023-01-04T00:20:24Z</time>
      </trkpt>
      <trkpt lat="40.389138" lon="-4.823325">
        <ele>1001.568</ele>
        <time>2023-01-04T00:21:04Z</time>
      </trkpt>
      <trkpt lat="40.389273" lon="-4.823824">
        <ele>997.114</ele>
        <time>2023-01-04T00:21:44Z</time>
      </trkpt>
      <trkpt lat="40.389439" lon="-4.824661">
        <ele>985.009</ele>
        <time>2023-01-04T00:22:24Z</time>
      </trkpt>
      <trkpt lat="40.389496" lon="-4.825211">
        <ele>981.643</ele>
        <time>2023-01-04T00:23:04Z</time>
      </trkpt>
      <trkpt lat="40.389594" lon="-4.825763">
        <ele>980.274</ele>
        <time>2023-01-04T00:23:44Z</time>
      </trkpt>
      <trkpt lat="40.389794" lon="-4.826573">
        <ele>967.434</ele>
        <time>2023-01-04T00:24:24Z</time>
      </trkpt>
      <trkpt lat="40.389782" lon="-4.827164">
        <ele>964.387</ele>
        <time>2023-01-04T00:25:04Z</time>
      </trkpt>
      <trkpt lat="40.389770" lon="-4.827472">
        <ele>963.260</ele>
        <time>2023-01-04T00:25:44Z</time>
      </trkpt>
      <trkpt lat="40.389813" lon="-4.827939">
        <ele>961.045</ele>
        <time>2023-01-04T00:26:24Z</time>
      </trkpt>
      <trkpt lat="40.389980" lon="-4.828448">
        <ele>958.369</ele>
        <time>2023-01-04T00:27:04Z</time>
      </trkpt>
      <trkpt lat="40.390258" lon="-4.829202">
        <ele>954.190</ele>
        <time>2023-01-04T00:27:44Z</time>
      </trkpt>
      <trkpt lat="40.390356" lon="-4.829631">
        <ele>951.025</ele>
        <time>2023-01-04T00:28:24Z</time>
      </trkpt>
      <trkpt lat="40.390260" lon="-4.830012">
        <ele>950.019</ele>
        <time>2023-01-04T00:29:04Z</time>
      </trkpt>
      <trkpt lat="40.390195" lon="-4.830176">
        <ele>948.909</ele>
        <time>2023-01-04T00:29:44Z</time>
      </trkpt>
      <trkpt lat="40.390307" lon="-4.830819">
        <ele>942.819</ele>
        <time>2023-01-04T00:30:24Z</time>
      </trkpt>
      <trkpt lat="40.390403" lon="-4.831423">
        <ele>938.009</ele>
        <time>2023-01-04T00:31:04Z</time>
      </trkpt>
      <trkpt lat="40.390417" lon="-4.831613">
        <ele>937.282</ele>
        <time>2023-01-04T00:31:44Z</time>
      </trkpt>
      <trkpt lat="40.390595" lon="-4.832252">
        <ele>931.693</ele>
        <time>2023-01-04T00:32:24Z</time>
      </trkpt>
      <trkpt lat="40.390466" lon="-4.832743">
        <ele>930.473</ele>
        <time>2023-01-04T00:33:04Z</time>
      </trkpt>
      <trkpt lat="40.390534" lon="-4.832858">
        <ele>928.936</ele>
        <time>2023-01-04T00:33:44Z</time>
      </trkpt>
      <trkpt lat="40.390671" lon="-4.832592">
        <ele>926.899</ele>
        <time>2023-01-04T00:34:24Z</time>
      </trkpt>
      <trkpt lat="40.390779" lon="-4.832659">
        <ele>922.714</ele>
        <time>2023-01-04T00:35:04Z</time>
      </trkpt>
      <trkpt lat="40.390834" lon="-4.833770">
        <ele>911.358</ele>
        <time>2023-01-04T00:35:44Z</time>
      </trkpt>
      <trkpt lat="40.390797" lon="-4.834086">
        <ele>907.829</ele>
        <time>2023-01-04T00:36:24Z</time>
      </trkpt>
      <trkpt lat="40.390961" lon="-4.834405">
        <ele>905.264</ele>
        <time>2023-01-04T00:37:04Z</time>
      </trkpt>
      <trkpt lat="40.391165" lon="-4.835352">
        <ele>897.167</ele>
        <time>2023-01-04T00:37:44Z</time>
      </trkpt>
      <trkpt lat="40.390981" lon="-4.835827">
        <ele>889.681</ele>
        <time>2023-01-04T00:38:24Z</time>
      </trkpt>
      <trkpt lat="40.390738" lon="-4.835913">
        <ele>887.319</ele>
        <time>2023-01-04T00:39:04Z</time>
      </trkpt>
      <trkpt lat="40.390456" lon="-4.835918">
        <ele>888.409</ele>
        <time>2023-01-04T00:39:44Z</time>
      </trkpt>
      <trkpt lat="40.390264" lon="-4.836122">
        <ele>888.167</ele>
        <time>2023-01-04T00:40:24Z</time>
      </trkpt>
      <trkpt lat="40.389900" lon="-4.836747">
        <ele>885.878</ele>
        <time>2023-01-04T00:41:04Z</time>
      </trkpt>
      <trkpt lat="40.389780" lon="-4.837541">
        <ele>886.148</ele>
        <time>2023-01-04T00:41:44Z</time>
      </trkpt>
      <trkpt lat="40.389649" lon="-4.838080">
        <ele>887.181</ele>
        <time>2023-01-04T00:42:24Z</time>
      </trkpt>
      <trkpt lat="40.389543" lon="-4.838826">
        <ele>887.584</ele>
        <time>2023-01-04T00:43:04Z</time>
      </trkpt>
      <trkpt lat="40.389404" lon="-4.839373">
        <ele>883.739</ele>
        <time>2023-01-04T00:43:44Z</time>
      </trkpt>
      <trkpt lat="40.389361" lon="-4.839995">
        <ele>881.073</ele>
        <time>2023-01-04T00:44:24Z</time>
      </trkpt>
      <trkpt lat="40.389966" lon="-4.839488">
        <ele>875.964</ele>
        <time>2023-01-04T00:45:04Z</time>
      </trkpt>
      <trkpt lat="40.390383" lon="-4.838973">
        <ele>871.529</ele>
        <time>2023-01-04T00:45:44Z</time>
      </trkpt>
      <trkpt lat="40.390530" lon="-4.837804">
        <ele>865.775</ele>
        <time>2023-01-04T00:46:24Z</time>
      </trkpt>
      <trkpt lat="40.391004" lon="-4.837053">
        <ele>861.128</ele>
        <time>2023-01-04T00:47:04Z</time>
      </trkpt>
      <trkpt lat="40.391053" lon="-4.836731">
        <ele>864.720</ele>
        <time>2023-01-04T00:47:44Z</time>
      </trkpt>
      <trkpt lat="40.391706" lon="-4.836870">
        <ele>852.109</ele>
        <time>2023-01-04T00:48:24Z</time>
      </trkpt>
      <trkpt lat="40.392703" lon="-4.836860">
        <ele>850.218</ele>
        <time>2023-01-04T00:49:04Z</time>
      </trkpt>
      <trkpt lat="40.392760" lon="-4.837697">
        <ele>856.089</ele>
        <time>2023-01-04T00:49:44Z</time>
      </trkpt>
      <trkpt lat="40.393202" lon="-4.837707">
        <ele>859.339</ele>
        <time>2023-01-04T00:50:24Z</time>
      </trkpt>
      <trkpt lat="40.393798" lon="-4.837310">
        <ele>856.842</ele>
        <time>2023-01-04T00:51:04Z</time>
      </trkpt>
      <trkpt lat="40.394615" lon="-4.836473">
        <ele>856.335</ele>
        <time>2023-01-04T00:51:44Z</time>
      </trkpt>
      <trkpt lat="40.395416" lon="-4.835851">
        <ele>853.260</ele>
        <time>2023-01-04T00:52:24Z</time>
      </trkpt>
      <trkpt lat="40.396037" lon="-4.835068">
        <ele>855.874</ele>
        <time>2023-01-04T00:53:04Z</time>
      </trkpt>
      <trkpt lat="40.396151" lon="-4.836152">
        <ele>860.065</ele>
        <time>2023-01-04T00:53:44Z</time>
      </trkpt>
      <trkpt lat="40.396184" lon="-4.836538">
        <ele>862.580</ele>
        <time>2023-01-04T00:54:24Z</time>
      </trkpt>
      <trkpt lat="40.395955" lon="-4.837214">
        <ele>863.792</ele>
        <time>2023-01-04T00:55:04Z</time>
      </trkpt>
      <trkpt lat="40.395776" lon="-4.837922">
        <ele>866.373</ele>
        <time>2023-01-04T00:55:44Z</time>
      </trkpt>
      <trkpt lat="40.395669" lon="-4.838533">
        <ele>869.120</ele>
        <time>2023-01-04T00:56:24Z</time>
      </trkpt>
      <trkpt lat="40.395506" lon="-4.839027">
        <ele>872.309</ele>
        <time>2023-01-04T00:57:04Z</time>
      </trkpt>
      <trkpt lat="40.395432" lon="-4.839799">
        <ele>878.850</ele>
        <time>2023-01-04T00:57:44Z</time>
      </trkpt>
      <trkpt lat="40.395326" lon="-4.840014">
        <ele>880.821</ele>
        <time>2023-01-04T00:58:24Z</time>
      </trkpt>
      <trkpt lat="40.395294" lon="-4.840529">
        <ele>886.661</ele>
        <time>2023-01-04T00:59:04Z</time>
      </trkpt>
      <trkpt lat="40.395171" lon="-4.841280">
        <ele>897.034</ele>
        <time>2023-01-04T00:59:44Z</time>
      </trkpt>
      <trkpt lat="40.395432" lon="-4.842095">
        <ele>907.197</ele>
        <time>2023-01-04T01:00:24Z</time>
      </trkpt>
      <trkpt lat="40.395604" lon="-4.842385">
        <ele>909.292</ele>
        <time>2023-01-04T01:01:04Z</time>
      </trkpt>
      <trkpt lat="40.395657" lon="-4.842879">
        <ele>909.326</ele>
        <time>2023-01-04T01:01:44Z</time>
      </trkpt>
      <trkpt lat="40.395720" lon="-4.843064">
        <ele>908.077</ele>
        <time>2023-01-04T01:02:24Z</time>
      </trkpt>
      <trkpt lat="40.395863" lon="-4.843249">
        <ele>907.352</ele>
        <time>2023-01-04T01:03:04Z</time>
      </trkpt>
      <trkpt lat="40.395927" lon="-4.843635">
        <ele>905.258</ele>
        <time>2023-01-04T01:03:44Z</time>
      </trkpt>
      <trkpt lat="40.395859" lon="-4.843992">
        <ele>902.452</ele>
        <time>2023-01-04T01:04:24Z</time>
      </trkpt>
      <trkpt lat="40.395751" lon="-4.844236">
        <ele>898.817</ele>
        <time>2023-01-04T01:05:04Z</time>
      </trkpt>
      <trkpt lat="40.395882" lon="-4.844665">
        <ele>897.109</ele>
        <time>2023-01-04T01:05:44Z</time>
      </trkpt>
      <trkpt lat="40.395804" lon="-4.844847">
        <ele>893.966</ele>
        <time>2023-01-04T01:06:24Z</time>
      </trkpt>
      <trkpt lat="40.395882" lon="-4.845445">
        <ele>888.717</ele>
        <time>2023-01-04T01:07:04Z</time>
      </trkpt>
      <trkpt lat="40.396139" lon="-4.845636">
        <ele>889.237</ele>
        <time>2023-01-04T01:07:44Z</time>
      </trkpt>
      <trkpt lat="40.396395" lon="-4.845968">
        <ele>889.610</ele>
        <time>2023-01-04T01:08:24Z</time>
      </trkpt>
      <trkpt lat="40.396536" lon="-4.846392">
        <ele>887.653</ele>
        <time>2023-01-04T01:09:04Z</time>
      </trkpt>
      <trkpt lat="40.396670" lon="-4.846746">
        <ele>886.248</ele>
        <time>2023-01-04T01:09:44Z</time>
      </trkpt>
      <trkpt lat="40.396768" lon="-4.847173">
        <ele>884.062</ele>
        <time>2023-01-04T01:10:24Z</time>
      </trkpt>
      <trkpt lat="40.396760" lon="-4.847428">
        <ele>882.473</ele>
        <time>2023-01-04T01:11:04Z</time>
      </trkpt>
      <trkpt lat="40.396983" lon="-4.847972">
        <ele>882.748</ele>
        <time>2023-01-04T01:11:44Z</time>
      </trkpt>
      <trkpt lat="40.397308" lon="-4.848766">
        <ele>885.588</ele>
        <time>2023-01-04T01:12:24Z</time>
      </trkpt>
      <trkpt lat="40.397275" lon="-4.849125">
        <ele>885.824</ele>
        <time>2023-01-04T01:13:04Z</time>
      </trkpt>
      <trkpt lat="40.397220" lon="-4.849447">
        <ele>882.926</ele>
        <time>2023-01-04T01:13:44Z</time>
      </trkpt>
      <trkpt lat="40.397273" lon="-4.849785">
        <ele>881.009</ele>
        <time>2023-01-04T01:14:24Z</time>
      </trkpt>
      <trkpt lat="40.397389" lon="-4.849914">
        <ele>880.529</ele>
        <time>2023-01-04T01:15:04Z</time>
      </trkpt>
      <trkpt lat="40.397681" lon="-4.849944">
        <ele>883.770</ele>
        <time>2023-01-04T01:15:44Z</time>
      </trkpt>
      <trkpt lat="40.397890" lon="-4.850118">
        <ele>882.780</ele>
        <time>2023-01-04T01:16:24Z</time>
      </trkpt>
      <trkpt lat="40.398072" lon="-4.850432">
        <ele>879.953</ele>
        <time>2023-01-04T01:17:04Z</time>
      </trkpt>
      <trkpt lat="40.398329" lon="-4.850711">
        <ele>878.116</ele>
        <time>2023-01-04T01:17:44Z</time>
      </trkpt>
      <trkpt lat="40.398437" lon="-4.850968">
        <ele>876.351</ele>
        <time>2023-01-04T01:18:24Z</time>
      </trkpt>
      <trkpt lat="40.398452" lon="-4.851660">
        <ele>875.845</ele>
        <time>2023-01-04T01:19:04Z</time>
      </trkpt>
      <trkpt lat="40.398360" lon="-4.851904">
        <ele>877.266</ele>
        <time>2023-01-04T01:19:44Z</time>
      </trkpt>
      <trkpt lat="40.398264" lon="-4.852025">
        <ele>876.111</ele>
        <time>2023-01-04T01:20:24Z</time>
      </trkpt>
      <trkpt lat="40.398072" lon="-4.852223">
        <ele>873.415</ele>
        <time>2023-01-04T01:21:04Z</time>
      </trkpt>
      <trkpt lat="40.397841" lon="-4.852433">
        <ele>876.765</ele>
        <time>2023-01-04T01:21:44Z</time>
      </trkpt>
      <trkpt lat="40.397675" lon="-4.852583">
        <ele>879.311</ele>
        <time>2023-01-04T01:22:24Z</time>
      </trkpt>
      <trkpt lat="40.397730" lon="-4.852733">
        <ele>882.109</ele>
        <time>2023-01-04T01:23:04Z</time>
      </trkpt>
      <trkpt lat="40.397800" lon="-4.852950">
        <ele>885.192</ele>
        <time>2023-01-04T01:23:44Z</time>
      </trkpt>
      <trkpt lat="40.397884" lon="-4.853433">
        <ele>890.363</ele>
        <time>2023-01-04T01:24:24Z</time>
      </trkpt>
      <trkpt lat="40.397961" lon="-4.854007">
        <ele>895.373</ele>
        <time>2023-01-04T01:25:04Z</time>
      </trkpt>
      <trkpt lat="40.397945" lon="-4.854468">
        <ele>898.136</ele>
        <time>2023-01-04T01:25:44Z</time>
      </trkpt>
      <trkpt lat="40.397869" lon="-4.854761">
        <ele>900.239</ele>
        <time>2023-01-04T01:26:24Z</time>
      </trkpt>
      <trkpt lat="40.397751" lon="-4.855270">
        <ele>901.814</ele>
        <time>2023-01-04T01:27:04Z</time>
      </trkpt>
      <trkpt lat="40.397730" lon="-4.855402">
        <ele>901.468</ele>
        <time>2023-01-04T01:27:44Z</time>
      </trkpt>
      <trkpt lat="40.397775" lon="-4.855734">
        <ele>903.999</ele>
        <time>2023-01-04T01:28:24Z</time>
      </trkpt>
      <trkpt lat="40.397841" lon="-4.856292">
        <ele>910.134</ele>
        <time>2023-01-04T01:29:04Z</time>
      </trkpt>
      <trkpt lat="40.397810" lon="-4.856705">
        <ele>913.513</ele>
        <time>2023-01-04T01:29:44Z</time>
      </trkpt>
      <trkpt lat="40.397827" lon="-4.856821">
        <ele>913.943</ele>
        <time>2023-01-04T01:30:24Z</time>
      </trkpt>
      <trkpt lat="40.397890" lon="-4.856920">
        <ele>915.407</ele>
        <time>2023-01-04T01:31:04Z</time>
      </trkpt>
      <trkpt lat="40.398065" lon="-4.857017">
        <ele>919.109</ele>
        <time>2023-01-04T01:31:44Z</time>
      </trkpt>
      <trkpt lat="40.398262" lon="-4.857067">
        <ele>920.822</ele>
        <time>2023-01-04T01:32:24Z</time>
      </trkpt>
      <trkpt lat="40.398486" lon="-4.857065">
        <ele>922.533</ele>
        <time>2023-01-04T01:33:04Z</time>
      </trkpt>
      <trkpt lat="40.398648" lon="-4.857078">
        <ele>924.153</ele>
        <time>2023-01-04T01:33:44Z</time>
      </trkpt>
      <trkpt lat="40.398768" lon="-4.857320">
        <ele>927.416</ele>
        <time>2023-01-04T01:34:24Z</time>
      </trkpt>
      <trkpt lat="40.398795" lon="-4.857472">
        <ele>928.059</ele>
        <time>2023-01-04T01:35:04Z</time>
      </trkpt>
      <trkpt lat="40.398897" lon="-4.857548">
        <ele>929.024</ele>
        <time>2023-01-04T01:35:44Z</time>
      </trkpt>
      <trkpt lat="40.399089" lon="-4.857869">
        <ele>931.488</ele>
        <time>2023-01-04T01:36:24Z</time>
      </trkpt>
      <trkpt lat="40.399267" lon="-4.858253">
        <ele>932.679</ele>
        <time>2023-01-04T01:37:04Z</time>
      </trkpt>
      <trkpt lat="40.399452" lon="-4.858586">
        <ele>934.724</ele>
        <time>2023-01-04T01:37:44Z</time>
      </trkpt>
      <trkpt lat="40.399518" lon="-4.859004">
        <ele>931.134</ele>
        <time>2023-01-04T01:38:24Z</time>
      </trkpt>
      <trkpt lat="40.399487" lon="-4.859460">
        <ele>930.155</ele>
        <time>2023-01-04T01:39:04Z</time>
      </trkpt>
      <trkpt lat="40.399346" lon="-4.859720">
        <ele>929.310</ele>
        <time>2023-01-04T01:39:44Z</time>
      </trkpt>
      <trkpt lat="40.399097" lon="-4.859782">
        <ele>928.609</ele>
        <time>2023-01-04T01:40:24Z</time>
      </trkpt>
      <trkpt lat="40.398956" lon="-4.859750">
        <ele>926.254</ele>
        <time>2023-01-04T01:41:04Z</time>
      </trkpt>
      <trkpt lat="40.398754" lon="-4.859868">
        <ele>925.445</ele>
        <time>2023-01-04T01:41:44Z</time>
      </trkpt>
      <trkpt lat="40.398458" lon="-4.860560">
        <ele>926.175</ele>
        <time>2023-01-04T01:42:24Z</time>
      </trkpt>
      <trkpt lat="40.398208" lon="-4.861504">
        <ele>924.168</ele>
        <time>2023-01-04T01:43:04Z</time>
      </trkpt>
      <trkpt lat="40.398335" lon="-4.862241">
        <ele>925.111</ele>
        <time>2023-01-04T01:43:44Z</time>
      </trkpt>
      <trkpt lat="40.398435" lon="-4.863003">
        <ele>928.646</ele>
        <time>2023-01-04T01:44:24Z</time>
      </trkpt>
      <trkpt lat="40.398548" lon="-4.863668">
        <ele>930.320</ele>
        <time>2023-01-04T01:45:04Z</time>
      </trkpt>
      <trkpt lat="40.398664" lon="-4.863615">
        <ele>931.851</ele>
        <time>2023-01-04T01:45:44Z</time>
      </trkpt>
      <trkpt lat="40.398985" lon="-4.863376">
        <ele>936.116</ele>
        <time>2023-01-04T01:46:24Z</time>
      </trkpt>
      <trkpt lat="40.399152" lon="-4.863258">
        <ele>937.877</ele>
        <time>2023-01-04T01:47:04Z</time>
      </trkpt>
      <trkpt lat="40.399501" lon="-4.863137">
        <ele>943.061</ele>
        <time>2023-01-04T01:47:44Z</time>
      </trkpt>
      <trkpt lat="40.399765" lon="-4.863175">
        <ele>949.327</ele>
        <time>2023-01-04T01:48:24Z</time>
      </trkpt>
      <trkpt lat="40.399992" lon="-4.862931">
        <ele>953.009</ele>
        <time>2023-01-04T01:49:04Z</time>
      </trkpt>
      <trkpt lat="40.400216" lon="-4.862695">
        <ele>956.888</ele>
        <time>2023-01-04T01:49:44Z</time>
      </trkpt>
      <trkpt lat="40.400223" lon="-4.862545">
        <ele>956.169</ele>
        <time>2023-01-04T01:50:24Z</time>
      </trkpt>
      <trkpt lat="40.400396" lon="-4.862169">
        <ele>965.039</ele>
        <time>2023-01-04T01:51:04Z</time>
      </trkpt>
      <trkpt lat="40.400431" lon="-4.862003">
        <ele>967.732</ele>
        <time>2023-01-04T01:51:44Z</time>
      </trkpt>
      <trkpt lat="40.400735" lon="-4.862174">
        <ele>975.575</ele>
        <time>2023-01-04T01:52:24Z</time>
      </trkpt>
      <trkpt lat="40.400903" lon="-4.862467">
        <ele>980.110</ele>
        <time>2023-01-04T01:53:04Z</time>
      </trkpt>
      <trkpt lat="40.401084" lon="-4.862142">
        <ele>983.644</ele>
        <time>2023-01-04T01:53:44Z</time>
      </trkpt>
      <trkpt lat="40.401362" lon="-4.862912">
        <ele>999.375</ele>
        <time>2023-01-04T01:54:24Z</time>
      </trkpt>
      <trkpt lat="40.401011" lon="-4.864564">
        <ele>1019.280</ele>
        <time>2023-01-04T01:55:04Z</time>
      </trkpt>
      <trkpt lat="40.401183" lon="-4.865114">
        <ele>1029.769</ele>
        <time>2023-01-04T01:55:44Z</time>
      </trkpt>
      <trkpt lat="40.401681" lon="-4.865648">
        <ele>1039.104</ele>
        <time>2023-01-04T01:56:24Z</time>
      </trkpt>
      <trkpt lat="40.401985" lon="-4.865256">
        <ele>1050.124</ele>
        <time>2023-01-04T01:57:04Z</time>
      </trkpt>
      <trkpt lat="40.402002" lon="-4.864824">
        <ele>1055.009</ele>
        <time>2023-01-04T01:57:44Z</time>
      </trkpt>
      <trkpt lat="40.402192" lon="-4.864473">
        <ele>1059.537</ele>
        <time>2023-01-04T01:58:24Z</time>
      </trkpt>
      <trkpt lat="40.402541" lon="-4.864245">
        <ele>1061.498</ele>
        <time>2023-01-04T01:59:04Z</time>
      </trkpt>
      <trkpt lat="40.402653" lon="-4.863902">
        <ele>1062.828</ele>
        <time>2023-01-04T01:59:44Z</time>
      </trkpt>
      <trkpt lat="40.402861" lon="-4.863666">
        <ele>1066.561</ele>
        <time>2023-01-04T02:00:24Z</time>
      </trkpt>
      <trkpt lat="40.403088" lon="-4.863456">
        <ele>1071.944</ele>
        <time>2023-01-04T02:01:04Z</time>
      </trkpt>
      <trkpt lat="40.403233" lon="-4.863314">
        <ele>1076.249</ele>
        <time>2023-01-04T02:01:44Z</time>
      </trkpt>
      <trkpt lat="40.403505" lon="-4.863245">
        <ele>1080.873</ele>
        <time>2023-01-04T02:02:24Z</time>
      </trkpt>
      <trkpt lat="40.403548" lon="-4.862912">
        <ele>1080.834</ele>
        <time>2023-01-04T02:03:04Z</time>
      </trkpt>
      <trkpt lat="40.403597" lon="-4.862569">
        <ele>1083.339</ele>
        <time>2023-01-04T02:03:44Z</time>
      </trkpt>
      <trkpt lat="40.403580" lon="-4.862169">
        <ele>1086.145</ele>
        <time>2023-01-04T02:04:24Z</time>
      </trkpt>
      <trkpt lat="40.403503" lon="-4.862083">
        <ele>1086.147</ele>
        <time>2023-01-04T02:05:04Z</time>
      </trkpt>
      <trkpt lat="40.403270" lon="-4.862148">
        <ele>1080.911</ele>
        <time>2023-01-04T02:05:44Z</time>
      </trkpt>
      <trkpt lat="40.403364" lon="-4.861429">
        <ele>1094.309</ele>
        <time>2023-01-04T02:06:24Z</time>
      </trkpt>
      <trkpt lat="40.403662" lon="-4.860839">
        <ele>1107.465</ele>
        <time>2023-01-04T02:07:04Z</time>
      </trkpt>
      <trkpt lat="40.403723" lon="-4.861056">
        <ele>1107.356</ele>
        <time>2023-01-04T02:07:44Z</time>
      </trkpt>
      <trkpt lat="40.404018" lon="-4.860890">
        <ele>1113.736</ele>
        <time>2023-01-04T02:08:24Z</time>
      </trkpt>
      <trkpt lat="40.404479" lon="-4.860570">
        <ele>1126.579</ele>
        <time>2023-01-04T02:09:04Z</time>
      </trkpt>
      <trkpt lat="40.404649" lon="-4.860613">
        <ele>1130.572</ele>
        <time>2023-01-04T02:09:44Z</time>
      </trkpt>
      <trkpt lat="40.404765" lon="-4.860680">
        <ele>1134.547</ele>
        <time>2023-01-04T02:10:24Z</time>
      </trkpt>
      <trkpt lat="40.404773" lon="-4.860511">
        <ele>1135.911</ele>
        <time>2023-01-04T02:11:04Z</time>
      </trkpt>
      <trkpt lat="40.404626" lon="-4.860313">
        <ele>1134.752</ele>
        <time>2023-01-04T02:11:44Z</time>
      </trkpt>
      <trkpt lat="40.404453" lon="-4.860004">
        <ele>1139.117</ele>
        <time>2023-01-04T02:12:24Z</time>
      </trkpt>
      <trkpt lat="40.404783" lon="-4.858905">
        <ele>1156.526</ele>
        <time>2023-01-04T02:13:04Z</time>
      </trkpt>
      <trkpt lat="40.405055" lon="-4.858561">
        <ele>1161.947</ele>
        <time>2023-01-04T02:13:44Z</time>
      </trkpt>
      <trkpt lat="40.405155" lon="-4.858374">
        <ele>1162.011</ele>
        <time>2023-01-04T02:14:24Z</time>
      </trkpt>
      <trkpt lat="40.405398" lon="-4.858309">
        <ele>1165.009</ele>
        <time>2023-01-04T02:15:04Z</time>
      </trkpt>
      <trkpt lat="40.405609" lon="-4.858315">
        <ele>1166.443</ele>
        <time>2023-01-04T02:15:44Z</time>
      </trkpt>
      <trkpt lat="40.405792" lon="-4.858223">
        <ele>1167.784</ele>
        <time>2023-01-04T02:16:24Z</time>
      </trkpt>
      <trkpt lat="40.405942" lon="-4.858063">
        <ele>1168.574</ele>
        <time>2023-01-04T02:17:04Z</time>
      </trkpt>
      <trkpt lat="40.406185" lon="-4.857883">
        <ele>1170.037</ele>
        <time>2023-01-04T02:17:44Z</time>
      </trkpt>
      <trkpt lat="40.406597" lon="-4.857706">
        <ele>1169.970</ele>
        <time>2023-01-04T02:18:24Z</time>
      </trkpt>
      <trkpt lat="40.407049" lon="-4.857692">
        <ele>1170.995</ele>
        <time>2023-01-04T02:19:04Z</time>
      </trkpt>
      <trkpt lat="40.407314" lon="-4.857703">
        <ele>1171.919</ele>
        <time>2023-01-04T02:19:44Z</time>
      </trkpt>
      <trkpt lat="40.407667" lon="-4.857869">
        <ele>1175.840</ele>
        <time>2023-01-04T02:20:24Z</time>
      </trkpt>
      <trkpt lat="40.408013" lon="-4.857974">
        <ele>1177.825</ele>
        <time>2023-01-04T02:21:04Z</time>
      </trkpt>
      <trkpt lat="40.408441" lon="-4.858384">
        <ele>1183.261</ele>
        <time>2023-01-04T02:21:44Z</time>
      </trkpt>
      <trkpt lat="40.408635" lon="-4.858594">
        <ele>1184.221</ele>
        <time>2023-01-04T02:22:24Z</time>
      </trkpt>
      <trkpt lat="40.408848" lon="-4.858757">
        <ele>1182.713</ele>
        <time>2023-01-04T02:23:04Z</time>
      </trkpt>
      <trkpt lat="40.409256" lon="-4.858661">
        <ele>1183.909</ele>
        <time>2023-01-04T02:23:44Z</time>
      </trkpt>
      <trkpt lat="40.409697" lon="-4.858610">
        <ele>1187.877</ele>
        <time>2023-01-04T02:24:24Z</time>
      </trkpt>
      <trkpt lat="40.410065" lon="-4.858481">
        <ele>1188.888</ele>
        <time>2023-01-04T02:25:04Z</time>
      </trkpt>
      <trkpt lat="40.410459" lon="-4.858073">
        <ele>1191.898</ele>
        <time>2023-01-04T02:25:44Z</time>
      </trkpt>
      <trkpt lat="40.410808" lon="-4.857912">
        <ele>1196.561</ele>
        <time>2023-01-04T02:26:24Z</time>
      </trkpt>
      <trkpt lat="40.411111" lon="-4.857749">
        <ele>1201.324</ele>
        <time>2023-01-04T02:27:04Z</time>
      </trkpt>
      <trkpt lat="40.411419" lon="-4.857872">
        <ele>1205.649</ele>
        <time>2023-01-04T02:27:44Z</time>
      </trkpt>
      <trkpt lat="40.411625" lon="-4.857990">
        <ele>1206.393</ele>
        <time>2023-01-04T02:28:24Z</time>
      </trkpt>
      <trkpt lat="40.411660" lon="-4.858210">
        <ele>1209.344</ele>
        <time>2023-01-04T02:29:04Z</time>
      </trkpt>
      <trkpt lat="40.411795" lon="-4.858379">
        <ele>1209.669</ele>
        <time>2023-01-04T02:29:44Z</time>
      </trkpt>
      <trkpt lat="40.411981" lon="-4.858661">
        <ele>1209.837</ele>
        <time>2023-01-04T02:30:24Z</time>
      </trkpt>
      <trkpt lat="40.412252" lon="-4.858924">
        <ele>1209.849</ele>
        <time>2023-01-04T02:31:04Z</time>
      </trkpt>
      <trkpt lat="40.412332" lon="-4.859157">
        <ele>1210.213</ele>
        <time>2023-01-04T02:31:44Z</time>
      </trkpt>
      <trkpt lat="40.412510" lon="-4.859248">
        <ele>1209.709</ele>
        <time>2023-01-04T02:32:24Z</time>
      </trkpt>
      <trkpt lat="40.412763" lon="-4.859310">
        <ele>1212.464</ele>
        <time>2023-01-04T02:33:04Z</time>
      </trkpt>
      <trkpt lat="40.412747" lon="-4.859425">
        <ele>1212.765</ele>
        <time>2023-01-04T02:33:44Z</time>
      </trkpt>
      <trkpt lat="40.412763" lon="-4.859597">
        <ele>1212.995</ele>
        <time>2023-01-04T02:34:24Z</time>
      </trkpt>
      <trkpt lat="40.412861" lon="-4.859492">
        <ele>1216.318</ele>
        <time>2023-01-04T02:35:04Z</time>
      </trkpt>
      <trkpt lat="40.412930" lon="-4.859093">
        <ele>1217.931</ele>
        <time>2023-01-04T02:35:44Z</time>
      </trkpt>
      <trkpt lat="40.412990" lon="-4.858733">
        <ele>1219.776</ele>
        <time>2023-01-04T02:36:24Z</time>
      </trkpt>
      <trkpt lat="40.412902" lon="-4.858194">
        <ele>1215.510</ele>
        <time>2023-01-04T02:37:04Z</time>
      </trkpt>
      <trkpt lat="40.413037" lon="-4.857295">
        <ele>1217.181</ele>
        <time>2023-01-04T02:37:44Z</time>
      </trkpt>
      <trkpt lat="40.413184" lon="-4.856732">
        <ele>1217.036</ele>
        <time>2023-01-04T02:38:24Z</time>
      </trkpt>
      <trkpt lat="40.413290" lon="-4.856193">
        <ele>1214.919</ele>
        <time>2023-01-04T02:39:04Z</time>
      </trkpt>
      <trkpt lat="40.413398" lon="-4.855737">
        <ele>1213.609</ele>
        <time>2023-01-04T02:39:44Z</time>
      </trkpt>
      <trkpt lat="40.413345" lon="-4.855512">
        <ele>1212.319</ele>
        <time>2023-01-04T02:40:24Z</time>
      </trkpt>
      <trkpt lat="40.413286" lon="-4.855276">
        <ele>1212.209</ele>
        <time>2023-01-04T02:41:04Z</time>
      </trkpt>
      <trkpt lat="40.413194" lon="-4.854828">
        <ele>1210.752</ele>
        <time>2023-01-04T02:41:44Z</time>
      </trkpt>
      <trkpt lat="40.413286" lon="-4.854179">
        <ele>1207.873</ele>
        <time>2023-01-04T02:42:24Z</time>
      </trkpt>
      <trkpt lat="40.413416" lon="-4.853554">
        <ele>1209.253</ele>
        <time>2023-01-04T02:43:04Z</time>
      </trkpt>
      <trkpt lat="40.413314" lon="-4.853465">
        <ele>1208.446</ele>
        <time>2023-01-04T02:43:44Z</time>
      </trkpt>
      <trkpt lat="40.413163" lon="-4.853495">
        <ele>1206.779</ele>
        <time>2023-01-04T02:44:24Z</time>
      </trkpt>
      <trkpt lat="40.413035" lon="-4.853422">
        <ele>1206.884</ele>
        <time>2023-01-04T02:45:04Z</time>
      </trkpt>
      <trkpt lat="40.413024" lon="-4.853275">
        <ele>1209.028</ele>
        <time>2023-01-04T02:45:44Z</time>
      </trkpt>
      <trkpt lat="40.413079" lon="-4.853154">
        <ele>1210.699</ele>
        <time>2023-01-04T02:46:24Z</time>
      </trkpt>
      <trkpt lat="40.413169" lon="-4.853090">
        <ele>1211.684</ele>
        <time>2023-01-04T02:47:04Z</time>
      </trkpt>
      <trkpt lat="40.413353" lon="-4.852969">
        <ele>1213.446</ele>
        <time>2023-01-04T02:47:44Z</time>
      </trkpt>
      <trkpt lat="40.413302" lon="-4.852875">
        <ele>1214.588</ele>
        <time>2023-01-04T02:48:24Z</time>
      </trkpt>
      <trkpt lat="40.413180" lon="-4.852816">
        <ele>1215.016</ele>
        <time>2023-01-04T02:49:04Z</time>
      </trkpt>
      <trkpt lat="40.413061" lon="-4.852771">
        <ele>1215.109</ele>
        <time>2023-01-04T02:49:44Z</time>
      </trkpt>
      <trkpt lat="40.412981" lon="-4.852671">
        <ele>1215.635</ele>
        <time>2023-01-04T02:50:24Z</time>
      </trkpt>
      <trkpt lat="40.412928" lon="-4.852486">
        <ele>1217.146</ele>
        <time>2023-01-04T02:51:04Z</time>
      </trkpt>
      <trkpt lat="40.412885" lon="-4.852180">
        <ele>1219.526</ele>
        <time>2023-01-04T02:51:44Z</time>
      </trkpt>
      <trkpt lat="40.412863" lon="-4.851963">
        <ele>1220.089</ele>
        <time>2023-01-04T02:52:24Z</time>
      </trkpt>
      <trkpt lat="40.412818" lon="-4.851692">
        <ele>1220.012</ele>
        <time>2023-01-04T02:53:04Z</time>
      </trkpt>
      <trkpt lat="40.412887" lon="-4.851488">
        <ele>1220.097</ele>
        <time>2023-01-04T02:53:44Z</time>
      </trkpt>
      <trkpt lat="40.412934" lon="-4.851290">
        <ele>1219.871</ele>
        <time>2023-01-04T02:54:24Z</time>
      </trkpt>
      <trkpt lat="40.412965" lon="-4.851212">
        <ele>1219.812</ele>
        <time>2023-01-04T02:55:04Z</time>
      </trkpt>
      <trkpt lat="40.415032" lon="-4.851623">
        <ele>1230.357</ele>
        <time>2023-01-04T02:55:44Z</time>
      </trkpt>
      <trkpt lat="40.415489" lon="-4.851698">
        <ele>1234.978</ele>
        <time>2023-01-04T02:56:24Z</time>
      </trkpt>
      <trkpt lat="40.415318" lon="-4.851011">
        <ele>1235.633</ele>
        <time>2023-01-04T02:57:04Z</time>
      </trkpt>
      <trkpt lat="40.415285" lon="-4.849455">
        <ele>1234.126</ele>
        <time>2023-01-04T02:57:44Z</time>
      </trkpt>
      <trkpt lat="40.415465" lon="-4.846934">
        <ele>1240.709</ele>
        <time>2023-01-04T02:58:24Z</time>
      </trkpt>
      <trkpt lat="40.415832" lon="-4.844123">
        <ele>1244.118</ele>
        <time>2023-01-04T02:59:04Z</time>
      </trkpt>
      <trkpt lat="40.416102" lon="-4.841559">
        <ele>1237.219</ele>
        <time>2023-01-04T02:59:44Z</time>
      </trkpt>
      <trkpt lat="40.416641" lon="-4.840325">
        <ele>1236.999</ele>
        <time>2023-01-04T03:00:24Z</time>
      </trkpt>
      <trkpt lat="40.417490" lon="-4.839113">
        <ele>1240.062</ele>
        <time>2023-01-04T03:01:04Z</time>
      </trkpt>
      <trkpt lat="40.418038" lon="-4.838254">
        <ele>1236.215</ele>
        <time>2023-01-04T03:01:44Z</time>
      </trkpt>
      <trkpt lat="40.418413" lon="-4.837718">
        <ele>1240.470</ele>
        <time>2023-01-04T03:02:24Z</time>
      </trkpt>
      <trkpt lat="40.418953" lon="-4.837632">
        <ele>1243.714</ele>
        <time>2023-01-04T03:03:04Z</time>
      </trkpt>
      <trkpt lat="40.419320" lon="-4.838179">
        <ele>1238.915</ele>
        <time>2023-01-04T03:03:44Z</time>
      </trkpt>
      <trkpt lat="40.419533" lon="-4.838480">
        <ele>1240.490</ele>
        <time>2023-01-04T03:04:24Z</time>
      </trkpt>
      <trkpt lat="40.420259" lon="-4.838576">
        <ele>1236.423</ele>
        <time>2023-01-04T03:05:04Z</time>
      </trkpt>
      <trkpt lat="40.421003" lon="-4.838909">
        <ele>1238.483</ele>
        <time>2023-01-04T03:05:44Z</time>
      </trkpt>
      <trkpt lat="40.421787" lon="-4.838179">
        <ele>1231.111</ele>
        <time>2023-01-04T03:06:24Z</time>
      </trkpt>
      <trkpt lat="40.422318" lon="-4.838480">
        <ele>1227.209</ele>
        <time>2023-01-04T03:07:04Z</time>
      </trkpt>
      <trkpt lat="40.422734" lon="-4.839263">
        <ele>1222.653</ele>
        <time>2023-01-04T03:07:44Z</time>
      </trkpt>
      <trkpt lat="40.423118" lon="-4.840411">
        <ele>1204.624</ele>
        <time>2023-01-04T03:08:24Z</time>
      </trkpt>
      <trkpt lat="40.423061" lon="-4.841677">
        <ele>1200.784</ele>
        <time>2023-01-04T03:09:04Z</time>
      </trkpt>
      <trkpt lat="40.422612" lon="-4.842954">
        <ele>1195.077</ele>
        <time>2023-01-04T03:09:44Z</time>
      </trkpt>
      <trkpt lat="40.422220" lon="-4.843941">
        <ele>1191.890</ele>
        <time>2023-01-04T03:10:24Z</time>
      </trkpt>
      <trkpt lat="40.421803" lon="-4.844874">
        <ele>1181.025</ele>
        <time>2023-01-04T03:11:04Z</time>
      </trkpt>
      <trkpt lat="40.421264" lon="-4.845507">
        <ele>1181.589</ele>
        <time>2023-01-04T03:11:44Z</time>
      </trkpt>
      <trkpt lat="40.421158" lon="-4.846376">
        <ele>1175.170</ele>
        <time>2023-01-04T03:12:24Z</time>
      </trkpt>
      <trkpt lat="40.421305" lon="-4.847578">
        <ele>1164.865</ele>
        <time>2023-01-04T03:13:04Z</time>
      </trkpt>
      <trkpt lat="40.421280" lon="-4.850410">
        <ele>1161.748</ele>
        <time>2023-01-04T03:13:44Z</time>
      </trkpt>
      <trkpt lat="40.421713" lon="-4.851279">
        <ele>1152.061</ele>
        <time>2023-01-04T03:14:24Z</time>
      </trkpt>
      <trkpt lat="40.422048" lon="-4.852545">
        <ele>1151.117</ele>
        <time>2023-01-04T03:15:04Z</time>
      </trkpt>
      <trkpt lat="40.422791" lon="-4.852942">
        <ele>1143.109</ele>
        <time>2023-01-04T03:15:44Z</time>
      </trkpt>
      <trkpt lat="40.423494" lon="-4.853339">
        <ele>1142.525</ele>
        <time>2023-01-04T03:16:24Z</time>
      </trkpt>
      <trkpt lat="40.424188" lon="-4.853157">
        <ele>1137.116</ele>
        <time>2023-01-04T03:17:04Z</time>
      </trkpt>
      <trkpt lat="40.424719" lon="-4.853565">
        <ele>1131.756</ele>
        <time>2023-01-04T03:17:44Z</time>
      </trkpt>
      <trkpt lat="40.424923" lon="-4.854047">
        <ele>1131.559</ele>
        <time>2023-01-04T03:18:24Z</time>
      </trkpt>
      <trkpt lat="40.425323" lon="-4.854616">
        <ele>1123.922</ele>
        <time>2023-01-04T03:19:04Z</time>
      </trkpt>
      <trkpt lat="40.425683" lon="-4.855485">
        <ele>1116.527</ele>
        <time>2023-01-04T03:19:44Z</time>
      </trkpt>
      <trkpt lat="40.425846" lon="-4.856633">
        <ele>1109.581</ele>
        <time>2023-01-04T03:20:24Z</time>
      </trkpt>
      <trkpt lat="40.426638" lon="-4.857738">
        <ele>1107.772</ele>
        <time>2023-01-04T03:21:04Z</time>
      </trkpt>
      <trkpt lat="40.427365" lon="-4.858704">
        <ele>1101.427</ele>
        <time>2023-01-04T03:21:44Z</time>
      </trkpt>
      <trkpt lat="40.428206" lon="-4.859766">
        <ele>1091.471</ele>
        <time>2023-01-04T03:22:24Z</time>
      </trkpt>
      <trkpt lat="40.428811" lon="-4.861364">
        <ele>1080.541</ele>
        <time>2023-01-04T03:23:04Z</time>
      </trkpt>
      <trkpt lat="40.429064" lon="-4.862030">
        <ele>1074.615</ele>
        <time>2023-01-04T03:23:44Z</time>
      </trkpt>
      <trkpt lat="40.429227" lon="-4.863349">
        <ele>1066.309</ele>
        <time>2023-01-04T03:24:24Z</time>
      </trkpt>
      <trkpt lat="40.429382" lon="-4.864776">
        <ele>1061.368</ele>
        <time>2023-01-04T03:25:04Z</time>
      </trkpt>
      <trkpt lat="40.429758" lon="-4.866546">
        <ele>1048.139</ele>
        <time>2023-01-04T03:25:44Z</time>
      </trkpt>
      <trkpt lat="40.429938" lon="-4.866954">
        <ele>1047.599</ele>
        <time>2023-01-04T03:26:24Z</time>
      </trkpt>
      <trkpt lat="40.430469" lon="-4.867834">
        <ele>1044.142</ele>
        <time>2023-01-04T03:27:04Z</time>
      </trkpt>
      <trkpt lat="40.430575" lon="-4.868510">
        <ele>1040.825</ele>
        <time>2023-01-04T03:27:44Z</time>
      </trkpt>
      <trkpt lat="40.430599" lon="-4.869035">
        <ele>1040.390</ele>
        <time>2023-01-04T03:28:24Z</time>
      </trkpt>
      <trkpt lat="40.430942" lon="-4.869272">
        <ele>1032.584</ele>
        <time>2023-01-04T03:29:04Z</time>
      </trkpt>
      <trkpt lat="40.431424" lon="-4.869347">
        <ele>1038.615</ele>
        <time>2023-01-04T03:29:44Z</time>
      </trkpt>
      <trkpt lat="40.432004" lon="-4.869046">
        <ele>1043.720</ele>
        <time>2023-01-04T03:30:24Z</time>
      </trkpt>
      <trkpt lat="40.432222" lon="-4.868545">
        <ele>1045.566</ele>
        <time>2023-01-04T03:31:04Z</time>
      </trkpt>
      <trkpt lat="40.432280" lon="-4.868427">
        <ele>1046.329</ele>
        <time>2023-01-04T03:31:44Z</time>
      </trkpt>
      <trkpt lat="40.432324" lon="-4.868515">
        <ele>1048.021</ele>
        <time>2023-01-04T03:32:24Z</time>
      </trkpt>
      <trkpt lat="40.432237" lon="-4.868829">
        <ele>1048.009</ele>
        <time>2023-01-04T03:33:04Z</time>
      </trkpt>
      <trkpt lat="40.432141" lon="-4.869054">
        <ele>1047.237</ele>
        <time>2023-01-04T03:33:44Z</time>
      </trkpt>
      <trkpt lat="40.432084" lon="-4.869290">
        <ele>1047.988</ele>
        <time>2023-01-04T03:34:24Z</time>
      </trkpt>
      <trkpt lat="40.431867" lon="-4.869526">
        <ele>1047.928</ele>
        <time>2023-01-04T03:35:04Z</time>
      </trkpt>
      <trkpt lat="40.431732" lon="-4.869711">
        <ele>1047.391</ele>
        <time>2023-01-04T03:35:44Z</time>
      </trkpt>
      <trkpt lat="40.431683" lon="-4.869862">
        <ele>1046.984</ele>
        <time>2023-01-04T03:36:24Z</time>
      </trkpt>
      <trkpt lat="40.431722" lon="-4.870100">
        <ele>1046.879</ele>
        <time>2023-01-04T03:37:04Z</time>
      </trkpt>
      <trkpt lat="40.431992" lon="-4.870540">
        <ele>1047.723</ele>
        <time>2023-01-04T03:37:44Z</time>
      </trkpt>
      <trkpt lat="40.432214" lon="-4.870774">
        <ele>1049.144</ele>
        <time>2023-01-04T03:38:24Z</time>
      </trkpt>
      <trkpt lat="40.432339" lon="-4.871136">
        <ele>1052.579</ele>
        <time>2023-01-04T03:39:04Z</time>
      </trkpt>
      <trkpt lat="40.432482" lon="-4.871570">
        <ele>1055.888</ele>
        <time>2023-01-04T03:39:44Z</time>
      </trkpt>
      <trkpt lat="40.432674" lon="-4.872286">
        <ele>1058.824</ele>
        <time>2023-01-04T03:40:24Z</time>
      </trkpt>
      <trkpt lat="40.432639" lon="-4.872638">
        <ele>1057.326</ele>
        <time>2023-01-04T03:41:04Z</time>
      </trkpt>
      <trkpt lat="40.432735" lon="-4.873002">
        <ele>1060.309</ele>
        <time>2023-01-04T03:41:44Z</time>
      </trkpt>
      <trkpt lat="40.432641" lon="-4.873343">
        <ele>1057.149</ele>
        <time>2023-01-04T03:42:24Z</time>
      </trkpt>
      <trkpt lat="40.432635" lon="-4.873890">
        <ele>1057.430</ele>
        <time>2023-01-04T03:43:04Z</time>
      </trkpt>
      <trkpt lat="40.432584" lon="-4.874378">
        <ele>1056.410</ele>
        <time>2023-01-04T03:43:44Z</time>
      </trkpt>
      <trkpt lat="40.432796" lon="-4.874987">
        <ele>1059.853</ele>
        <time>2023-01-04T03:44:24Z</time>
      </trkpt>
      <trkpt lat="40.432886" lon="-4.875518">
        <ele>1061.926</ele>
        <time>2023-01-04T03:45:04Z</time>
      </trkpt>
      <trkpt lat="40.432955" lon="-4.875926">
        <ele>1065.711</ele>
        <time>2023-01-04T03:45:44Z</time>
      </trkpt>
      <trkpt lat="40.432953" lon="-4.876489">
        <ele>1067.085</ele>
        <time>2023-01-04T03:46:24Z</time>
      </trkpt>
      <trkpt lat="40.433068" lon="-4.876776">
        <ele>1071.486</ele>
        <time>2023-01-04T03:47:04Z</time>
      </trkpt>
      <trkpt lat="40.433084" lon="-4.877130">
        <ele>1070.051</ele>
        <time>2023-01-04T03:47:44Z</time>
      </trkpt>
      <trkpt lat="40.433407" lon="-4.877468">
        <ele>1077.886</ele>
        <time>2023-01-04T03:48:24Z</time>
      </trkpt>
      <trkpt lat="40.433400" lon="-4.877828">
        <ele>1079.560</ele>
        <time>2023-01-04T03:49:04Z</time>
      </trkpt>
      <trkpt lat="40.433341" lon="-4.878166">
        <ele>1076.226</ele>
        <time>2023-01-04T03:49:44Z</time>
      </trkpt>
      <trkpt lat="40.433402" lon="-4.878453">
        <ele>1076.809</ele>
        <time>2023-01-04T03:50:24Z</time>
      </trkpt>
      <trkpt lat="40.433482" lon="-4.878930">
        <ele>1079.039</ele>
        <time>2023-01-04T03:51:04Z</time>
      </trkpt>
      <trkpt lat="40.433539" lon="-4.879451">
        <ele>1079.070</ele>
        <time>2023-01-04T03:51:44Z</time>
      </trkpt>
      <trkpt lat="40.433747" lon="-4.879842">
        <ele>1084.190</ele>
        <time>2023-01-04T03:52:24Z</time>
      </trkpt>
      <trkpt lat="40.433923" lon="-4.880212">
        <ele>1087.953</ele>
        <time>2023-01-04T03:53:04Z</time>
      </trkpt>
      <trkpt lat="40.434031" lon="-4.880631">
        <ele>1086.536</ele>
        <time>2023-01-04T03:53:44Z</time>
      </trkpt>
      <trkpt lat="40.434278" lon="-4.880950">
        <ele>1084.331</ele>
        <time>2023-01-04T03:54:24Z</time>
      </trkpt>
      <trkpt lat="40.434580" lon="-4.880725">
        <ele>1094.245</ele>
        <time>2023-01-04T03:55:04Z</time>
      </trkpt>
      <trkpt lat="40.434815" lon="-4.880877">
        <ele>1094.936</ele>
        <time>2023-01-04T03:55:44Z</time>
      </trkpt>
      <trkpt lat="40.435077" lon="-4.880963">
        <ele>1101.181</ele>
        <time>2023-01-04T03:56:24Z</time>
      </trkpt>
      <trkpt lat="40.435399" lon="-4.881148">
        <ele>1106.821</ele>
        <time>2023-01-04T03:57:04Z</time>
      </trkpt>
      <trkpt lat="40.435826" lon="-4.881245">
        <ele>1111.641</ele>
        <time>2023-01-04T03:57:44Z</time>
      </trkpt>
      <trkpt lat="40.436218" lon="-4.881073">
        <ele>1124.705</ele>
        <time>2023-01-04T03:58:24Z</time>
      </trkpt>
      <trkpt lat="40.436659" lon="-4.880987">
        <ele>1134.009</ele>
        <time>2023-01-04T03:59:04Z</time>
      </trkpt>
      <trkpt lat="40.437500" lon="-4.880762">
        <ele>1149.623</ele>
        <time>2023-01-04T03:59:44Z</time>
      </trkpt>
      <trkpt lat="40.438055" lon="-4.879861">
        <ele>1170.064</ele>
        <time>2023-01-04T04:00:24Z</time>
      </trkpt>
      <trkpt lat="40.438790" lon="-4.878241">
        <ele>1202.824</ele>
        <time>2023-01-04T04:01:04Z</time>
      </trkpt>
      <trkpt lat="40.439255" lon="-4.877576">
        <ele>1211.167</ele>
        <time>2023-01-04T04:01:44Z</time>
      </trkpt>
      <trkpt lat="40.439974" lon="-4.876696">
        <ele>1232.650</ele>
        <time>2023-01-04T04:02:24Z</time>
      </trkpt>
      <trkpt lat="40.440197" lon="-4.875926">
        <ele>1253.195</ele>
        <time>2023-01-04T04:03:04Z</time>
      </trkpt>
      <trkpt lat="40.439984" lon="-4.876100">
        <ele>1253.889</ele>
        <time>2023-01-04T04:03:44Z</time>
      </trkpt>
      <trkpt lat="40.439364" lon="-4.876256">
        <ele>1263.510</ele>
        <time>2023-01-04T04:04:24Z</time>
      </trkpt>
      <trkpt lat="40.439094" lon="-4.876224">
        <ele>1267.295</ele>
        <time>2023-01-04T04:05:04Z</time>
      </trkpt>
      <trkpt lat="40.438896" lon="-4.876162">
        <ele>1271.195</ele>
        <time>2023-01-04T04:05:44Z</time>
      </trkpt>
      <trkpt lat="40.438510" lon="-4.876267">
        <ele>1276.749</ele>
        <time>2023-01-04T04:06:24Z</time>
      </trkpt>
      <trkpt lat="40.438159" lon="-4.876554">
        <ele>1278.323</ele>
        <time>2023-01-04T04:07:04Z</time>
      </trkpt>
      <trkpt lat="40.437653" lon="-4.876615">
        <ele>1285.009</ele>
        <time>2023-01-04T04:07:44Z</time>
      </trkpt>
      <trkpt lat="40.437492" lon="-4.876479">
        <ele>1288.490</ele>
        <time>2023-01-04T04:08:24Z</time>
      </trkpt>
      <trkpt lat="40.437296" lon="-4.876071">
        <ele>1294.931</ele>
        <time>2023-01-04T04:09:04Z</time>
      </trkpt>
      <trkpt lat="40.437275" lon="-4.875626">
        <ele>1302.491</ele>
        <time>2023-01-04T04:09:44Z</time>
      </trkpt>
      <trkpt lat="40.437514" lon="-4.875567">
        <ele>1307.064</ele>
        <time>2023-01-04T04:10:24Z</time>
      </trkpt>
      <trkpt lat="40.437722" lon="-4.875604">
        <ele>1309.747</ele>
        <time>2023-01-04T04:11:04Z</time>
      </trkpt>
      <trkpt lat="40.438053" lon="-4.875698">
        <ele>1306.422</ele>
        <time>2023-01-04T04:11:44Z</time>
      </trkpt>
      <trkpt lat="40.438545" lon="-4.875438">
        <ele>1300.996</ele>
        <time>2023-01-04T04:12:24Z</time>
      </trkpt>
      <trkpt lat="40.438839" lon="-4.875384">
        <ele>1299.677</ele>
        <time>2023-01-04T04:13:04Z</time>
      </trkpt>
      <trkpt lat="40.439578" lon="-4.875186">
        <ele>1296.422</ele>
        <time>2023-01-04T04:13:44Z</time>
      </trkpt>
      <trkpt lat="40.439721" lon="-4.874952">
        <ele>1300.937</ele>
        <time>2023-01-04T04:14:24Z</time>
      </trkpt>
      <trkpt lat="40.440068" lon="-4.874762">
        <ele>1298.049</ele>
        <time>2023-01-04T04:15:04Z</time>
      </trkpt>
      <trkpt lat="40.440323" lon="-4.874440">
        <ele>1301.013</ele>
        <time>2023-01-04T04:15:44Z</time>
      </trkpt>
      <trkpt lat="40.440593" lon="-4.874145">
        <ele>1304.709</ele>
        <time>2023-01-04T04:16:24Z</time>
      </trkpt>
      <trkpt lat="40.441070" lon="-4.874046">
        <ele>1308.364</ele>
        <time>2023-01-04T04:17:04Z</time>
      </trkpt>
      <trkpt lat="40.441425" lon="-4.873936">
        <ele>1307.545</ele>
        <time>2023-01-04T04:17:44Z</time>
      </trkpt>
      <trkpt lat="40.441572" lon="-4.873729">
        <ele>1309.815</ele>
        <time>2023-01-04T04:18:24Z</time>
      </trkpt>
      <trkpt lat="40.442260" lon="-4.873603">
        <ele>1316.558</ele>
        <time>2023-01-04T04:19:04Z</time>
      </trkpt>
      <trkpt lat="40.442728" lon="-4.873890">
        <ele>1322.561</ele>
        <time>2023-01-04T04:19:44Z</time>
      </trkpt>
      <trkpt lat="40.443040" lon="-4.874062">
        <ele>1324.126</ele>
        <time>2023-01-04T04:20:24Z</time>
      </trkpt>
      <trkpt lat="40.443555" lon="-4.874134">
        <ele>1331.670</ele>
        <time>2023-01-04T04:21:04Z</time>
      </trkpt>
      <trkpt lat="40.444122" lon="-4.874464">
        <ele>1341.291</ele>
        <time>2023-01-04T04:21:44Z</time>
      </trkpt>
      <trkpt lat="40.444338" lon="-4.874743">
        <ele>1346.216</ele>
        <time>2023-01-04T04:22:24Z</time>
      </trkpt>
      <trkpt lat="40.444502" lon="-4.875057">
        <ele>1353.143</ele>
        <time>2023-01-04T04:23:04Z</time>
      </trkpt>
      <trkpt lat="40.444565" lon="-4.875363">
        <ele>1359.464</ele>
        <time>2023-01-04T04:23:44Z</time>
      </trkpt>
      <trkpt lat="40.444738" lon="-4.875060">
        <ele>1363.310</ele>
        <time>2023-01-04T04:24:24Z</time>
      </trkpt>
      <trkpt lat="40.444734" lon="-4.874915">
        <ele>1361.809</ele>
        <time>2023-01-04T04:25:04Z</time>
      </trkpt>
      <trkpt lat="40.444663" lon="-4.874741">
        <ele>1358.055</ele>
        <time>2023-01-04T04:25:44Z</time>
      </trkpt>
      <trkpt lat="40.444602" lon="-4.874569">
        <ele>1355.636</ele>
        <time>2023-01-04T04:26:24Z</time>
      </trkpt>
      <trkpt lat="40.444606" lon="-4.874108">
        <ele>1358.336</ele>
        <time>2023-01-04T04:27:04Z</time>
      </trkpt>
      <trkpt lat="40.444438" lon="-4.873729">
        <ele>1361.439</ele>
        <time>2023-01-04T04:27:44Z</time>
      </trkpt>
      <trkpt lat="40.444124" lon="-4.873252">
        <ele>1367.492</ele>
        <time>2023-01-04T04:28:24Z</time>
      </trkpt>
      <trkpt lat="40.443840" lon="-4.872965">
        <ele>1372.567</ele>
        <time>2023-01-04T04:29:04Z</time>
      </trkpt>
      <trkpt lat="40.443671" lon="-4.872753">
        <ele>1374.541</ele>
        <time>2023-01-04T04:29:44Z</time>
      </trkpt>
      <trkpt lat="40.443563" lon="-4.872482">
        <ele>1377.442</ele>
        <time>2023-01-04T04:30:24Z</time>
      </trkpt>
      <trkpt lat="40.443434" lon="-4.872222">
        <ele>1379.547</ele>
        <time>2023-01-04T04:31:04Z</time>
      </trkpt>
      <trkpt lat="40.443383" lon="-4.872136">
        <ele>1380.039</ele>
        <time>2023-01-04T04:31:44Z</time>
      </trkpt>
      <trkpt lat="40.443426" lon="-4.872069">
        <ele>1381.701</ele>
        <time>2023-01-04T04:32:24Z</time>
      </trkpt>
      <trkpt lat="40.443718" lon="-4.872308">
        <ele>1382.421</ele>
        <time>2023-01-04T04:33:04Z</time>
      </trkpt>
      <trkpt lat="40.444044" lon="-4.872428">
        <ele>1384.509</ele>
        <time>2023-01-04T04:33:44Z</time>
      </trkpt>
      <trkpt lat="40.444481" lon="-4.872600">
        <ele>1386.064</ele>
        <time>2023-01-04T04:34:24Z</time>
      </trkpt>
      <trkpt lat="40.444669" lon="-4.872656">
        <ele>1385.735</ele>
        <time>2023-01-04T04:35:04Z</time>
      </trkpt>
      <trkpt lat="40.445008" lon="-4.872530">
        <ele>1389.495</ele>
        <time>2023-01-04T04:35:44Z</time>
      </trkpt>
      <trkpt lat="40.445469" lon="-4.872386">
        <ele>1388.718</ele>
        <time>2023-01-04T04:36:24Z</time>
      </trkpt>
      <trkpt lat="40.445855" lon="-4.872343">
        <ele>1390.641</ele>
        <time>2023-01-04T04:37:04Z</time>
      </trkpt>
      <trkpt lat="40.446227" lon="-4.872327">
        <ele>1392.886</ele>
        <time>2023-01-04T04:37:44Z</time>
      </trkpt>
      <trkpt lat="40.446671" lon="-4.872504">
        <ele>1393.090</ele>
        <time>2023-01-04T04:38:24Z</time>
      </trkpt>
      <trkpt lat="40.447147" lon="-4.872783">
        <ele>1389.241</ele>
        <time>2023-01-04T04:39:04Z</time>
      </trkpt>
      <trkpt lat="40.447631" lon="-4.873091">
        <ele>1391.746</ele>
        <time>2023-01-04T04:39:44Z</time>
      </trkpt>
      <trkpt lat="40.447872" lon="-4.873118">
        <ele>1391.457</ele>
        <time>2023-01-04T04:40:24Z</time>
      </trkpt>
      <trkpt lat="40.447968" lon="-4.873035">
        <ele>1389.800</ele>
        <time>2023-01-04T04:41:04Z</time>
      </trkpt>
      <trkpt lat="40.448194" lon="-4.873072">
        <ele>1389.520</ele>
        <time>2023-01-04T04:41:44Z</time>
      </trkpt>
      <trkpt lat="40.448511" lon="-4.873225">
        <ele>1388.909</ele>
        <time>2023-01-04T04:42:24Z</time>
      </trkpt>
      <trkpt lat="40.448831" lon="-4.873292">
        <ele>1386.536</ele>
        <time>2023-01-04T04:43:04Z</time>
      </trkpt>
      <trkpt lat="40.449154" lon="-4.873279">
        <ele>1384.747</ele>
        <time>2023-01-04T04:43:44Z</time>
      </trkpt>
      <trkpt lat="40.449531" lon="-4.873153">
        <ele>1381.147</ele>
        <time>2023-01-04T04:44:24Z</time>
      </trkpt>
      <trkpt lat="40.449694" lon="-4.873118">
        <ele>1381.480</ele>
        <time>2023-01-04T04:45:04Z</time>
      </trkpt>
      <trkpt lat="40.449690" lon="-4.873011">
        <ele>1378.543</ele>
        <time>2023-01-04T04:45:44Z</time>
      </trkpt>
      <trkpt lat="40.449472" lon="-4.872962">
        <ele>1375.818</ele>
        <time>2023-01-04T04:46:24Z</time>
      </trkpt>
      <trkpt lat="40.449121" lon="-4.872772">
        <ele>1371.032</ele>
        <time>2023-01-04T04:47:04Z</time>
      </trkpt>
      <trkpt lat="40.448656" lon="-4.872321">
        <ele>1363.263</ele>
        <time>2023-01-04T04:47:44Z</time>
      </trkpt>
      <trkpt lat="40.448362" lon="-4.871994">
        <ele>1358.048</ele>
        <time>2023-01-04T04:48:24Z</time>
      </trkpt>
      <trkpt lat="40.448184" lon="-4.871718">
        <ele>1354.775</ele>
        <time>2023-01-04T04:49:04Z</time>
      </trkpt>
      <trkpt lat="40.448057" lon="-4.871586">
        <ele>1353.228</ele>
        <time>2023-01-04T04:49:44Z</time>
      </trkpt>
      <trkpt lat="40.447990" lon="-4.871326">
        <ele>1350.620</ele>
        <time>2023-01-04T04:50:24Z</time>
      </trkpt>
      <trkpt lat="40.448064" lon="-4.870972">
        <ele>1345.809</ele>
        <time>2023-01-04T04:51:04Z</time>
      </trkpt>
      <trkpt lat="40.448082" lon="-4.870599">
        <ele>1341.858</ele>
        <time>2023-01-04T04:51:44Z</time>
      </trkpt>
      <trkpt lat="40.447935" lon="-4.870014">
        <ele>1337.999</ele>
        <time>2023-01-04T04:52:24Z</time>
      </trkpt>
      <trkpt lat="40.447810" lon="-4.869931">
        <ele>1338.469</ele>
        <time>2023-01-04T04:53:04Z</time>
      </trkpt>
      <trkpt lat="40.447443" lon="-4.869848">
        <ele>1334.982</ele>
        <time>2023-01-04T04:53:44Z</time>
      </trkpt>
      <trkpt lat="40.447353" lon="-4.869744">
        <ele>1333.095</ele>
        <time>2023-01-04T04:54:24Z</time>
      </trkpt>
      <trkpt lat="40.447310" lon="-4.869591">
        <ele>1332.340</ele>
        <time>2023-01-04T04:55:04Z</time>
      </trkpt>
      <trkpt lat="40.447394" lon="-4.869293">
        <ele>1328.934</ele>
        <time>2023-01-04T04:55:44Z</time>
      </trkpt>
      <trkpt lat="40.447404" lon="-4.868942">
        <ele>1328.025</ele>
        <time>2023-01-04T04:56:24Z</time>
      </trkpt>
      <trkpt lat="40.447431" lon="-4.868695">
        <ele>1327.580</ele>
        <time>2023-01-04T04:57:04Z</time>
      </trkpt>
      <trkpt lat="40.447574" lon="-4.868523">
        <ele>1325.956</ele>
        <time>2023-01-04T04:57:44Z</time>
      </trkpt>
      <trkpt lat="40.447717" lon="-4.868368">
        <ele>1324.959</ele>
        <time>2023-01-04T04:58:24Z</time>
      </trkpt>
      <trkpt lat="40.447978" lon="-4.867802">
        <ele>1322.014</ele>
        <time>2023-01-04T04:59:04Z</time>
      </trkpt>
      <trkpt lat="40.448021" lon="-4.867410">
        <ele>1320.709</ele>
        <time>2023-01-04T04:59:44Z</time>
      </trkpt>
      <trkpt lat="40.448194" lon="-4.866807">
        <ele>1315.866</ele>
        <time>2023-01-04T05:00:24Z</time>
      </trkpt>
      <trkpt lat="40.448194" lon="-4.866554">
        <ele>1315.217</ele>
        <time>2023-01-04T05:01:04Z</time>
      </trkpt>
      <trkpt lat="40.448147" lon="-4.866249">
        <ele>1313.257</ele>
        <time>2023-01-04T05:01:44Z</time>
      </trkpt>
      <trkpt lat="40.448178" lon="-4.866005">
        <ele>1309.950</ele>
        <time>2023-01-04T05:02:24Z</time>
      </trkpt>
      <trkpt lat="40.448484" lon="-4.865471">
        <ele>1303.163</ele>
        <time>2023-01-04T05:03:04Z</time>
      </trkpt>
      <trkpt lat="40.448588" lon="-4.864283">
        <ele>1298.558</ele>
        <time>2023-01-04T05:03:44Z</time>
      </trkpt>
      <trkpt lat="40.448800" lon="-4.863237">
        <ele>1298.792</ele>
        <time>2023-01-04T05:04:24Z</time>
      </trkpt>
      <trkpt lat="40.448825" lon="-4.862000">
        <ele>1295.293</ele>
        <time>2023-01-04T05:05:04Z</time>
      </trkpt>
      <trkpt lat="40.448902" lon="-4.861120">
        <ele>1290.688</ele>
        <time>2023-01-04T05:05:44Z</time>
      </trkpt>
      <trkpt lat="40.448882" lon="-4.860750">
        <ele>1291.352</ele>
        <time>2023-01-04T05:06:24Z</time>
      </trkpt>
      <trkpt lat="40.448811" lon="-4.860426">
        <ele>1291.553</ele>
        <time>2023-01-04T05:07:04Z</time>
      </trkpt>
      <trkpt lat="40.448888" lon="-4.859964">
        <ele>1285.808</ele>
        <time>2023-01-04T05:07:44Z</time>
      </trkpt>
      <trkpt lat="40.448798" lon="-4.859532">
        <ele>1285.609</ele>
        <time>2023-01-04T05:08:24Z</time>
      </trkpt>
      <trkpt lat="40.448719" lon="-4.859221">
        <ele>1285.946</ele>
        <time>2023-01-04T05:09:04Z</time>
      </trkpt>
      <trkpt lat="40.448817" lon="-4.858532">
        <ele>1282.027</ele>
        <time>2023-01-04T05:09:44Z</time>
      </trkpt>
      <trkpt lat="40.448778" lon="-4.857580">
        <ele>1277.417</ele>
        <time>2023-01-04T05:10:24Z</time>
      </trkpt>
      <trkpt lat="40.448768" lon="-4.856705">
        <ele>1273.550</ele>
        <time>2023-01-04T05:11:04Z</time>
      </trkpt>
      <trkpt lat="40.448811" lon="-4.856233">
        <ele>1272.263</ele>
        <time>2023-01-04T05:11:44Z</time>
      </trkpt>
      <trkpt lat="40.448839" lon="-4.855643">
        <ele>1271.068</ele>
        <time>2023-01-04T05:12:24Z</time>
      </trkpt>
      <trkpt lat="40.448849" lon="-4.855246">
        <ele>1272.162</ele>
        <time>2023-01-04T05:13:04Z</time>
      </trkpt>
      <trkpt lat="40.448739" lon="-4.854771">
        <ele>1274.593</ele>
        <time>2023-01-04T05:13:44Z</time>
      </trkpt>
      <trkpt lat="40.448645" lon="-4.854391">
        <ele>1275.278</ele>
        <time>2023-01-04T05:14:24Z</time>
      </trkpt>
      <trkpt lat="40.448564" lon="-4.854136">
        <ele>1277.483</ele>
        <time>2023-01-04T05:15:04Z</time>
      </trkpt>
      <trkpt lat="40.448468" lon="-4.853436">
        <ele>1277.025</ele>
        <time>2023-01-04T05:15:44Z</time>
      </trkpt>
      <trkpt lat="40.448368" lon="-4.852298">
        <ele>1275.417</ele>
        <time>2023-01-04T05:16:24Z</time>
      </trkpt>
      <trkpt lat="40.448341" lon="-4.851652">
        <ele>1275.509</ele>
        <time>2023-01-04T05:17:04Z</time>
      </trkpt>
      <trkpt lat="40.448217" lon="-4.851159">
        <ele>1276.259</ele>
        <time>2023-01-04T05:17:44Z</time>
      </trkpt>
      <trkpt lat="40.448033" lon="-4.850432">
        <ele>1274.390</ele>
        <time>2023-01-04T05:18:24Z</time>
      </trkpt>
      <trkpt lat="40.447984" lon="-4.849742">
        <ele>1270.270</ele>
        <time>2023-01-04T05:19:04Z</time>
      </trkpt>
      <trkpt lat="40.448027" lon="-4.849136">
        <ele>1267.373</ele>
        <time>2023-01-04T05:19:44Z</time>
      </trkpt>
      <trkpt lat="40.448182" lon="-4.848643">
        <ele>1264.276</ele>
        <time>2023-01-04T05:20:24Z</time>
      </trkpt>
      <trkpt lat="40.448198" lon="-4.848053">
        <ele>1263.481</ele>
        <time>2023-01-04T05:21:04Z</time>
      </trkpt>
      <trkpt lat="40.448241" lon="-4.846666">
        <ele>1258.065</ele>
        <time>2023-01-04T05:21:44Z</time>
      </trkpt>
      <trkpt lat="40.448204" lon="-4.845606">
        <ele>1255.876</ele>
        <time>2023-01-04T05:22:24Z</time>
      </trkpt>
      <trkpt lat="40.448227" lon="-4.845209">
        <ele>1256.451</ele>
        <time>2023-01-04T05:23:04Z</time>
      </trkpt>
      <trkpt lat="40.448125" lon="-4.844525">
        <ele>1258.033</ele>
        <time>2023-01-04T05:23:44Z</time>
      </trkpt>
      <trkpt lat="40.448006" lon="-4.843841">
        <ele>1256.523</ele>
        <time>2023-01-04T05:24:24Z</time>
      </trkpt>
      <trkpt lat="40.447908" lon="-4.843458">
        <ele>1254.715</ele>
        <time>2023-01-04T05:25:04Z</time>
      </trkpt>
      <trkpt lat="40.447792" lon="-4.843190">
        <ele>1252.809</ele>
        <time>2023-01-04T05:25:44Z</time>
      </trkpt>
      <trkpt lat="40.447653" lon="-4.843002">
        <ele>1251.334</ele>
        <time>2023-01-04T05:26:24Z</time>
      </trkpt>
      <trkpt lat="40.447553" lon="-4.842803">
        <ele>1249.935</ele>
        <time>2023-01-04T05:27:04Z</time>
      </trkpt>
      <trkpt lat="40.447543" lon="-4.842594">
        <ele>1248.895</ele>
        <time>2023-01-04T05:27:44Z</time>
      </trkpt>
      <trkpt lat="40.447672" lon="-4.841653">
        <ele>1241.288</ele>
        <time>2023-01-04T05:28:24Z</time>
      </trkpt>
      <trkpt lat="40.447694" lon="-4.841044">
        <ele>1238.611</ele>
        <time>2023-01-04T05:29:04Z</time>
      </trkpt>
      <trkpt lat="40.447796" lon="-4.839542">
        <ele>1232.046</ele>
        <time>2023-01-04T05:29:44Z</time>
      </trkpt>
      <trkpt lat="40.447976" lon="-4.839156">
        <ele>1229.860</ele>
        <time>2023-01-04T05:30:24Z</time>
      </trkpt>
      <trkpt lat="40.448251" lon="-4.838056">
        <ele>1228.291</ele>
        <time>2023-01-04T05:31:04Z</time>
      </trkpt>
      <trkpt lat="40.448621" lon="-4.837380">
        <ele>1220.876</ele>
        <time>2023-01-04T05:31:44Z</time>
      </trkpt>
      <trkpt lat="40.448796" lon="-4.836822">
        <ele>1217.583</ele>
        <time>2023-01-04T05:32:24Z</time>
      </trkpt>
      <trkpt lat="40.448958" lon="-4.836943">
        <ele>1214.525</ele>
        <time>2023-01-04T05:33:04Z</time>
      </trkpt>
      <trkpt lat="40.449021" lon="-4.837163">
        <ele>1212.717</ele>
        <time>2023-01-04T05:33:44Z</time>
      </trkpt>
      <trkpt lat="40.449174" lon="-4.837839">
        <ele>1207.509</ele>
        <time>2023-01-04T05:34:24Z</time>
      </trkpt>
      <trkpt lat="40.449307" lon="-4.838431">
        <ele>1200.479</ele>
        <time>2023-01-04T05:35:04Z</time>
      </trkpt>
      <trkpt lat="40.449668" lon="-4.837385">
        <ele>1190.820</ele>
        <time>2023-01-04T05:35:44Z</time>
      </trkpt>
      <trkpt lat="40.449876" lon="-4.836696">
        <ele>1185.620</ele>
        <time>2023-01-04T05:36:24Z</time>
      </trkpt>
      <trkpt lat="40.449917" lon="-4.835867">
        <ele>1182.613</ele>
        <time>2023-01-04T05:37:04Z</time>
      </trkpt>
      <trkpt lat="40.449948" lon="-4.835559">
        <ele>1180.176</ele>
        <time>2023-01-04T05:37:44Z</time>
      </trkpt>
      <trkpt lat="40.450221" lon="-4.835047">
        <ele>1174.641</ele>
        <time>2023-01-04T05:38:24Z</time>
      </trkpt>
      <trkpt lat="40.450250" lon="-4.834569">
        <ele>1176.125</ele>
        <time>2023-01-04T05:39:04Z</time>
      </trkpt>
      <trkpt lat="40.450448" lon="-4.834204">
        <ele>1170.796</ele>
        <time>2023-01-04T05:39:44Z</time>
      </trkpt>
      <trkpt lat="40.450605" lon="-4.834014">
        <ele>1166.571</ele>
        <time>2023-01-04T05:40:24Z</time>
      </trkpt>
      <trkpt lat="40.450717" lon="-4.833689">
        <ele>1163.981</ele>
        <time>2023-01-04T05:41:04Z</time>
      </trkpt>
      <trkpt lat="40.450813" lon="-4.833319">
        <ele>1161.861</ele>
        <time>2023-01-04T05:41:44Z</time>
      </trkpt>
      <trkpt lat="40.450852" lon="-4.832684">
        <ele>1163.217</ele>
        <time>2023-01-04T05:42:24Z</time>
      </trkpt>
      <trkpt lat="40.451046" lon="-4.832104">
        <ele>1159.609</ele>
        <time>2023-01-04T05:43:04Z</time>
      </trkpt>
      <trkpt lat="40.451093" lon="-4.831664">
        <ele>1159.529</ele>
        <time>2023-01-04T05:43:44Z</time>
      </trkpt>
      <trkpt lat="40.451589" lon="-4.830911">
        <ele>1153.780</ele>
        <time>2023-01-04T05:44:24Z</time>
      </trkpt>
      <trkpt lat="40.451772" lon="-4.830001">
        <ele>1152.710</ele>
        <time>2023-01-04T05:45:04Z</time>
      </trkpt>
      <trkpt lat="40.451933" lon="-4.829524">
        <ele>1151.023</ele>
        <time>2023-01-04T05:45:44Z</time>
      </trkpt>
      <trkpt lat="40.452264" lon="-4.828875">
        <ele>1147.976</ele>
        <time>2023-01-04T05:46:24Z</time>
      </trkpt>
      <trkpt lat="40.452578" lon="-4.828124">
        <ele>1146.381</ele>
        <time>2023-01-04T05:47:04Z</time>
      </trkpt>
      <trkpt lat="40.452909" lon="-4.827528">
        <ele>1140.645</ele>
        <time>2023-01-04T05:47:44Z</time>
      </trkpt>
      <trkpt lat="40.453103" lon="-4.826759">
        <ele>1139.946</ele>
        <time>2023-01-04T05:48:24Z</time>
      </trkpt>
      <trkpt lat="40.453234" lon="-4.825978">
        <ele>1139.391</ele>
        <time>2023-01-04T05:49:04Z</time>
      </trkpt>
      <trkpt lat="40.453219" lon="-4.825163">
        <ele>1139.244</ele>
        <time>2023-01-04T05:49:44Z</time>
      </trkpt>
      <trkpt lat="40.453172" lon="-4.824814">
        <ele>1139.005</ele>
        <time>2023-01-04T05:50:24Z</time>
      </trkpt>
      <trkpt lat="40.453015" lon="-4.824385">
        <ele>1139.815</ele>
        <time>2023-01-04T05:51:04Z</time>
      </trkpt>
      <trkpt lat="40.452842" lon="-4.824087">
        <ele>1137.609</ele>
        <time>2023-01-04T05:51:44Z</time>
      </trkpt>
      <trkpt lat="40.452746" lon="-4.823752">
        <ele>1133.245</ele>
        <time>2023-01-04T05:52:24Z</time>
      </trkpt>
      <trkpt lat="40.452697" lon="-4.823408">
        <ele>1130.176</ele>
        <time>2023-01-04T05:53:04Z</time>
      </trkpt>
      <trkpt lat="40.452664" lon="-4.823052">
        <ele>1126.686</ele>
        <time>2023-01-04T05:53:44Z</time>
      </trkpt>
      <trkpt lat="40.452707" lon="-4.822733">
        <ele>1121.879</ele>
        <time>2023-01-04T05:54:24Z</time>
      </trkpt>
      <trkpt lat="40.453060" lon="-4.822971">
        <ele>1120.092</ele>
        <time>2023-01-04T05:55:04Z</time>
      </trkpt>
      <trkpt lat="40.453452" lon="-4.823180">
        <ele>1122.447</ele>
        <time>2023-01-04T05:55:44Z</time>
      </trkpt>
      <trkpt lat="40.454274" lon="-4.822783">
        <ele>1128.471</ele>
        <time>2023-01-04T05:56:24Z</time>
      </trkpt>
      <trkpt lat="40.454740" lon="-4.822574">
        <ele>1129.182</ele>
        <time>2023-01-04T05:57:04Z</time>
      </trkpt>
      <trkpt lat="40.455064" lon="-4.822293">
        <ele>1130.097</ele>
        <time>2023-01-04T05:57:44Z</time>
      </trkpt>
      <trkpt lat="40.456271" lon="-4.820386">
        <ele>1137.693</ele>
        <time>2023-01-04T05:58:24Z</time>
      </trkpt>
      <trkpt lat="40.456589" lon="-4.819881">
        <ele>1136.965</ele>
        <time>2023-01-04T05:59:04Z</time>
      </trkpt>
      <trkpt lat="40.457064" lon="-4.818921">
        <ele>1133.121</ele>
        <time>2023-01-04T05:59:44Z</time>
      </trkpt>
      <trkpt lat="40.457517" lon="-4.817939">
        <ele>1130.209</ele>
        <time>2023-01-04T06:00:24Z</time>
      </trkpt>
      <trkpt lat="40.458003" lon="-4.816958">
        <ele>1126.190</ele>
        <time>2023-01-04T06:01:04Z</time>
      </trkpt>
      <trkpt lat="40.458307" lon="-4.816191">
        <ele>1128.071</ele>
        <time>2023-01-04T06:01:44Z</time>
      </trkpt>
      <trkpt lat="40.458464" lon="-4.815445">
        <ele>1128.461</ele>
        <time>2023-01-04T06:02:24Z</time>
      </trkpt>
      <trkpt lat="40.458466" lon="-4.814976">
        <ele>1127.394</ele>
        <time>2023-01-04T06:03:04Z</time>
      </trkpt>
      <trkpt lat="40.458775" lon="-4.814605">
        <ele>1128.247</ele>
        <time>2023-01-04T06:03:44Z</time>
      </trkpt>
      <trkpt lat="40.458999" lon="-4.813940">
        <ele>1127.012</ele>
        <time>2023-01-04T06:04:24Z</time>
      </trkpt>
      <trkpt lat="40.459130" lon="-4.813178">
        <ele>1125.156</ele>
        <time>2023-01-04T06:05:04Z</time>
      </trkpt>
      <trkpt lat="40.459171" lon="-4.812631">
        <ele>1123.017</ele>
        <time>2023-01-04T06:05:44Z</time>
      </trkpt>
      <trkpt lat="40.459291" lon="-4.811923">
        <ele>1124.322</ele>
        <time>2023-01-04T06:06:24Z</time>
      </trkpt>
      <trkpt lat="40.459283" lon="-4.811277">
        <ele>1123.765</ele>
        <time>2023-01-04T06:07:04Z</time>
      </trkpt>
      <trkpt lat="40.459299" lon="-4.810883">
        <ele>1122.668</ele>
        <time>2023-01-04T06:07:44Z</time>
      </trkpt>
      <trkpt lat="40.459234" lon="-4.810585">
        <ele>1121.214</ele>
        <time>2023-01-04T06:08:24Z</time>
      </trkpt>
      <trkpt lat="40.458995" lon="-4.810314">
        <ele>1117.909</ele>
        <time>2023-01-04T06:09:04Z</time>
      </trkpt>
      <trkpt lat="40.458797" lon="-4.809954">
        <ele>1115.677</ele>
        <time>2023-01-04T06:09:44Z</time>
      </trkpt>
      <trkpt lat="40.458715" lon="-4.809249">
        <ele>1113.228</ele>
        <time>2023-01-04T06:10:24Z</time>
      </trkpt>
      <trkpt lat="40.458640" lon="-4.808351">
        <ele>1112.318</ele>
        <time>2023-01-04T06:11:04Z</time>
      </trkpt>
      <trkpt lat="40.458505" lon="-4.807766">
        <ele>1111.581</ele>
        <time>2023-01-04T06:11:44Z</time>
      </trkpt>
      <trkpt lat="40.458344" lon="-4.807267">
        <ele>1110.134</ele>
        <time>2023-01-04T06:12:24Z</time>
      </trkpt>
      <trkpt lat="40.458244" lon="-4.806985">
        <ele>1110.249</ele>
        <time>2023-01-04T06:13:04Z</time>
      </trkpt>
      <trkpt lat="40.458185" lon="-4.806248">
        <ele>1111.413</ele>
        <time>2023-01-04T06:13:44Z</time>
      </trkpt>
      <trkpt lat="40.458120" lon="-4.804746">
        <ele>1109.654</ele>
        <time>2023-01-04T06:14:24Z</time>
      </trkpt>
      <trkpt lat="40.458052" lon="-4.803544">
        <ele>1103.779</ele>
        <time>2023-01-04T06:15:04Z</time>
      </trkpt>
      <trkpt lat="40.457975" lon="-4.802943">
        <ele>1100.488</ele>
        <time>2023-01-04T06:15:44Z</time>
      </trkpt>
      <trkpt lat="40.458015" lon="-4.801551">
        <ele>1096.624</ele>
        <time>2023-01-04T06:16:24Z</time>
      </trkpt>
      <trkpt lat="40.457883" lon="-4.800151">
        <ele>1096.926</ele>
        <time>2023-01-04T06:17:04Z</time>
      </trkpt>
      <trkpt lat="40.457838" lon="-4.799513">
        <ele>1097.609</ele>
        <time>2023-01-04T06:17:44Z</time>
      </trkpt>
      <trkpt lat="40.457697" lon="-4.799333">
        <ele>1096.879</ele>
        <time>2023-01-04T06:18:24Z</time>
      </trkpt>
      <trkpt lat="40.457279" lon="-4.799301">
        <ele>1093.510</ele>
        <time>2023-01-04T06:19:04Z</time>
      </trkpt>
      <trkpt lat="40.456528" lon="-4.799349">
        <ele>1088.330</ele>
        <time>2023-01-04T06:19:44Z</time>
      </trkpt>
      <trkpt lat="40.456254" lon="-4.799094">
        <ele>1086.053</ele>
        <time>2023-01-04T06:20:24Z</time>
      </trkpt>
      <trkpt lat="40.455779" lon="-4.798472">
        <ele>1082.666</ele>
        <time>2023-01-04T06:21:04Z</time>
      </trkpt>
      <trkpt lat="40.455407" lon="-4.797933">
        <ele>1078.471</ele>
        <time>2023-01-04T06:21:44Z</time>
      </trkpt>
      <trkpt lat="40.455001" lon="-4.797399">
        <ele>1073.045</ele>
        <time>2023-01-04T06:22:24Z</time>
      </trkpt>
      <trkpt lat="40.454811" lon="-4.796943">
        <ele>1072.046</ele>
        <time>2023-01-04T06:23:04Z</time>
      </trkpt>
      <trkpt lat="40.454662" lon="-4.796753">
        <ele>1071.171</ele>
        <time>2023-01-04T06:23:44Z</time>
      </trkpt>
      <trkpt lat="40.454460" lon="-4.796669">
        <ele>1069.261</ele>
        <time>2023-01-04T06:24:24Z</time>
      </trkpt>
      <trkpt lat="40.454046" lon="-4.796474">
        <ele>1068.421</ele>
        <time>2023-01-04T06:25:04Z</time>
      </trkpt>
      <trkpt lat="40.453834" lon="-4.796146">
        <ele>1067.813</ele>
        <time>2023-01-04T06:25:44Z</time>
      </trkpt>
      <trkpt lat="40.453499" lon="-4.795892">
        <ele>1067.009</ele>
        <time>2023-01-04T06:26:24Z</time>
      </trkpt>
      <trkpt lat="40.453242" lon="-4.795739">
        <ele>1065.717</ele>
        <time>2023-01-04T06:27:04Z</time>
      </trkpt>
      <trkpt lat="40.453176" lon="-4.795618">
        <ele>1065.678</ele>
        <time>2023-01-04T06:27:44Z</time>
      </trkpt>
      <trkpt lat="40.453123" lon="-4.795446">
        <ele>1066.228</ele>
        <time>2023-01-04T06:28:24Z</time>
      </trkpt>
      <trkpt lat="40.452972" lon="-4.795261">
        <ele>1066.521</ele>
        <time>2023-01-04T06:29:04Z</time>
      </trkpt>
      <trkpt lat="40.452809" lon="-4.795143">
        <ele>1065.774</ele>
        <time>2023-01-04T06:29:44Z</time>
      </trkpt>
      <trkpt lat="40.452658" lon="-4.795041">
        <ele>1064.649</ele>
        <time>2023-01-04T06:30:24Z</time>
      </trkpt>
      <trkpt lat="40.452599" lon="-4.794926">
        <ele>1064.393</ele>
        <time>2023-01-04T06:31:04Z</time>
      </trkpt>
      <trkpt lat="40.452478" lon="-4.794773">
        <ele>1063.754</ele>
        <time>2023-01-04T06:31:44Z</time>
      </trkpt>
      <trkpt lat="40.452419" lon="-4.794610">
        <ele>1063.889</ele>
        <time>2023-01-04T06:32:24Z</time>
      </trkpt>
      <trkpt lat="40.452307" lon="-4.794105">
        <ele>1064.832</ele>
        <time>2023-01-04T06:33:04Z</time>
      </trkpt>
      <trkpt lat="40.452180" lon="-4.793510">
        <ele>1066.192</ele>
        <time>2023-01-04T06:33:44Z</time>
      </trkpt>
      <trkpt lat="40.452213" lon="-4.792842">
        <ele>1067.211</ele>
        <time>2023-01-04T06:34:24Z</time>
      </trkpt>
      <trkpt lat="40.452187" lon="-4.792550">
        <ele>1066.609</ele>
        <time>2023-01-04T06:35:04Z</time>
      </trkpt>
      <trkpt lat="40.452278" lon="-4.791772">
        <ele>1065.824</ele>
        <time>2023-01-04T06:35:44Z</time>
      </trkpt>
      <trkpt lat="40.452429" lon="-4.791101">
        <ele>1065.515</ele>
        <time>2023-01-04T06:36:24Z</time>
      </trkpt>
      <trkpt lat="40.452793" lon="-4.790023">
        <ele>1067.285</ele>
        <time>2023-01-04T06:37:04Z</time>
      </trkpt>
      <trkpt lat="40.453097" lon="-4.789259">
        <ele>1067.648</ele>
        <time>2023-01-04T06:37:44Z</time>
      </trkpt>
      <trkpt lat="40.453121" lon="-4.788988">
        <ele>1066.881</ele>
        <time>2023-01-04T06:38:24Z</time>
      </trkpt>
      <trkpt lat="40.453281" lon="-4.788580">
        <ele>1067.526</ele>
        <time>2023-01-04T06:39:04Z</time>
      </trkpt>
      <trkpt lat="40.453764" lon="-4.787539">
        <ele>1071.720</ele>
        <time>2023-01-04T06:39:44Z</time>
      </trkpt>
      <trkpt lat="40.454123" lon="-4.786533">
        <ele>1073.091</ele>
        <time>2023-01-04T06:40:24Z</time>
      </trkpt>
      <trkpt lat="40.454358" lon="-4.786088">
        <ele>1074.316</ele>
        <time>2023-01-04T06:41:04Z</time>
      </trkpt>
      <trkpt lat="40.454621" lon="-4.785686">
        <ele>1075.829</ele>
        <time>2023-01-04T06:41:44Z</time>
      </trkpt>
      <trkpt lat="40.454907" lon="-4.785498">
        <ele>1076.200</ele>
        <time>2023-01-04T06:42:24Z</time>
      </trkpt>
      <trkpt lat="40.455173" lon="-4.785238">
        <ele>1076.220</ele>
        <time>2023-01-04T06:43:04Z</time>
      </trkpt>
      <trkpt lat="40.455256" lon="-4.785077">
        <ele>1076.809</ele>
        <time>2023-01-04T06:43:44Z</time>
      </trkpt>
      <trkpt lat="40.455456" lon="-4.784921">
        <ele>1078.523</ele>
        <time>2023-01-04T06:44:24Z</time>
      </trkpt>
      <trkpt lat="40.455605" lon="-4.784876">
        <ele>1079.724</ele>
        <time>2023-01-04T06:45:04Z</time>
      </trkpt>
      <trkpt lat="40.455852" lon="-4.784541">
        <ele>1081.184</ele>
        <time>2023-01-04T06:45:44Z</time>
      </trkpt>
      <trkpt lat="40.455952" lon="-4.784203">
        <ele>1080.617</ele>
        <time>2023-01-04T06:46:24Z</time>
      </trkpt>
      <trkpt lat="40.456148" lon="-4.783806">
        <ele>1080.170</ele>
        <time>2023-01-04T06:47:04Z</time>
      </trkpt>
      <trkpt lat="40.456187" lon="-4.783460">
        <ele>1079.065</ele>
        <time>2023-01-04T06:47:44Z</time>
      </trkpt>
      <trkpt lat="40.456293" lon="-4.783052">
        <ele>1079.359</ele>
        <time>2023-01-04T06:48:24Z</time>
      </trkpt>
      <trkpt lat="40.456464" lon="-4.782676">
        <ele>1080.460</ele>
        <time>2023-01-04T06:49:04Z</time>
      </trkpt>
      <trkpt lat="40.456638" lon="-4.782135">
        <ele>1079.575</ele>
        <time>2023-01-04T06:49:44Z</time>
      </trkpt>
      <trkpt lat="40.456807" lon="-4.781679">
        <ele>1079.623</ele>
        <time>2023-01-04T06:50:24Z</time>
      </trkpt>
      <trkpt lat="40.456985" lon="-4.781477">
        <ele>1080.583</ele>
        <time>2023-01-04T06:51:04Z</time>
      </trkpt>
      <trkpt lat="40.457073" lon="-4.781169">
        <ele>1079.711</ele>
        <time>2023-01-04T06:51:44Z</time>
      </trkpt>
      <trkpt lat="40.457126" lon="-4.780820">
        <ele>1079.309</ele>
        <time>2023-01-04T06:52:24Z</time>
      </trkpt>
      <trkpt lat="40.457097" lon="-4.780120">
        <ele>1078.163</ele>
        <time>2023-01-04T06:53:04Z</time>
      </trkpt>
      <trkpt lat="40.457032" lon="-4.779396">
        <ele>1077.644</ele>
        <time>2023-01-04T06:53:44Z</time>
      </trkpt>
      <trkpt lat="40.457011" lon="-4.778747">
        <ele>1077.494</ele>
        <time>2023-01-04T06:54:24Z</time>
      </trkpt>
      <trkpt lat="40.457217" lon="-4.777438">
        <ele>1078.057</ele>
        <time>2023-01-04T06:55:04Z</time>
      </trkpt>
      <trkpt lat="40.457371" lon="-4.776113">
        <ele>1074.560</ele>
        <time>2023-01-04T06:55:44Z</time>
      </trkpt>
      <trkpt lat="40.457460" lon="-4.775416">
        <ele>1071.235</ele>
        <time>2023-01-04T06:56:24Z</time>
      </trkpt>
      <trkpt lat="40.457446" lon="-4.774517">
        <ele>1066.189</ele>
        <time>2023-01-04T06:57:04Z</time>
      </trkpt>
      <trkpt lat="40.457289" lon="-4.773796">
        <ele>1061.760</ele>
        <time>2023-01-04T06:57:44Z</time>
      </trkpt>
      <trkpt lat="40.457117" lon="-4.773383">
        <ele>1059.785</ele>
        <time>2023-01-04T06:58:24Z</time>
      </trkpt>
      <trkpt lat="40.457073" lon="-4.772825">
        <ele>1057.735</ele>
        <time>2023-01-04T06:59:04Z</time>
      </trkpt>
      <trkpt lat="40.457032" lon="-4.772100">
        <ele>1054.286</ele>
        <time>2023-01-04T06:59:44Z</time>
      </trkpt>
      <trkpt lat="40.457126" lon="-4.771529">
        <ele>1051.414</ele>
        <time>2023-01-04T07:00:24Z</time>
      </trkpt>
      <trkpt lat="40.457048" lon="-4.770730">
        <ele>1048.309</ele>
        <time>2023-01-04T07:01:04Z</time>
      </trkpt>
      <trkpt lat="40.456995" lon="-4.770303">
        <ele>1046.794</ele>
        <time>2023-01-04T07:01:44Z</time>
      </trkpt>
      <trkpt lat="40.457005" lon="-4.769976">
        <ele>1045.555</ele>
        <time>2023-01-04T07:02:24Z</time>
      </trkpt>
      <trkpt lat="40.457256" lon="-4.769796">
        <ele>1043.375</ele>
        <time>2023-01-04T07:03:04Z</time>
      </trkpt>
      <trkpt lat="40.457558" lon="-4.769542">
        <ele>1042.658</ele>
        <time>2023-01-04T07:03:44Z</time>
      </trkpt>
      <trkpt lat="40.457803" lon="-4.769314">
        <ele>1042.651</ele>
        <time>2023-01-04T07:04:24Z</time>
      </trkpt>
      <trkpt lat="40.457589" lon="-4.766615">
        <ele>1035.886</ele>
        <time>2023-01-04T07:05:04Z</time>
      </trkpt>
      <trkpt lat="40.457956" lon="-4.766473">
        <ele>1035.980</ele>
        <time>2023-01-04T07:05:44Z</time>
      </trkpt>
      <trkpt lat="40.458213" lon="-4.766446">
        <ele>1038.961</ele>
        <time>2023-01-04T07:06:24Z</time>
      </trkpt>
      <trkpt lat="40.458503" lon="-4.766414">
        <ele>1042.226</ele>
        <time>2023-01-04T07:07:04Z</time>
      </trkpt>
      <trkpt lat="40.458748" lon="-4.766452">
        <ele>1043.625</ele>
        <time>2023-01-04T07:07:44Z</time>
      </trkpt>
      <trkpt lat="40.459079" lon="-4.766513">
        <ele>1044.426</ele>
        <time>2023-01-04T07:08:24Z</time>
      </trkpt>
      <trkpt lat="40.459356" lon="-4.766572">
        <ele>1045.308</ele>
        <time>2023-01-04T07:09:04Z</time>
      </trkpt>
      <trkpt lat="40.459469" lon="-4.766409">
        <ele>1045.309</ele>
        <time>2023-01-04T07:09:44Z</time>
      </trkpt>
      <trkpt lat="40.459883" lon="-4.766004">
        <ele>1046.833</ele>
        <time>2023-01-04T07:10:24Z</time>
      </trkpt>
      <trkpt lat="40.460038" lon="-4.765827">
        <ele>1047.074</ele>
        <time>2023-01-04T07:11:04Z</time>
      </trkpt>
      <trkpt lat="40.460185" lon="-4.765741">
        <ele>1046.914</ele>
        <time>2023-01-04T07:11:44Z</time>
      </trkpt>
      <trkpt lat="40.460322" lon="-4.764977">
        <ele>1045.937</ele>
        <time>2023-01-04T07:12:24Z</time>
      </trkpt>
      <trkpt lat="40.460181" lon="-4.764478">
        <ele>1044.760</ele>
        <time>2023-01-04T07:13:04Z</time>
      </trkpt>
      <trkpt lat="40.460048" lon="-4.764000">
        <ele>1043.455</ele>
        <time>2023-01-04T07:13:44Z</time>
      </trkpt>
      <trkpt lat="40.459891" lon="-4.763499">
        <ele>1041.819</ele>
        <time>2023-01-04T07:14:24Z</time>
      </trkpt>
      <trkpt lat="40.459773" lon="-4.763249">
        <ele>1041.140</ele>
        <time>2023-01-04T07:15:04Z</time>
      </trkpt>
      <trkpt lat="40.459738" lon="-4.762866">
        <ele>1040.435</ele>
        <time>2023-01-04T07:15:44Z</time>
      </trkpt>
      <trkpt lat="40.459805" lon="-4.762501">
        <ele>1038.682</ele>
        <time>2023-01-04T07:16:24Z</time>
      </trkpt>
      <trkpt lat="40.459783" lon="-4.762141">
        <ele>1035.643</ele>
        <time>2023-01-04T07:17:04Z</time>
      </trkpt>
      <trkpt lat="40.459809" lon="-4.761474">
        <ele>1030.717</ele>
        <time>2023-01-04T07:17:44Z</time>
      </trkpt>
      <trkpt lat="40.459793" lon="-4.761044">
        <ele>1029.309</ele>
        <time>2023-01-04T07:18:24Z</time>
      </trkpt>
      <trkpt lat="40.459932" lon="-4.760669">
        <ele>1029.689</ele>
        <time>2023-01-04T07:19:04Z</time>
      </trkpt>
      <trkpt lat="40.459852" lon="-4.760146">
        <ele>1028.450</ele>
        <time>2023-01-04T07:19:44Z</time>
      </trkpt>
      <trkpt lat="40.459775" lon="-4.759655">
        <ele>1027.090</ele>
        <time>2023-01-04T07:20:24Z</time>
      </trkpt>
      <trkpt lat="40.459591" lon="-4.758781">
        <ele>1027.823</ele>
        <time>2023-01-04T07:21:04Z</time>
      </trkpt>
      <trkpt lat="40.459624" lon="-4.757394">
        <ele>1027.366</ele>
        <time>2023-01-04T07:21:44Z</time>
      </trkpt>
      <trkpt lat="40.459679" lon="-4.756498">
        <ele>1026.841</ele>
        <time>2023-01-04T07:22:24Z</time>
      </trkpt>
      <trkpt lat="40.459807" lon="-4.755481">
        <ele>1029.425</ele>
        <time>2023-01-04T07:23:04Z</time>
      </trkpt>
      <trkpt lat="40.459936" lon="-4.753912">
        <ele>1036.516</ele>
        <time>2023-01-04T07:23:44Z</time>
      </trkpt>
      <trkpt lat="40.460218" lon="-4.752778">
        <ele>1041.131</ele>
        <time>2023-01-04T07:24:24Z</time>
      </trkpt>
      <trkpt lat="40.460526" lon="-4.751370">
        <ele>1043.699</ele>
        <time>2023-01-04T07:25:04Z</time>
      </trkpt>
      <trkpt lat="40.460636" lon="-4.751013">
        <ele>1045.107</ele>
        <time>2023-01-04T07:25:44Z</time>
      </trkpt>
      <trkpt lat="40.460883" lon="-4.750804">
        <ele>1047.527</ele>
        <time>2023-01-04T07:26:24Z</time>
      </trkpt>
      <trkpt lat="40.460995" lon="-4.750439">
        <ele>1048.009</ele>
        <time>2023-01-04T07:27:04Z</time>
      </trkpt>
      <trkpt lat="40.461117" lon="-4.749538">
        <ele>1047.480</ele>
        <time>2023-01-04T07:27:44Z</time>
      </trkpt>
      <trkpt lat="40.461205" lon="-4.748505">
        <ele>1045.891</ele>
        <time>2023-01-04T07:28:24Z</time>
      </trkpt>
      <trkpt lat="40.461471" lon="-4.747585">
        <ele>1048.871</ele>
        <time>2023-01-04T07:29:04Z</time>
      </trkpt>
      <trkpt lat="40.461483" lon="-4.747175">
        <ele>1050.164</ele>
        <time>2023-01-04T07:29:44Z</time>
      </trkpt>
      <trkpt lat="40.461383" lon="-4.746378">
        <ele>1051.067</ele>
        <time>2023-01-04T07:30:24Z</time>
      </trkpt>
      <trkpt lat="40.461430" lon="-4.745640">
        <ele>1054.422</ele>
        <time>2023-01-04T07:31:04Z</time>
      </trkpt>
      <trkpt lat="40.461575" lon="-4.745104">
        <ele>1056.546</ele>
        <time>2023-01-04T07:31:44Z</time>
      </trkpt>
      <trkpt lat="40.461813" lon="-4.744849">
        <ele>1062.237</ele>
        <time>2023-01-04T07:32:24Z</time>
      </trkpt>
      <trkpt lat="40.462146" lon="-4.744594">
        <ele>1068.022</ele>
        <time>2023-01-04T07:33:04Z</time>
      </trkpt>
      <trkpt lat="40.462493" lon="-4.744594">
        <ele>1073.641</ele>
        <time>2023-01-04T07:33:44Z</time>
      </trkpt>
      <trkpt lat="40.462807" lon="-4.744541">
        <ele>1076.181</ele>
        <time>2023-01-04T07:34:24Z</time>
      </trkpt>
      <trkpt lat="40.463034" lon="-4.744423">
        <ele>1075.809</ele>
        <time>2023-01-04T07:35:04Z</time>
      </trkpt>
      <trkpt lat="40.463344" lon="-4.744283">
        <ele>1076.609</ele>
        <time>2023-01-04T07:35:44Z</time>
      </trkpt>
      <trkpt lat="40.463574" lon="-4.744141">
        <ele>1080.135</ele>
        <time>2023-01-04T07:36:24Z</time>
      </trkpt>
      <trkpt lat="40.463762" lon="-4.744045">
        <ele>1080.766</ele>
        <time>2023-01-04T07:37:04Z</time>
      </trkpt>
      <trkpt lat="40.463868" lon="-4.744018">
        <ele>1080.856</ele>
        <time>2023-01-04T07:37:44Z</time>
      </trkpt>
      <trkpt lat="40.463966" lon="-4.744063">
        <ele>1081.899</ele>
        <time>2023-01-04T07:38:24Z</time>
      </trkpt>
      <trkpt lat="40.464193" lon="-4.743910">
        <ele>1080.712</ele>
        <time>2023-01-04T07:39:04Z</time>
      </trkpt>
      <trkpt lat="40.464289" lon="-4.743854">
        <ele>1081.427</ele>
        <time>2023-01-04T07:39:44Z</time>
      </trkpt>
      <trkpt lat="40.464442" lon="-4.743747">
        <ele>1081.971</ele>
        <time>2023-01-04T07:40:24Z</time>
      </trkpt>
      <trkpt lat="40.464550" lon="-4.743999">
        <ele>1085.922</ele>
        <time>2023-01-04T07:41:04Z</time>
      </trkpt>
      <trkpt lat="40.464783" lon="-4.743913">
        <ele>1086.567</ele>
        <time>2023-01-04T07:41:44Z</time>
      </trkpt>
      <trkpt lat="40.465044" lon="-4.743873">
        <ele>1087.364</ele>
        <time>2023-01-04T07:42:24Z</time>
      </trkpt>
      <trkpt lat="40.465383" lon="-4.743827">
        <ele>1090.806</ele>
        <time>2023-01-04T07:43:04Z</time>
      </trkpt>
      <trkpt lat="40.465644" lon="-4.743841">
        <ele>1096.116</ele>
        <time>2023-01-04T07:43:44Z</time>
      </trkpt>
      <trkpt lat="40.465989" lon="-4.743583">
        <ele>1098.409</ele>
        <time>2023-01-04T07:44:24Z</time>
      </trkpt>
      <trkpt lat="40.466342" lon="-4.743465">
        <ele>1103.117</ele>
        <time>2023-01-04T07:45:04Z</time>
      </trkpt>
      <trkpt lat="40.466554" lon="-4.743406">
        <ele>1105.318</ele>
        <time>2023-01-04T07:45:44Z</time>
      </trkpt>
      <trkpt lat="40.466923" lon="-4.743226">
        <ele>1107.218</ele>
        <time>2023-01-04T07:46:24Z</time>
      </trkpt>
      <trkpt lat="40.467152" lon="-4.743108">
        <ele>1107.151</ele>
        <time>2023-01-04T07:47:04Z</time>
      </trkpt>
      <trkpt lat="40.467395" lon="-4.743036">
        <ele>1107.424</ele>
        <time>2023-01-04T07:47:44Z</time>
      </trkpt>
      <trkpt lat="40.467756" lon="-4.742803">
        <ele>1106.269</ele>
        <time>2023-01-04T07:48:24Z</time>
      </trkpt>
      <trkpt lat="40.468107" lon="-4.742663">
        <ele>1107.143</ele>
        <time>2023-01-04T07:49:04Z</time>
      </trkpt>
      <trkpt lat="40.468290" lon="-4.742540">
        <ele>1107.184</ele>
        <time>2023-01-04T07:49:44Z</time>
      </trkpt>
      <trkpt lat="40.468533" lon="-4.742390">
        <ele>1107.439</ele>
        <time>2023-01-04T07:50:24Z</time>
      </trkpt>
      <trkpt lat="40.468770" lon="-4.742162">
        <ele>1107.724</ele>
        <time>2023-01-04T07:51:04Z</time>
      </trkpt>
      <trkpt lat="40.469104" lon="-4.742073">
        <ele>1111.104</ele>
        <time>2023-01-04T07:51:44Z</time>
      </trkpt>
      <trkpt lat="40.469321" lon="-4.742044">
        <ele>1113.014</ele>
        <time>2023-01-04T07:52:24Z</time>
      </trkpt>
      <trkpt lat="40.469670" lon="-4.741993">
        <ele>1116.809</ele>
        <time>2023-01-04T07:53:04Z</time>
      </trkpt>
      <trkpt lat="40.470006" lon="-4.741829">
        <ele>1119.873</ele>
        <time>2023-01-04T07:53:44Z</time>
      </trkpt>
      <trkpt lat="40.470284" lon="-4.741840">
        <ele>1122.224</ele>
        <time>2023-01-04T07:54:24Z</time>
      </trkpt>
      <trkpt lat="40.470982" lon="-4.741649">
        <ele>1127.894</ele>
        <time>2023-01-04T07:55:04Z</time>
      </trkpt>
      <trkpt lat="40.471284" lon="-4.741545">
        <ele>1128.157</ele>
        <time>2023-01-04T07:55:44Z</time>
      </trkpt>
      <trkpt lat="40.471555" lon="-4.741365">
        <ele>1128.630</ele>
        <time>2023-01-04T07:56:24Z</time>
      </trkpt>
      <trkpt lat="40.471841" lon="-4.741172">
        <ele>1130.075</ele>
        <time>2023-01-04T07:57:04Z</time>
      </trkpt>
      <trkpt lat="40.472128" lon="-4.740904">
        <ele>1130.579</ele>
        <time>2023-01-04T07:57:44Z</time>
      </trkpt>
      <trkpt lat="40.472367" lon="-4.740603">
        <ele>1130.720</ele>
        <time>2023-01-04T07:58:24Z</time>
      </trkpt>
      <trkpt lat="40.472943" lon="-4.740306">
        <ele>1135.455</ele>
        <time>2023-01-04T07:59:04Z</time>
      </trkpt>
      <trkpt lat="40.473134" lon="-4.740142">
        <ele>1136.838</ele>
        <time>2023-01-04T07:59:44Z</time>
      </trkpt>
      <trkpt lat="40.473381" lon="-4.739871">
        <ele>1137.870</ele>
        <time>2023-01-04T08:00:24Z</time>
      </trkpt>
      <trkpt lat="40.473755" lon="-4.739501">
        <ele>1143.517</ele>
        <time>2023-01-04T08:01:04Z</time>
      </trkpt>
      <trkpt lat="40.474087" lon="-4.739117">
        <ele>1144.909</ele>
        <time>2023-01-04T08:01:44Z</time>
      </trkpt>
      <trkpt lat="40.474546" lon="-4.738828">
        <ele>1145.144</ele>
        <time>2023-01-04T08:02:24Z</time>
      </trkpt>
      <trkpt lat="40.474861" lon="-4.738559">
        <ele>1145.695</ele>
        <time>2023-01-04T08:03:04Z</time>
      </trkpt>
      <trkpt lat="40.475379" lon="-4.738004">
        <ele>1144.845</ele>
        <time>2023-01-04T08:03:44Z</time>
      </trkpt>
      <trkpt lat="40.475911" lon="-4.737674">
        <ele>1147.958</ele>
        <time>2023-01-04T08:04:24Z</time>
      </trkpt>
      <trkpt lat="40.476489" lon="-4.737283">
        <ele>1149.731</ele>
        <time>2023-01-04T08:05:04Z</time>
      </trkpt>
      <trkpt lat="40.476785" lon="-4.737167">
        <ele>1148.676</ele>
        <time>2023-01-04T08:05:44Z</time>
      </trkpt>
      <trkpt lat="40.477119" lon="-4.737020">
        <ele>1147.980</ele>
        <time>2023-01-04T08:06:24Z</time>
      </trkpt>
      <trkpt lat="40.477390" lon="-4.736902">
        <ele>1149.661</ele>
        <time>2023-01-04T08:07:04Z</time>
      </trkpt>
      <trkpt lat="40.477637" lon="-4.736840">
        <ele>1150.046</ele>
        <time>2023-01-04T08:07:44Z</time>
      </trkpt>
      <trkpt lat="40.478519" lon="-4.736679">
        <ele>1153.662</ele>
        <time>2023-01-04T08:08:24Z</time>
      </trkpt>
      <trkpt lat="40.478806" lon="-4.736553">
        <ele>1158.383</ele>
        <time>2023-01-04T08:09:04Z</time>
      </trkpt>
      <trkpt lat="40.479006" lon="-4.736365">
        <ele>1161.011</ele>
        <time>2023-01-04T08:09:44Z</time>
      </trkpt>
      <trkpt lat="40.479486" lon="-4.736446">
        <ele>1165.909</ele>
        <time>2023-01-04T08:10:24Z</time>
      </trkpt>
      <trkpt lat="40.480037" lon="-4.736290">
        <ele>1175.147</ele>
        <time>2023-01-04T08:11:04Z</time>
      </trkpt>
      <trkpt lat="40.480414" lon="-4.736301">
        <ele>1180.598</ele>
        <time>2023-01-04T08:11:44Z</time>
      </trkpt>
      <trkpt lat="40.480665" lon="-4.736215">
        <ele>1184.578</ele>
        <time>2023-01-04T08:12:24Z</time>
      </trkpt>
      <trkpt lat="40.480881" lon="-4.736121">
        <ele>1189.881</ele>
        <time>2023-01-04T08:13:04Z</time>
      </trkpt>
      <trkpt lat="40.480983" lon="-4.736242">
        <ele>1194.864</ele>
        <time>2023-01-04T08:13:44Z</time>
      </trkpt>
      <trkpt lat="40.481061" lon="-4.736639">
        <ele>1199.539</ele>
        <time>2023-01-04T08:14:24Z</time>
      </trkpt>
      <trkpt lat="40.481128" lon="-4.736829">
        <ele>1200.723</ele>
        <time>2023-01-04T08:15:04Z</time>
      </trkpt>
      <trkpt lat="40.481273" lon="-4.736915">
        <ele>1202.084</ele>
        <time>2023-01-04T08:15:44Z</time>
      </trkpt>
      <trkpt lat="40.481440" lon="-4.736990">
        <ele>1202.639</ele>
        <time>2023-01-04T08:16:24Z</time>
      </trkpt>
      <trkpt lat="40.481528" lon="-4.736969">
        <ele>1204.419</ele>
        <time>2023-01-04T08:17:04Z</time>
      </trkpt>
      <trkpt lat="40.481499" lon="-4.736856">
        <ele>1206.009</ele>
        <time>2023-01-04T08:17:44Z</time>
      </trkpt>
      <trkpt lat="40.481463" lon="-4.736693">
        <ele>1207.919</ele>
        <time>2023-01-04T08:18:24Z</time>
      </trkpt>
      <trkpt lat="40.481526" lon="-4.736435">
        <ele>1212.009</ele>
        <time>2023-01-04T08:19:04Z</time>
      </trkpt>
      <trkpt lat="40.481663" lon="-4.736199">
        <ele>1214.942</ele>
        <time>2023-01-04T08:19:44Z</time>
      </trkpt>
      <trkpt lat="40.481797" lon="-4.736239">
        <ele>1217.623</ele>
        <time>2023-01-04T08:20:24Z</time>
      </trkpt>
      <trkpt lat="40.481956" lon="-4.736379">
        <ele>1220.053</ele>
        <time>2023-01-04T08:21:04Z</time>
      </trkpt>
      <trkpt lat="40.482197" lon="-4.736237">
        <ele>1221.016</ele>
        <time>2023-01-04T08:21:44Z</time>
      </trkpt>
      <trkpt lat="40.482271" lon="-4.736006">
        <ele>1223.269</ele>
        <time>2023-01-04T08:22:24Z</time>
      </trkpt>
      <trkpt lat="40.482397" lon="-4.735826">
        <ele>1226.664</ele>
        <time>2023-01-04T08:23:04Z</time>
      </trkpt>
      <trkpt lat="40.482454" lon="-4.735625">
        <ele>1228.828</ele>
        <time>2023-01-04T08:23:44Z</time>
      </trkpt>
      <trkpt lat="40.482638" lon="-4.735526">
        <ele>1230.289</ele>
        <time>2023-01-04T08:24:24Z</time>
      </trkpt>
      <trkpt lat="40.482850" lon="-4.735480">
        <ele>1230.694</ele>
        <time>2023-01-04T08:25:04Z</time>
      </trkpt>
      <trkpt lat="40.483015" lon="-4.735301">
        <ele>1232.669</ele>
        <time>2023-01-04T08:25:44Z</time>
      </trkpt>
      <trkpt lat="40.483144" lon="-4.735038">
        <ele>1235.904</ele>
        <time>2023-01-04T08:26:24Z</time>
      </trkpt>
      <trkpt lat="40.483278" lon="-4.734458">
        <ele>1244.824</ele>
        <time>2023-01-04T08:27:04Z</time>
      </trkpt>
      <trkpt lat="40.483289" lon="-4.734252">
        <ele>1247.909</ele>
        <time>2023-01-04T08:27:44Z</time>
      </trkpt>
      <trkpt lat="40.483223" lon="-4.734126">
        <ele>1247.887</ele>
        <time>2023-01-04T08:28:24Z</time>
      </trkpt>
      <trkpt lat="40.483252" lon="-4.733890">
        <ele>1249.558</ele>
        <time>2023-01-04T08:29:04Z</time>
      </trkpt>
      <trkpt lat="40.483362" lon="-4.733691">
        <ele>1252.728</ele>
        <time>2023-01-04T08:29:44Z</time>
      </trkpt>
      <trkpt lat="40.483489" lon="-4.733407">
        <ele>1256.251</ele>
        <time>2023-01-04T08:30:24Z</time>
      </trkpt>
      <trkpt lat="40.483572" lon="-4.732943">
        <ele>1259.664</ele>
        <time>2023-01-04T08:31:04Z</time>
      </trkpt>
      <trkpt lat="40.483894" lon="-4.732382">
        <ele>1265.549</ele>
        <time>2023-01-04T08:31:44Z</time>
      </trkpt>
      <trkpt lat="40.484286" lon="-4.731258">
        <ele>1269.423</ele>
        <time>2023-01-04T08:32:24Z</time>
      </trkpt>
      <trkpt lat="40.484382" lon="-4.729848">
        <ele>1273.154</ele>
        <time>2023-01-04T08:33:04Z</time>
      </trkpt>
      <trkpt lat="40.484370" lon="-4.729483">
        <ele>1274.149</ele>
        <time>2023-01-04T08:33:44Z</time>
      </trkpt>
      <trkpt lat="40.484386" lon="-4.729094">
        <ele>1275.442</ele>
        <time>2023-01-04T08:34:24Z</time>
      </trkpt>
      <trkpt lat="40.484451" lon="-4.728794">
        <ele>1276.422</ele>
        <time>2023-01-04T08:35:04Z</time>
      </trkpt>
      <trkpt lat="40.484741" lon="-4.728694">
        <ele>1278.914</ele>
        <time>2023-01-04T08:35:44Z</time>
      </trkpt>
      <trkpt lat="40.484890" lon="-4.728726">
        <ele>1280.309</ele>
        <time>2023-01-04T08:36:24Z</time>
      </trkpt>
      <trkpt lat="40.485202" lon="-4.728844">
        <ele>1284.085</ele>
        <time>2023-01-04T08:37:04Z</time>
      </trkpt>
      <trkpt lat="40.485512" lon="-4.729011">
        <ele>1288.426</ele>
        <time>2023-01-04T08:37:44Z</time>
      </trkpt>
      <trkpt lat="40.485665" lon="-4.729241">
        <ele>1290.276</ele>
        <time>2023-01-04T08:38:24Z</time>
      </trkpt>
      <trkpt lat="40.485728" lon="-4.729518">
        <ele>1290.939</ele>
        <time>2023-01-04T08:39:04Z</time>
      </trkpt>
      <trkpt lat="40.485865" lon="-4.729625">
        <ele>1293.092</ele>
        <time>2023-01-04T08:39:44Z</time>
      </trkpt>
      <trkpt lat="40.486004" lon="-4.729534">
        <ele>1294.637</ele>
        <time>2023-01-04T08:40:24Z</time>
      </trkpt>
      <trkpt lat="40.486245" lon="-4.729440">
        <ele>1297.421</ele>
        <time>2023-01-04T08:41:04Z</time>
      </trkpt>
      <trkpt lat="40.486683" lon="-4.729555">
        <ele>1302.162</ele>
        <time>2023-01-04T08:41:44Z</time>
      </trkpt>
      <trkpt lat="40.486895" lon="-4.729523">
        <ele>1303.957</ele>
        <time>2023-01-04T08:42:24Z</time>
      </trkpt>
      <trkpt lat="40.487169" lon="-4.729327">
        <ele>1306.929</ele>
        <time>2023-01-04T08:43:04Z</time>
      </trkpt>
      <trkpt lat="40.487462" lon="-4.729038">
        <ele>1310.100</ele>
        <time>2023-01-04T08:43:44Z</time>
      </trkpt>
      <trkpt lat="40.487622" lon="-4.729000">
        <ele>1312.220</ele>
        <time>2023-01-04T08:44:24Z</time>
      </trkpt>
      <trkpt lat="40.487644" lon="-4.729268">
        <ele>1313.609</ele>
        <time>2023-01-04T08:45:04Z</time>
      </trkpt>
      <trkpt lat="40.487732" lon="-4.729512">
        <ele>1316.483</ele>
        <time>2023-01-04T08:45:44Z</time>
      </trkpt>
      <trkpt lat="40.488081" lon="-4.729405">
        <ele>1322.154</ele>
        <time>2023-01-04T08:46:24Z</time>
      </trkpt>
      <trkpt lat="40.488360" lon="-4.729456">
        <ele>1325.324</ele>
        <time>2023-01-04T08:47:04Z</time>
      </trkpt>
      <trkpt lat="40.488570" lon="-4.729547">
        <ele>1328.247</ele>
        <time>2023-01-04T08:47:44Z</time>
      </trkpt>
      <trkpt lat="40.488746" lon="-4.729499">
        <ele>1329.840</ele>
        <time>2023-01-04T08:48:24Z</time>
      </trkpt>
      <trkpt lat="40.488854" lon="-4.729751">
        <ele>1331.675</ele>
        <time>2023-01-04T08:49:04Z</time>
      </trkpt>
      <trkpt lat="40.488731" lon="-4.730009">
        <ele>1329.329</ele>
        <time>2023-01-04T08:49:44Z</time>
      </trkpt>
      <trkpt lat="40.488601" lon="-4.730183">
        <ele>1327.920</ele>
        <time>2023-01-04T08:50:24Z</time>
      </trkpt>
      <trkpt lat="40.488564" lon="-4.730432">
        <ele>1326.915</ele>
        <time>2023-01-04T08:51:04Z</time>
      </trkpt>
      <trkpt lat="40.488599" lon="-4.730843">
        <ele>1325.775</ele>
        <time>2023-01-04T08:51:44Z</time>
      </trkpt>
      <trkpt lat="40.488654" lon="-4.731446">
        <ele>1326.028</ele>
        <time>2023-01-04T08:52:24Z</time>
      </trkpt>
      <trkpt lat="40.488758" lon="-4.732570">
        <ele>1331.420</ele>
        <time>2023-01-04T08:53:04Z</time>
      </trkpt>
      <trkpt lat="40.488888" lon="-4.733318">
        <ele>1332.109</ele>
        <time>2023-01-04T08:53:44Z</time>
      </trkpt>
      <trkpt lat="40.488886" lon="-4.734096">
        <ele>1323.078</ele>
        <time>2023-01-04T08:54:24Z</time>
      </trkpt>
      <trkpt lat="40.489027" lon="-4.734322">
        <ele>1323.189</ele>
        <time>2023-01-04T08:55:04Z</time>
      </trkpt>
      <trkpt lat="40.489090" lon="-4.734879">
        <ele>1320.279</ele>
        <time>2023-01-04T08:55:44Z</time>
      </trkpt>
      <trkpt lat="40.489180" lon="-4.735459">
        <ele>1318.732</ele>
        <time>2023-01-04T08:56:24Z</time>
      </trkpt>
      <trkpt lat="40.489131" lon="-4.735982">
        <ele>1315.415</ele>
        <time>2023-01-04T08:57:04Z</time>
      </trkpt>
      <trkpt lat="40.489058" lon="-4.736494">
        <ele>1311.220</ele>
        <time>2023-01-04T08:57:44Z</time>
      </trkpt>
      <trkpt lat="40.489037" lon="-4.736722">
        <ele>1311.274</ele>
        <time>2023-01-04T08:58:24Z</time>
      </trkpt>
      <trkpt lat="40.489174" lon="-4.736819">
        <ele>1314.785</ele>
        <time>2023-01-04T08:59:04Z</time>
      </trkpt>
      <trkpt lat="40.489149" lon="-4.736918">
        <ele>1315.310</ele>
        <time>2023-01-04T08:59:44Z</time>
      </trkpt>
      <trkpt lat="40.489039" lon="-4.737036">
        <ele>1314.915</ele>
        <time>2023-01-04T09:00:24Z</time>
      </trkpt>
      <trkpt lat="40.488815" lon="-4.737406">
        <ele>1319.665</ele>
        <time>2023-01-04T09:01:04Z</time>
      </trkpt>
      <trkpt lat="40.488697" lon="-4.737428">
        <ele>1320.411</ele>
        <time>2023-01-04T09:01:44Z</time>
      </trkpt>
      <trkpt lat="40.488593" lon="-4.737377">
        <ele>1319.709</ele>
        <time>2023-01-04T09:02:24Z</time>
      </trkpt>
      <trkpt lat="40.488511" lon="-4.737419">
        <ele>1320.232</ele>
        <time>2023-01-04T09:03:04Z</time>
      </trkpt>
      <trkpt lat="40.488382" lon="-4.737661">
        <ele>1322.453</ele>
        <time>2023-01-04T09:03:44Z</time>
      </trkpt>
      <trkpt lat="40.488362" lon="-4.737953">
        <ele>1324.513</ele>
        <time>2023-01-04T09:04:24Z</time>
      </trkpt>
      <trkpt lat="40.488354" lon="-4.738173">
        <ele>1326.126</ele>
        <time>2023-01-04T09:05:04Z</time>
      </trkpt>
      <trkpt lat="40.488083" lon="-4.738608">
        <ele>1325.429</ele>
        <time>2023-01-04T09:05:44Z</time>
      </trkpt>
      <trkpt lat="40.487852" lon="-4.738836">
        <ele>1322.784</ele>
        <time>2023-01-04T09:06:24Z</time>
      </trkpt>
      <trkpt lat="40.487795" lon="-4.739040">
        <ele>1323.368</ele>
        <time>2023-01-04T09:07:04Z</time>
      </trkpt>
      <trkpt lat="40.487728" lon="-4.739367">
        <ele>1324.049</ele>
        <time>2023-01-04T09:07:44Z</time>
      </trkpt>
      <trkpt lat="40.486600" lon="-4.740826">
        <ele>1314.744</ele>
        <time>2023-01-04T09:08:24Z</time>
      </trkpt>
      <trkpt lat="40.485049" lon="-4.742296">
        <ele>1304.931</ele>
        <time>2023-01-04T09:09:04Z</time>
      </trkpt>
      <trkpt lat="40.484649" lon="-4.743133">
        <ele>1308.561</ele>
        <time>2023-01-04T09:09:44Z</time>
      </trkpt>
      <trkpt lat="40.483686" lon="-4.744442">
        <ele>1305.507</ele>
        <time>2023-01-04T09:10:24Z</time>
      </trkpt>
      <trkpt lat="40.482976" lon="-4.745514">
        <ele>1306.209</ele>
        <time>2023-01-04T09:11:04Z</time>
      </trkpt>
      <trkpt lat="40.483344" lon="-4.746405">
        <ele>1315.234</ele>
        <time>2023-01-04T09:11:44Z</time>
      </trkpt>
      <trkpt lat="40.484543" lon="-4.745772">
        <ele>1323.445</ele>
        <time>2023-01-04T09:12:24Z</time>
      </trkpt>
      <trkpt lat="40.484780" lon="-4.746330">
        <ele>1333.735</ele>
        <time>2023-01-04T09:13:04Z</time>
      </trkpt>
      <trkpt lat="40.483923" lon="-4.748100">
        <ele>1339.598</ele>
        <time>2023-01-04T09:13:44Z</time>
      </trkpt>
      <trkpt lat="40.483482" lon="-4.749205">
        <ele>1342.551</ele>
        <time>2023-01-04T09:14:24Z</time>
      </trkpt>
      <trkpt lat="40.483776" lon="-4.750417">
        <ele>1350.226</ele>
        <time>2023-01-04T09:15:04Z</time>
      </trkpt>
      <trkpt lat="40.483817" lon="-4.751458">
        <ele>1348.470</ele>
        <time>2023-01-04T09:15:44Z</time>
      </trkpt>
      <trkpt lat="40.483974" lon="-4.751675">
        <ele>1351.511</ele>
        <time>2023-01-04T09:16:24Z</time>
      </trkpt>
      <trkpt lat="40.484237" lon="-4.751367">
        <ele>1360.266</ele>
        <time>2023-01-04T09:17:04Z</time>
      </trkpt>
      <trkpt lat="40.484141" lon="-4.751048">
        <ele>1360.591</ele>
        <time>2023-01-04T09:17:44Z</time>
      </trkpt>
      <trkpt lat="40.484117" lon="-4.749835">
        <ele>1364.081</ele>
        <time>2023-01-04T09:18:24Z</time>
      </trkpt>
      <trkpt lat="40.484472" lon="-4.748999">
        <ele>1366.519</ele>
        <time>2023-01-04T09:19:04Z</time>
      </trkpt>
      <trkpt lat="40.484819" lon="-4.748580">
        <ele>1369.609</ele>
        <time>2023-01-04T09:19:44Z</time>
      </trkpt>
      <trkpt lat="40.485543" lon="-4.747885">
        <ele>1377.360</ele>
        <time>2023-01-04T09:20:24Z</time>
      </trkpt>
      <trkpt lat="40.485855" lon="-4.747708">
        <ele>1379.751</ele>
        <time>2023-01-04T09:21:04Z</time>
      </trkpt>
      <trkpt lat="40.486467" lon="-4.747140">
        <ele>1379.521</ele>
        <time>2023-01-04T09:21:44Z</time>
      </trkpt>
      <trkpt lat="40.487030" lon="-4.746534">
        <ele>1384.184</ele>
        <time>2023-01-04T09:22:24Z</time>
      </trkpt>
      <trkpt lat="40.487522" lon="-4.745855">
        <ele>1388.187</ele>
        <time>2023-01-04T09:23:04Z</time>
      </trkpt>
      <trkpt lat="40.487879" lon="-4.745404">
        <ele>1391.842</ele>
        <time>2023-01-04T09:23:44Z</time>
      </trkpt>
      <trkpt lat="40.488470" lon="-4.745101">
        <ele>1400.176</ele>
        <time>2023-01-04T09:24:24Z</time>
      </trkpt>
      <trkpt lat="40.488678" lon="-4.744431">
        <ele>1399.977</ele>
        <time>2023-01-04T09:25:04Z</time>
      </trkpt>
      <trkpt lat="40.488801" lon="-4.743787">
        <ele>1399.932</ele>
        <time>2023-01-04T09:25:44Z</time>
      </trkpt>
      <trkpt lat="40.489190" lon="-4.743127">
        <ele>1408.155</ele>
        <time>2023-01-04T09:26:24Z</time>
      </trkpt>
      <trkpt lat="40.489698" lon="-4.742194">
        <ele>1413.107</ele>
        <time>2023-01-04T09:27:04Z</time>
      </trkpt>
      <trkpt lat="40.490104" lon="-4.741912">
        <ele>1416.917</ele>
        <time>2023-01-04T09:27:44Z</time>
      </trkpt>
      <trkpt lat="40.490488" lon="-4.741781">
        <ele>1419.409</ele>
        <time>2023-01-04T09:28:24Z</time>
      </trkpt>
      <trkpt lat="40.490932" lon="-4.741389">
        <ele>1421.546</ele>
        <time>2023-01-04T09:29:04Z</time>
      </trkpt>
      <trkpt lat="40.491503" lon="-4.740713">
        <ele>1422.847</ele>
        <time>2023-01-04T09:29:44Z</time>
      </trkpt>
      <trkpt lat="40.491785" lon="-4.740236">
        <ele>1422.867</ele>
        <time>2023-01-04T09:30:24Z</time>
      </trkpt>
      <trkpt lat="40.492234" lon="-4.739345">
        <ele>1425.050</ele>
        <time>2023-01-04T09:31:04Z</time>
      </trkpt>
      <trkpt lat="40.492680" lon="-4.738570">
        <ele>1432.983</ele>
        <time>2023-01-04T09:31:44Z</time>
      </trkpt>
      <trkpt lat="40.493119" lon="-4.737972">
        <ele>1437.248</ele>
        <time>2023-01-04T09:32:24Z</time>
      </trkpt>
      <trkpt lat="40.493711" lon="-4.736376">
        <ele>1444.112</ele>
        <time>2023-01-04T09:33:04Z</time>
      </trkpt>
      <trkpt lat="40.494212" lon="-4.735247">
        <ele>1451.383</ele>
        <time>2023-01-04T09:33:44Z</time>
      </trkpt>
      <trkpt lat="40.494539" lon="-4.734228">
        <ele>1455.588</ele>
        <time>2023-01-04T09:34:24Z</time>
      </trkpt>
      <trkpt lat="40.494433" lon="-4.733723">
        <ele>1455.981</ele>
        <time>2023-01-04T09:35:04Z</time>
      </trkpt>
      <trkpt lat="40.493976" lon="-4.733380">
        <ele>1452.661</ele>
        <time>2023-01-04T09:35:44Z</time>
      </trkpt>
      <trkpt lat="40.493364" lon="-4.733262">
        <ele>1455.817</ele>
        <time>2023-01-04T09:36:24Z</time>
      </trkpt>
      <trkpt lat="40.493111" lon="-4.732897">
        <ele>1463.709</ele>
        <time>2023-01-04T09:37:04Z</time>
      </trkpt>
      <trkpt lat="40.493160" lon="-4.732329">
        <ele>1470.739</ele>
        <time>2023-01-04T09:37:44Z</time>
      </trkpt>
      <trkpt lat="40.493364" lon="-4.732018">
        <ele>1470.710</ele>
        <time>2023-01-04T09:38:24Z</time>
      </trkpt>
      <trkpt lat="40.493796" lon="-4.731942">
        <ele>1477.790</ele>
        <time>2023-01-04T09:39:04Z</time>
      </trkpt>
      <trkpt lat="40.494294" lon="-4.732382">
        <ele>1479.663</ele>
        <time>2023-01-04T09:39:44Z</time>
      </trkpt>
      <trkpt lat="40.494971" lon="-4.732876">
        <ele>1482.826</ele>
        <time>2023-01-04T09:40:24Z</time>
      </trkpt>
      <trkpt lat="40.495926" lon="-4.733691">
        <ele>1490.621</ele>
        <time>2023-01-04T09:41:04Z</time>
      </trkpt>
      <trkpt lat="40.496366" lon="-4.735740">
        <ele>1504.095</ele>
        <time>2023-01-04T09:41:44Z</time>
      </trkpt>
      <trkpt lat="40.496701" lon="-4.736545">
        <ele>1511.986</ele>
        <time>2023-01-04T09:42:24Z</time>
      </trkpt>
      <trkpt lat="40.496903" lon="-4.736615">
        <ele>1513.791</ele>
        <time>2023-01-04T09:43:04Z</time>
      </trkpt>
      <trkpt lat="40.497180" lon="-4.736537">
        <ele>1514.895</ele>
        <time>2023-01-04T09:43:44Z</time>
      </trkpt>
      <trkpt lat="40.497431" lon="-4.736459">
        <ele>1515.849</ele>
        <time>2023-01-04T09:44:24Z</time>
      </trkpt>
      <trkpt lat="40.497657" lon="-4.736202">
        <ele>1515.923</ele>
        <time>2023-01-04T09:45:04Z</time>
      </trkpt>
      <trkpt lat="40.497782" lon="-4.736060">
        <ele>1516.009</ele>
        <time>2023-01-04T09:45:44Z</time>
      </trkpt>
      <trkpt lat="40.497955" lon="-4.735925">
        <ele>1516.250</ele>
        <time>2023-01-04T09:46:24Z</time>
      </trkpt>
      <trkpt lat="40.497808" lon="-4.735925">
        <ele>1516.091</ele>
        <time>2023-01-04T09:47:04Z</time>
      </trkpt>
      <trkpt lat="40.497637" lon="-4.735985">
        <ele>1515.511</ele>
        <time>2023-01-04T09:47:44Z</time>
      </trkpt>
      <trkpt lat="40.497484" lon="-4.736092">
        <ele>1514.964</ele>
        <time>2023-01-04T09:48:24Z</time>
      </trkpt>
      <trkpt lat="40.497311" lon="-4.736129">
        <ele>1514.427</ele>
        <time>2023-01-04T09:49:04Z</time>
      </trkpt>
      <trkpt lat="40.497345" lon="-4.735909">
        <ele>1514.462</ele>
        <time>2023-01-04T09:49:44Z</time>
      </trkpt>
      <trkpt lat="40.497370" lon="-4.735663">
        <ele>1513.976</ele>
        <time>2023-01-04T09:50:24Z</time>
      </trkpt>
      <trkpt lat="40.497453" lon="-4.735054">
        <ele>1512.897</ele>
        <time>2023-01-04T09:51:04Z</time>
      </trkpt>
      <trkpt lat="40.497539" lon="-4.734099">
        <ele>1511.252</ele>
        <time>2023-01-04T09:51:44Z</time>
      </trkpt>
      <trkpt lat="40.497625" lon="-4.733187">
        <ele>1512.763</ele>
        <time>2023-01-04T09:52:24Z</time>
      </trkpt>
      <trkpt lat="40.497719" lon="-4.732087">
        <ele>1514.644</ele>
        <time>2023-01-04T09:53:04Z</time>
      </trkpt>
      <trkpt lat="40.497827" lon="-4.731283">
        <ele>1515.118</ele>
        <time>2023-01-04T09:53:44Z</time>
      </trkpt>
      <trkpt lat="40.497984" lon="-4.730633">
        <ele>1515.309</ele>
        <time>2023-01-04T09:54:24Z</time>
      </trkpt>
      <trkpt lat="40.498357" lon="-4.728713">
        <ele>1517.627</ele>
        <time>2023-01-04T09:55:04Z</time>
      </trkpt>
      <trkpt lat="40.498445" lon="-4.727908">
        <ele>1519.098</ele>
        <time>2023-01-04T09:55:44Z</time>
      </trkpt>
      <trkpt lat="40.498404" lon="-4.726819">
        <ele>1521.138</ele>
        <time>2023-01-04T09:56:24Z</time>
      </trkpt>
      <trkpt lat="40.498279" lon="-4.726015">
        <ele>1522.161</ele>
        <time>2023-01-04T09:57:04Z</time>
      </trkpt>
      <trkpt lat="40.497778" lon="-4.723206">
        <ele>1530.054</ele>
        <time>2023-01-04T09:57:44Z</time>
      </trkpt>
      <trkpt lat="40.497525" lon="-4.722737">
        <ele>1530.089</ele>
        <time>2023-01-04T09:58:24Z</time>
      </trkpt>
      <trkpt lat="40.497162" lon="-4.722249">
        <ele>1531.463</ele>
        <time>2023-01-04T09:59:04Z</time>
      </trkpt>
      <trkpt lat="40.496725" lon="-4.721889">
        <ele>1535.684</ele>
        <time>2023-01-04T09:59:44Z</time>
      </trkpt>
      <trkpt lat="40.496466" lon="-4.721490">
        <ele>1537.429</ele>
        <time>2023-01-04T10:00:24Z</time>
      </trkpt>
      <trkpt lat="40.496360" lon="-4.720151">
        <ele>1542.651</ele>
        <time>2023-01-04T10:01:04Z</time>
      </trkpt>
      <trkpt lat="40.496346" lon="-4.719784">
        <ele>1544.701</ele>
        <time>2023-01-04T10:01:44Z</time>
      </trkpt>
      <trkpt lat="40.496650" lon="-4.719422">
        <ele>1544.111</ele>
        <time>2023-01-04T10:02:24Z</time>
      </trkpt>
      <trkpt lat="40.497231" lon="-4.718808">
        <ele>1538.409</ele>
        <time>2023-01-04T10:03:04Z</time>
      </trkpt>
      <trkpt lat="40.497863" lon="-4.718049">
        <ele>1530.736</ele>
        <time>2023-01-04T10:03:44Z</time>
      </trkpt>
      <trkpt lat="40.498598" lon="-4.717872">
        <ele>1523.827</ele>
        <time>2023-01-04T10:04:24Z</time>
      </trkpt>
      <trkpt lat="40.499138" lon="-4.716120">
        <ele>1524.677</ele>
        <time>2023-01-04T10:05:04Z</time>
      </trkpt>
      <trkpt lat="40.499193" lon="-4.715627">
        <ele>1526.410</ele>
        <time>2023-01-04T10:05:44Z</time>
      </trkpt>
      <trkpt lat="40.500213" lon="-4.715500">
        <ele>1527.063</ele>
        <time>2023-01-04T10:06:24Z</time>
      </trkpt>
      <trkpt lat="40.501445" lon="-4.715152">
        <ele>1519.758</ele>
        <time>2023-01-04T10:07:04Z</time>
      </trkpt>
      <trkpt lat="40.502456" lon="-4.714100">
        <ele>1519.682</ele>
        <time>2023-01-04T10:07:44Z</time>
      </trkpt>
      <trkpt lat="40.502754" lon="-4.712995">
        <ele>1519.673</ele>
        <time>2023-01-04T10:08:24Z</time>
      </trkpt>
      <trkpt lat="40.502575" lon="-4.711692">
        <ele>1523.438</ele>
        <time>2023-01-04T10:09:04Z</time>
      </trkpt>
      <trkpt lat="40.502942" lon="-4.710512">
        <ele>1520.049</ele>
        <time>2023-01-04T10:09:44Z</time>
      </trkpt>
      <trkpt lat="40.503403" lon="-4.709954">
        <ele>1518.702</ele>
        <time>2023-01-04T10:10:24Z</time>
      </trkpt>
      <trkpt lat="40.503958" lon="-4.708720">
        <ele>1518.422</ele>
        <time>2023-01-04T10:11:04Z</time>
      </trkpt>
      <trkpt lat="40.504728" lon="-4.707534">
        <ele>1518.809</ele>
        <time>2023-01-04T10:11:44Z</time>
      </trkpt>
      <trkpt lat="40.505707" lon="-4.706537">
        <ele>1520.575</ele>
        <time>2023-01-04T10:12:24Z</time>
      </trkpt>
      <trkpt lat="40.506270" lon="-4.705399">
        <ele>1522.676</ele>
        <time>2023-01-04T10:13:04Z</time>
      </trkpt>
      <trkpt lat="40.507608" lon="-4.703323">
        <ele>1526.416</ele>
        <time>2023-01-04T10:13:44Z</time>
      </trkpt>
      <trkpt lat="40.507800" lon="-4.702792">
        <ele>1528.179</ele>
        <time>2023-01-04T10:14:24Z</time>
      </trkpt>
      <trkpt lat="40.508799" lon="-4.701065">
        <ele>1529.612</ele>
        <time>2023-01-04T10:15:04Z</time>
      </trkpt>
      <trkpt lat="40.509435" lon="-4.699734">
        <ele>1530.037</ele>
        <time>2023-01-04T10:15:44Z</time>
      </trkpt>
      <trkpt lat="40.509500" lon="-4.698903">
        <ele>1528.951</ele>
        <time>2023-01-04T10:16:24Z</time>
      </trkpt>
      <trkpt lat="40.509733" lon="-4.697626">
        <ele>1524.452</ele>
        <time>2023-01-04T10:17:04Z</time>
      </trkpt>
      <trkpt lat="40.510137" lon="-4.696387">
        <ele>1520.577</ele>
        <time>2023-01-04T10:17:44Z</time>
      </trkpt>
      <trkpt lat="40.511058" lon="-4.695357">
        <ele>1517.861</ele>
        <time>2023-01-04T10:18:24Z</time>
      </trkpt>
      <trkpt lat="40.511654" lon="-4.693801">
        <ele>1512.921</ele>
        <time>2023-01-04T10:19:04Z</time>
      </trkpt>
      <trkpt lat="40.512176" lon="-4.693415">
        <ele>1511.013</ele>
        <time>2023-01-04T10:19:44Z</time>
      </trkpt>
      <trkpt lat="40.512853" lon="-4.693104">
        <ele>1509.409</ele>
        <time>2023-01-04T10:20:24Z</time>
      </trkpt>
      <trkpt lat="40.513775" lon="-4.692203">
        <ele>1510.087</ele>
        <time>2023-01-04T10:21:04Z</time>
      </trkpt>
      <trkpt lat="40.513905" lon="-4.691656">
        <ele>1510.048</ele>
        <time>2023-01-04T10:21:44Z</time>
      </trkpt>
      <trkpt lat="40.513783" lon="-4.691151">
        <ele>1509.398</ele>
        <time>2023-01-04T10:22:24Z</time>
      </trkpt>
      <trkpt lat="40.513677" lon="-4.690808">
        <ele>1507.321</ele>
        <time>2023-01-04T10:23:04Z</time>
      </trkpt>
      <trkpt lat="40.513807" lon="-4.690261">
        <ele>1506.134</ele>
        <time>2023-01-04T10:23:44Z</time>
      </trkpt>
      <trkpt lat="40.513970" lon="-4.689499">
        <ele>1504.469</ele>
        <time>2023-01-04T10:24:24Z</time>
      </trkpt>
      <trkpt lat="40.514146" lon="-4.688678">
        <ele>1503.953</ele>
        <time>2023-01-04T10:25:04Z</time>
      </trkpt>
      <trkpt lat="40.514484" lon="-4.687809">
        <ele>1503.564</ele>
        <time>2023-01-04T10:25:44Z</time>
      </trkpt>
      <trkpt lat="40.514572" lon="-4.687182">
        <ele>1500.869</ele>
        <time>2023-01-04T10:26:24Z</time>
      </trkpt>
      <trkpt lat="40.514439" lon="-4.687005">
        <ele>1499.251</ele>
        <time>2023-01-04T10:27:04Z</time>
      </trkpt>
      <trkpt lat="40.514352" lon="-4.687040">
        <ele>1498.801</ele>
        <time>2023-01-04T10:27:44Z</time>
      </trkpt>
      <trkpt lat="40.513987" lon="-4.687292">
        <ele>1494.911</ele>
        <time>2023-01-04T10:28:24Z</time>
      </trkpt>
      <trkpt lat="40.513773" lon="-4.687544">
        <ele>1493.109</ele>
        <time>2023-01-04T10:29:04Z</time>
      </trkpt>
      <trkpt lat="40.513601" lon="-4.687243">
        <ele>1489.926</ele>
        <time>2023-01-04T10:29:44Z</time>
      </trkpt>
      <trkpt lat="40.513801" lon="-4.686758">
        <ele>1488.387</ele>
        <time>2023-01-04T10:30:24Z</time>
      </trkpt>
      <trkpt lat="40.513767" lon="-4.686087">
        <ele>1483.877</ele>
        <time>2023-01-04T10:31:04Z</time>
      </trkpt>
      <trkpt lat="40.513744" lon="-4.685594">
        <ele>1481.190</ele>
        <time>2023-01-04T10:31:44Z</time>
      </trkpt>
      <trkpt lat="40.513673" lon="-4.685049">
        <ele>1476.913</ele>
        <time>2023-01-04T10:32:24Z</time>
      </trkpt>
      <trkpt lat="40.513638" lon="-4.684424">
        <ele>1473.458</ele>
        <time>2023-01-04T10:33:04Z</time>
      </trkpt>
      <trkpt lat="40.513610" lon="-4.684282">
        <ele>1471.892</ele>
        <time>2023-01-04T10:33:44Z</time>
      </trkpt>
      <trkpt lat="40.513314" lon="-4.684736">
        <ele>1468.623</ele>
        <time>2023-01-04T10:34:24Z</time>
      </trkpt>
      <trkpt lat="40.513079" lon="-4.685495">
        <ele>1468.058</ele>
        <time>2023-01-04T10:35:04Z</time>
      </trkpt>
      <trkpt lat="40.512567" lon="-4.686106">
        <ele>1464.761</ele>
        <time>2023-01-04T10:35:44Z</time>
      </trkpt>
      <trkpt lat="40.512207" lon="-4.686315">
        <ele>1460.521</ele>
        <time>2023-01-04T10:36:24Z</time>
      </trkpt>
      <trkpt lat="40.512137" lon="-4.686592">
        <ele>1459.813</ele>
        <time>2023-01-04T10:37:04Z</time>
      </trkpt>
      <trkpt lat="40.512076" lon="-4.687037">
        <ele>1461.909</ele>
        <time>2023-01-04T10:37:44Z</time>
      </trkpt>
      <trkpt lat="40.511450" lon="-4.687359">
        <ele>1458.277</ele>
        <time>2023-01-04T10:38:24Z</time>
      </trkpt>
      <trkpt lat="40.511434" lon="-4.686299">
        <ele>1448.118</ele>
        <time>2023-01-04T10:39:04Z</time>
      </trkpt>
      <trkpt lat="40.511370" lon="-4.685379">
        <ele>1440.538</ele>
        <time>2023-01-04T10:39:44Z</time>
      </trkpt>
      <trkpt lat="40.511485" lon="-4.684835">
        <ele>1437.551</ele>
        <time>2023-01-04T10:40:24Z</time>
      </trkpt>
      <trkpt lat="40.511717" lon="-4.683665">
        <ele>1429.674</ele>
        <time>2023-01-04T10:41:04Z</time>
      </trkpt>
      <trkpt lat="40.511593" lon="-4.682885">
        <ele>1422.219</ele>
        <time>2023-01-04T10:41:44Z</time>
      </trkpt>
      <trkpt lat="40.511980" lon="-4.681895">
        <ele>1418.253</ele>
        <time>2023-01-04T10:42:24Z</time>
      </trkpt>
      <trkpt lat="40.512096" lon="-4.681364">
        <ele>1414.194</ele>
        <time>2023-01-04T10:43:04Z</time>
      </trkpt>
      <trkpt lat="40.512050" lon="-4.680364">
        <ele>1404.649</ele>
        <time>2023-01-04T10:43:44Z</time>
      </trkpt>
      <trkpt lat="40.512274" lon="-4.679610">
        <ele>1400.249</ele>
        <time>2023-01-04T10:44:24Z</time>
      </trkpt>
      <trkpt lat="40.512425" lon="-4.678636">
        <ele>1393.102</ele>
        <time>2023-01-04T10:45:04Z</time>
      </trkpt>
      <trkpt lat="40.512504" lon="-4.677955">
        <ele>1387.722</ele>
        <time>2023-01-04T10:45:44Z</time>
      </trkpt>
      <trkpt lat="40.512433" lon="-4.677249">
        <ele>1382.709</ele>
        <time>2023-01-04T10:46:24Z</time>
      </trkpt>
      <trkpt lat="40.512380" lon="-4.677013">
        <ele>1380.355</ele>
        <time>2023-01-04T10:47:04Z</time>
      </trkpt>
      <trkpt lat="40.512665" lon="-4.677051">
        <ele>1384.136</ele>
        <time>2023-01-04T10:47:44Z</time>
      </trkpt>
      <trkpt lat="40.512959" lon="-4.677091">
        <ele>1388.716</ele>
        <time>2023-01-04T10:48:24Z</time>
      </trkpt>
      <trkpt lat="40.513424" lon="-4.676794">
        <ele>1393.439</ele>
        <time>2023-01-04T10:49:04Z</time>
      </trkpt>
      <trkpt lat="40.513512" lon="-4.676627">
        <ele>1394.112</ele>
        <time>2023-01-04T10:49:44Z</time>
      </trkpt>
      <trkpt lat="40.513771" lon="-4.676174">
        <ele>1396.037</ele>
        <time>2023-01-04T10:50:24Z</time>
      </trkpt>
      <trkpt lat="40.513956" lon="-4.675372">
        <ele>1395.461</ele>
        <time>2023-01-04T10:51:04Z</time>
      </trkpt>
      <trkpt lat="40.514113" lon="-4.674927">
        <ele>1397.272</ele>
        <time>2023-01-04T10:51:44Z</time>
      </trkpt>
      <trkpt lat="40.514301" lon="-4.674508">
        <ele>1397.467</ele>
        <time>2023-01-04T10:52:24Z</time>
      </trkpt>
      <trkpt lat="40.514517" lon="-4.674031">
        <ele>1398.916</ele>
        <time>2023-01-04T10:53:04Z</time>
      </trkpt>
      <trkpt lat="40.514635" lon="-4.673873">
        <ele>1400.776</ele>
        <time>2023-01-04T10:53:44Z</time>
      </trkpt>
      <trkpt lat="40.514792" lon="-4.673674">
        <ele>1402.813</ele>
        <time>2023-01-04T10:54:24Z</time>
      </trkpt>
      <trkpt lat="40.514737" lon="-4.673116">
        <ele>1402.009</ele>
        <time>2023-01-04T10:55:04Z</time>
      </trkpt>
      <trkpt lat="40.514837" lon="-4.672387">
        <ele>1403.462</ele>
        <time>2023-01-04T10:55:44Z</time>
      </trkpt>
      <trkpt lat="40.514876" lon="-4.672035">
        <ele>1405.153</ele>
        <time>2023-01-04T10:56:24Z</time>
      </trkpt>
      <trkpt lat="40.515061" lon="-4.671400">
        <ele>1406.773</ele>
        <time>2023-01-04T10:57:04Z</time>
      </trkpt>
      <trkpt lat="40.515271" lon="-4.670989">
        <ele>1407.566</ele>
        <time>2023-01-04T10:57:44Z</time>
      </trkpt>
      <trkpt lat="40.515481" lon="-4.670842">
        <ele>1410.079</ele>
        <time>2023-01-04T10:58:24Z</time>
      </trkpt>
      <trkpt lat="40.515726" lon="-4.670464">
        <ele>1414.524</ele>
        <time>2023-01-04T10:59:04Z</time>
      </trkpt>
      <trkpt lat="40.516216" lon="-4.669916">
        <ele>1420.738</ele>
        <time>2023-01-04T10:59:44Z</time>
      </trkpt>
      <trkpt lat="40.516356" lon="-4.669621">
        <ele>1421.629</ele>
        <time>2023-01-04T11:00:24Z</time>
      </trkpt>
      <trkpt lat="40.516544" lon="-4.669058">
        <ele>1424.864</ele>
        <time>2023-01-04T11:01:04Z</time>
      </trkpt>
      <trkpt lat="40.516629" lon="-4.668699">
        <ele>1425.613</ele>
        <time>2023-01-04T11:01:44Z</time>
      </trkpt>
      <trkpt lat="40.516829" lon="-4.668428">
        <ele>1427.743</ele>
        <time>2023-01-04T11:02:24Z</time>
      </trkpt>
      <trkpt lat="40.517074" lon="-4.667988">
        <ele>1430.107</ele>
        <time>2023-01-04T11:03:04Z</time>
      </trkpt>
      <trkpt lat="40.517394" lon="-4.667352">
        <ele>1430.509</ele>
        <time>2023-01-04T11:03:44Z</time>
      </trkpt>
      <trkpt lat="40.517533" lon="-4.667140">
        <ele>1431.062</ele>
        <time>2023-01-04T11:04:24Z</time>
      </trkpt>
      <trkpt lat="40.517761" lon="-4.667014">
        <ele>1432.443</ele>
        <time>2023-01-04T11:05:04Z</time>
      </trkpt>
      <trkpt lat="40.518026" lon="-4.666955">
        <ele>1435.723</ele>
        <time>2023-01-04T11:05:44Z</time>
      </trkpt>
      <trkpt lat="40.518253" lon="-4.666840">
        <ele>1437.036</ele>
        <time>2023-01-04T11:06:24Z</time>
      </trkpt>
      <trkpt lat="40.518513" lon="-4.666727">
        <ele>1438.319</ele>
        <time>2023-01-04T11:07:04Z</time>
      </trkpt>
      <trkpt lat="40.518760" lon="-4.666218">
        <ele>1435.574</ele>
        <time>2023-01-04T11:07:44Z</time>
      </trkpt>
      <trkpt lat="40.518685" lon="-4.665239">
        <ele>1428.678</ele>
        <time>2023-01-04T11:08:24Z</time>
      </trkpt>
      <trkpt lat="40.518597" lon="-4.665129">
        <ele>1428.419</ele>
        <time>2023-01-04T11:09:04Z</time>
      </trkpt>
      <trkpt lat="40.518330" lon="-4.664777">
        <ele>1426.274</ele>
        <time>2023-01-04T11:09:44Z</time>
      </trkpt>
      <trkpt lat="40.518401" lon="-4.664420">
        <ele>1425.765</ele>
        <time>2023-01-04T11:10:24Z</time>
      </trkpt>
      <trkpt lat="40.518422" lon="-4.663675">
        <ele>1422.768</ele>
        <time>2023-01-04T11:11:04Z</time>
      </trkpt>
      <trkpt lat="40.518399" lon="-4.663251">
        <ele>1421.214</ele>
        <time>2023-01-04T11:11:44Z</time>
      </trkpt>
      <trkpt lat="40.518475" lon="-4.662723">
        <ele>1418.809</ele>
        <time>2023-01-04T11:12:24Z</time>
      </trkpt>
      <trkpt lat="40.518405" lon="-4.662589">
        <ele>1419.317</ele>
        <time>2023-01-04T11:13:04Z</time>
      </trkpt>
      <trkpt lat="40.518440" lon="-4.662310">
        <ele>1417.148</ele>
        <time>2023-01-04T11:13:44Z</time>
      </trkpt>
      <trkpt lat="40.518375" lon="-4.661902">
        <ele>1416.168</ele>
        <time>2023-01-04T11:14:24Z</time>
      </trkpt>
      <trkpt lat="40.518259" lon="-4.661591">
        <ele>1414.341</ele>
        <time>2023-01-04T11:15:04Z</time>
      </trkpt>
      <trkpt lat="40.518177" lon="-4.661298">
        <ele>1411.864</ele>
        <time>2023-01-04T11:15:44Z</time>
      </trkpt>
      <trkpt lat="40.518222" lon="-4.660845">
        <ele>1410.689</ele>
        <time>2023-01-04T11:16:24Z</time>
      </trkpt>
      <trkpt lat="40.518002" lon="-4.660327">
        <ele>1408.873</ele>
        <time>2023-01-04T11:17:04Z</time>
      </trkpt>
      <trkpt lat="40.517800" lon="-4.660067">
        <ele>1407.214</ele>
        <time>2023-01-04T11:17:44Z</time>
      </trkpt>
      <trkpt lat="40.517751" lon="-4.659735">
        <ele>1404.699</ele>
        <time>2023-01-04T11:18:24Z</time>
      </trkpt>
      <trkpt lat="40.517900" lon="-4.659260">
        <ele>1403.697</ele>
        <time>2023-01-04T11:19:04Z</time>
      </trkpt>
      <trkpt lat="40.517894" lon="-4.658850">
        <ele>1399.823</ele>
        <time>2023-01-04T11:19:44Z</time>
      </trkpt>
      <trkpt lat="40.517837" lon="-4.658302">
        <ele>1395.425</ele>
        <time>2023-01-04T11:20:24Z</time>
      </trkpt>
      <trkpt lat="40.517779" lon="-4.657972">
        <ele>1393.009</ele>
        <time>2023-01-04T11:21:04Z</time>
      </trkpt>
      <trkpt lat="40.517816" lon="-4.657801">
        <ele>1393.460</ele>
        <time>2023-01-04T11:21:44Z</time>
      </trkpt>
      <trkpt lat="40.518049" lon="-4.657664">
        <ele>1395.541</ele>
        <time>2023-01-04T11:22:24Z</time>
      </trkpt>
      <trkpt lat="40.518285" lon="-4.657685">
        <ele>1396.591</ele>
        <time>2023-01-04T11:23:04Z</time>
      </trkpt>
      <trkpt lat="40.518509" lon="-4.657731">
        <ele>1397.414</ele>
        <time>2023-01-04T11:23:44Z</time>
      </trkpt>
      <trkpt lat="40.518715" lon="-4.657836">
        <ele>1395.717</ele>
        <time>2023-01-04T11:24:24Z</time>
      </trkpt>
      <trkpt lat="40.519123" lon="-4.658026">
        <ele>1388.182</ele>
        <time>2023-01-04T11:25:04Z</time>
      </trkpt>
      <trkpt lat="40.519245" lon="-4.657970">
        <ele>1385.296</ele>
        <time>2023-01-04T11:25:44Z</time>
      </trkpt>
      <trkpt lat="40.518032" lon="-4.657460">
        <ele>1394.757</ele>
        <time>2023-01-04T11:26:24Z</time>
      </trkpt>
      <trkpt lat="40.517759" lon="-4.657444">
        <ele>1392.662</ele>
        <time>2023-01-04T11:27:04Z</time>
      </trkpt>
      <trkpt lat="40.517816" lon="-4.656835">
        <ele>1392.174</ele>
        <time>2023-01-04T11:27:44Z</time>
      </trkpt>
      <trkpt lat="40.517945" lon="-4.655966">
        <ele>1390.756</ele>
        <time>2023-01-04T11:28:24Z</time>
      </trkpt>
      <trkpt lat="40.518136" lon="-4.655510">
        <ele>1388.021</ele>
        <time>2023-01-04T11:29:04Z</time>
      </trkpt>
      <trkpt lat="40.518232" lon="-4.654805">
        <ele>1387.109</ele>
        <time>2023-01-04T11:29:44Z</time>
      </trkpt>
      <trkpt lat="40.518149" lon="-4.654306">
        <ele>1389.798</ele>
        <time>2023-01-04T11:30:24Z</time>
      </trkpt>
      <trkpt lat="40.517612" lon="-4.653928">
        <ele>1395.179</ele>
        <time>2023-01-04T11:31:04Z</time>
      </trkpt>
      <trkpt lat="40.517347" lon="-4.653874">
        <ele>1397.659</ele>
        <time>2023-01-04T11:31:44Z</time>
      </trkpt>
      <trkpt lat="40.517135" lon="-4.653941">
        <ele>1400.312</ele>
        <time>2023-01-04T11:32:24Z</time>
      </trkpt>
      <trkpt lat="40.516974" lon="-4.653869">
        <ele>1402.665</ele>
        <time>2023-01-04T11:33:04Z</time>
      </trkpt>
      <trkpt lat="40.516888" lon="-4.653659">
        <ele>1404.130</ele>
        <time>2023-01-04T11:33:44Z</time>
      </trkpt>
      <trkpt lat="40.516748" lon="-4.653517">
        <ele>1406.084</ele>
        <time>2023-01-04T11:34:24Z</time>
      </trkpt>
      <trkpt lat="40.516625" lon="-4.653598">
        <ele>1408.815</ele>
        <time>2023-01-04T11:35:04Z</time>
      </trkpt>
      <trkpt lat="40.516552" lon="-4.653987">
        <ele>1412.930</ele>
        <time>2023-01-04T11:35:44Z</time>
      </trkpt>
      <trkpt lat="40.516350" lon="-4.654427">
        <ele>1415.855</ele>
        <time>2023-01-04T11:36:24Z</time>
      </trkpt>
      <trkpt lat="40.516122" lon="-4.654901">
        <ele>1420.107</ele>
        <time>2023-01-04T11:37:04Z</time>
      </trkpt>
      <trkpt lat="40.515881" lon="-4.655172">
        <ele>1423.517</ele>
        <time>2023-01-04T11:37:44Z</time>
      </trkpt>
      <trkpt lat="40.515749" lon="-4.655679">
        <ele>1424.109</ele>
        <time>2023-01-04T11:38:24Z</time>
      </trkpt>
      <trkpt lat="40.515528" lon="-4.656041">
        <ele>1427.396</ele>
        <time>2023-01-04T11:39:04Z</time>
      </trkpt>
      <trkpt lat="40.515488" lon="-4.656497">
        <ele>1427.417</ele>
        <time>2023-01-04T11:39:44Z</time>
      </trkpt>
      <trkpt lat="40.515437" lon="-4.656894">
        <ele>1427.757</ele>
        <time>2023-01-04T11:40:24Z</time>
      </trkpt>
      <trkpt lat="40.514941" lon="-4.657141">
        <ele>1429.390</ele>
        <time>2023-01-04T11:41:04Z</time>
      </trkpt>
      <trkpt lat="40.514792" lon="-4.657077">
        <ele>1429.553</ele>
        <time>2023-01-04T11:41:44Z</time>
      </trkpt>
      <trkpt lat="40.514751" lon="-4.656857">
        <ele>1430.628</ele>
        <time>2023-01-04T11:42:24Z</time>
      </trkpt>
      <trkpt lat="40.514751" lon="-4.656301">
        <ele>1433.172</ele>
        <time>2023-01-04T11:43:04Z</time>
      </trkpt>
      <trkpt lat="40.514598" lon="-4.656020">
        <ele>1434.913</ele>
        <time>2023-01-04T11:43:44Z</time>
      </trkpt>
      <trkpt lat="40.514272" lon="-4.655778">
        <ele>1438.658</ele>
        <time>2023-01-04T11:44:24Z</time>
      </trkpt>
      <trkpt lat="40.513856" lon="-4.655459">
        <ele>1439.834</ele>
        <time>2023-01-04T11:45:04Z</time>
      </trkpt>
      <trkpt lat="40.513707" lon="-4.655403">
        <ele>1439.455</ele>
        <time>2023-01-04T11:45:44Z</time>
      </trkpt>
      <trkpt lat="40.513361" lon="-4.655298">
        <ele>1440.010</ele>
        <time>2023-01-04T11:46:24Z</time>
      </trkpt>
      <trkpt lat="40.513098" lon="-4.655140">
        <ele>1442.109</ele>
        <time>2023-01-04T11:47:04Z</time>
      </trkpt>
      <trkpt lat="40.512918" lon="-4.655041">
        <ele>1444.194</ele>
        <time>2023-01-04T11:47:44Z</time>
      </trkpt>
      <trkpt lat="40.512680" lon="-4.655296">
        <ele>1447.155</ele>
        <time>2023-01-04T11:48:24Z</time>
      </trkpt>
      <trkpt lat="40.512149" lon="-4.655792">
        <ele>1456.335</ele>
        <time>2023-01-04T11:49:04Z</time>
      </trkpt>
      <trkpt lat="40.511986" lon="-4.656664">
        <ele>1459.598</ele>
        <time>2023-01-04T11:49:44Z</time>
      </trkpt>
      <trkpt lat="40.511597" lon="-4.656642">
        <ele>1460.131</ele>
        <time>2023-01-04T11:50:24Z</time>
      </trkpt>
      <trkpt lat="40.511581" lon="-4.656009">
        <ele>1462.066</ele>
        <time>2023-01-04T11:51:04Z</time>
      </trkpt>
      <trkpt lat="40.511336" lon="-4.655714">
        <ele>1464.390</ele>
        <time>2023-01-04T11:51:44Z</time>
      </trkpt>
      <trkpt lat="40.511075" lon="-4.655365">
        <ele>1465.371</ele>
        <time>2023-01-04T11:52:24Z</time>
      </trkpt>
      <trkpt lat="40.510657" lon="-4.655137">
        <ele>1464.286</ele>
        <time>2023-01-04T11:53:04Z</time>
      </trkpt>
      <trkpt lat="40.510363" lon="-4.655172">
        <ele>1464.513</ele>
        <time>2023-01-04T11:53:44Z</time>
      </trkpt>
      <trkpt lat="40.510143" lon="-4.654773">
        <ele>1468.243</ele>
        <time>2023-01-04T11:54:24Z</time>
      </trkpt>
      <trkpt lat="40.509876" lon="-4.654579">
        <ele>1469.507</ele>
        <time>2023-01-04T11:55:04Z</time>
      </trkpt>
      <trkpt lat="40.509602" lon="-4.654346">
        <ele>1470.009</ele>
        <time>2023-01-04T11:55:44Z</time>
      </trkpt>
      <trkpt lat="40.509207" lon="-4.654070">
        <ele>1470.062</ele>
        <time>2023-01-04T11:56:24Z</time>
      </trkpt>
      <trkpt lat="40.508905" lon="-4.653689">
        <ele>1470.073</ele>
        <time>2023-01-04T11:57:04Z</time>
      </trkpt>
      <trkpt lat="40.508542" lon="-4.652667">
        <ele>1470.073</ele>
        <time>2023-01-04T11:57:44Z</time>
      </trkpt>
      <trkpt lat="40.508289" lon="-4.652029">
        <ele>1470.086</ele>
        <time>2023-01-04T11:58:24Z</time>
      </trkpt>
      <trkpt lat="40.508259" lon="-4.651656">
        <ele>1468.679</ele>
        <time>2023-01-04T11:59:04Z</time>
      </trkpt>
      <trkpt lat="40.508426" lon="-4.651004">
        <ele>1463.614</ele>
        <time>2023-01-04T11:59:44Z</time>
      </trkpt>
      <trkpt lat="40.508230" lon="-4.650661">
        <ele>1460.878</ele>
        <time>2023-01-04T12:00:24Z</time>
      </trkpt>
      <trkpt lat="40.508008" lon="-4.650347">
        <ele>1459.279</ele>
        <time>2023-01-04T12:01:04Z</time>
      </trkpt>
      <trkpt lat="40.507914" lon="-4.650044">
        <ele>1457.744</ele>
        <time>2023-01-04T12:01:44Z</time>
      </trkpt>
      <trkpt lat="40.507918" lon="-4.649735">
        <ele>1456.526</ele>
        <time>2023-01-04T12:02:24Z</time>
      </trkpt>
      <trkpt lat="40.508059" lon="-4.648933">
        <ele>1454.047</ele>
        <time>2023-01-04T12:03:04Z</time>
      </trkpt>
      <trkpt lat="40.508057" lon="-4.648459">
        <ele>1454.011</ele>
        <time>2023-01-04T12:03:44Z</time>
      </trkpt>
      <trkpt lat="40.507995" lon="-4.648129">
        <ele>1454.009</ele>
        <time>2023-01-04T12:04:24Z</time>
      </trkpt>
      <trkpt lat="40.507973" lon="-4.647552">
        <ele>1453.813</ele>
        <time>2023-01-04T12:05:04Z</time>
      </trkpt>
      <trkpt lat="40.507922" lon="-4.647064">
        <ele>1453.564</ele>
        <time>2023-01-04T12:05:44Z</time>
      </trkpt>
      <trkpt lat="40.507965" lon="-4.646613">
        <ele>1453.744</ele>
        <time>2023-01-04T12:06:24Z</time>
      </trkpt>
      <trkpt lat="40.508000" lon="-4.646399">
        <ele>1453.847</ele>
        <time>2023-01-04T12:07:04Z</time>
      </trkpt>
      <trkpt lat="40.507906" lon="-4.646131">
        <ele>1453.030</ele>
        <time>2023-01-04T12:07:44Z</time>
      </trkpt>
      <trkpt lat="40.507736" lon="-4.645911">
        <ele>1451.755</ele>
        <time>2023-01-04T12:08:24Z</time>
      </trkpt>
      <trkpt lat="40.507494" lon="-4.645683">
        <ele>1449.469</ele>
        <time>2023-01-04T12:09:04Z</time>
      </trkpt>
      <trkpt lat="40.507094" lon="-4.645621">
        <ele>1446.710</ele>
        <time>2023-01-04T12:09:44Z</time>
      </trkpt>
      <trkpt lat="40.506974" lon="-4.645441">
        <ele>1445.725</ele>
        <time>2023-01-04T12:10:24Z</time>
      </trkpt>
      <trkpt lat="40.506843" lon="-4.645235">
        <ele>1444.664</ele>
        <time>2023-01-04T12:11:04Z</time>
      </trkpt>
      <trkpt lat="40.506719" lon="-4.644969">
        <ele>1443.406</ele>
        <time>2023-01-04T12:11:44Z</time>
      </trkpt>
      <trkpt lat="40.506586" lon="-4.644776">
        <ele>1442.516</ele>
        <time>2023-01-04T12:12:24Z</time>
      </trkpt>
      <trkpt lat="40.506437" lon="-4.644736">
        <ele>1441.409</ele>
        <time>2023-01-04T12:13:04Z</time>
      </trkpt>
      <trkpt lat="40.506144" lon="-4.644712">
        <ele>1438.317</ele>
        <time>2023-01-04T12:13:44Z</time>
      </trkpt>
      <trkpt lat="40.505940" lon="-4.645033">
        <ele>1436.058</ele>
        <time>2023-01-04T12:14:24Z</time>
      </trkpt>
      <trkpt lat="40.505722" lon="-4.645047">
        <ele>1432.528</ele>
        <time>2023-01-04T12:15:04Z</time>
      </trkpt>
      <trkpt lat="40.505424" lon="-4.644926">
        <ele>1428.911</ele>
        <time>2023-01-04T12:15:44Z</time>
      </trkpt>
      <trkpt lat="40.505032" lon="-4.644854">
        <ele>1423.544</ele>
        <time>2023-01-04T12:16:24Z</time>
      </trkpt>
      <trkpt lat="40.504396" lon="-4.644830">
        <ele>1422.539</ele>
        <time>2023-01-04T12:17:04Z</time>
      </trkpt>
      <trkpt lat="40.504076" lon="-4.644805">
        <ele>1423.883</ele>
        <time>2023-01-04T12:17:44Z</time>
      </trkpt>
      <trkpt lat="40.504043" lon="-4.644696">
        <ele>1423.734</ele>
        <time>2023-01-04T12:18:24Z</time>
      </trkpt>
      <trkpt lat="40.503986" lon="-4.644159">
        <ele>1423.299</ele>
        <time>2023-01-04T12:19:04Z</time>
      </trkpt>
      <trkpt lat="40.503880" lon="-4.643108">
        <ele>1426.262</ele>
        <time>2023-01-04T12:19:44Z</time>
      </trkpt>
      <trkpt lat="40.504051" lon="-4.641144">
        <ele>1425.683</ele>
        <time>2023-01-04T12:20:24Z</time>
      </trkpt>
      <trkpt lat="40.504043" lon="-4.638569">
        <ele>1415.311</ele>
        <time>2023-01-04T12:21:04Z</time>
      </trkpt>
      <trkpt lat="40.503782" lon="-4.637368">
        <ele>1407.109</ele>
        <time>2023-01-04T12:21:44Z</time>
      </trkpt>
      <trkpt lat="40.503407" lon="-4.636842">
        <ele>1405.017</ele>
        <time>2023-01-04T12:22:24Z</time>
      </trkpt>
      <trkpt lat="40.502926" lon="-4.635855">
        <ele>1401.048</ele>
        <time>2023-01-04T12:23:04Z</time>
      </trkpt>
      <trkpt lat="40.502322" lon="-4.634771">
        <ele>1403.238</ele>
        <time>2023-01-04T12:23:44Z</time>
      </trkpt>
      <trkpt lat="40.501816" lon="-4.634321">
        <ele>1403.061</ele>
        <time>2023-01-04T12:24:24Z</time>
      </trkpt>
      <trkpt lat="40.501335" lon="-4.633366">
        <ele>1403.494</ele>
        <time>2023-01-04T12:25:04Z</time>
      </trkpt>
      <trkpt lat="40.500649" lon="-4.632400">
        <ele>1403.059</ele>
        <time>2023-01-04T12:25:44Z</time>
      </trkpt>
      <trkpt lat="40.500299" lon="-4.631413">
        <ele>1404.863</ele>
        <time>2023-01-04T12:26:24Z</time>
      </trkpt>
      <trkpt lat="40.499899" lon="-4.630491">
        <ele>1402.174</ele>
        <time>2023-01-04T12:27:04Z</time>
      </trkpt>
      <trkpt lat="40.499670" lon="-4.629589">
        <ele>1395.299</ele>
        <time>2023-01-04T12:27:44Z</time>
      </trkpt>
      <trkpt lat="40.499246" lon="-4.628356">
        <ele>1383.341</ele>
        <time>2023-01-04T12:28:24Z</time>
      </trkpt>
      <trkpt lat="40.499075" lon="-4.627422">
        <ele>1374.981</ele>
        <time>2023-01-04T12:29:04Z</time>
      </trkpt>
      <trkpt lat="40.498789" lon="-4.626178">
        <ele>1360.909</ele>
        <time>2023-01-04T12:29:44Z</time>
      </trkpt>
      <trkpt lat="40.498463" lon="-4.625641">
        <ele>1353.609</ele>
        <time>2023-01-04T12:30:24Z</time>
      </trkpt>
      <trkpt lat="40.498341" lon="-4.624043">
        <ele>1342.165</ele>
        <time>2023-01-04T12:31:04Z</time>
      </trkpt>
      <trkpt lat="40.497647" lon="-4.623474">
        <ele>1344.166</ele>
        <time>2023-01-04T12:31:44Z</time>
      </trkpt>
      <trkpt lat="40.497239" lon="-4.622916">
        <ele>1345.836</ele>
        <time>2023-01-04T12:32:24Z</time>
      </trkpt>
      <trkpt lat="40.497149" lon="-4.621714">
        <ele>1340.249</ele>
        <time>2023-01-04T12:33:04Z</time>
      </trkpt>
      <trkpt lat="40.496864" lon="-4.620974">
        <ele>1337.252</ele>
        <time>2023-01-04T12:33:44Z</time>
      </trkpt>
      <trkpt lat="40.496744" lon="-4.620966">
        <ele>1336.887</ele>
        <time>2023-01-04T12:34:24Z</time>
      </trkpt>
      <trkpt lat="40.496589" lon="-4.620979">
        <ele>1336.181</ele>
        <time>2023-01-04T12:35:04Z</time>
      </trkpt>
      <trkpt lat="40.496413" lon="-4.620837">
        <ele>1334.292</ele>
        <time>2023-01-04T12:35:44Z</time>
      </trkpt>
      <trkpt lat="40.496252" lon="-4.620700">
        <ele>1331.817</ele>
        <time>2023-01-04T12:36:24Z</time>
      </trkpt>
      <trkpt lat="40.495999" lon="-4.620556">
        <ele>1328.227</ele>
        <time>2023-01-04T12:37:04Z</time>
      </trkpt>
      <trkpt lat="40.494963" lon="-4.621264">
        <ele>1322.668</ele>
        <time>2023-01-04T12:37:44Z</time>
      </trkpt>
      <trkpt lat="40.494400" lon="-4.622015">
        <ele>1318.514</ele>
        <time>2023-01-04T12:38:24Z</time>
      </trkpt>
      <trkpt lat="40.493788" lon="-4.623399">
        <ele>1308.009</ele>
        <time>2023-01-04T12:39:04Z</time>
      </trkpt>
      <trkpt lat="40.492940" lon="-4.624525">
        <ele>1287.823</ele>
        <time>2023-01-04T12:39:44Z</time>
      </trkpt>
      <trkpt lat="40.492321" lon="-4.625140">
        <ele>1281.914</ele>
        <time>2023-01-04T12:40:24Z</time>
      </trkpt>
      <trkpt lat="40.491722" lon="-4.625665">
        <ele>1280.364</ele>
        <time>2023-01-04T12:41:04Z</time>
      </trkpt>
      <trkpt lat="40.491230" lon="-4.626231">
        <ele>1279.147</ele>
        <time>2023-01-04T12:41:44Z</time>
      </trkpt>
      <trkpt lat="40.490549" lon="-4.626604">
        <ele>1270.630</ele>
        <time>2023-01-04T12:42:24Z</time>
      </trkpt>
      <trkpt lat="40.490282" lon="-4.626757">
        <ele>1263.575</ele>
        <time>2023-01-04T12:43:04Z</time>
      </trkpt>
      <trkpt lat="40.490141" lon="-4.627132">
        <ele>1260.449</ele>
        <time>2023-01-04T12:43:44Z</time>
      </trkpt>
      <trkpt lat="40.489841" lon="-4.626966">
        <ele>1252.590</ele>
        <time>2023-01-04T12:44:24Z</time>
      </trkpt>
      <trkpt lat="40.489780" lon="-4.626743">
        <ele>1251.225</ele>
        <time>2023-01-04T12:45:04Z</time>
      </trkpt>
      <trkpt lat="40.489853" lon="-4.626414">
        <ele>1248.788</ele>
        <time>2023-01-04T12:45:44Z</time>
      </trkpt>
      <trkpt lat="40.489780" lon="-4.626288">
        <ele>1243.724</ele>
        <time>2023-01-04T12:46:24Z</time>
      </trkpt>
      <trkpt lat="40.489586" lon="-4.626288">
        <ele>1239.526</ele>
        <time>2023-01-04T12:47:04Z</time>
      </trkpt>
      <trkpt lat="40.489366" lon="-4.626341">
        <ele>1235.809</ele>
        <time>2023-01-04T12:47:44Z</time>
      </trkpt>
      <trkpt lat="40.488882" lon="-4.626996">
        <ele>1230.329</ele>
        <time>2023-01-04T12:48:24Z</time>
      </trkpt>
      <trkpt lat="40.488493" lon="-4.627368">
        <ele>1222.290</ele>
        <time>2023-01-04T12:49:04Z</time>
      </trkpt>
      <trkpt lat="40.488331" lon="-4.627613">
        <ele>1217.050</ele>
        <time>2023-01-04T12:49:44Z</time>
      </trkpt>
      <trkpt lat="40.488876" lon="-4.628136">
        <ele>1210.293</ele>
        <time>2023-01-04T12:50:24Z</time>
      </trkpt>
      <trkpt lat="40.488843" lon="-4.628543">
        <ele>1206.496</ele>
        <time>2023-01-04T12:51:04Z</time>
      </trkpt>
      <trkpt lat="40.488713" lon="-4.629195">
        <ele>1208.461</ele>
        <time>2023-01-04T12:51:44Z</time>
      </trkpt>
      <trkpt lat="40.488207" lon="-4.630091">
        <ele>1202.075</ele>
        <time>2023-01-04T12:52:24Z</time>
      </trkpt>
      <trkpt lat="40.487805" lon="-4.630539">
        <ele>1197.566</ele>
        <time>2023-01-04T12:53:04Z</time>
      </trkpt>
      <trkpt lat="40.487363" lon="-4.631107">
        <ele>1193.551</ele>
        <time>2023-01-04T12:53:44Z</time>
      </trkpt>
      <trkpt lat="40.487279" lon="-4.632100">
        <ele>1188.533</ele>
        <time>2023-01-04T12:54:24Z</time>
      </trkpt>
      <trkpt lat="40.486944" lon="-4.632626">
        <ele>1177.623</ele>
        <time>2023-01-04T12:55:04Z</time>
      </trkpt>
      <trkpt lat="40.486502" lon="-4.633127">
        <ele>1168.515</ele>
        <time>2023-01-04T12:55:44Z</time>
      </trkpt>
      <trkpt lat="40.486141" lon="-4.633548">
        <ele>1159.709</ele>
        <time>2023-01-04T12:56:24Z</time>
      </trkpt>
      <trkpt lat="40.485855" lon="-4.633900">
        <ele>1153.844</ele>
        <time>2023-01-04T12:57:04Z</time>
      </trkpt>
      <trkpt lat="40.484986" lon="-4.634323">
        <ele>1136.745</ele>
        <time>2023-01-04T12:57:44Z</time>
      </trkpt>
      <trkpt lat="40.485039" lon="-4.634798">
        <ele>1134.455</ele>
        <time>2023-01-04T12:58:24Z</time>
      </trkpt>
      <trkpt lat="40.485261" lon="-4.635834">
        <ele>1138.478</ele>
        <time>2023-01-04T12:59:04Z</time>
      </trkpt>
      <trkpt lat="40.484808" lon="-4.636059">
        <ele>1126.171</ele>
        <time>2023-01-04T12:59:44Z</time>
      </trkpt>
      <trkpt lat="40.484280" lon="-4.636981">
        <ele>1112.836</ele>
        <time>2023-01-04T13:00:24Z</time>
      </trkpt>
      <trkpt lat="40.483921" lon="-4.637467">
        <ele>1106.650</ele>
        <time>2023-01-04T13:01:04Z</time>
      </trkpt>
      <trkpt lat="40.483521" lon="-4.637842">
        <ele>1096.551</ele>
        <time>2023-01-04T13:01:44Z</time>
      </trkpt>
      <trkpt lat="40.482921" lon="-4.638427">
        <ele>1084.196</ele>
        <time>2023-01-04T13:02:24Z</time>
      </trkpt>
      <trkpt lat="40.482462" lon="-4.639071">
        <ele>1072.027</ele>
        <time>2023-01-04T13:03:04Z</time>
      </trkpt>
      <trkpt lat="40.481832" lon="-4.640023">
        <ele>1065.068</ele>
        <time>2023-01-04T13:03:44Z</time>
      </trkpt>
      <trkpt lat="40.481585" lon="-4.640460">
        <ele>1065.114</ele>
        <time>2023-01-04T13:04:24Z</time>
      </trkpt>
      <trkpt lat="40.481159" lon="-4.640884">
        <ele>1052.409</ele>
        <time>2023-01-04T13:05:04Z</time>
      </trkpt>
      <trkpt lat="40.480577" lon="-4.641748">
        <ele>1042.833</ele>
        <time>2023-01-04T13:05:44Z</time>
      </trkpt>
      <trkpt lat="40.480571" lon="-4.640597">
        <ele>1038.544</ele>
        <time>2023-01-04T13:06:24Z</time>
      </trkpt>
      <trkpt lat="40.480906" lon="-4.639766">
        <ele>1041.274</ele>
        <time>2023-01-04T13:07:04Z</time>
      </trkpt>
      <trkpt lat="40.480810" lon="-4.638277">
        <ele>1030.637</ele>
        <time>2023-01-04T13:07:44Z</time>
      </trkpt>
      <trkpt lat="40.480822" lon="-4.637711">
        <ele>1028.640</ele>
        <time>2023-01-04T13:08:24Z</time>
      </trkpt>
      <trkpt lat="40.480626" lon="-4.636971">
        <ele>1023.345</ele>
        <time>2023-01-04T13:09:04Z</time>
      </trkpt>
      <trkpt lat="40.481287" lon="-4.635512">
        <ele>1028.779</ele>
        <time>2023-01-04T13:09:44Z</time>
      </trkpt>
      <trkpt lat="40.480422" lon="-4.635233">
        <ele>1020.240</ele>
        <time>2023-01-04T13:10:24Z</time>
      </trkpt>
      <trkpt lat="40.480120" lon="-4.634567">
        <ele>1011.545</ele>
        <time>2023-01-04T13:11:04Z</time>
      </trkpt>
      <trkpt lat="40.479435" lon="-4.633934">
        <ele>1001.135</ele>
        <time>2023-01-04T13:11:44Z</time>
      </trkpt>
      <trkpt lat="40.478676" lon="-4.633055">
        <ele>994.586</ele>
        <time>2023-01-04T13:12:24Z</time>
      </trkpt>
      <trkpt lat="40.478594" lon="-4.632829">
        <ele>993.114</ele>
        <time>2023-01-04T13:13:04Z</time>
      </trkpt>
      <trkpt lat="40.479496" lon="-4.630179">
        <ele>995.009</ele>
        <time>2023-01-04T13:13:44Z</time>
      </trkpt>
      <trkpt lat="40.479594" lon="-4.629868">
        <ele>994.694</ele>
        <time>2023-01-04T13:14:24Z</time>
      </trkpt>
      <trkpt lat="40.480202" lon="-4.628023">
        <ele>996.125</ele>
        <time>2023-01-04T13:15:04Z</time>
      </trkpt>
      <trkpt lat="40.480267" lon="-4.627014">
        <ele>996.775</ele>
        <time>2023-01-04T13:15:44Z</time>
      </trkpt>
      <trkpt lat="40.480226" lon="-4.625469">
        <ele>999.678</ele>
        <time>2023-01-04T13:16:24Z</time>
      </trkpt>
      <trkpt lat="40.480210" lon="-4.624429">
        <ele>1000.841</ele>
        <time>2023-01-04T13:17:04Z</time>
      </trkpt>
      <trkpt lat="40.480308" lon="-4.623216">
        <ele>1002.456</ele>
        <time>2023-01-04T13:17:44Z</time>
      </trkpt>
      <trkpt lat="40.480177" lon="-4.622197">
        <ele>995.540</ele>
        <time>2023-01-04T13:18:24Z</time>
      </trkpt>
      <trkpt lat="40.479982" lon="-4.621661">
        <ele>992.031</ele>
        <time>2023-01-04T13:19:04Z</time>
      </trkpt>
      <trkpt lat="40.479720" lon="-4.621392">
        <ele>990.056</ele>
        <time>2023-01-04T13:19:44Z</time>
      </trkpt>
      <trkpt lat="40.479753" lon="-4.620008">
        <ele>986.997</ele>
        <time>2023-01-04T13:20:24Z</time>
      </trkpt>
      <trkpt lat="40.479778" lon="-4.618946">
        <ele>984.023</ele>
        <time>2023-01-04T13:21:04Z</time>
      </trkpt>
      <trkpt lat="40.479720" lon="-4.618238">
        <ele>982.725</ele>
        <time>2023-01-04T13:21:44Z</time>
      </trkpt>
      <trkpt lat="40.479549" lon="-4.617605">
        <ele>980.809</ele>
        <time>2023-01-04T13:22:24Z</time>
      </trkpt>
      <trkpt lat="40.479614" lon="-4.615996">
        <ele>977.090</ele>
        <time>2023-01-04T13:23:04Z</time>
      </trkpt>
      <trkpt lat="40.479655" lon="-4.614687">
        <ele>974.431</ele>
        <time>2023-01-04T13:23:44Z</time>
      </trkpt>
      <trkpt lat="40.479500" lon="-4.614065">
        <ele>973.181</ele>
        <time>2023-01-04T13:24:24Z</time>
      </trkpt>
      <trkpt lat="40.478921" lon="-4.613571">
        <ele>970.924</ele>
        <time>2023-01-04T13:25:04Z</time>
      </trkpt>
      <trkpt lat="40.478570" lon="-4.613013">
        <ele>966.687</ele>
        <time>2023-01-04T13:25:44Z</time>
      </trkpt>
      <trkpt lat="40.478349" lon="-4.612552">
        <ele>964.282</ele>
        <time>2023-01-04T13:26:24Z</time>
      </trkpt>
      <trkpt lat="40.478170" lon="-4.611640">
        <ele>962.346</ele>
        <time>2023-01-04T13:27:04Z</time>
      </trkpt>
      <trkpt lat="40.477745" lon="-4.610857">
        <ele>959.877</ele>
        <time>2023-01-04T13:27:44Z</time>
      </trkpt>
      <trkpt lat="40.477982" lon="-4.608582">
        <ele>963.452</ele>
        <time>2023-01-04T13:28:24Z</time>
      </trkpt>
      <trkpt lat="40.478398" lon="-4.607102">
        <ele>963.915</ele>
        <time>2023-01-04T13:29:04Z</time>
      </trkpt>
      <trkpt lat="40.478251" lon="-4.605471">
        <ele>965.865</ele>
        <time>2023-01-04T13:29:44Z</time>
      </trkpt>
      <trkpt lat="40.478096" lon="-4.602842">
        <ele>971.611</ele>
        <time>2023-01-04T13:30:24Z</time>
      </trkpt>
      <trkpt lat="40.478284" lon="-4.601405">
        <ele>973.509</ele>
        <time>2023-01-04T13:31:04Z</time>
      </trkpt>
      <trkpt lat="40.478529" lon="-4.600042">
        <ele>967.512</ele>
        <time>2023-01-04T13:31:44Z</time>
      </trkpt>
      <trkpt lat="40.479092" lon="-4.598733">
        <ele>958.343</ele>
        <time>2023-01-04T13:32:24Z</time>
      </trkpt>
      <trkpt lat="40.479280" lon="-4.597231">
        <ele>949.513</ele>
        <time>2023-01-04T13:33:04Z</time>
      </trkpt>
      <trkpt lat="40.478994" lon="-4.594603">
        <ele>932.156</ele>
        <time>2023-01-04T13:33:44Z</time>
      </trkpt>
      <trkpt lat="40.478700" lon="-4.593004">
        <ele>927.269</ele>
        <time>2023-01-04T13:34:24Z</time>
      </trkpt>
      <trkpt lat="40.478362" lon="-4.591153">
        <ele>920.594</ele>
        <time>2023-01-04T13:35:04Z</time>
      </trkpt>
      <trkpt lat="40.478166" lon="-4.589936">
        <ele>920.468</ele>
        <time>2023-01-04T13:35:44Z</time>
      </trkpt>
      <trkpt lat="40.478019" lon="-4.589450">
        <ele>919.729</ele>
        <time>2023-01-04T13:36:24Z</time>
      </trkpt>
      <trkpt lat="40.477852" lon="-4.589101">
        <ele>917.584</ele>
        <time>2023-01-04T13:37:04Z</time>
      </trkpt>
      <trkpt lat="40.477739" lon="-4.588839">
        <ele>916.749</ele>
        <time>2023-01-04T13:37:44Z</time>
      </trkpt>
      <trkpt lat="40.477537" lon="-4.588586">
        <ele>915.302</ele>
        <time>2023-01-04T13:38:24Z</time>
      </trkpt>
      <trkpt lat="40.477264" lon="-4.587237">
        <ele>910.522</ele>
        <time>2023-01-04T13:39:04Z</time>
      </trkpt>
      <trkpt lat="40.477158" lon="-4.586679">
        <ele>908.309</ele>
        <time>2023-01-04T13:39:44Z</time>
      </trkpt>
      <trkpt lat="40.476962" lon="-4.586355">
        <ele>905.295</ele>
        <time>2023-01-04T13:40:24Z</time>
      </trkpt>
      <trkpt lat="40.476756" lon="-4.586084">
        <ele>903.136</ele>
        <time>2023-01-04T13:41:04Z</time>
      </trkpt>
      <trkpt lat="40.476499" lon="-4.585832">
        <ele>902.226</ele>
        <time>2023-01-04T13:41:44Z</time>
      </trkpt>
      <trkpt lat="40.476219" lon="-4.585515">
        <ele>904.579</ele>
        <time>2023-01-04T13:42:24Z</time>
      </trkpt>
      <trkpt lat="40.475960" lon="-4.585255">
        <ele>907.292</ele>
        <time>2023-01-04T13:43:04Z</time>
      </trkpt>
      <trkpt lat="40.475719" lon="-4.584914">
        <ele>909.747</ele>
        <time>2023-01-04T13:43:44Z</time>
      </trkpt>
      <trkpt lat="40.475413" lon="-4.584652">
        <ele>909.571</ele>
        <time>2023-01-04T13:44:24Z</time>
      </trkpt>
      <trkpt lat="40.475271" lon="-4.584558">
        <ele>908.972</ele>
        <time>2023-01-04T13:45:04Z</time>
      </trkpt>
      <trkpt lat="40.474799" lon="-4.584078">
        <ele>901.637</ele>
        <time>2023-01-04T13:45:44Z</time>
      </trkpt>
      <trkpt lat="40.474501" lon="-4.584013">
        <ele>898.026</ele>
        <time>2023-01-04T13:46:24Z</time>
      </trkpt>
      <trkpt lat="40.474355" lon="-4.583796">
        <ele>896.447</ele>
        <time>2023-01-04T13:47:04Z</time>
      </trkpt>
      <trkpt lat="40.474220" lon="-4.583630">
        <ele>895.411</ele>
        <time>2023-01-04T13:47:44Z</time>
      </trkpt>
      <trkpt lat="40.473936" lon="-4.583619">
        <ele>892.509</ele>
        <time>2023-01-04T13:48:24Z</time>
      </trkpt>
      <trkpt lat="40.473846" lon="-4.583466">
        <ele>892.143</ele>
        <time>2023-01-04T13:49:04Z</time>
      </trkpt>
      <trkpt lat="40.473642" lon="-4.583249">
        <ele>891.214</ele>
        <time>2023-01-04T13:49:44Z</time>
      </trkpt>
      <trkpt lat="40.473459" lon="-4.582983">
        <ele>890.654</ele>
        <time>2023-01-04T13:50:24Z</time>
      </trkpt>
      <trkpt lat="40.473171" lon="-4.582844">
        <ele>888.227</ele>
        <time>2023-01-04T13:51:04Z</time>
      </trkpt>
      <trkpt lat="40.472924" lon="-4.582916">
        <ele>887.020</ele>
        <time>2023-01-04T13:51:44Z</time>
      </trkpt>
      <trkpt lat="40.472739" lon="-4.582828">
        <ele>886.535</ele>
        <time>2023-01-04T13:52:24Z</time>
      </trkpt>
      <trkpt lat="40.472655" lon="-4.582677">
        <ele>886.539</ele>
        <time>2023-01-04T13:53:04Z</time>
      </trkpt>
      <trkpt lat="40.472555" lon="-4.582449">
        <ele>886.630</ele>
        <time>2023-01-04T13:53:44Z</time>
      </trkpt>
      <trkpt lat="40.472332" lon="-4.582044">
        <ele>888.725</ele>
        <time>2023-01-04T13:54:24Z</time>
      </trkpt>
      <trkpt lat="40.472192" lon="-4.581621">
        <ele>888.717</ele>
        <time>2023-01-04T13:55:04Z</time>
      </trkpt>
      <trkpt lat="40.472055" lon="-4.581197">
        <ele>887.587</ele>
        <time>2023-01-04T13:55:44Z</time>
      </trkpt>
      <trkpt lat="40.472008" lon="-4.581017">
        <ele>887.515</ele>
        <time>2023-01-04T13:56:24Z</time>
      </trkpt>
      <trkpt lat="40.471841" lon="-4.580728">
        <ele>886.609</ele>
        <time>2023-01-04T13:57:04Z</time>
      </trkpt>
      <trkpt lat="40.471437" lon="-4.580229">
        <ele>884.532</ele>
        <time>2023-01-04T13:57:44Z</time>
      </trkpt>
      <trkpt lat="40.471167" lon="-4.579955">
        <ele>882.483</ele>
        <time>2023-01-04T13:58:24Z</time>
      </trkpt>
      <trkpt lat="40.470884" lon="-4.579711">
        <ele>880.463</ele>
        <time>2023-01-04T13:59:04Z</time>
      </trkpt>
      <trkpt lat="40.470735" lon="-4.579542">
        <ele>880.046</ele>
        <time>2023-01-04T13:59:44Z</time>
      </trkpt>
      <trkpt lat="40.470574" lon="-4.579558">
        <ele>880.099</ele>
        <time>2023-01-04T14:00:24Z</time>
      </trkpt>
      <trkpt lat="40.470514" lon="-4.579255">
        <ele>879.144</ele>
        <time>2023-01-04T14:01:04Z</time>
      </trkpt>
      <trkpt lat="40.470337" lon="-4.579065">
        <ele>877.198</ele>
        <time>2023-01-04T14:01:44Z</time>
      </trkpt>
      <trkpt lat="40.470166" lon="-4.578705">
        <ele>876.359</ele>
        <time>2023-01-04T14:02:24Z</time>
      </trkpt>
      <trkpt lat="40.469976" lon="-4.578533">
        <ele>875.434</ele>
        <time>2023-01-04T14:03:04Z</time>
      </trkpt>
      <trkpt lat="40.469859" lon="-4.578158">
        <ele>876.447</ele>
        <time>2023-01-04T14:03:44Z</time>
      </trkpt>
      <trkpt lat="40.469586" lon="-4.577836">
        <ele>875.329</ele>
        <time>2023-01-04T14:04:24Z</time>
      </trkpt>
      <trkpt lat="40.469513" lon="-4.577790">
        <ele>874.721</ele>
        <time>2023-01-04T14:05:04Z</time>
      </trkpt>
      <trkpt lat="40.469135" lon="-4.577796">
        <ele>869.309</ele>
        <time>2023-01-04T14:05:44Z</time>
      </trkpt>
      <trkpt lat="40.468868" lon="-4.577957">
        <ele>864.035</ele>
        <time>2023-01-04T14:06:24Z</time>
      </trkpt>
      <trkpt lat="40.468729" lon="-4.577871">
        <ele>862.096</ele>
        <time>2023-01-04T14:07:04Z</time>
      </trkpt>
      <trkpt lat="40.468647" lon="-4.577761">
        <ele>860.816</ele>
        <time>2023-01-04T14:07:44Z</time>
      </trkpt>
      <trkpt lat="40.468584" lon="-4.577780">
        <ele>859.649</ele>
        <time>2023-01-04T14:08:24Z</time>
      </trkpt>
      <trkpt lat="40.468623" lon="-4.578166">
        <ele>860.262</ele>
        <time>2023-01-04T14:09:04Z</time>
      </trkpt>
      <trkpt lat="40.468678" lon="-4.578378">
        <ele>860.677</ele>
        <time>2023-01-04T14:09:44Z</time>
      </trkpt>
      <trkpt lat="40.468556" lon="-4.578499">
        <ele>859.921</ele>
        <time>2023-01-04T14:10:24Z</time>
      </trkpt>
      <trkpt lat="40.468488" lon="-4.578450">
        <ele>859.892</ele>
        <time>2023-01-04T14:11:04Z</time>
      </trkpt>
      <trkpt lat="40.468280" lon="-4.578196">
        <ele>858.287</ele>
        <time>2023-01-04T14:11:44Z</time>
      </trkpt>
      <trkpt lat="40.468133" lon="-4.578225">
        <ele>856.362</ele>
        <time>2023-01-04T14:12:24Z</time>
      </trkpt>
      <trkpt lat="40.467952" lon="-4.578335">
        <ele>854.983</ele>
        <time>2023-01-04T14:13:04Z</time>
      </trkpt>
      <trkpt lat="40.467574" lon="-4.578665">
        <ele>851.711</ele>
        <time>2023-01-04T14:13:44Z</time>
      </trkpt>
      <trkpt lat="40.467458" lon="-4.578601">
        <ele>850.509</ele>
        <time>2023-01-04T14:14:24Z</time>
      </trkpt>
      <trkpt lat="40.467392" lon="-4.578413">
        <ele>849.367</ele>
        <time>2023-01-04T14:15:04Z</time>
      </trkpt>
      <trkpt lat="40.467237" lon="-4.578102">
        <ele>844.668</ele>
        <time>2023-01-04T14:15:44Z</time>
      </trkpt>
      <trkpt lat="40.466931" lon="-4.577718">
        <ele>840.478</ele>
        <time>2023-01-04T14:16:24Z</time>
      </trkpt>
      <trkpt lat="40.466652" lon="-4.577450">
        <ele>841.131</ele>
        <time>2023-01-04T14:17:04Z</time>
      </trkpt>
      <trkpt lat="40.466384" lon="-4.577455">
        <ele>839.154</ele>
        <time>2023-01-04T14:17:44Z</time>
      </trkpt>
      <trkpt lat="40.465858" lon="-4.577968">
        <ele>831.079</ele>
        <time>2023-01-04T14:18:24Z</time>
      </trkpt>
      <trkpt lat="40.465880" lon="-4.578177">
        <ele>828.863</ele>
        <time>2023-01-04T14:19:04Z</time>
      </trkpt>
      <trkpt lat="40.465991" lon="-4.578810">
        <ele>822.834</ele>
        <time>2023-01-04T14:19:44Z</time>
      </trkpt>
      <trkpt lat="40.465719" lon="-4.578987">
        <ele>820.039</ele>
        <time>2023-01-04T14:20:24Z</time>
      </trkpt>
      <trkpt lat="40.465487" lon="-4.579030">
        <ele>819.932</ele>
        <time>2023-01-04T14:21:04Z</time>
      </trkpt>
      <trkpt lat="40.465156" lon="-4.579153">
        <ele>816.492</ele>
        <time>2023-01-04T14:21:44Z</time>
      </trkpt>
      <trkpt lat="40.464591" lon="-4.579491">
        <ele>811.411</ele>
        <time>2023-01-04T14:22:24Z</time>
      </trkpt>
      <trkpt lat="40.464244" lon="-4.579641">
        <ele>810.409</ele>
        <time>2023-01-04T14:23:04Z</time>
      </trkpt>
      <trkpt lat="40.463883" lon="-4.580041">
        <ele>812.114</ele>
        <time>2023-01-04T14:23:44Z</time>
      </trkpt>
      <trkpt lat="40.463717" lon="-4.580384">
        <ele>810.565</ele>
        <time>2023-01-04T14:24:24Z</time>
      </trkpt>
      <trkpt lat="40.463472" lon="-4.580687">
        <ele>806.365</ele>
        <time>2023-01-04T14:25:04Z</time>
      </trkpt>
      <trkpt lat="40.463258" lon="-4.580674">
        <ele>802.288</ele>
        <time>2023-01-04T14:25:44Z</time>
      </trkpt>
      <trkpt lat="40.462997" lon="-4.580827">
        <ele>797.661</ele>
        <time>2023-01-04T14:26:24Z</time>
      </trkpt>
      <trkpt lat="40.462979" lon="-4.581071">
        <ele>797.296</ele>
        <time>2023-01-04T14:27:04Z</time>
      </trkpt>
      <trkpt lat="40.462779" lon="-4.581202">
        <ele>795.040</ele>
        <time>2023-01-04T14:27:44Z</time>
      </trkpt>
      <trkpt lat="40.462181" lon="-4.581385">
        <ele>788.721</ele>
        <time>2023-01-04T14:28:24Z</time>
      </trkpt>
      <trkpt lat="40.461601" lon="-4.581562">
        <ele>783.456</ele>
        <time>2023-01-04T14:29:04Z</time>
      </trkpt>
      <trkpt lat="40.461630" lon="-4.581929">
        <ele>782.579</ele>
        <time>2023-01-04T14:29:44Z</time>
      </trkpt>
      <trkpt lat="40.461422" lon="-4.583104">
        <ele>778.405</ele>
        <time>2023-01-04T14:30:24Z</time>
      </trkpt>
      <trkpt lat="40.461168" lon="-4.582755">
        <ele>774.025</ele>
        <time>2023-01-04T14:31:04Z</time>
      </trkpt>
      <trkpt lat="40.460524" lon="-4.581417">
        <ele>771.709</ele>
        <time>2023-01-04T14:31:44Z</time>
      </trkpt>
      <trkpt lat="40.460352" lon="-4.581020">
        <ele>771.438</ele>
        <time>2023-01-04T14:32:24Z</time>
      </trkpt>
      <trkpt lat="40.459960" lon="-4.580666">
        <ele>767.569</ele>
        <time>2023-01-04T14:33:04Z</time>
      </trkpt>
      <trkpt lat="40.459332" lon="-4.580505">
        <ele>760.499</ele>
        <time>2023-01-04T14:33:44Z</time>
      </trkpt>
      <trkpt lat="40.459185" lon="-4.579732">
        <ele>764.262</ele>
        <time>2023-01-04T14:34:24Z</time>
      </trkpt>
      <trkpt lat="40.457707" lon="-4.579346">
        <ele>753.745</ele>
        <time>2023-01-04T14:35:04Z</time>
      </trkpt>
      <trkpt lat="40.456058" lon="-4.578692">
        <ele>760.230</ele>
        <time>2023-01-04T14:35:44Z</time>
      </trkpt>
      <trkpt lat="40.456238" lon="-4.578155">
        <ele>758.144</ele>
        <time>2023-01-04T14:36:24Z</time>
      </trkpt>
      <trkpt lat="40.456222" lon="-4.576653">
        <ele>755.395</ele>
        <time>2023-01-04T14:37:04Z</time>
      </trkpt>
      <trkpt lat="40.455977" lon="-4.575258">
        <ele>760.020</ele>
        <time>2023-01-04T14:37:44Z</time>
      </trkpt>
      <trkpt lat="40.455503" lon="-4.573896">
        <ele>756.654</ele>
        <time>2023-01-04T14:38:24Z</time>
      </trkpt>
      <trkpt lat="40.454842" lon="-4.572040">
        <ele>751.756</ele>
        <time>2023-01-04T14:39:04Z</time>
      </trkpt>
      <trkpt lat="40.454401" lon="-4.570924">
        <ele>753.511</ele>
        <time>2023-01-04T14:39:44Z</time>
      </trkpt>
      <trkpt lat="40.453636" lon="-4.569422">
        <ele>755.809</ele>
        <time>2023-01-04T14:40:24Z</time>
      </trkpt>
      <trkpt lat="40.453076" lon="-4.568376">
        <ele>746.316</ele>
        <time>2023-01-04T14:41:04Z</time>
      </trkpt>
      <trkpt lat="40.452672" lon="-4.567493">
        <ele>741.687</ele>
        <time>2023-01-04T14:41:44Z</time>
      </trkpt>
      <trkpt lat="40.452417" lon="-4.566847">
        <ele>739.927</ele>
        <time>2023-01-04T14:42:24Z</time>
      </trkpt>
      <trkpt lat="40.452113" lon="-4.566107">
        <ele>737.450</ele>
        <time>2023-01-04T14:43:04Z</time>
      </trkpt>
      <trkpt lat="40.451895" lon="-4.565412">
        <ele>734.693</ele>
        <time>2023-01-04T14:43:44Z</time>
      </trkpt>
      <trkpt lat="40.451715" lon="-4.565149">
        <ele>733.248</ele>
        <time>2023-01-04T14:44:24Z</time>
      </trkpt>
      <trkpt lat="40.451533" lon="-4.564972">
        <ele>730.542</ele>
        <time>2023-01-04T14:45:04Z</time>
      </trkpt>
      <trkpt lat="40.451264" lon="-4.565299">
        <ele>731.783</ele>
        <time>2023-01-04T14:45:44Z</time>
      </trkpt>
      <trkpt lat="40.451068" lon="-4.565082">
        <ele>729.998</ele>
        <time>2023-01-04T14:46:24Z</time>
      </trkpt>
      <trkpt lat="40.450907" lon="-4.564857">
        <ele>729.725</ele>
        <time>2023-01-04T14:47:04Z</time>
      </trkpt>
      <trkpt lat="40.450619" lon="-4.564970">
        <ele>730.726</ele>
        <time>2023-01-04T14:47:44Z</time>
      </trkpt>
      <trkpt lat="40.450258" lon="-4.564929">
        <ele>730.108</ele>
        <time>2023-01-04T14:48:24Z</time>
      </trkpt>
      <trkpt lat="40.449872" lon="-4.565404">
        <ele>731.409</ele>
        <time>2023-01-04T14:49:04Z</time>
      </trkpt>
      <trkpt lat="40.449762" lon="-4.565104">
        <ele>730.183</ele>
        <time>2023-01-04T14:49:44Z</time>
      </trkpt>
      <trkpt lat="40.449574" lon="-4.565082">
        <ele>731.484</ele>
        <time>2023-01-04T14:50:24Z</time>
      </trkpt>
      <trkpt lat="40.449347" lon="-4.565012">
        <ele>732.064</ele>
        <time>2023-01-04T14:51:04Z</time>
      </trkpt>
      <trkpt lat="40.449041" lon="-4.564843">
        <ele>730.817</ele>
        <time>2023-01-04T14:51:44Z</time>
      </trkpt>
      <trkpt lat="40.448858" lon="-4.565074">
        <ele>730.070</ele>
        <time>2023-01-04T14:52:24Z</time>
      </trkpt>
      <trkpt lat="40.448829" lon="-4.565369">
        <ele>730.975</ele>
        <time>2023-01-04T14:53:04Z</time>
      </trkpt>
      <trkpt lat="40.448484" lon="-4.565372">
        <ele>728.799</ele>
        <time>2023-01-04T14:53:44Z</time>
      </trkpt>
      <trkpt lat="40.448429" lon="-4.565994">
        <ele>729.260</ele>
        <time>2023-01-04T14:54:24Z</time>
      </trkpt>
      <trkpt lat="40.448233" lon="-4.566372">
        <ele>728.685</ele>
        <time>2023-01-04T14:55:04Z</time>
      </trkpt>
      <trkpt lat="40.448096" lon="-4.567284">
        <ele>731.395</ele>
        <time>2023-01-04T14:55:44Z</time>
      </trkpt>
      <trkpt lat="40.447910" lon="-4.566960">
        <ele>730.249</ele>
        <time>2023-01-04T14:56:24Z</time>
      </trkpt>
      <trkpt lat="40.447615" lon="-4.566708">
        <ele>729.623</ele>
        <time>2023-01-04T14:57:04Z</time>
      </trkpt>
      <trkpt lat="40.447339" lon="-4.566469">
        <ele>728.609</ele>
        <time>2023-01-04T14:57:44Z</time>
      </trkpt>
      <trkpt lat="40.446512" lon="-4.566962">
        <ele>728.030</ele>
        <time>2023-01-04T14:58:24Z</time>
      </trkpt>
      <trkpt lat="40.446341" lon="-4.567480">
        <ele>728.091</ele>
        <time>2023-01-04T14:59:04Z</time>
      </trkpt>
      <trkpt lat="40.446112" lon="-4.567721">
        <ele>728.011</ele>
        <time>2023-01-04T14:59:44Z</time>
      </trkpt>
      <trkpt lat="40.446041" lon="-4.567992">
        <ele>728.694</ele>
        <time>2023-01-04T15:00:24Z</time>
      </trkpt>
      <trkpt lat="40.446026" lon="-4.568448">
        <ele>729.487</ele>
        <time>2023-01-04T15:01:04Z</time>
      </trkpt>
      <trkpt lat="40.445977" lon="-4.568644">
        <ele>729.052</ele>
        <time>2023-01-04T15:01:44Z</time>
      </trkpt>
      <trkpt lat="40.446116" lon="-4.569178">
        <ele>730.176</ele>
        <time>2023-01-04T15:02:24Z</time>
      </trkpt>
      <trkpt lat="40.445922" lon="-4.569500">
        <ele>730.317</ele>
        <time>2023-01-04T15:03:04Z</time>
      </trkpt>
      <trkpt lat="40.445341" lon="-4.569599">
        <ele>734.382</ele>
        <time>2023-01-04T15:03:44Z</time>
      </trkpt>
      <trkpt lat="40.445261" lon="-4.569634">
        <ele>734.823</ele>
        <time>2023-01-04T15:04:24Z</time>
      </trkpt>
      <trkpt lat="40.444730" lon="-4.568204">
        <ele>733.083</ele>
        <time>2023-01-04T15:05:04Z</time>
      </trkpt>
      <trkpt lat="40.444483" lon="-4.567046">
        <ele>732.311</ele>
        <time>2023-01-04T15:05:44Z</time>
      </trkpt>
      <trkpt lat="40.444367" lon="-4.566236">
        <ele>731.309</ele>
        <time>2023-01-04T15:06:24Z</time>
      </trkpt>
      <trkpt lat="40.444159" lon="-4.565932">
        <ele>731.823</ele>
        <time>2023-01-04T15:07:04Z</time>
      </trkpt>
      <trkpt lat="40.443936" lon="-4.565844">
        <ele>734.474</ele>
        <time>2023-01-04T15:07:44Z</time>
      </trkpt>
    </trkseg>
  </trk>
</gpx>
